<?xml version='1.0' encoding='UTF-8'?><gpx version="1.1" creator="JPX - https://github.com/jenetics/jpx" xmlns="http://www.topografix.com/GPX/1/1"><trk><trkseg><trkpt lat="41.77462885401308" lon="14.099819628549854"><ele>806.0</ele><time>2026-04-12T08:01:59Z</time></trkpt><trkpt lat="41.774644651523715" lon="14.099733092814645"><ele>806.0</ele><time>2026-04-12T08:02:16Z</time></trkpt><trkpt lat="41.77460425227776" lon="14.09965671844368"><ele>806.0</ele><time>2026-04-12T08:02:25.999Z</time></trkpt><trkpt lat="41.77454296569407" lon="14.099598618733275"><ele>806.0</ele><time>2026-04-12T08:02:40.999Z</time></trkpt><trkpt lat="41.77454266695996" lon="14.099511930226516"><ele>806.0</ele><time>2026-04-12T08:02:43.999Z</time></trkpt><trkpt lat="41.77457907231716" lon="14.099423160487703"><ele>806.0</ele><time>2026-04-12T08:02:44.999Z</time></trkpt><trkpt lat="41.77461231024484" lon="14.099335799955266"><ele>806.0</ele><time>2026-04-12T08:02:45.999Z</time></trkpt><trkpt lat="41.77465168701109" lon="14.099241257402012"><ele>806.0000000000001</ele><time>2026-04-12T08:02:46.999Z</time></trkpt><trkpt lat="41.774702655814885" lon="14.099143241235126"><ele>806.0</ele><time>2026-04-12T08:02:47.999Z</time></trkpt><trkpt lat="41.77475852019289" lon="14.099063284723382"><ele>806.0</ele><time>2026-04-12T08:02:48.999Z</time></trkpt><trkpt lat="41.77481040768559" lon="14.098975827173394"><ele>806.0</ele><time>2026-04-12T08:02:49.999Z</time></trkpt><trkpt lat="41.774856285651154" lon="14.09888817384169"><ele>806.0000000000001</ele><time>2026-04-12T08:02:50.999Z</time></trkpt><trkpt lat="41.77490226572585" lon="14.098798067474469"><ele>806.0</ele><time>2026-04-12T08:02:51.999Z</time></trkpt><trkpt lat="41.77494846673203" lon="14.098704658447783"><ele>806.1666666666667</ele><time>2026-04-12T08:02:52.999Z</time></trkpt><trkpt lat="41.77498484452224" lon="14.09861113479384"><ele>806.3333333333334</ele><time>2026-04-12T08:02:53.999Z</time></trkpt><trkpt lat="41.77502187945954" lon="14.098536851687143"><ele>806.5</ele><time>2026-04-12T08:02:54.999Z</time></trkpt><trkpt lat="41.775055710959855" lon="14.09845123262668"><ele>806.6666666666667</ele><time>2026-04-12T08:02:55.999Z</time></trkpt><trkpt lat="41.77509012711266" lon="14.098368271472745"><ele>806.8333333333334</ele><time>2026-04-12T08:02:56.999Z</time></trkpt><trkpt lat="41.77513220842937" lon="14.098262014936319"><ele>807.0</ele><time>2026-04-12T08:02:57.999Z</time></trkpt><trkpt lat="41.77516791577887" lon="14.098172690122473"><ele>807.1666666666666</ele><time>2026-04-12T08:02:58.999Z</time></trkpt><trkpt lat="41.77519701068929" lon="14.098096636723621"><ele>807.3333333333333</ele><time>2026-04-12T08:02:59.999Z</time></trkpt><trkpt lat="41.775236190177" lon="14.097992540130011"><ele>807.5</ele><time>2026-04-12T08:03:01.999Z</time></trkpt><trkpt lat="41.77526092607316" lon="14.09790972049335"><ele>807.6666666666666</ele><time>2026-04-12T08:03:04Z</time></trkpt><trkpt lat="41.77517329437525" lon="14.097785518448486"><ele>807.8333333333333</ele><time>2026-04-12T08:03:06Z</time></trkpt><trkpt lat="41.77509662680275" lon="14.097774627720657"><ele>808.0</ele><time>2026-04-12T08:03:07Z</time></trkpt><trkpt lat="41.77501236697337" lon="14.097774167048886"><ele>807.9999999999999</ele><time>2026-04-12T08:03:08Z</time></trkpt><trkpt lat="41.77492812475347" lon="14.097759874280179"><ele>808.0</ele><time>2026-04-12T08:03:09Z</time></trkpt><trkpt lat="41.77485292311245" lon="14.097747320704094"><ele>808.0</ele><time>2026-04-12T08:03:10Z</time></trkpt><trkpt lat="41.77478432837636" lon="14.097719556778575"><ele>808.0</ele><time>2026-04-12T08:03:11Z</time></trkpt><trkpt lat="41.77472171294636" lon="14.097570055496025"><ele>807.9999999999999</ele><time>2026-04-12T08:03:13Z</time></trkpt><trkpt lat="41.7747282113611" lon="14.097462826701099"><ele>808.0</ele><time>2026-04-12T08:03:14Z</time></trkpt><trkpt lat="41.7747595239518" lon="14.097350008166528"><ele>808.0</ele><time>2026-04-12T08:03:15Z</time></trkpt><trkpt lat="41.77480373739932" lon="14.097231025663314"><ele>808.0</ele><time>2026-04-12T08:03:16Z</time></trkpt><trkpt lat="41.77484443742101" lon="14.097104378301378"><ele>808.0</ele><time>2026-04-12T08:03:17Z</time></trkpt><trkpt lat="41.77487065888216" lon="14.096978253487592"><ele>808.0</ele><time>2026-04-12T08:03:18Z</time></trkpt><trkpt lat="41.77488028135866" lon="14.096852976157178"><ele>808.0</ele><time>2026-04-12T08:03:19Z</time></trkpt><trkpt lat="41.77489070317334" lon="14.096726602407147"><ele>807.9999999999999</ele><time>2026-04-12T08:03:20Z</time></trkpt><trkpt lat="41.77490096616936" lon="14.096596568154784"><ele>808.0</ele><time>2026-04-12T08:03:21Z</time></trkpt><trkpt lat="41.7749015929894" lon="14.096480214227476"><ele>808.0</ele><time>2026-04-12T08:03:22Z</time></trkpt><trkpt lat="41.77490425957868" lon="14.096364932127164"><ele>808.0</ele><time>2026-04-12T08:03:23Z</time></trkpt><trkpt lat="41.77491045122178" lon="14.096260977448518"><ele>807.9999999999999</ele><time>2026-04-12T08:03:24Z</time></trkpt><trkpt lat="41.77491910883551" lon="14.096164683979524"><ele>808.0</ele><time>2026-04-12T08:03:25Z</time></trkpt><trkpt lat="41.774930622715814" lon="14.095995777294089"><ele>807.75</ele><time>2026-04-12T08:03:27Z</time></trkpt><trkpt lat="41.77500231352389" lon="14.095854563334504"><ele>807.5</ele><time>2026-04-12T08:03:29Z</time></trkpt><trkpt lat="41.77510230983199" lon="14.095821755267444"><ele>807.25</ele><time>2026-04-12T08:03:30Z</time></trkpt><trkpt lat="41.77521983741849" lon="14.09582633041947"><ele>807.0</ele><time>2026-04-12T08:03:31Z</time></trkpt><trkpt lat="41.775364234815065" lon="14.095836806390329"><ele>807.0</ele><time>2026-04-12T08:03:32Z</time></trkpt><trkpt lat="41.77550552007896" lon="14.095824949714563"><ele>807.0</ele><time>2026-04-12T08:03:33Z</time></trkpt><trkpt lat="41.7756545789671" lon="14.095795870205682"><ele>807.0</ele><time>2026-04-12T08:03:34Z</time></trkpt><trkpt lat="41.775786062726986" lon="14.095778162053072"><ele>807.0</ele><time>2026-04-12T08:03:35Z</time></trkpt><trkpt lat="41.7759191914043" lon="14.095749340498482"><ele>807.75</ele><time>2026-04-12T08:03:36Z</time></trkpt><trkpt lat="41.776046770442825" lon="14.095740753119767"><ele>808.5</ele><time>2026-04-12T08:03:37Z</time></trkpt><trkpt lat="41.77617304667952" lon="14.095721201523263"><ele>809.25</ele><time>2026-04-12T08:03:38Z</time></trkpt><trkpt lat="41.77630834837001" lon="14.095707961941287"><ele>810.0</ele><time>2026-04-12T08:03:39Z</time></trkpt><trkpt lat="41.77645637090808" lon="14.095723534953866"><ele>810.0</ele><time>2026-04-12T08:03:40Z</time></trkpt><trkpt lat="41.77660507601158" lon="14.095739044463338"><ele>810.0</ele><time>2026-04-12T08:03:41Z</time></trkpt><trkpt lat="41.776744025433146" lon="14.095752439592324"><ele>810.0</ele><time>2026-04-12T08:03:42Z</time></trkpt><trkpt lat="41.77687033417844" lon="14.095776330948446"><ele>810.0</ele><time>2026-04-12T08:03:43Z</time></trkpt><trkpt lat="41.776993742994065" lon="14.095828183460023"><ele>810.75</ele><time>2026-04-12T08:03:44Z</time></trkpt><trkpt lat="41.7770974963022" lon="14.095901487273327"><ele>811.5</ele><time>2026-04-12T08:03:45Z</time></trkpt><trkpt lat="41.777202853991405" lon="14.096006956724137"><ele>812.25</ele><time>2026-04-12T08:03:46Z</time></trkpt><trkpt lat="41.77730132665408" lon="14.096117024678936"><ele>813.0</ele><time>2026-04-12T08:03:47Z</time></trkpt><trkpt lat="41.77739862129338" lon="14.096237218783486"><ele>813.0</ele><time>2026-04-12T08:03:48Z</time></trkpt><trkpt lat="41.777490945388266" lon="14.096345717030912"><ele>813.0</ele><time>2026-04-12T08:03:49Z</time></trkpt><trkpt lat="41.77759621314786" lon="14.096465994107632"><ele>813.0</ele><time>2026-04-12T08:03:50Z</time></trkpt><trkpt lat="41.77771172994977" lon="14.0965856288105"><ele>813.0</ele><time>2026-04-12T08:03:51Z</time></trkpt><trkpt lat="41.777818626028264" lon="14.096712691041407"><ele>814.3333333333333</ele><time>2026-04-12T08:03:52Z</time></trkpt><trkpt lat="41.77792852282567" lon="14.096837910149082"><ele>815.6666666666666</ele><time>2026-04-12T08:03:53Z</time></trkpt><trkpt lat="41.77805047223128" lon="14.096971263882374"><ele>817.0</ele><time>2026-04-12T08:03:54Z</time></trkpt><trkpt lat="41.77816681804269" lon="14.09710614775353"><ele>817.0</ele><time>2026-04-12T08:03:55Z</time></trkpt><trkpt lat="41.77830037791613" lon="14.097227300971985"><ele>817.0</ele><time>2026-04-12T08:03:56Z</time></trkpt><trkpt lat="41.778443544148665" lon="14.097339563849712"><ele>817.0</ele><time>2026-04-12T08:03:57Z</time></trkpt><trkpt lat="41.77859695536022" lon="14.097455046276432"><ele>814.6666666666666</ele><time>2026-04-12T08:03:58Z</time></trkpt><trkpt lat="41.7787663517963" lon="14.097557008196214"><ele>812.3333333333333</ele><time>2026-04-12T08:03:59Z</time></trkpt><trkpt lat="41.77894049627003" lon="14.097658324251986"><ele>810.0</ele><time>2026-04-12T08:04:00Z</time></trkpt><trkpt lat="41.77910900893048" lon="14.097763648627499"><ele>810.0</ele><time>2026-04-12T08:04:01Z</time></trkpt><trkpt lat="41.77926994856605" lon="14.097856823408936"><ele>810.0</ele><time>2026-04-12T08:04:02Z</time></trkpt><trkpt lat="41.779420904573755" lon="14.0979601242846"><ele>810.0</ele><time>2026-04-12T08:04:03Z</time></trkpt><trkpt lat="41.77957818239043" lon="14.098063824795485"><ele>808.6666666666667</ele><time>2026-04-12T08:04:04Z</time></trkpt><trkpt lat="41.77973780090568" lon="14.09816288799783"><ele>807.3333333333334</ele><time>2026-04-12T08:04:05Z</time></trkpt><trkpt lat="41.779892037776754" lon="14.098244037359235"><ele>806.0</ele><time>2026-04-12T08:04:06Z</time></trkpt><trkpt lat="41.78005017907202" lon="14.098312819608179"><ele>808.3333333333334</ele><time>2026-04-12T08:04:07Z</time></trkpt><trkpt lat="41.780234148512584" lon="14.098373738206147"><ele>810.6666666666667</ele><time>2026-04-12T08:04:08Z</time></trkpt><trkpt lat="41.780421167069235" lon="14.098406211628431"><ele>813.0</ele><time>2026-04-12T08:04:09Z</time></trkpt><trkpt lat="41.78058722805414" lon="14.098451557426033"><ele>813.0</ele><time>2026-04-12T08:04:10Z</time></trkpt><trkpt lat="41.7807476141757" lon="14.09848465126782"><ele>813.0</ele><time>2026-04-12T08:04:11Z</time></trkpt><trkpt lat="41.78089821567994" lon="14.098536149878063"><ele>813.0</ele><time>2026-04-12T08:04:12Z</time></trkpt><trkpt lat="41.78104365084" lon="14.09859315805552"><ele>814.75</ele><time>2026-04-12T08:04:13Z</time></trkpt><trkpt lat="41.78117655213371" lon="14.098652139188108"><ele>816.5</ele><time>2026-04-12T08:04:14Z</time></trkpt><trkpt lat="41.78128004331028" lon="14.098728026128963"><ele>818.25</ele><time>2026-04-12T08:04:15Z</time></trkpt><trkpt lat="41.781360822365556" lon="14.09880034972433"><ele>820.0</ele><time>2026-04-12T08:04:16Z</time></trkpt><trkpt lat="41.781436521692605" lon="14.09887636638647"><ele>820.0</ele><time>2026-04-12T08:04:17Z</time></trkpt><trkpt lat="41.781512919528645" lon="14.098969611139452"><ele>820.0</ele><time>2026-04-12T08:04:18Z</time></trkpt><trkpt lat="41.78159876345243" lon="14.099054516333123"><ele>820.0</ele><time>2026-04-12T08:04:19Z</time></trkpt><trkpt lat="41.781691285324314" lon="14.099157288831993"><ele>820.0</ele><time>2026-04-12T08:04:20Z</time></trkpt><trkpt lat="41.781789654402395" lon="14.09925098645632"><ele>818.8</ele><time>2026-04-12T08:04:21Z</time></trkpt><trkpt lat="41.78187374743106" lon="14.099340915783651"><ele>817.6</ele><time>2026-04-12T08:04:22Z</time></trkpt><trkpt lat="41.78195405185198" lon="14.099436050818358"><ele>816.4000000000001</ele><time>2026-04-12T08:04:23Z</time></trkpt><trkpt lat="41.78201291356798" lon="14.09956594295547"><ele>815.2</ele><time>2026-04-12T08:04:24Z</time></trkpt><trkpt lat="41.782083315133306" lon="14.099638879894608"><ele>814.0</ele><time>2026-04-12T08:04:25Z</time></trkpt><trkpt lat="41.782157950972504" lon="14.099704812330586"><ele>814.0</ele><time>2026-04-12T08:04:26Z</time></trkpt><trkpt lat="41.78224863178614" lon="14.099760983036935"><ele>814.0</ele><time>2026-04-12T08:04:27Z</time></trkpt><trkpt lat="41.782369648944886" lon="14.099780987830481"><ele>814.0</ele><time>2026-04-12T08:04:28Z</time></trkpt><trkpt lat="41.78251095714154" lon="14.0997720826122"><ele>814.0</ele><time>2026-04-12T08:04:29Z</time></trkpt><trkpt lat="41.78264723389906" lon="14.099809829031068"><ele>814.75</ele><time>2026-04-12T08:04:30Z</time></trkpt><trkpt lat="41.78275577366852" lon="14.099820106168217"><ele>815.5</ele><time>2026-04-12T08:04:31Z</time></trkpt><trkpt lat="41.78287952258429" lon="14.099826657266664"><ele>816.25</ele><time>2026-04-12T08:04:32Z</time></trkpt><trkpt lat="41.783010099571165" lon="14.099860020820419"><ele>817.0</ele><time>2026-04-12T08:04:33Z</time></trkpt><trkpt lat="41.783152803027164" lon="14.099904999661858"><ele>814.0</ele><time>2026-04-12T08:04:34Z</time></trkpt><trkpt lat="41.78328596745099" lon="14.09995360542842"><ele>811.0</ele><time>2026-04-12T08:04:35Z</time></trkpt><trkpt lat="41.78342016997288" lon="14.099990905296673"><ele>808.0</ele><time>2026-04-12T08:04:36Z</time></trkpt><trkpt lat="41.78355361086583" lon="14.10004388167525"><ele>805.0</ele><time>2026-04-12T08:04:37Z</time></trkpt><trkpt lat="41.78368706896711" lon="14.100100345724055"><ele>805.0</ele><time>2026-04-12T08:04:38Z</time></trkpt><trkpt lat="41.78381546382101" lon="14.100187147869345"><ele>805.0</ele><time>2026-04-12T08:04:39Z</time></trkpt><trkpt lat="41.7839191251623" lon="14.100269502687148"><ele>805.0</ele><time>2026-04-12T08:04:40Z</time></trkpt><trkpt lat="41.78403032469901" lon="14.10033008851183"><ele>805.0</ele><time>2026-04-12T08:04:41Z</time></trkpt><trkpt lat="41.78417847216544" lon="14.100348018213072"><ele>805.0</ele><time>2026-04-12T08:04:42Z</time></trkpt><trkpt lat="41.784327729352086" lon="14.100360995253801"><ele>805.0</ele><time>2026-04-12T08:04:43Z</time></trkpt><trkpt lat="41.78446546670778" lon="14.100370436678588"><ele>805.0</ele><time>2026-04-12T08:04:44Z</time></trkpt><trkpt lat="41.784596791402706" lon="14.10039115946871"><ele>805.0</ele><time>2026-04-12T08:04:44.999Z</time></trkpt><trkpt lat="41.78473880983427" lon="14.10040778312615"><ele>805.25</ele><time>2026-04-12T08:04:45.999Z</time></trkpt><trkpt lat="41.78489079435361" lon="14.100426560025872"><ele>805.5</ele><time>2026-04-12T08:04:46.999Z</time></trkpt><trkpt lat="41.78502861697615" lon="14.100442568186805"><ele>805.75</ele><time>2026-04-12T08:04:47.999Z</time></trkpt><trkpt lat="41.78517196922128" lon="14.100476140300998"><ele>806.0</ele><time>2026-04-12T08:04:48.999Z</time></trkpt><trkpt lat="41.785321401691114" lon="14.100497308944707"><ele>806.0</ele><time>2026-04-12T08:04:49.999Z</time></trkpt><trkpt lat="41.78546426545527" lon="14.100513405131354"><ele>806.0</ele><time>2026-04-12T08:04:50.999Z</time></trkpt><trkpt lat="41.7856211051825" lon="14.100521785286842"><ele>806.0</ele><time>2026-04-12T08:04:51.999Z</time></trkpt><trkpt lat="41.78577278041356" lon="14.100533020558084"><ele>806.0</ele><time>2026-04-12T08:04:52.999Z</time></trkpt><trkpt lat="41.78589156735074" lon="14.10054099453833"><ele>806.0</ele><time>2026-04-12T08:04:53.999Z</time></trkpt><trkpt lat="41.78599403456434" lon="14.100566069015102"><ele>806.0</ele><time>2026-04-12T08:04:54.999Z</time></trkpt><trkpt lat="41.78607966487789" lon="14.100639739117453"><ele>806.0</ele><time>2026-04-12T08:04:55.999Z</time></trkpt><trkpt lat="41.78618243349381" lon="14.100784500087137"><ele>804.3333333333334</ele><time>2026-04-12T08:04:56.999Z</time></trkpt><trkpt lat="41.78629601860718" lon="14.100934166696105"><ele>802.6666666666667</ele><time>2026-04-12T08:04:57.999Z</time></trkpt><trkpt lat="41.786412665441794" lon="14.101069571060352"><ele>801.0</ele><time>2026-04-12T08:04:58.999Z</time></trkpt><trkpt lat="41.786531413710534" lon="14.101190657652433"><ele>801.0</ele><time>2026-04-12T08:04:59.999Z</time></trkpt><trkpt lat="41.786649596826365" lon="14.101291870124014"><ele>801.0</ele><time>2026-04-12T08:05:00.999Z</time></trkpt><trkpt lat="41.78677961096127" lon="14.101387463319284"><ele>801.0</ele><time>2026-04-12T08:05:01.999Z</time></trkpt><trkpt lat="41.78691250923095" lon="14.101473808907432"><ele>801.0</ele><time>2026-04-12T08:05:02.999Z</time></trkpt><trkpt lat="41.78703293816907" lon="14.101547013106645"><ele>801.5999999999999</ele><time>2026-04-12T08:05:03.999Z</time></trkpt><trkpt lat="41.78713665925337" lon="14.101612192089291"><ele>802.2</ele><time>2026-04-12T08:05:04.999Z</time></trkpt><trkpt lat="41.78723195883446" lon="14.101676068985373"><ele>802.8</ele><time>2026-04-12T08:05:05.999Z</time></trkpt><trkpt lat="41.78733539155055" lon="14.101728781902887"><ele>803.4000000000001</ele><time>2026-04-12T08:05:06.999Z</time></trkpt><trkpt lat="41.78742298918158" lon="14.101814292530442"><ele>804.0</ele><time>2026-04-12T08:05:07.999Z</time></trkpt><trkpt lat="41.787511559046344" lon="14.101893116222397"><ele>804.0</ele><time>2026-04-12T08:05:08.999Z</time></trkpt><trkpt lat="41.7875822316521" lon="14.101964793193561"><ele>804.0</ele><time>2026-04-12T08:05:10Z</time></trkpt><trkpt lat="41.787639325866614" lon="14.102019447034216"><ele>804.0</ele><time>2026-04-12T08:05:10.999Z</time></trkpt><trkpt lat="41.78767821362964" lon="14.102088977814459"><ele>804.0</ele><time>2026-04-12T08:05:11.999Z</time></trkpt><trkpt lat="41.787685011215046" lon="14.10221979336867"><ele>804.0</ele><time>2026-04-12T08:05:13.999Z</time></trkpt><trkpt lat="41.787626030691236" lon="14.102324714374603"><ele>804.0</ele><time>2026-04-12T08:05:14.999Z</time></trkpt><trkpt lat="41.78758246181304" lon="14.102489352112633"><ele>802.25</ele><time>2026-04-12T08:05:16Z</time></trkpt><trkpt lat="41.78753651212842" lon="14.102631774424621"><ele>800.5</ele><time>2026-04-12T08:05:17Z</time></trkpt><trkpt lat="41.787533105348" lon="14.102795954651851"><ele>798.75</ele><time>2026-04-12T08:05:18Z</time></trkpt><trkpt lat="41.78755388409791" lon="14.102959206932713"><ele>797.0</ele><time>2026-04-12T08:05:19Z</time></trkpt><trkpt lat="41.78761952456556" lon="14.103133892856626"><ele>796.0</ele><time>2026-04-12T08:05:20Z</time></trkpt><trkpt lat="41.78769760404334" lon="14.10330689900535"><ele>795.0</ele><time>2026-04-12T08:05:21Z</time></trkpt><trkpt lat="41.787769100960624" lon="14.10347485063942"><ele>794.0</ele><time>2026-04-12T08:05:22Z</time></trkpt><trkpt lat="41.78782669493638" lon="14.10363749050532"><ele>793.0</ele><time>2026-04-12T08:05:22.999Z</time></trkpt><trkpt lat="41.78788263583922" lon="14.103784341160662"><ele>793.0</ele><time>2026-04-12T08:05:23.999Z</time></trkpt><trkpt lat="41.787932402872336" lon="14.103918552700561"><ele>793.0</ele><time>2026-04-12T08:05:24.999Z</time></trkpt><trkpt lat="41.787980474089416" lon="14.104036209083032"><ele>793.0</ele><time>2026-04-12T08:05:25.999Z</time></trkpt><trkpt lat="41.78803077517337" lon="14.104144892597393"><ele>793.0</ele><time>2026-04-12T08:05:26.999Z</time></trkpt><trkpt lat="41.788071113438924" lon="14.104229293136815"><ele>793.0</ele><time>2026-04-12T08:05:27.999Z</time></trkpt><trkpt lat="41.788098955418576" lon="14.104312640387038"><ele>792.8571428571429</ele><time>2026-04-12T08:05:28.999Z</time></trkpt><trkpt lat="41.78811999972035" lon="14.104407939285075"><ele>792.7142857142858</ele><time>2026-04-12T08:05:29.999Z</time></trkpt><trkpt lat="41.788129795332885" lon="14.10450583497536"><ele>792.5714285714287</ele><time>2026-04-12T08:05:30.999Z</time></trkpt><trkpt lat="41.788129594540464" lon="14.104600886974268"><ele>792.4285714285714</ele><time>2026-04-12T08:05:31.999Z</time></trkpt><trkpt lat="41.78813093316507" lon="14.10469607306014"><ele>792.2857142857142</ele><time>2026-04-12T08:05:32.999Z</time></trkpt><trkpt lat="41.78813764608873" lon="14.104787063096746"><ele>792.1428571428572</ele><time>2026-04-12T08:05:33.999Z</time></trkpt><trkpt lat="41.78814468160967" lon="14.104874108444648"><ele>792.0</ele><time>2026-04-12T08:05:34.999Z</time></trkpt><trkpt lat="41.788142241637985" lon="14.10501400069067"><ele>792.6666666666666</ele><time>2026-04-12T08:05:36.999Z</time></trkpt><trkpt lat="41.788134760595945" lon="14.105119038592065"><ele>793.3333333333333</ele><time>2026-04-12T08:05:38.999Z</time></trkpt><trkpt lat="41.788143054533215" lon="14.10520302426638"><ele>794.0</ele><time>2026-04-12T08:05:42.999Z</time></trkpt><trkpt lat="41.788178874655244" lon="14.105291189216299"><ele>794.6666666666666</ele><time>2026-04-12T08:05:45.999Z</time></trkpt><trkpt lat="41.78829742365092" lon="14.10537484272164"><ele>795.3333333333333</ele><time>2026-04-12T08:05:47.999Z</time></trkpt><trkpt lat="41.788386674180266" lon="14.10541950399005"><ele>796.0</ele><time>2026-04-12T08:05:48.999Z</time></trkpt><trkpt lat="41.78849343784397" lon="14.105466759515089"><ele>796.25</ele><time>2026-04-12T08:05:49.999Z</time></trkpt><trkpt lat="41.78861409973451" lon="14.105512121313028"><ele>796.5</ele><time>2026-04-12T08:05:50.999Z</time></trkpt><trkpt lat="41.78874809914883" lon="14.10555230648585"><ele>796.75</ele><time>2026-04-12T08:05:51.999Z</time></trkpt><trkpt lat="41.788888869577114" lon="14.105598896778007"><ele>797.0</ele><time>2026-04-12T08:05:52.999Z</time></trkpt><trkpt lat="41.78902812889629" lon="14.105643468116309"><ele>797.0</ele><time>2026-04-12T08:05:53.999Z</time></trkpt><trkpt lat="41.78916643166857" lon="14.105698009056725"><ele>797.0</ele><time>2026-04-12T08:05:54.999Z</time></trkpt><trkpt lat="41.78930999719336" lon="14.105750537158098"><ele>797.0</ele><time>2026-04-12T08:05:55.999Z</time></trkpt><trkpt lat="41.789441375927076" lon="14.10582004008573"><ele>797.0</ele><time>2026-04-12T08:05:56.999Z</time></trkpt><trkpt lat="41.78957016393927" lon="14.10587770284219"><ele>797.0</ele><time>2026-04-12T08:05:57.999Z</time></trkpt><trkpt lat="41.78971926388275" lon="14.105926137927721"><ele>797.0</ele><time>2026-04-12T08:05:58.999Z</time></trkpt><trkpt lat="41.78987174741948" lon="14.10590029036769"><ele>797.0</ele><time>2026-04-12T08:05:59.999Z</time></trkpt><trkpt lat="41.790036591306965" lon="14.105880962644738"><ele>796.0</ele><time>2026-04-12T08:06:00.999Z</time></trkpt><trkpt lat="41.7902015965237" lon="14.105858021554914"><ele>795.0</ele><time>2026-04-12T08:06:01.999Z</time></trkpt><trkpt lat="41.79035422049825" lon="14.105830335496158"><ele>794.0</ele><time>2026-04-12T08:06:02.999Z</time></trkpt><trkpt lat="41.790503423312806" lon="14.105822725438783"><ele>794.0</ele><time>2026-04-12T08:06:03.999Z</time></trkpt><trkpt lat="41.79063961192742" lon="14.105808024662712"><ele>794.0</ele><time>2026-04-12T08:06:04.999Z</time></trkpt><trkpt lat="41.790751498834574" lon="14.10579189019972"><ele>794.0</ele><time>2026-04-12T08:06:05.999Z</time></trkpt><trkpt lat="41.79087003466559" lon="14.105779756295776"><ele>794.0</ele><time>2026-04-12T08:06:06.999Z</time></trkpt><trkpt lat="41.79096265422224" lon="14.105771344122118"><ele>794.2</ele><time>2026-04-12T08:06:07.999Z</time></trkpt><trkpt lat="41.79106415855154" lon="14.1057720279696"><ele>794.4000000000001</ele><time>2026-04-12T08:06:08.999Z</time></trkpt><trkpt lat="41.79116180695102" lon="14.105766664686533"><ele>794.6</ele><time>2026-04-12T08:06:09.999Z</time></trkpt><trkpt lat="41.79124024348974" lon="14.105784426902494"><ele>794.8</ele><time>2026-04-12T08:06:10.999Z</time></trkpt><trkpt lat="41.79130071263902" lon="14.105844772400413"><ele>795.0</ele><time>2026-04-12T08:06:11.999Z</time></trkpt><trkpt lat="41.79136506377236" lon="14.105941935444136"><ele>795.0</ele><time>2026-04-12T08:06:12.999Z</time></trkpt><trkpt lat="41.79146899683976" lon="14.106048578436974"><ele>795.0</ele><time>2026-04-12T08:06:13.999Z</time></trkpt><trkpt lat="41.79158395943672" lon="14.106150395540132"><ele>795.0</ele><time>2026-04-12T08:06:14.999Z</time></trkpt><trkpt lat="41.79170699896972" lon="14.106257715398073"><ele>795.0</ele><time>2026-04-12T08:06:15.999Z</time></trkpt><trkpt lat="41.79183844745564" lon="14.10637615281939"><ele>794.6666666666667</ele><time>2026-04-12T08:06:16.999Z</time></trkpt><trkpt lat="41.79198025885604" lon="14.106519442376486"><ele>794.3333333333334</ele><time>2026-04-12T08:06:17.999Z</time></trkpt><trkpt lat="41.79210476541011" lon="14.10666366017878"><ele>794.0</ele><time>2026-04-12T08:06:18.999Z</time></trkpt><trkpt lat="41.79221999649227" lon="14.106787351716905"><ele>793.5</ele><time>2026-04-12T08:06:19.999Z</time></trkpt><trkpt lat="41.792331701912076" lon="14.106889853208553"><ele>793.0</ele><time>2026-04-12T08:06:20.999Z</time></trkpt><trkpt lat="41.792434161427906" lon="14.106986083624601"><ele>792.5</ele><time>2026-04-12T08:06:21.999Z</time></trkpt><trkpt lat="41.792503148945165" lon="14.107088164607811"><ele>792.0</ele><time>2026-04-12T08:06:22.999Z</time></trkpt><trkpt lat="41.792562413211705" lon="14.107191777913247"><ele>792.0</ele><time>2026-04-12T08:06:23.999Z</time></trkpt><trkpt lat="41.79261997866582" lon="14.107325110472285"><ele>792.0</ele><time>2026-04-12T08:06:24.999Z</time></trkpt><trkpt lat="41.792666944804935" lon="14.107464741047625"><ele>792.0</ele><time>2026-04-12T08:06:25.999Z</time></trkpt><trkpt lat="41.79269407089699" lon="14.107604049778399"><ele>792.0</ele><time>2026-04-12T08:06:26.999Z</time></trkpt><trkpt lat="41.79270181137713" lon="14.107729343365829"><ele>792.0</ele><time>2026-04-12T08:06:27.999Z</time></trkpt><trkpt lat="41.79269280874942" lon="14.107848118849999"><ele>791.8333333333334</ele><time>2026-04-12T08:06:28.999Z</time></trkpt><trkpt lat="41.79268274760592" lon="14.10794822952643"><ele>791.6666666666667</ele><time>2026-04-12T08:06:29.999Z</time></trkpt><trkpt lat="41.79269612951897" lon="14.10803575137387"><ele>791.5</ele><time>2026-04-12T08:06:30.999Z</time></trkpt><trkpt lat="41.79277875193168" lon="14.10816503951133"><ele>791.3333333333334</ele><time>2026-04-12T08:06:32.999Z</time></trkpt><trkpt lat="41.79285632059927" lon="14.108177174395115"><ele>791.1666666666667</ele><time>2026-04-12T08:06:33.999Z</time></trkpt><trkpt lat="41.7929329582117" lon="14.108166716183955"><ele>791.0</ele><time>2026-04-12T08:06:34.999Z</time></trkpt><trkpt lat="41.79300809890103" lon="14.108182046271097"><ele>791.0</ele><time>2026-04-12T08:06:35.999Z</time></trkpt><trkpt lat="41.793088587679414" lon="14.10821399403094"><ele>791.0</ele><time>2026-04-12T08:06:36.999Z</time></trkpt><trkpt lat="41.793158883991104" lon="14.10827085854503"><ele>791.0</ele><time>2026-04-12T08:06:37.999Z</time></trkpt><trkpt lat="41.793222404786135" lon="14.108355520894447"><ele>791.0</ele><time>2026-04-12T08:06:38.999Z</time></trkpt><trkpt lat="41.7932926842638" lon="14.108464493255154"><ele>791.0</ele><time>2026-04-12T08:06:39.999Z</time></trkpt><trkpt lat="41.793365369138364" lon="14.108581951078571"><ele>791.3333333333334</ele><time>2026-04-12T08:06:40.999Z</time></trkpt><trkpt lat="41.79343377625922" lon="14.108674734274288"><ele>791.6666666666667</ele><time>2026-04-12T08:06:41.999Z</time></trkpt><trkpt lat="41.79349931479695" lon="14.108753639341383"><ele>792.0</ele><time>2026-04-12T08:06:42.999Z</time></trkpt><trkpt lat="41.7935639614702" lon="14.108829219851991"><ele>792.3333333333333</ele><time>2026-04-12T08:06:43.999Z</time></trkpt><trkpt lat="41.79362378059132" lon="14.108916625775922"><ele>792.6666666666666</ele><time>2026-04-12T08:06:44.999Z</time></trkpt><trkpt lat="41.79368752382324" lon="14.10899368015404"><ele>793.0</ele><time>2026-04-12T08:06:45.999Z</time></trkpt><trkpt lat="41.793778255761154" lon="14.109077111159992"><ele>794.0</ele><time>2026-04-12T08:06:46.999Z</time></trkpt><trkpt lat="41.79387145256973" lon="14.109114474516216"><ele>795.0</ele><time>2026-04-12T08:06:47.999Z</time></trkpt><trkpt lat="41.79398447382454" lon="14.109151331193246"><ele>796.0</ele><time>2026-04-12T08:06:48.999Z</time></trkpt><trkpt lat="41.79409615185496" lon="14.109165709982197"><ele>797.0</ele><time>2026-04-12T08:06:49.999Z</time></trkpt><trkpt lat="41.79421272302939" lon="14.109169248139963"><ele>798.0</ele><time>2026-04-12T08:06:50.999Z</time></trkpt><trkpt lat="41.79431536993247" lon="14.109156101703382"><ele>796.8</ele><time>2026-04-12T08:06:51.999Z</time></trkpt><trkpt lat="41.79441685470237" lon="14.109125691765183"><ele>795.5999999999999</ele><time>2026-04-12T08:06:52.999Z</time></trkpt><trkpt lat="41.794505904195034" lon="14.109098641581651"><ele>794.4000000000001</ele><time>2026-04-12T08:06:53.999Z</time></trkpt><trkpt lat="41.79459275861359" lon="14.109056608140344"><ele>793.2</ele><time>2026-04-12T08:06:54.999Z</time></trkpt><trkpt lat="41.7946662829193" lon="14.109016290905116"><ele>792.0</ele><time>2026-04-12T08:06:55.999Z</time></trkpt><trkpt lat="41.794748128704015" lon="14.10899730121274"><ele>792.0</ele><time>2026-04-12T08:06:56.999Z</time></trkpt><trkpt lat="41.79483253265077" lon="14.10900006286801"><ele>792.0</ele><time>2026-04-12T08:06:57.998Z</time></trkpt><trkpt lat="41.79492652249143" lon="14.109025669009979"><ele>792.0</ele><time>2026-04-12T08:06:58.998Z</time></trkpt><trkpt lat="41.795020574119334" lon="14.109072883667203"><ele>792.0</ele><time>2026-04-12T08:06:59.998Z</time></trkpt><trkpt lat="41.79511061313663" lon="14.109150430127386"><ele>792.0</ele><time>2026-04-12T08:07:00.998Z</time></trkpt><trkpt lat="41.79518641988104" lon="14.109247067596801"><ele>791.4000000000001</ele><time>2026-04-12T08:07:01.998Z</time></trkpt><trkpt lat="41.79523758160277" lon="14.10935471391252"><ele>790.8000000000001</ele><time>2026-04-12T08:07:02.998Z</time></trkpt><trkpt lat="41.79527412764042" lon="14.109453510792118"><ele>790.2</ele><time>2026-04-12T08:07:03.998Z</time></trkpt><trkpt lat="41.79537889432234" lon="14.109534056942945"><ele>789.6</ele><time>2026-04-12T08:07:05.998Z</time></trkpt><trkpt lat="41.79549995726858" lon="14.109499518650107"><ele>789.0</ele><time>2026-04-12T08:07:07.998Z</time></trkpt><trkpt lat="41.79559845027672" lon="14.109537341689308"><ele>789.0</ele><time>2026-04-12T08:07:09.998Z</time></trkpt><trkpt lat="41.79566960102039" lon="14.109603515716614"><ele>789.0</ele><time>2026-04-12T08:07:10.998Z</time></trkpt><trkpt lat="41.795740064734005" lon="14.109707771865505"><ele>789.0</ele><time>2026-04-12T08:07:11.998Z</time></trkpt><trkpt lat="41.79579994079682" lon="14.109831410501794"><ele>789.0</ele><time>2026-04-12T08:07:12.998Z</time></trkpt><trkpt lat="41.79587341093526" lon="14.109937735735105"><ele>789.0</ele><time>2026-04-12T08:07:13.998Z</time></trkpt><trkpt lat="41.79593741957138" lon="14.110040772102648"><ele>789.25</ele><time>2026-04-12T08:07:14.998Z</time></trkpt><trkpt lat="41.79600155597376" lon="14.110148489214527"><ele>789.5</ele><time>2026-04-12T08:07:16Z</time></trkpt><trkpt lat="41.79607536474146" lon="14.110266277946716"><ele>789.75</ele><time>2026-04-12T08:07:17Z</time></trkpt><trkpt lat="41.79615763609109" lon="14.110393964018154"><ele>790.0</ele><time>2026-04-12T08:07:18Z</time></trkpt><trkpt lat="41.79623562965257" lon="14.110508253346152"><ele>790.0</ele><time>2026-04-12T08:07:19Z</time></trkpt><trkpt lat="41.796323266682386" lon="14.110655363225154"><ele>790.0</ele><time>2026-04-12T08:07:20Z</time></trkpt><trkpt lat="41.796405451240524" lon="14.11080552904203"><ele>790.0</ele><time>2026-04-12T08:07:21Z</time></trkpt><trkpt lat="41.796477502613925" lon="14.110973288356657"><ele>790.0</ele><time>2026-04-12T08:07:22Z</time></trkpt><trkpt lat="41.79652351720076" lon="14.111163233135725"><ele>789.6666666666666</ele><time>2026-04-12T08:07:23Z</time></trkpt><trkpt lat="41.79654648226719" lon="14.111368108320432"><ele>789.3333333333333</ele><time>2026-04-12T08:07:23.999Z</time></trkpt><trkpt lat="41.79655872572434" lon="14.111585317341595"><ele>789.0</ele><time>2026-04-12T08:07:25Z</time></trkpt><trkpt lat="41.796556607363456" lon="14.111799670897097"><ele>789.0</ele><time>2026-04-12T08:07:25.999Z</time></trkpt><trkpt lat="41.79655347904997" lon="14.112023842920996"><ele>789.0</ele><time>2026-04-12T08:07:26.999Z</time></trkpt><trkpt lat="41.79653184498346" lon="14.112247474376987"><ele>789.0</ele><time>2026-04-12T08:07:28Z</time></trkpt><trkpt lat="41.796508042147316" lon="14.112478070625881"><ele>788.6666666666667</ele><time>2026-04-12T08:07:28.999Z</time></trkpt><trkpt lat="41.79647645157587" lon="14.112726145862897"><ele>788.3333333333334</ele><time>2026-04-12T08:07:29.999Z</time></trkpt><trkpt lat="41.7964522045052" lon="14.112979394689336"><ele>788.0</ele><time>2026-04-12T08:07:30.999Z</time></trkpt><trkpt lat="41.796424958886156" lon="14.113236035634419"><ele>787.6666666666667</ele><time>2026-04-12T08:07:31.999Z</time></trkpt><trkpt lat="41.79639885513072" lon="14.113495188859893"><ele>787.3333333333333</ele><time>2026-04-12T08:07:32.999Z</time></trkpt><trkpt lat="41.796381831221716" lon="14.113770968146888"><ele>787.0</ele><time>2026-04-12T08:07:33.999Z</time></trkpt><trkpt lat="41.796359633166496" lon="14.114021268347898"><ele>786.6666666666666</ele><time>2026-04-12T08:07:34.999Z</time></trkpt><trkpt lat="41.79633207298014" lon="14.114264135483959"><ele>786.3333333333333</ele><time>2026-04-12T08:07:35.999Z</time></trkpt><trkpt lat="41.796293903809236" lon="14.114496824321224"><ele>786.0</ele><time>2026-04-12T08:07:36.999Z</time></trkpt><trkpt lat="41.79626781043641" lon="14.11472932145459"><ele>785.6666666666667</ele><time>2026-04-12T08:07:37.999Z</time></trkpt><trkpt lat="41.79626347593302" lon="14.11497138170137"><ele>785.3333333333334</ele><time>2026-04-12T08:07:38.999Z</time></trkpt><trkpt lat="41.79626643433853" lon="14.115188361166876"><ele>785.0</ele><time>2026-04-12T08:07:39.999Z</time></trkpt><trkpt lat="41.79629648165614" lon="14.115376825949571"><ele>785.0</ele><time>2026-04-12T08:07:40.999Z</time></trkpt><trkpt lat="41.79636558465879" lon="14.11558012562301"><ele>785.0</ele><time>2026-04-12T08:07:41.999Z</time></trkpt><trkpt lat="41.7964774344871" lon="14.115765218057351"><ele>785.0</ele><time>2026-04-12T08:07:42.999Z</time></trkpt><trkpt lat="41.79658334585385" lon="14.115936633720542"><ele>785.0</ele><time>2026-04-12T08:07:43.999Z</time></trkpt><trkpt lat="41.7966743037138" lon="14.116086609135063"><ele>785.0</ele><time>2026-04-12T08:07:44.999Z</time></trkpt><trkpt lat="41.79672081887813" lon="14.116265522485229"><ele>785.0</ele><time>2026-04-12T08:07:45.999Z</time></trkpt><trkpt lat="41.79672858614618" lon="14.116463600874448"><ele>785.0</ele><time>2026-04-12T08:07:46.999Z</time></trkpt><trkpt lat="41.796693553763085" lon="14.116658461895629"><ele>784.75</ele><time>2026-04-12T08:07:47.999Z</time></trkpt><trkpt lat="41.79663287798877" lon="14.11684687092803"><ele>784.5</ele><time>2026-04-12T08:07:48.999Z</time></trkpt><trkpt lat="41.79654311302208" lon="14.117004243063853"><ele>784.25</ele><time>2026-04-12T08:07:49.999Z</time></trkpt><trkpt lat="41.79649338008603" lon="14.117148283883559"><ele>784.0</ele><time>2026-04-12T08:07:50.999Z</time></trkpt><trkpt lat="41.79649527631265" lon="14.11731356160146"><ele>784.5</ele><time>2026-04-12T08:07:51.999Z</time></trkpt><trkpt lat="41.79652965393773" lon="14.117501334249921"><ele>785.0</ele><time>2026-04-12T08:07:52.999Z</time></trkpt><trkpt lat="41.796564357116296" lon="14.11770962897596"><ele>785.5</ele><time>2026-04-12T08:07:53.999Z</time></trkpt><trkpt lat="41.796610809228284" lon="14.117883391234221"><ele>786.0</ele><time>2026-04-12T08:07:54.999Z</time></trkpt><trkpt lat="41.796680785929965" lon="14.118039203921127"><ele>786.0</ele><time>2026-04-12T08:07:55.999Z</time></trkpt><trkpt lat="41.79674931286986" lon="14.118165872356395"><ele>786.0</ele><time>2026-04-12T08:07:56.999Z</time></trkpt><trkpt lat="41.796799148223805" lon="14.118280194043932"><ele>786.0</ele><time>2026-04-12T08:07:57.999Z</time></trkpt><trkpt lat="41.796834675871004" lon="14.118390858865453"><ele>786.0</ele><time>2026-04-12T08:07:58.999Z</time></trkpt><trkpt lat="41.79685152971662" lon="14.118509792878891"><ele>786.0</ele><time>2026-04-12T08:07:59.999Z</time></trkpt><trkpt lat="41.79683522191797" lon="14.11865211095199"><ele>785.8</ele><time>2026-04-12T08:08:00.999Z</time></trkpt><trkpt lat="41.79680037531972" lon="14.11879807366698"><ele>785.5999999999999</ele><time>2026-04-12T08:08:01.999Z</time></trkpt><trkpt lat="41.79676954985377" lon="14.118926568141347"><ele>785.4</ele><time>2026-04-12T08:08:02.999Z</time></trkpt><trkpt lat="41.796748215040445" lon="14.119059847436146"><ele>785.2</ele><time>2026-04-12T08:08:03.999Z</time></trkpt><trkpt lat="41.79674709911257" lon="14.11919308533401"><ele>785.0</ele><time>2026-04-12T08:08:04.999Z</time></trkpt><trkpt lat="41.7967829942204" lon="14.119333960515648"><ele>784.0</ele><time>2026-04-12T08:08:05.999Z</time></trkpt><trkpt lat="41.79683903034464" lon="14.11948718732595"><ele>783.0</ele><time>2026-04-12T08:08:06.999Z</time></trkpt><trkpt lat="41.79687463847711" lon="14.11962212150567"><ele>782.0</ele><time>2026-04-12T08:08:07.999Z</time></trkpt><trkpt lat="41.7969063400062" lon="14.119776225978892"><ele>781.0</ele><time>2026-04-12T08:08:08.999Z</time></trkpt><trkpt lat="41.79694283247798" lon="14.119927649302166"><ele>781.0</ele><time>2026-04-12T08:08:09.999Z</time></trkpt><trkpt lat="41.79697675779324" lon="14.120091624750726"><ele>781.0</ele><time>2026-04-12T08:08:10.999Z</time></trkpt><trkpt lat="41.79702219125224" lon="14.120245582862976"><ele>781.0</ele><time>2026-04-12T08:08:11.999Z</time></trkpt><trkpt lat="41.79706901138863" lon="14.120416049881909"><ele>781.0</ele><time>2026-04-12T08:08:12.999Z</time></trkpt><trkpt lat="41.79712017837935" lon="14.120600566548758"><ele>781.0</ele><time>2026-04-12T08:08:13.999Z</time></trkpt><trkpt lat="41.79717263667008" lon="14.120796161466195"><ele>781.0</ele><time>2026-04-12T08:08:14.999Z</time></trkpt><trkpt lat="41.797219484294956" lon="14.120987738808191"><ele>781.0</ele><time>2026-04-12T08:08:15.999Z</time></trkpt><trkpt lat="41.797247792697405" lon="14.121178500679777"><ele>781.0</ele><time>2026-04-12T08:08:16.999Z</time></trkpt><trkpt lat="41.797265640738125" lon="14.121372264821469"><ele>781.0</ele><time>2026-04-12T08:08:17.999Z</time></trkpt><trkpt lat="41.79729328366041" lon="14.121548855990378"><ele>781.0</ele><time>2026-04-12T08:08:18.999Z</time></trkpt><trkpt lat="41.79732055706772" lon="14.1217130796816"><ele>781.0</ele><time>2026-04-12T08:08:19.999Z</time></trkpt><trkpt lat="41.79733929504914" lon="14.121852617266152"><ele>781.4</ele><time>2026-04-12T08:08:20.999Z</time></trkpt><trkpt lat="41.79734915343647" lon="14.121970243897383"><ele>781.8</ele><time>2026-04-12T08:08:21.999Z</time></trkpt><trkpt lat="41.79732737728918" lon="14.12206635587984"><ele>782.1999999999999</ele><time>2026-04-12T08:08:22.999Z</time></trkpt><trkpt lat="41.797278888859445" lon="14.12215525098173"><ele>782.5999999999999</ele><time>2026-04-12T08:08:23.999Z</time></trkpt><trkpt lat="41.79718462395967" lon="14.122198356051364"><ele>783.0</ele><time>2026-04-12T08:08:24.999Z</time></trkpt><trkpt lat="41.79708009070911" lon="14.122278510309954"><ele>783.0</ele><time>2026-04-12T08:08:25.999Z</time></trkpt><trkpt lat="41.79697219119095" lon="14.12238493103954"><ele>783.0</ele><time>2026-04-12T08:08:26.999Z</time></trkpt><trkpt lat="41.79688363124667" lon="14.12247052240118"><ele>783.0</ele><time>2026-04-12T08:08:27.999Z</time></trkpt><trkpt lat="41.796824816758736" lon="14.122569445974301"><ele>783.0</ele><time>2026-04-12T08:08:28.999Z</time></trkpt><trkpt lat="41.79681830349632" lon="14.122693271987202"><ele>783.0</ele><time>2026-04-12T08:08:29.999Z</time></trkpt><trkpt lat="41.7968597437781" lon="14.122825900392355"><ele>783.0</ele><time>2026-04-12T08:08:30.999Z</time></trkpt><trkpt lat="41.79691242690402" lon="14.12297173006564"><ele>783.0</ele><time>2026-04-12T08:08:31.999Z</time></trkpt><trkpt lat="41.79696013000103" lon="14.123155336047981"><ele>783.0</ele><time>2026-04-12T08:08:32.999Z</time></trkpt><trkpt lat="41.79701070105805" lon="14.12335759298831"><ele>783.0</ele><time>2026-04-12T08:08:33.999Z</time></trkpt><trkpt lat="41.79705280247618" lon="14.123557242220555"><ele>783.0</ele><time>2026-04-12T08:08:34.999Z</time></trkpt><trkpt lat="41.79711780614569" lon="14.123740233687027"><ele>783.0</ele><time>2026-04-12T08:08:35.999Z</time></trkpt><trkpt lat="41.79719650150348" lon="14.123893975857031"><ele>783.0</ele><time>2026-04-12T08:08:36.999Z</time></trkpt><trkpt lat="41.79728884366155" lon="14.12402617759197"><ele>783.0</ele><time>2026-04-12T08:08:37.999Z</time></trkpt><trkpt lat="41.79741481380396" lon="14.124129809838061"><ele>783.0</ele><time>2026-04-12T08:08:38.999Z</time></trkpt><trkpt lat="41.7975519589" lon="14.12422414638453"><ele>783.0</ele><time>2026-04-12T08:08:39.999Z</time></trkpt><trkpt lat="41.79769398648039" lon="14.124305275705154"><ele>783.0</ele><time>2026-04-12T08:08:40.999Z</time></trkpt><trkpt lat="41.79784101347342" lon="14.12439674914683"><ele>783.0</ele><time>2026-04-12T08:08:41.999Z</time></trkpt><trkpt lat="41.79798207938515" lon="14.124496892085897"><ele>783.0</ele><time>2026-04-12T08:08:42.999Z</time></trkpt><trkpt lat="41.798115498354164" lon="14.124591456388893"><ele>783.0</ele><time>2026-04-12T08:08:43.999Z</time></trkpt><trkpt lat="41.79823523218265" lon="14.12469032695638"><ele>783.0</ele><time>2026-04-12T08:08:44.999Z</time></trkpt><trkpt lat="41.7983405787735" lon="14.12480155118076"><ele>783.0</ele><time>2026-04-12T08:08:45.999Z</time></trkpt><trkpt lat="41.79843175584707" lon="14.124939678520173"><ele>783.0</ele><time>2026-04-12T08:08:46.999Z</time></trkpt><trkpt lat="41.7985045677078" lon="14.12511863486645"><ele>783.0</ele><time>2026-04-12T08:08:47.999Z</time></trkpt><trkpt lat="41.79854615119493" lon="14.125347070699396"><ele>782.3333333333333</ele><time>2026-04-12T08:08:48.999Z</time></trkpt><trkpt lat="41.798593773521205" lon="14.125583521105451"><ele>781.6666666666666</ele><time>2026-04-12T08:08:49.999Z</time></trkpt><trkpt lat="41.79865592505542" lon="14.125817276361335"><ele>781.0</ele><time>2026-04-12T08:08:50.999Z</time></trkpt><trkpt lat="41.79871607806179" lon="14.1260432719976"><ele>781.0</ele><time>2026-04-12T08:08:51.999Z</time></trkpt><trkpt lat="41.798773721807706" lon="14.126265080314287"><ele>781.0</ele><time>2026-04-12T08:08:52.999Z</time></trkpt><trkpt lat="41.79883517045268" lon="14.126480328299225"><ele>781.0</ele><time>2026-04-12T08:08:53.998Z</time></trkpt><trkpt lat="41.79889431002367" lon="14.126692836881828"><ele>780.3333333333333</ele><time>2026-04-12T08:08:54.998Z</time></trkpt><trkpt lat="41.79895567019869" lon="14.126903896569065"><ele>779.6666666666667</ele><time>2026-04-12T08:08:55.998Z</time></trkpt><trkpt lat="41.799013880540976" lon="14.127122572260493"><ele>779.0</ele><time>2026-04-12T08:08:56.998Z</time></trkpt><trkpt lat="41.799073646203155" lon="14.127333025352305"><ele>778.3333333333334</ele><time>2026-04-12T08:08:57.998Z</time></trkpt><trkpt lat="41.799134357783124" lon="14.127551092084117"><ele>777.6666666666667</ele><time>2026-04-12T08:08:58.998Z</time></trkpt><trkpt lat="41.79919743724419" lon="14.127765611397185"><ele>777.0</ele><time>2026-04-12T08:08:59.998Z</time></trkpt><trkpt lat="41.79926143317683" lon="14.127983160345726"><ele>777.0</ele><time>2026-04-12T08:09:00.998Z</time></trkpt><trkpt lat="41.79932021916694" lon="14.128206773195794"><ele>777.0</ele><time>2026-04-12T08:09:01.998Z</time></trkpt><trkpt lat="41.799379267379976" lon="14.128420568609291"><ele>777.0</ele><time>2026-04-12T08:09:02.998Z</time></trkpt><trkpt lat="41.799437052340174" lon="14.128636846771034"><ele>777.0</ele><time>2026-04-12T08:09:03.998Z</time></trkpt><trkpt lat="41.799497208196286" lon="14.128849478478056"><ele>777.0</ele><time>2026-04-12T08:09:04.998Z</time></trkpt><trkpt lat="41.79955482861941" lon="14.12906741511478"><ele>777.0</ele><time>2026-04-12T08:09:05.998Z</time></trkpt><trkpt lat="41.79960190366952" lon="14.129285453931415"><ele>777.0</ele><time>2026-04-12T08:09:06.998Z</time></trkpt><trkpt lat="41.79964200688963" lon="14.129507347539729"><ele>777.0</ele><time>2026-04-12T08:09:07.998Z</time></trkpt><trkpt lat="41.7996875904311" lon="14.129733746029602"><ele>777.0</ele><time>2026-04-12T08:09:08.998Z</time></trkpt><trkpt lat="41.799746031389816" lon="14.129955608121534"><ele>776.6666666666667</ele><time>2026-04-12T08:09:09.998Z</time></trkpt><trkpt lat="41.799805323935985" lon="14.130171840378864"><ele>776.3333333333334</ele><time>2026-04-12T08:09:10.998Z</time></trkpt><trkpt lat="41.79986269974867" lon="14.130384089338635"><ele>776.0</ele><time>2026-04-12T08:09:11.998Z</time></trkpt><trkpt lat="41.79992096315433" lon="14.13058030599643"><ele>775.6666666666667</ele><time>2026-04-12T08:09:12.998Z</time></trkpt><trkpt lat="41.799973180205384" lon="14.130760151421342"><ele>775.3333333333333</ele><time>2026-04-12T08:09:13.998Z</time></trkpt><trkpt lat="41.80002369518307" lon="14.13095672590438"><ele>775.0</ele><time>2026-04-12T08:09:14.998Z</time></trkpt><trkpt lat="41.80008801347975" lon="14.13114966966021"><ele>775.0</ele><time>2026-04-12T08:09:15.998Z</time></trkpt><trkpt lat="41.80015695442558" lon="14.131332255980523"><ele>775.0</ele><time>2026-04-12T08:09:16.998Z</time></trkpt><trkpt lat="41.80023398216784" lon="14.131502943166323"><ele>775.0</ele><time>2026-04-12T08:09:17.998Z</time></trkpt><trkpt lat="41.80028499517146" lon="14.131674863991314"><ele>775.0</ele><time>2026-04-12T08:09:18.998Z</time></trkpt><trkpt lat="41.80033142641075" lon="14.131841501343967"><ele>775.0</ele><time>2026-04-12T08:09:19.998Z</time></trkpt><trkpt lat="41.80037123251274" lon="14.131992451080356"><ele>775.0</ele><time>2026-04-12T08:09:20.998Z</time></trkpt><trkpt lat="41.80040254920637" lon="14.132115188641501"><ele>775.0</ele><time>2026-04-12T08:09:22Z</time></trkpt><trkpt lat="41.80042697166031" lon="14.132217967590963"><ele>775.0</ele><time>2026-04-12T08:09:23Z</time></trkpt><trkpt lat="41.80043602747362" lon="14.132326959645642"><ele>775.0</ele><time>2026-04-12T08:09:24Z</time></trkpt><trkpt lat="41.80044966791154" lon="14.132453740448625"><ele>775.0</ele><time>2026-04-12T08:09:25Z</time></trkpt><trkpt lat="41.80037593247769" lon="14.13257232888156"><ele>775.0</ele><time>2026-04-12T08:09:26Z</time></trkpt><trkpt lat="41.80031342683585" lon="14.132711368985515"><ele>775.0</ele><time>2026-04-12T08:09:26.999Z</time></trkpt><trkpt lat="41.80025008220929" lon="14.132883320265618"><ele>775.0</ele><time>2026-04-12T08:09:28Z</time></trkpt><trkpt lat="41.800212246458265" lon="14.133062111840802"><ele>775.3333333333333</ele><time>2026-04-12T08:09:29Z</time></trkpt><trkpt lat="41.80018903526619" lon="14.133251142632934"><ele>775.6666666666667</ele><time>2026-04-12T08:09:30Z</time></trkpt><trkpt lat="41.8002090774274" lon="14.133452275796522"><ele>776.0</ele><time>2026-04-12T08:09:31Z</time></trkpt><trkpt lat="41.800270412378985" lon="14.133646437387267"><ele>776.0</ele><time>2026-04-12T08:09:32Z</time></trkpt><trkpt lat="41.80033979179338" lon="14.133843758237886"><ele>776.0</ele><time>2026-04-12T08:09:33Z</time></trkpt><trkpt lat="41.8004141316025" lon="14.134052289113207"><ele>776.0</ele><time>2026-04-12T08:09:33.999Z</time></trkpt><trkpt lat="41.800516538912575" lon="14.134244311131704"><ele>776.0</ele><time>2026-04-12T08:09:34.999Z</time></trkpt><trkpt lat="41.80063533824762" lon="14.134422487784054"><ele>776.0</ele><time>2026-04-12T08:09:35.999Z</time></trkpt><trkpt lat="41.80075111026792" lon="14.134584295546643"><ele>776.0</ele><time>2026-04-12T08:09:36.999Z</time></trkpt><trkpt lat="41.800843362995145" lon="14.13476631455966"><ele>775.75</ele><time>2026-04-12T08:09:37.999Z</time></trkpt><trkpt lat="41.800911310007464" lon="14.134958478099701"><ele>775.5</ele><time>2026-04-12T08:09:38.999Z</time></trkpt><trkpt lat="41.80095690763682" lon="14.135150563343007"><ele>775.25</ele><time>2026-04-12T08:09:39.999Z</time></trkpt><trkpt lat="41.800983754504955" lon="14.135314017589463"><ele>775.0</ele><time>2026-04-12T08:09:40.999Z</time></trkpt><trkpt lat="41.80105014543094" lon="14.135439338984497"><ele>774.5</ele><time>2026-04-12T08:09:41.999Z</time></trkpt><trkpt lat="41.801164442686066" lon="14.135524134263553"><ele>774.0</ele><time>2026-04-12T08:09:42.999Z</time></trkpt><trkpt lat="41.80129484707137" lon="14.13557478351279"><ele>773.5</ele><time>2026-04-12T08:09:43.999Z</time></trkpt><trkpt lat="41.80136583315156" lon="14.135664027440786"><ele>773.0</ele><time>2026-04-12T08:09:44.999Z</time></trkpt><trkpt lat="41.801408942565324" lon="14.135815081264624"><ele>773.0</ele><time>2026-04-12T08:09:45.999Z</time></trkpt><trkpt lat="41.801435125979765" lon="14.135992000711756"><ele>773.0</ele><time>2026-04-12T08:09:46.999Z</time></trkpt><trkpt lat="41.801475618931136" lon="14.136121345595104"><ele>773.0</ele><time>2026-04-12T08:09:47.999Z</time></trkpt><trkpt lat="41.80148453938174" lon="14.136257327490874"><ele>773.0</ele><time>2026-04-12T08:09:48.999Z</time></trkpt><trkpt lat="41.80146938158054" lon="14.136416120339229"><ele>772.8333333333334</ele><time>2026-04-12T08:09:49.999Z</time></trkpt><trkpt lat="41.80145239494097" lon="14.136561197914233"><ele>772.6666666666667</ele><time>2026-04-12T08:09:50.999Z</time></trkpt><trkpt lat="41.801437220645376" lon="14.136672709000251"><ele>772.5</ele><time>2026-04-12T08:09:51.999Z</time></trkpt><trkpt lat="41.80141950316672" lon="14.136755503192305"><ele>772.3333333333333</ele><time>2026-04-12T08:09:52.999Z</time></trkpt><trkpt lat="41.801433197046585" lon="14.136850948782676"><ele>772.1666666666666</ele><time>2026-04-12T08:09:54.999Z</time></trkpt><trkpt lat="41.801497225130895" lon="14.136911363718049"><ele>772.0</ele><time>2026-04-12T08:09:56.999Z</time></trkpt><trkpt lat="41.8014740072579" lon="14.137016872771943"><ele>771.9999999999999</ele><time>2026-04-12T08:09:58.999Z</time></trkpt><trkpt lat="41.80147658700137" lon="14.137122999311751"><ele>772.0</ele><time>2026-04-12T08:09:59.999Z</time></trkpt><trkpt lat="41.80146773500286" lon="14.137239734681465"><ele>772.0</ele><time>2026-04-12T08:10:00.999Z</time></trkpt><trkpt lat="41.801478653968175" lon="14.137374542978565"><ele>772.0</ele><time>2026-04-12T08:10:01.999Z</time></trkpt><trkpt lat="41.80149758390973" lon="14.137461696020539"><ele>771.9999999999999</ele><time>2026-04-12T08:10:02.999Z</time></trkpt><trkpt lat="41.80149139731357" lon="14.137547678545005"><ele>772.0</ele><time>2026-04-12T08:10:03.999Z</time></trkpt><trkpt lat="41.801468879907034" lon="14.137627994189474"><ele>772.4999999999999</ele><time>2026-04-12T08:10:04.999Z</time></trkpt><trkpt lat="41.80142836062036" lon="14.137706534338326"><ele>773.0</ele><time>2026-04-12T08:10:05.999Z</time></trkpt><trkpt lat="41.801349277775024" lon="14.13777515009003"><ele>773.5</ele><time>2026-04-12T08:10:06.999Z</time></trkpt><trkpt lat="41.801266764468046" lon="14.137806451642623"><ele>774.0</ele><time>2026-04-12T08:10:07.999Z</time></trkpt><trkpt lat="41.80118664212803" lon="14.13781710194195"><ele>774.4999999999999</ele><time>2026-04-12T08:10:08.999Z</time></trkpt><trkpt lat="41.80109621536668" lon="14.137818026402595"><ele>775.0</ele><time>2026-04-12T08:10:09.999Z</time></trkpt><trkpt lat="41.80100152985865" lon="14.137777342528574"><ele>776.8</ele><time>2026-04-12T08:10:13.999Z</time></trkpt><trkpt lat="41.8009199163487" lon="14.13772776235774"><ele>778.6</ele><time>2026-04-12T08:10:21.999Z</time></trkpt><trkpt lat="41.8008221623998" lon="14.137643072381442"><ele>780.4000000000001</ele><time>2026-04-12T08:10:23.999Z</time></trkpt><trkpt lat="41.8007443417885" lon="14.137580575687466"><ele>782.2</ele><time>2026-04-12T08:10:24.999Z</time></trkpt><trkpt lat="41.80065768224546" lon="14.137517021825477"><ele>784.0</ele><time>2026-04-12T08:10:25.999Z</time></trkpt><trkpt lat="41.800572612485226" lon="14.137441100154662"><ele>783.0</ele><time>2026-04-12T08:10:26.999Z</time></trkpt><trkpt lat="41.80049052289774" lon="14.137369141880539"><ele>782.0</ele><time>2026-04-12T08:10:27.999Z</time></trkpt><trkpt lat="41.80040245351554" lon="14.137303224992085"><ele>781.0</ele><time>2026-04-12T08:10:28.999Z</time></trkpt><trkpt lat="41.800294326160504" lon="14.137243567170062"><ele>780.0</ele><time>2026-04-12T08:10:29.999Z</time></trkpt><trkpt lat="41.80016946419641" lon="14.13721031878544"><ele>779.0</ele><time>2026-04-12T08:10:30.999Z</time></trkpt><trkpt lat="41.800041703668754" lon="14.13721446438114"><ele>779.0</ele><time>2026-04-12T08:10:31.999Z</time></trkpt><trkpt lat="41.79989395261544" lon="14.137253031475325"><ele>779.0</ele><time>2026-04-12T08:10:32.999Z</time></trkpt><trkpt lat="41.79974360810667" lon="14.137308277278104"><ele>779.0</ele><time>2026-04-12T08:10:33.999Z</time></trkpt><trkpt lat="41.799607798121684" lon="14.137346635127088"><ele>779.0</ele><time>2026-04-12T08:10:34.999Z</time></trkpt><trkpt lat="41.79947786518925" lon="14.137329439883167"><ele>779.0</ele><time>2026-04-12T08:10:35.999Z</time></trkpt><trkpt lat="41.79935227774197" lon="14.137259898492163"><ele>779.0</ele><time>2026-04-12T08:10:36.999Z</time></trkpt><trkpt lat="41.79922375972704" lon="14.137161031284352"><ele>779.0</ele><time>2026-04-12T08:10:37.999Z</time></trkpt><trkpt lat="41.799110815602695" lon="14.13703442415397"><ele>779.0</ele><time>2026-04-12T08:10:38.999Z</time></trkpt><trkpt lat="41.79900622326263" lon="14.136938467904036"><ele>779.75</ele><time>2026-04-12T08:10:39.999Z</time></trkpt><trkpt lat="41.79888706898307" lon="14.136891816521485"><ele>780.5</ele><time>2026-04-12T08:10:40.999Z</time></trkpt><trkpt lat="41.798757961877094" lon="14.136890500971354"><ele>781.25</ele><time>2026-04-12T08:10:41.999Z</time></trkpt><trkpt lat="41.798621297831325" lon="14.136924228125906"><ele>782.0</ele><time>2026-04-12T08:10:42.999Z</time></trkpt><trkpt lat="41.79846434351218" lon="14.136947304947501"><ele>783.0</ele><time>2026-04-12T08:10:43.999Z</time></trkpt><trkpt lat="41.798317575859535" lon="14.136951906331005"><ele>784.0</ele><time>2026-04-12T08:10:44.999Z</time></trkpt><trkpt lat="41.79816901135151" lon="14.136918109828152"><ele>785.0</ele><time>2026-04-12T08:10:45.999Z</time></trkpt><trkpt lat="41.79803041219149" lon="14.13686812186539"><ele>786.0</ele><time>2026-04-12T08:10:46.999Z</time></trkpt><trkpt lat="41.79789841464798" lon="14.136802245196737"><ele>786.0</ele><time>2026-04-12T08:10:47.999Z</time></trkpt><trkpt lat="41.79776803886058" lon="14.136745988207975"><ele>786.0</ele><time>2026-04-12T08:10:48.999Z</time></trkpt><trkpt lat="41.797638868217284" lon="14.136693056307426"><ele>786.0</ele><time>2026-04-12T08:10:49.999Z</time></trkpt><trkpt lat="41.79750401650528" lon="14.136646914115724"><ele>786.0</ele><time>2026-04-12T08:10:50.999Z</time></trkpt><trkpt lat="41.79736604360079" lon="14.136556011908022"><ele>785.0</ele><time>2026-04-12T08:10:51.999Z</time></trkpt><trkpt lat="41.79723772927762" lon="14.136423948631572"><ele>784.0</ele><time>2026-04-12T08:10:52.999Z</time></trkpt><trkpt lat="41.79712703217034" lon="14.136279347886697"><ele>783.0</ele><time>2026-04-12T08:10:53.999Z</time></trkpt><trkpt lat="41.79700041615999" lon="14.136124335020542"><ele>783.0</ele><time>2026-04-12T08:10:54.999Z</time></trkpt><trkpt lat="41.796867416421364" lon="14.13602620812158"><ele>783.0</ele><time>2026-04-12T08:10:55.999Z</time></trkpt><trkpt lat="41.7967071701291" lon="14.135965882986548"><ele>783.0</ele><time>2026-04-12T08:10:56.999Z</time></trkpt><trkpt lat="41.796537755087044" lon="14.135930943594474"><ele>783.6666666666667</ele><time>2026-04-12T08:10:57.999Z</time></trkpt><trkpt lat="41.796347370949704" lon="14.135913907434608"><ele>784.3333333333334</ele><time>2026-04-12T08:10:58.999Z</time></trkpt><trkpt lat="41.79615884896842" lon="14.135896247794493"><ele>785.0</ele><time>2026-04-12T08:10:59.999Z</time></trkpt><trkpt lat="41.795974353965875" lon="14.13586712103185"><ele>786.0</ele><time>2026-04-12T08:11:00.999Z</time></trkpt><trkpt lat="41.79581436877871" lon="14.135822880877093"><ele>787.0</ele><time>2026-04-12T08:11:01.999Z</time></trkpt><trkpt lat="41.79566299994108" lon="14.135798659507497"><ele>788.0</ele><time>2026-04-12T08:11:02.999Z</time></trkpt><trkpt lat="41.7955214188528" lon="14.135803149582907"><ele>788.0</ele><time>2026-04-12T08:11:03.999Z</time></trkpt><trkpt lat="41.79538147079771" lon="14.135801828913081"><ele>788.0</ele><time>2026-04-12T08:11:04.999Z</time></trkpt><trkpt lat="41.795249435434805" lon="14.135803903370709"><ele>788.0</ele><time>2026-04-12T08:11:05.999Z</time></trkpt><trkpt lat="41.795121553343655" lon="14.13581154149301"><ele>788.0</ele><time>2026-04-12T08:11:06.999Z</time></trkpt><trkpt lat="41.79500133299355" lon="14.135809571719353"><ele>788.5</ele><time>2026-04-12T08:11:07.999Z</time></trkpt><trkpt lat="41.794869687140114" lon="14.135801443689708"><ele>789.0</ele><time>2026-04-12T08:11:08.999Z</time></trkpt><trkpt lat="41.79473320865581" lon="14.13579739046233"><ele>789.5</ele><time>2026-04-12T08:11:09.999Z</time></trkpt><trkpt lat="41.79460004552326" lon="14.135797719401763"><ele>790.0</ele><time>2026-04-12T08:11:10.999Z</time></trkpt><trkpt lat="41.79447242143697" lon="14.135792486632745"><ele>790.0</ele><time>2026-04-12T08:11:11.999Z</time></trkpt><trkpt lat="41.79434724721407" lon="14.13578673762964"><ele>790.0</ele><time>2026-04-12T08:11:12.999Z</time></trkpt><trkpt lat="41.79421896085484" lon="14.135792314485915"><ele>790.0</ele><time>2026-04-12T08:11:13.999Z</time></trkpt><trkpt lat="41.79408388089404" lon="14.135795022455952"><ele>790.0</ele><time>2026-04-12T08:11:14.999Z</time></trkpt><trkpt lat="41.793937356353865" lon="14.135796053714957"><ele>789.6666666666666</ele><time>2026-04-12T08:11:15.999Z</time></trkpt><trkpt lat="41.79377843551411" lon="14.135800451685373"><ele>789.3333333333333</ele><time>2026-04-12T08:11:16.999Z</time></trkpt><trkpt lat="41.79361452292274" lon="14.135809061062371"><ele>789.0</ele><time>2026-04-12T08:11:17.999Z</time></trkpt><trkpt lat="41.793445137129545" lon="14.135820869479554"><ele>789.6666666666667</ele><time>2026-04-12T08:11:18.999Z</time></trkpt><trkpt lat="41.79326505554834" lon="14.135832507171983"><ele>790.3333333333334</ele><time>2026-04-12T08:11:19.999Z</time></trkpt><trkpt lat="41.79307826184727" lon="14.135843774325698"><ele>791.0</ele><time>2026-04-12T08:11:20.999Z</time></trkpt><trkpt lat="41.79288005164637" lon="14.135853996486546"><ele>791.0</ele><time>2026-04-12T08:11:21.999Z</time></trkpt><trkpt lat="41.792690514522114" lon="14.135871306114954"><ele>791.0</ele><time>2026-04-12T08:11:22.999Z</time></trkpt><trkpt lat="41.79249286446413" lon="14.13588693574258"><ele>791.0</ele><time>2026-04-12T08:11:23.999Z</time></trkpt><trkpt lat="41.79229155916758" lon="14.135891553247724"><ele>791.0</ele><time>2026-04-12T08:11:24.998Z</time></trkpt><trkpt lat="41.79209323326292" lon="14.135908098420051"><ele>791.0</ele><time>2026-04-12T08:11:25.998Z</time></trkpt><trkpt lat="41.7918964391914" lon="14.135912237212569"><ele>791.0</ele><time>2026-04-12T08:11:26.998Z</time></trkpt><trkpt lat="41.79170119489243" lon="14.135927452261116"><ele>791.0</ele><time>2026-04-12T08:11:28Z</time></trkpt><trkpt lat="41.79150168834912" lon="14.135937161742415"><ele>791.0</ele><time>2026-04-12T08:11:29Z</time></trkpt><trkpt lat="41.791316407675865" lon="14.135953087916352"><ele>791.0</ele><time>2026-04-12T08:11:30Z</time></trkpt><trkpt lat="41.79113160982934" lon="14.13597122111952"><ele>791.6666666666667</ele><time>2026-04-12T08:11:31Z</time></trkpt><trkpt lat="41.79095109033769" lon="14.135986255382111"><ele>792.3333333333333</ele><time>2026-04-12T08:11:32Z</time></trkpt><trkpt lat="41.79077569604838" lon="14.13600013118388"><ele>793.0</ele><time>2026-04-12T08:11:33Z</time></trkpt><trkpt lat="41.79061573794414" lon="14.136013795168376"><ele>793.0</ele><time>2026-04-12T08:11:34Z</time></trkpt><trkpt lat="41.79046365450015" lon="14.136025241966564"><ele>793.0</ele><time>2026-04-12T08:11:35Z</time></trkpt><trkpt lat="41.790314840824315" lon="14.13603490822949"><ele>793.0</ele><time>2026-04-12T08:11:36Z</time></trkpt><trkpt lat="41.790176554297425" lon="14.136039570039532"><ele>793.0</ele><time>2026-04-12T08:11:37Z</time></trkpt><trkpt lat="41.79004873201822" lon="14.136050427335523"><ele>793.2</ele><time>2026-04-12T08:11:38Z</time></trkpt><trkpt lat="41.789924217162216" lon="14.136060720830558"><ele>793.4</ele><time>2026-04-12T08:11:39Z</time></trkpt><trkpt lat="41.78981524778051" lon="14.136065245877132"><ele>793.6</ele><time>2026-04-12T08:11:40Z</time></trkpt><trkpt lat="41.789722133484744" lon="14.136088681914021"><ele>793.8000000000001</ele><time>2026-04-12T08:11:41Z</time></trkpt><trkpt lat="41.78964182220231" lon="14.13613472568031"><ele>794.0</ele><time>2026-04-12T08:11:42Z</time></trkpt><trkpt lat="41.789584727350444" lon="14.136235018665438"><ele>794.0</ele><time>2026-04-12T08:11:43Z</time></trkpt><trkpt lat="41.78953481342616" lon="14.1363675823669"><ele>794.0</ele><time>2026-04-12T08:11:44Z</time></trkpt><trkpt lat="41.78949466332602" lon="14.136514349936222"><ele>794.0</ele><time>2026-04-12T08:11:45Z</time></trkpt><trkpt lat="41.78943677316289" lon="14.13667265377675"><ele>794.0</ele><time>2026-04-12T08:11:46Z</time></trkpt><trkpt lat="41.7894040839473" lon="14.136858960007054"><ele>795.6666666666667</ele><time>2026-04-12T08:11:47Z</time></trkpt><trkpt lat="41.78941446427092" lon="14.137062889845735"><ele>797.3333333333333</ele><time>2026-04-12T08:11:48Z</time></trkpt><trkpt lat="41.78944062673318" lon="14.137267030696258"><ele>799.0</ele><time>2026-04-12T08:11:49Z</time></trkpt><trkpt lat="41.789460436629696" lon="14.137482866219626"><ele>801.3333333333333</ele><time>2026-04-12T08:11:50Z</time></trkpt><trkpt lat="41.78947657689009" lon="14.137716531564699"><ele>803.6666666666667</ele><time>2026-04-12T08:11:51Z</time></trkpt><trkpt lat="41.78948235459458" lon="14.137912948542755"><ele>806.0</ele><time>2026-04-12T08:11:52Z</time></trkpt><trkpt lat="41.78949360651706" lon="14.138108980022563"><ele>808.25</ele><time>2026-04-12T08:11:53Z</time></trkpt><trkpt lat="41.78951207792598" lon="14.138291843349288"><ele>810.5</ele><time>2026-04-12T08:11:54Z</time></trkpt><trkpt lat="41.78953548165755" lon="14.13847220538999"><ele>812.75</ele><time>2026-04-12T08:11:55Z</time></trkpt><trkpt lat="41.7895657188487" lon="14.138649511461487"><ele>815.0</ele><time>2026-04-12T08:11:56Z</time></trkpt><trkpt lat="41.78959117459017" lon="14.138842752338"><ele>815.0</ele><time>2026-04-12T08:11:57Z</time></trkpt><trkpt lat="41.78962769930317" lon="14.139012500577257"><ele>815.0</ele><time>2026-04-12T08:11:58Z</time></trkpt><trkpt lat="41.78967454560976" lon="14.1391591326231"><ele>815.0</ele><time>2026-04-12T08:11:59Z</time></trkpt><trkpt lat="41.78972568256586" lon="14.139293773036496"><ele>815.0</ele><time>2026-04-12T08:12:00Z</time></trkpt><trkpt lat="41.789759529534315" lon="14.139402728120206"><ele>816.0000000000001</ele><time>2026-04-12T08:12:01Z</time></trkpt><trkpt lat="41.78978989709811" lon="14.139507322521862"><ele>817.0</ele><time>2026-04-12T08:12:02Z</time></trkpt><trkpt lat="41.78980736544506" lon="14.139620092701668"><ele>818.0</ele><time>2026-04-12T08:12:03Z</time></trkpt><trkpt lat="41.789779862342634" lon="14.139747250606964"><ele>819.0</ele><time>2026-04-12T08:12:04.999Z</time></trkpt><trkpt lat="41.78968948634575" lon="14.139758905850474"><ele>820.0000000000001</ele><time>2026-04-12T08:12:06.999Z</time></trkpt><trkpt lat="41.78961610772713" lon="14.139759751090148"><ele>821.0</ele><time>2026-04-12T08:12:08.999Z</time></trkpt><trkpt lat="41.78954740530969" lon="14.139894831053956"><ele>821.5000000000001</ele><time>2026-04-12T08:12:10.999Z</time></trkpt><trkpt lat="41.78950290052797" lon="14.139990859577072"><ele>822.0</ele><time>2026-04-12T08:12:11.999Z</time></trkpt><trkpt lat="41.789456227039" lon="14.140071591644409"><ele>822.5</ele><time>2026-04-12T08:12:12.999Z</time></trkpt><trkpt lat="41.789395932489086" lon="14.140150632928965"><ele>823.0</ele><time>2026-04-12T08:12:13.999Z</time></trkpt><trkpt lat="41.789324407623155" lon="14.140222525364438"><ele>823.5000000000001</ele><time>2026-04-12T08:12:14.999Z</time></trkpt><trkpt lat="41.78925762870439" lon="14.140266287948027"><ele>824.0</ele><time>2026-04-12T08:12:15.999Z</time></trkpt><trkpt lat="41.78919071904622" lon="14.140345159406955"><ele>824.3333333333334</ele><time>2026-04-12T08:12:16.999Z</time></trkpt><trkpt lat="41.7891603663623" lon="14.140459964680314"><ele>824.6666666666667</ele><time>2026-04-12T08:12:17.999Z</time></trkpt><trkpt lat="41.789142298076804" lon="14.14057178344983"><ele>825.0</ele><time>2026-04-12T08:12:18.999Z</time></trkpt><trkpt lat="41.78911254751773" lon="14.140665437332437"><ele>825.3333333333333</ele><time>2026-04-12T08:12:19.999Z</time></trkpt><trkpt lat="41.789079780926784" lon="14.140744041495077"><ele>825.6666666666666</ele><time>2026-04-12T08:12:20.999Z</time></trkpt><trkpt lat="41.789074862337145" lon="14.14083740017358"><ele>826.0</ele><time>2026-04-12T08:12:21.999Z</time></trkpt><trkpt lat="41.78912948300968" lon="14.140955676550037"><ele>828.1666666666666</ele><time>2026-04-12T08:12:22.999Z</time></trkpt><trkpt lat="41.78919880440114" lon="14.141066710515231"><ele>830.3333333333333</ele><time>2026-04-12T08:12:23.999Z</time></trkpt><trkpt lat="41.789250855847285" lon="14.141157687339234"><ele>832.5</ele><time>2026-04-12T08:12:24.999Z</time></trkpt><trkpt lat="41.78929473953774" lon="14.141226880779044"><ele>834.6666666666667</ele><time>2026-04-12T08:12:25.999Z</time></trkpt><trkpt lat="41.78935600605996" lon="14.141276322249464"><ele>836.8333333333334</ele><time>2026-04-12T08:12:26.999Z</time></trkpt><trkpt lat="41.7894302976795" lon="14.141306424611832"><ele>839.0</ele><time>2026-04-12T08:12:27.999Z</time></trkpt><trkpt lat="41.78950653836648" lon="14.141295901251894"><ele>839.1666666666667</ele><time>2026-04-12T08:12:28.999Z</time></trkpt><trkpt lat="41.789557384520954" lon="14.141346227164732"><ele>839.3333333333334</ele><time>2026-04-12T08:12:29.999Z</time></trkpt><trkpt lat="41.78961987649335" lon="14.14146857104777"><ele>839.5</ele><time>2026-04-12T08:12:30.999Z</time></trkpt><trkpt lat="41.7896800767034" lon="14.141552699841732"><ele>839.6666666666667</ele><time>2026-04-12T08:12:31.999Z</time></trkpt><trkpt lat="41.78973621839597" lon="14.141629974997938"><ele>839.8333333333334</ele><time>2026-04-12T08:12:32.999Z</time></trkpt><trkpt lat="41.78975604820055" lon="14.141711986621573"><ele>840.0</ele><time>2026-04-12T08:12:33.999Z</time></trkpt><trkpt lat="41.78976346475888" lon="14.141817693608225"><ele>843.8</ele><time>2026-04-12T08:12:34.999Z</time></trkpt><trkpt lat="41.789785327615434" lon="14.141934875218427"><ele>847.6</ele><time>2026-04-12T08:12:35.999Z</time></trkpt><trkpt lat="41.789824540795834" lon="14.142036866634431"><ele>851.4000000000001</ele><time>2026-04-12T08:12:36.999Z</time></trkpt><trkpt lat="41.789857785901106" lon="14.14211608197547"><ele>855.2</ele><time>2026-04-12T08:12:37.998Z</time></trkpt><trkpt lat="41.7899821083331" lon="14.14217694116869"><ele>859.0</ele><time>2026-04-12T08:12:39.998Z</time></trkpt><trkpt lat="41.79005480185507" lon="14.142229697955848"><ele>859.0</ele><time>2026-04-12T08:12:40.998Z</time></trkpt><trkpt lat="41.79011737665377" lon="14.14233038376964"><ele>859.0000000000001</ele><time>2026-04-12T08:12:41.998Z</time></trkpt><trkpt lat="41.79017080532384" lon="14.142440842142667"><ele>859.0000000000001</ele><time>2026-04-12T08:12:42.998Z</time></trkpt><trkpt lat="41.79023617793788" lon="14.142534898649231"><ele>859.0</ele><time>2026-04-12T08:12:43.998Z</time></trkpt><trkpt lat="41.79029670490013" lon="14.142617964203275"><ele>859.0</ele><time>2026-04-12T08:12:44.998Z</time></trkpt><trkpt lat="41.79036806433835" lon="14.142699616000384"><ele>862.3333333333333</ele><time>2026-04-12T08:12:45.998Z</time></trkpt><trkpt lat="41.79042478735618" lon="14.142816525978859"><ele>865.6666666666666</ele><time>2026-04-12T08:12:46.998Z</time></trkpt><trkpt lat="41.79047692264938" lon="14.142899555579218"><ele>869.0</ele><time>2026-04-12T08:12:47.998Z</time></trkpt><trkpt lat="41.7905346911053" lon="14.142966947345105"><ele>872.3333333333333</ele><time>2026-04-12T08:12:48.998Z</time></trkpt><trkpt lat="41.790606660055886" lon="14.143031689504404"><ele>875.6666666666666</ele><time>2026-04-12T08:12:49.998Z</time></trkpt><trkpt lat="41.7906533794278" lon="14.143114477989398"><ele>879.0</ele><time>2026-04-12T08:12:50.998Z</time></trkpt><trkpt lat="41.79068895783085" lon="14.14320104837305"><ele>879.6666666666666</ele><time>2026-04-12T08:12:51.998Z</time></trkpt><trkpt lat="41.79073666147036" lon="14.143290248037907"><ele>880.3333333333333</ele><time>2026-04-12T08:12:52.998Z</time></trkpt><trkpt lat="41.7907968622528" lon="14.143355298350327"><ele>881.0</ele><time>2026-04-12T08:12:53.998Z</time></trkpt><trkpt lat="41.790858368367786" lon="14.143400039772981"><ele>881.6666666666666</ele><time>2026-04-12T08:12:54.998Z</time></trkpt><trkpt lat="41.79091974519884" lon="14.143450284252681"><ele>882.3333333333333</ele><time>2026-04-12T08:12:55.998Z</time></trkpt><trkpt lat="41.791040378631386" lon="14.143492242863168"><ele>883.0</ele><time>2026-04-12T08:12:57.998Z</time></trkpt><trkpt lat="41.791092073347116" lon="14.14355833454103"><ele>882.9999999999999</ele><time>2026-04-12T08:12:58.998Z</time></trkpt><trkpt lat="41.79115740801709" lon="14.143660373165279"><ele>883.0</ele><time>2026-04-12T08:12:59.998Z</time></trkpt><trkpt lat="41.79120898939895" lon="14.143727856581524"><ele>883.0</ele><time>2026-04-12T08:13:00.998Z</time></trkpt><trkpt lat="41.791273958223705" lon="14.143767125116284"><ele>883.0</ele><time>2026-04-12T08:13:01.998Z</time></trkpt><trkpt lat="41.79135412981362" lon="14.143854203889012"><ele>882.9999999999999</ele><time>2026-04-12T08:13:02.998Z</time></trkpt><trkpt lat="41.79141805564165" lon="14.143930484194215"><ele>883.0</ele><time>2026-04-12T08:13:03.998Z</time></trkpt><trkpt lat="41.79149552677863" lon="14.144004065854219"><ele>883.5999999999999</ele><time>2026-04-12T08:13:04.998Z</time></trkpt><trkpt lat="41.79158302198287" lon="14.144053889020073"><ele>884.1999999999999</ele><time>2026-04-12T08:13:05.998Z</time></trkpt><trkpt lat="41.79165794867684" lon="14.144107432472655"><ele>884.8</ele><time>2026-04-12T08:13:06.998Z</time></trkpt><trkpt lat="41.791720213495374" lon="14.144193305112703"><ele>885.4</ele><time>2026-04-12T08:13:07.998Z</time></trkpt><trkpt lat="41.79177795581586" lon="14.144287071733794"><ele>886.0</ele><time>2026-04-12T08:13:08.998Z</time></trkpt><trkpt lat="41.79184271958981" lon="14.144393771283434"><ele>885.9999999999999</ele><time>2026-04-12T08:13:09.998Z</time></trkpt><trkpt lat="41.79187595243174" lon="14.144496472197599"><ele>886.0</ele><time>2026-04-12T08:13:10.998Z</time></trkpt><trkpt lat="41.791929623034584" lon="14.144594975225285"><ele>886.0</ele><time>2026-04-12T08:13:11.998Z</time></trkpt><trkpt lat="41.79196117977999" lon="14.144721973647329"><ele>886.0</ele><time>2026-04-12T08:13:12.998Z</time></trkpt><trkpt lat="41.79198541783907" lon="14.144849640244036"><ele>885.9999999999999</ele><time>2026-04-12T08:13:13.998Z</time></trkpt><trkpt lat="41.791975688182745" lon="14.144944675971143"><ele>886.0</ele><time>2026-04-12T08:13:14.998Z</time></trkpt><trkpt lat="41.79199522203701" lon="14.14503031658402"><ele>887.9999999999999</ele><time>2026-04-12T08:13:15.998Z</time></trkpt><trkpt lat="41.79202726247208" lon="14.145120501977699"><ele>890.0</ele><time>2026-04-12T08:13:16.998Z</time></trkpt><trkpt lat="41.79207800913666" lon="14.145186344092197"><ele>892.0</ele><time>2026-04-12T08:13:17.998Z</time></trkpt><trkpt lat="41.79214822703274" lon="14.145247030200146"><ele>894.0</ele><time>2026-04-12T08:13:18.998Z</time></trkpt><trkpt lat="41.79220300503734" lon="14.145314805854786"><ele>895.9999999999999</ele><time>2026-04-12T08:13:19.998Z</time></trkpt><trkpt lat="41.79223282440499" lon="14.145395623213982"><ele>898.0</ele><time>2026-04-12T08:13:20.998Z</time></trkpt><trkpt lat="41.79227486444814" lon="14.145505442313686"><ele>898.0</ele><time>2026-04-12T08:13:21.998Z</time></trkpt><trkpt lat="41.79234241100158" lon="14.145639479449915"><ele>898.0</ele><time>2026-04-12T08:13:22.998Z</time></trkpt><trkpt lat="41.792412651448984" lon="14.145743153140916"><ele>898.0</ele><time>2026-04-12T08:13:23.998Z</time></trkpt><trkpt lat="41.79249529042929" lon="14.145836154862192"><ele>898.0</ele><time>2026-04-12T08:13:24.998Z</time></trkpt><trkpt lat="41.792582228502546" lon="14.145947889286077"><ele>899.5999999999999</ele><time>2026-04-12T08:13:25.998Z</time></trkpt><trkpt lat="41.79265947969096" lon="14.146050399123919"><ele>901.1999999999999</ele><time>2026-04-12T08:13:26.998Z</time></trkpt><trkpt lat="41.792724213109366" lon="14.146129226575233"><ele>902.8</ele><time>2026-04-12T08:13:27.998Z</time></trkpt><trkpt lat="41.79277770747466" lon="14.146180161655533"><ele>904.4</ele><time>2026-04-12T08:13:28.998Z</time></trkpt><trkpt lat="41.79277339505802" lon="14.146338256764414"><ele>906.0</ele><time>2026-04-12T08:13:30.998Z</time></trkpt><trkpt lat="41.79273953247078" lon="14.146483026331692"><ele>909.1666666666666</ele><time>2026-04-12T08:13:31.998Z</time></trkpt><trkpt lat="41.79270457502901" lon="14.146618117366502"><ele>912.3333333333333</ele><time>2026-04-12T08:13:32.998Z</time></trkpt><trkpt lat="41.7926892510091" lon="14.146719206099673"><ele>915.5</ele><time>2026-04-12T08:13:33.999Z</time></trkpt><trkpt lat="41.792726697071934" lon="14.146807029997934"><ele>918.6666666666666</ele><time>2026-04-12T08:13:34.999Z</time></trkpt><trkpt lat="41.79277998213227" lon="14.14690674505235"><ele>921.8333333333333</ele><time>2026-04-12T08:13:35.999Z</time></trkpt><trkpt lat="41.79284590021902" lon="14.14699847611156"><ele>925.0</ele><time>2026-04-12T08:13:36.999Z</time></trkpt><trkpt lat="41.79289758574276" lon="14.14707522688864"><ele>925.0</ele><time>2026-04-12T08:13:37.998Z</time></trkpt><trkpt lat="41.792976377864925" lon="14.147130018941056"><ele>925.0</ele><time>2026-04-12T08:13:38.998Z</time></trkpt><trkpt lat="41.793071371761044" lon="14.147148432593825"><ele>925.0</ele><time>2026-04-12T08:13:39.999Z</time></trkpt><trkpt lat="41.793183077800066" lon="14.147122859012367"><ele>925.0</ele><time>2026-04-12T08:13:40.999Z</time></trkpt><trkpt lat="41.79326972956977" lon="14.14712893308026"><ele>925.0</ele><time>2026-04-12T08:13:41.999Z</time></trkpt><trkpt lat="41.79333290861002" lon="14.147148995390177"><ele>925.0</ele><time>2026-04-12T08:13:42.999Z</time></trkpt><trkpt lat="41.79339962351946" lon="14.14716417463051"><ele>925.0</ele><time>2026-04-12T08:13:43.999Z</time></trkpt><trkpt lat="41.79348688372557" lon="14.147180710312888"><ele>925.0</ele><time>2026-04-12T08:13:44.999Z</time></trkpt><trkpt lat="41.79355542423982" lon="14.147221010706394"><ele>925.0</ele><time>2026-04-12T08:13:45.999Z</time></trkpt><trkpt lat="41.79360598576371" lon="14.14727755294467"><ele>925.0</ele><time>2026-04-12T08:13:46.999Z</time></trkpt><trkpt lat="41.793670336113266" lon="14.14734565446849"><ele>925.0</ele><time>2026-04-12T08:13:47.999Z</time></trkpt><trkpt lat="41.79373902869518" lon="14.147368004287037"><ele>925.0</ele><time>2026-04-12T08:13:48.999Z</time></trkpt><trkpt lat="41.79381985587157" lon="14.147414773711693"><ele>929.5</ele><time>2026-04-12T08:13:50.999Z</time></trkpt><trkpt lat="41.79393821586145" lon="14.147534534633966"><ele>934.0</ele><time>2026-04-12T08:13:52.999Z</time></trkpt><trkpt lat="41.794039763516224" lon="14.147613200239434"><ele>938.5</ele><time>2026-04-12T08:13:53.999Z</time></trkpt><trkpt lat="41.79414620195193" lon="14.147663302237726"><ele>943.0</ele><time>2026-04-12T08:13:54.999Z</time></trkpt><trkpt lat="41.79423006273662" lon="14.147685587481075"><ele>942.9999999999999</ele><time>2026-04-12T08:13:55.999Z</time></trkpt><trkpt lat="41.79428758813839" lon="14.147724678167814"><ele>943.0</ele><time>2026-04-12T08:13:56.999Z</time></trkpt><trkpt lat="41.79437321912742" lon="14.147708128290324"><ele>943.0</ele><time>2026-04-12T08:14:01.999Z</time></trkpt><trkpt lat="41.79443132391021" lon="14.147596560431333"><ele>943.0</ele><time>2026-04-12T08:14:03.999Z</time></trkpt><trkpt lat="41.79448685691624" lon="14.14754830298195"><ele>942.9999999999999</ele><time>2026-04-12T08:14:04.999Z</time></trkpt><trkpt lat="41.79455328300844" lon="14.147444120549697"><ele>943.0</ele><time>2026-04-12T08:14:06.999Z</time></trkpt><trkpt lat="41.79453911912393" lon="14.147290618132741"><ele>942.4999999999999</ele><time>2026-04-12T08:14:08.999Z</time></trkpt><trkpt lat="41.79454665634404" lon="14.147194985367044"><ele>942.0</ele><time>2026-04-12T08:14:09.999Z</time></trkpt><trkpt lat="41.79456929804313" lon="14.147081925371001"><ele>941.5</ele><time>2026-04-12T08:14:10.999Z</time></trkpt><trkpt lat="41.79457913687486" lon="14.146941459932894"><ele>941.0</ele><time>2026-04-12T08:14:11.999Z</time></trkpt><trkpt lat="41.7945803249355" lon="14.14682589131556"><ele>940.4999999999999</ele><time>2026-04-12T08:14:12.999Z</time></trkpt><trkpt lat="41.79458158975463" lon="14.146731489416368"><ele>940.0</ele><time>2026-04-12T08:14:13.999Z</time></trkpt><trkpt lat="41.79457914018463" lon="14.1466100599104"><ele>936.25</ele><time>2026-04-12T08:14:15.999Z</time></trkpt><trkpt lat="41.79464559750257" lon="14.14642842408268"><ele>932.5</ele><time>2026-04-12T08:14:17.999Z</time></trkpt><trkpt lat="41.79468088045571" lon="14.146306181843173"><ele>928.75</ele><time>2026-04-12T08:14:18.999Z</time></trkpt><trkpt lat="41.79467570115305" lon="14.146160265494618"><ele>925.0</ele><time>2026-04-12T08:14:20.999Z</time></trkpt><trkpt lat="41.794627277434195" lon="14.146007956113705"><ele>925.0</ele><time>2026-04-12T08:14:22.999Z</time></trkpt><trkpt lat="41.79464195647868" lon="14.145924813879798"><ele>925.0</ele><time>2026-04-12T08:14:23.999Z</time></trkpt><trkpt lat="41.79470496704691" lon="14.14581957831728"><ele>925.0</ele><time>2026-04-12T08:14:24.999Z</time></trkpt><trkpt lat="41.79481945624469" lon="14.145741388153466"><ele>925.0</ele><time>2026-04-12T08:14:25.999Z</time></trkpt><trkpt lat="41.79499093338577" lon="14.145685899419197"><ele>922.25</ele><time>2026-04-12T08:14:26.999Z</time></trkpt><trkpt lat="41.795151491702086" lon="14.145623654799085"><ele>919.5</ele><time>2026-04-12T08:14:27.999Z</time></trkpt><trkpt lat="41.79529695952435" lon="14.145574137690968"><ele>916.75</ele><time>2026-04-12T08:14:28.999Z</time></trkpt><trkpt lat="41.79539427936049" lon="14.145565179948921"><ele>914.0</ele><time>2026-04-12T08:14:29.999Z</time></trkpt><trkpt lat="41.795500789439664" lon="14.145615965276834"><ele>912.0</ele><time>2026-04-12T08:14:31.999Z</time></trkpt><trkpt lat="41.79554082947124" lon="14.145708119774966"><ele>910.0000000000001</ele><time>2026-04-12T08:14:32.999Z</time></trkpt><trkpt lat="41.795588328950934" lon="14.145822248965981"><ele>908.0000000000001</ele><time>2026-04-12T08:14:33.999Z</time></trkpt><trkpt lat="41.795651958525625" lon="14.145940847561768"><ele>906.0</ele><time>2026-04-12T08:14:34.999Z</time></trkpt><trkpt lat="41.79572897029363" lon="14.146064131435315"><ele>904.0</ele><time>2026-04-12T08:14:35.999Z</time></trkpt><trkpt lat="41.79579418968595" lon="14.146188710605802"><ele>906.2</ele><time>2026-04-12T08:14:36.999Z</time></trkpt><trkpt lat="41.79584390322557" lon="14.14626743273912"><ele>908.4000000000001</ele><time>2026-04-12T08:14:37.999Z</time></trkpt><trkpt lat="41.79595041519757" lon="14.146301349149518"><ele>910.6</ele><time>2026-04-12T08:14:39.999Z</time></trkpt><trkpt lat="41.79603123142565" lon="14.146277481258887"><ele>912.8</ele><time>2026-04-12T08:14:41.999Z</time></trkpt><trkpt lat="41.796134624984" lon="14.146385320887218"><ele>915.0</ele><time>2026-04-12T08:14:43.999Z</time></trkpt><trkpt lat="41.79621598452432" lon="14.146477429863273"><ele>918.5</ele><time>2026-04-12T08:14:44.999Z</time></trkpt><trkpt lat="41.79630529368285" lon="14.14656310801894"><ele>922.0</ele><time>2026-04-12T08:14:45.999Z</time></trkpt><trkpt lat="41.79639369320212" lon="14.146625658403718"><ele>925.5</ele><time>2026-04-12T08:14:46.999Z</time></trkpt><trkpt lat="41.796472348684524" lon="14.146641505069597"><ele>929.0</ele><time>2026-04-12T08:14:47.999Z</time></trkpt><trkpt lat="41.79653503208737" lon="14.146620825343378"><ele>932.5</ele><time>2026-04-12T08:14:48.999Z</time></trkpt><trkpt lat="41.796609560125816" lon="14.146570599658515"><ele>936.0</ele><time>2026-04-12T08:14:50.999Z</time></trkpt><trkpt lat="41.79669620747037" lon="14.146572650280882"><ele>936.0</ele><time>2026-04-12T08:15:13.998Z</time></trkpt><trkpt lat="41.796769941452496" lon="14.14661766686967"><ele>936.0</ele><time>2026-04-12T08:15:17.998Z</time></trkpt><trkpt lat="41.79682610919174" lon="14.146656069837379"><ele>936.0</ele><time>2026-04-12T08:15:18.998Z</time></trkpt><trkpt lat="41.796906711190935" lon="14.146665502904096"><ele>936.0</ele><time>2026-04-12T08:15:19.998Z</time></trkpt><trkpt lat="41.79701405070854" lon="14.146666250905017"><ele>936.0</ele><time>2026-04-12T08:15:20.998Z</time></trkpt><trkpt lat="41.79710173924845" lon="14.14667849550459"><ele>936.0</ele><time>2026-04-12T08:15:21.998Z</time></trkpt><trkpt lat="41.797204462648125" lon="14.146771397893055"><ele>934.4</ele><time>2026-04-12T08:15:23.998Z</time></trkpt><trkpt lat="41.79727968744977" lon="14.146841833906358"><ele>932.8</ele><time>2026-04-12T08:15:24.998Z</time></trkpt><trkpt lat="41.797383797298856" lon="14.146864926946536"><ele>931.1999999999999</ele><time>2026-04-12T08:15:25.998Z</time></trkpt><trkpt lat="41.79748439031131" lon="14.146859756321845"><ele>929.5999999999999</ele><time>2026-04-12T08:15:26.998Z</time></trkpt><trkpt lat="41.79759807234827" lon="14.146857734396528"><ele>928.0</ele><time>2026-04-12T08:15:27.998Z</time></trkpt><trkpt lat="41.79771799757823" lon="14.146916630258282"><ele>926.0</ele><time>2026-04-12T08:15:28.998Z</time></trkpt><trkpt lat="41.79782970361332" lon="14.147008717664676"><ele>924.0</ele><time>2026-04-12T08:15:29.998Z</time></trkpt><trkpt lat="41.797949580758875" lon="14.147116000986218"><ele>922.0</ele><time>2026-04-12T08:15:30.998Z</time></trkpt><trkpt lat="41.79807007506049" lon="14.147227232899946"><ele>920.0</ele><time>2026-04-12T08:15:31.998Z</time></trkpt><trkpt lat="41.7981760730344" lon="14.147321660480955"><ele>921.0</ele><time>2026-04-12T08:15:32.998Z</time></trkpt><trkpt lat="41.79826050290787" lon="14.14742741573381"><ele>922.0</ele><time>2026-04-12T08:15:33.998Z</time></trkpt><trkpt lat="41.79834567146801" lon="14.147552740066812"><ele>923.0</ele><time>2026-04-12T08:15:34.998Z</time></trkpt><trkpt lat="41.79843939219744" lon="14.14770208770807"><ele>924.0</ele><time>2026-04-12T08:15:35.998Z</time></trkpt><trkpt lat="41.79853126914855" lon="14.147841319866052"><ele>924.0</ele><time>2026-04-12T08:15:36.998Z</time></trkpt><trkpt lat="41.798614603720786" lon="14.147950630839008"><ele>924.0</ele><time>2026-04-12T08:15:37.998Z</time></trkpt><trkpt lat="41.798701631355655" lon="14.148042723961563"><ele>924.0</ele><time>2026-04-12T08:15:38.998Z</time></trkpt><trkpt lat="41.7988062966753" lon="14.148139592753827"><ele>924.0</ele><time>2026-04-12T08:15:39.999Z</time></trkpt><trkpt lat="41.79891500457606" lon="14.148224535446934"><ele>927.0</ele><time>2026-04-12T08:15:41Z</time></trkpt><trkpt lat="41.79899846002821" lon="14.148292507708033"><ele>930.0000000000001</ele><time>2026-04-12T08:15:41.999Z</time></trkpt><trkpt lat="41.799066001759414" lon="14.148356640187409"><ele>933.0000000000001</ele><time>2026-04-12T08:15:42.999Z</time></trkpt><trkpt lat="41.799112925102875" lon="14.14841914854406"><ele>936.0</ele><time>2026-04-12T08:15:43.999Z</time></trkpt><trkpt lat="41.79917130236626" lon="14.148535486716975"><ele>939.0</ele><time>2026-04-12T08:15:44.999Z</time></trkpt><trkpt lat="41.799242832284165" lon="14.148666051076717"><ele>939.0</ele><time>2026-04-12T08:15:45.999Z</time></trkpt><trkpt lat="41.79931122084623" lon="14.148799395706328"><ele>939.0000000000001</ele><time>2026-04-12T08:15:46.999Z</time></trkpt><trkpt lat="41.79936407200928" lon="14.14893944029847"><ele>939.0000000000001</ele><time>2026-04-12T08:15:47.999Z</time></trkpt><trkpt lat="41.7994111200016" lon="14.149045158503917"><ele>939.0</ele><time>2026-04-12T08:15:48.999Z</time></trkpt><trkpt lat="41.79947958398281" lon="14.149124542802358"><ele>939.0</ele><time>2026-04-12T08:15:49.999Z</time></trkpt><trkpt lat="41.7995575563138" lon="14.14919789806898"><ele>937.6</ele><time>2026-04-12T08:15:50.999Z</time></trkpt><trkpt lat="41.79960283908152" lon="14.149276695373251"><ele>936.2</ele><time>2026-04-12T08:15:51.999Z</time></trkpt><trkpt lat="41.79963658080569" lon="14.149407921393404"><ele>934.8000000000001</ele><time>2026-04-12T08:15:52.999Z</time></trkpt><trkpt lat="41.799656456811505" lon="14.14953231532602"><ele>933.4000000000001</ele><time>2026-04-12T08:15:53.999Z</time></trkpt><trkpt lat="41.79967950699614" lon="14.149664066962199"><ele>932.0</ele><time>2026-04-12T08:15:54.999Z</time></trkpt><trkpt lat="41.799717244889884" lon="14.149794503825012"><ele>936.2</ele><time>2026-04-12T08:15:55.999Z</time></trkpt><trkpt lat="41.79977080624805" lon="14.149909588413669"><ele>940.4000000000001</ele><time>2026-04-12T08:15:56.999Z</time></trkpt><trkpt lat="41.79983864461866" lon="14.15001945032066"><ele>944.5999999999999</ele><time>2026-04-12T08:15:57.999Z</time></trkpt><trkpt lat="41.799923255224996" lon="14.150101535720143"><ele>948.8</ele><time>2026-04-12T08:15:58.999Z</time></trkpt><trkpt lat="41.8000016172968" lon="14.150151679528529"><ele>953.0</ele><time>2026-04-12T08:15:59.999Z</time></trkpt><trkpt lat="41.800072510894516" lon="14.150199119642737"><ele>953.0000000000001</ele><time>2026-04-12T08:16:00.999Z</time></trkpt><trkpt lat="41.80012787520283" lon="14.15026501818701"><ele>953.0</ele><time>2026-04-12T08:16:01.999Z</time></trkpt><trkpt lat="41.80017361800382" lon="14.150323710278572"><ele>953.0</ele><time>2026-04-12T08:16:02.999Z</time></trkpt><trkpt lat="41.80023438384682" lon="14.150416927916732"><ele>953.0</ele><time>2026-04-12T08:16:04.999Z</time></trkpt><trkpt lat="41.800288170462274" lon="14.1504854464923"><ele>953.0000000000001</ele><time>2026-04-12T08:16:06.999Z</time></trkpt><trkpt lat="41.800342776286755" lon="14.150607692378863"><ele>953.0</ele><time>2026-04-12T08:16:08.999Z</time></trkpt><trkpt lat="41.80042003756758" lon="14.150691808468498"><ele>953.0000000000001</ele><time>2026-04-12T08:16:13.999Z</time></trkpt><trkpt lat="41.8005026239914" lon="14.150775537684375"><ele>953.0</ele><time>2026-04-12T08:16:15.999Z</time></trkpt><trkpt lat="41.80056539023712" lon="14.15082957367652"><ele>953.0</ele><time>2026-04-12T08:16:17.999Z</time></trkpt><trkpt lat="41.80062687185417" lon="14.150886045720277"><ele>953.0</ele><time>2026-04-12T08:16:20.999Z</time></trkpt><trkpt lat="41.800661009949785" lon="14.150974721633283"><ele>953.0000000000001</ele><time>2026-04-12T08:16:28.999Z</time></trkpt><trkpt lat="41.80069524523394" lon="14.151051972912292"><ele>953.0</ele><time>2026-04-12T08:16:32.999Z</time></trkpt><trkpt lat="41.800742466116226" lon="14.151118683111887"><ele>953.0000000000001</ele><time>2026-04-12T08:16:36.999Z</time></trkpt><trkpt lat="41.80079008979455" lon="14.15119107840078"><ele>953.0</ele><time>2026-04-12T08:16:38.999Z</time></trkpt><trkpt lat="41.80083360245412" lon="14.15126719941694"><ele>953.0</ele><time>2026-04-12T08:16:40.999Z</time></trkpt><trkpt lat="41.800892456662034" lon="14.15132170734146"><ele>953.0</ele><time>2026-04-12T08:16:42.999Z</time></trkpt><trkpt lat="41.80095457064356" lon="14.151376468089087"><ele>953.0000000000001</ele><time>2026-04-12T08:16:44.999Z</time></trkpt><trkpt lat="41.80100400715506" lon="14.151452685917967"><ele>953.0</ele><time>2026-04-12T08:16:46.999Z</time></trkpt><trkpt lat="41.80108314107249" lon="14.151498847711776"><ele>955.4</ele><time>2026-04-12T08:16:48.999Z</time></trkpt><trkpt lat="41.80117216784915" lon="14.151527241402322"><ele>957.8</ele><time>2026-04-12T08:16:50.999Z</time></trkpt><trkpt lat="41.801356029259495" lon="14.151520015704294"><ele>960.2</ele><time>2026-04-12T08:16:53.999Z</time></trkpt><trkpt lat="41.801421450981984" lon="14.151543716353876"><ele>962.6</ele><time>2026-04-12T08:16:54.999Z</time></trkpt><trkpt lat="41.801485964471304" lon="14.151547815950233"><ele>965.0</ele><time>2026-04-12T08:16:55.999Z</time></trkpt><trkpt lat="41.80158920481532" lon="14.15157473357592"><ele>965.0</ele><time>2026-04-12T08:16:57.999Z</time></trkpt><trkpt lat="41.801709956693124" lon="14.151669055513695"><ele>965.0</ele><time>2026-04-12T08:16:59.999Z</time></trkpt><trkpt lat="41.80177571740078" lon="14.151689914513604"><ele>965.0</ele><time>2026-04-12T08:17:00.999Z</time></trkpt><trkpt lat="41.80185027759853" lon="14.151693336642424"><ele>965.0</ele><time>2026-04-12T08:17:01.999Z</time></trkpt><trkpt lat="41.801954434513306" lon="14.151661773840047"><ele>965.0</ele><time>2026-04-12T08:17:03.999Z</time></trkpt><trkpt lat="41.80202272702664" lon="14.151694503566455"><ele>962.1666666666667</ele><time>2026-04-12T08:17:05.999Z</time></trkpt><trkpt lat="41.80207645245591" lon="14.15175576675705"><ele>959.3333333333334</ele><time>2026-04-12T08:17:07.998Z</time></trkpt><trkpt lat="41.80214102189678" lon="14.151803446161392"><ele>956.5</ele><time>2026-04-12T08:17:09.998Z</time></trkpt><trkpt lat="41.802224443318174" lon="14.151864333705008"><ele>953.6666666666667</ele><time>2026-04-12T08:17:11.998Z</time></trkpt><trkpt lat="41.802296938906565" lon="14.15196364190801"><ele>950.8333333333334</ele><time>2026-04-12T08:17:13.998Z</time></trkpt><trkpt lat="41.80236311161136" lon="14.152029775198782"><ele>948.0</ele><time>2026-04-12T08:17:14.998Z</time></trkpt><trkpt lat="41.80242114747833" lon="14.152084909868146"><ele>948.0</ele><time>2026-04-12T08:17:15.998Z</time></trkpt><trkpt lat="41.80247823434066" lon="14.152144341100458"><ele>948.0</ele><time>2026-04-12T08:17:16.998Z</time></trkpt><trkpt lat="41.80254059381414" lon="14.152226685460239"><ele>948.0</ele><time>2026-04-12T08:17:17.998Z</time></trkpt><trkpt lat="41.80261434093665" lon="14.152338294001341"><ele>948.0</ele><time>2026-04-12T08:17:18.998Z</time></trkpt><trkpt lat="41.802654915754914" lon="14.152462322486269"><ele>948.0</ele><time>2026-04-12T08:17:19.998Z</time></trkpt><trkpt lat="41.80267931496348" lon="14.15263302582962"><ele>946.8</ele><time>2026-04-12T08:17:21.998Z</time></trkpt><trkpt lat="41.8026819733086" lon="14.152720807196705"><ele>945.5999999999999</ele><time>2026-04-12T08:17:22.998Z</time></trkpt><trkpt lat="41.80272298552279" lon="14.152882700014882"><ele>944.4000000000001</ele><time>2026-04-12T08:17:24.998Z</time></trkpt><trkpt lat="41.802783553490606" lon="14.152939674572403"><ele>943.2</ele><time>2026-04-12T08:17:25.998Z</time></trkpt><trkpt lat="41.80287096544408" lon="14.153044358525987"><ele>942.0</ele><time>2026-04-12T08:17:27.998Z</time></trkpt><trkpt lat="41.80297183766119" lon="14.153093293478644"><ele>942.0</ele><time>2026-04-12T08:17:28.998Z</time></trkpt><trkpt lat="41.803102166700064" lon="14.153158401396066"><ele>942.0</ele><time>2026-04-12T08:17:29.998Z</time></trkpt><trkpt lat="41.803214082668646" lon="14.153224066331303"><ele>942.0</ele><time>2026-04-12T08:17:30.998Z</time></trkpt><trkpt lat="41.80326421834979" lon="14.15328752341405"><ele>942.0</ele><time>2026-04-12T08:17:31.998Z</time></trkpt><trkpt lat="41.8033136019843" lon="14.153448138425896"><ele>943.0</ele><time>2026-04-12T08:17:33.998Z</time></trkpt><trkpt lat="41.8033621504313" lon="14.153528782270072"><ele>944.0</ele><time>2026-04-12T08:17:34.998Z</time></trkpt><trkpt lat="41.80343398356742" lon="14.15360558911797"><ele>945.0</ele><time>2026-04-12T08:17:35.998Z</time></trkpt><trkpt lat="41.803527752564854" lon="14.153645403117837"><ele>946.0</ele><time>2026-04-12T08:17:36.998Z</time></trkpt><trkpt lat="41.80363994530804" lon="14.153702113797545"><ele>947.0</ele><time>2026-04-12T08:17:37.998Z</time></trkpt><trkpt lat="41.80372703931322" lon="14.153781340976298"><ele>947.0000000000001</ele><time>2026-04-12T08:17:38.998Z</time></trkpt><trkpt lat="41.80380145863867" lon="14.15385862198607"><ele>947.0</ele><time>2026-04-12T08:17:39.998Z</time></trkpt><trkpt lat="41.803860918546775" lon="14.153932785008887"><ele>947.0</ele><time>2026-04-12T08:17:40.998Z</time></trkpt><trkpt lat="41.80391402722834" lon="14.154013353606157"><ele>947.0</ele><time>2026-04-12T08:17:42.998Z</time></trkpt><trkpt lat="41.80397160264581" lon="14.154076891182909"><ele>947.0000000000001</ele><time>2026-04-12T08:17:44.998Z</time></trkpt><trkpt lat="41.804014688051815" lon="14.154173874869096"><ele>947.0</ele><time>2026-04-12T08:17:46.999Z</time></trkpt><trkpt lat="41.804074765591515" lon="14.15430174848619"><ele>949.0</ele><time>2026-04-12T08:17:49Z</time></trkpt><trkpt lat="41.80411701850534" lon="14.154451889553187"><ele>951.0</ele><time>2026-04-12T08:17:49.999Z</time></trkpt><trkpt lat="41.804160555473054" lon="14.154605275425403"><ele>953.0</ele><time>2026-04-12T08:17:50.999Z</time></trkpt><trkpt lat="41.80418802236366" lon="14.15472230848175"><ele>955.0</ele><time>2026-04-12T08:17:51.999Z</time></trkpt><trkpt lat="41.804221642702714" lon="14.154796729782788"><ele>957.0</ele><time>2026-04-12T08:17:52.999Z</time></trkpt><trkpt lat="41.80426021889965" lon="14.154892703912026"><ele>957.8333333333334</ele><time>2026-04-12T08:17:54.999Z</time></trkpt><trkpt lat="41.8042866635065" lon="14.1549751474186"><ele>958.6666666666667</ele><time>2026-04-12T08:17:59.999Z</time></trkpt><trkpt lat="41.80430475141486" lon="14.155120767375411"><ele>959.5</ele><time>2026-04-12T08:18:02.999Z</time></trkpt><trkpt lat="41.80430321001794" lon="14.155222419660793"><ele>960.3333333333334</ele><time>2026-04-12T08:18:03.998Z</time></trkpt><trkpt lat="41.804296557393464" lon="14.155333275513884"><ele>961.1666666666667</ele><time>2026-04-12T08:18:04.998Z</time></trkpt><trkpt lat="41.8042752202954" lon="14.155449608507013"><ele>962.0</ele><time>2026-04-12T08:18:05.998Z</time></trkpt><trkpt lat="41.80425646376969" lon="14.155545274423973"><ele>962.0000000000001</ele><time>2026-04-12T08:18:06.998Z</time></trkpt><trkpt lat="41.804242059517435" lon="14.155646346779495"><ele>962.0</ele><time>2026-04-12T08:18:07.998Z</time></trkpt><trkpt lat="41.804230818540276" lon="14.155769207113616"><ele>962.0</ele><time>2026-04-12T08:18:08.998Z</time></trkpt><trkpt lat="41.80420145313135" lon="14.155879494621924"><ele>962.0</ele><time>2026-04-12T08:18:09.998Z</time></trkpt><trkpt lat="41.804192153744715" lon="14.155975112480435"><ele>962.0000000000001</ele><time>2026-04-12T08:18:10.998Z</time></trkpt><trkpt lat="41.80417896051555" lon="14.156067810817714"><ele>962.0</ele><time>2026-04-12T08:18:12.998Z</time></trkpt><trkpt lat="41.80416318516376" lon="14.156153699307675"><ele>961.8333333333334</ele><time>2026-04-12T08:18:14.998Z</time></trkpt><trkpt lat="41.804162307778675" lon="14.156254991658228"><ele>961.6666666666667</ele><time>2026-04-12T08:18:15.998Z</time></trkpt><trkpt lat="41.80416621183238" lon="14.156353616607616"><ele>961.5</ele><time>2026-04-12T08:18:16.998Z</time></trkpt><trkpt lat="41.80417977884955" lon="14.15646561175179"><ele>961.3333333333333</ele><time>2026-04-12T08:18:17.998Z</time></trkpt><trkpt lat="41.80420667298953" lon="14.156585231795301"><ele>961.1666666666666</ele><time>2026-04-12T08:18:18.998Z</time></trkpt><trkpt lat="41.804222479862155" lon="14.156685855501921"><ele>961.0</ele><time>2026-04-12T08:18:19.998Z</time></trkpt><trkpt lat="41.80426357093908" lon="14.156784615002337"><ele>961.4999999999999</ele><time>2026-04-12T08:18:20.998Z</time></trkpt><trkpt lat="41.80427200811384" lon="14.156875909921176"><ele>962.0</ele><time>2026-04-12T08:18:21.998Z</time></trkpt><trkpt lat="41.8042875265504" lon="14.156986040588992"><ele>962.5</ele><time>2026-04-12T08:18:22.998Z</time></trkpt><trkpt lat="41.80431909392081" lon="14.15710650050806"><ele>963.0</ele><time>2026-04-12T08:18:23.998Z</time></trkpt><trkpt lat="41.80435669281062" lon="14.157210395369843"><ele>963.4999999999999</ele><time>2026-04-12T08:18:24.998Z</time></trkpt><trkpt lat="41.80439021250826" lon="14.157299091132368"><ele>964.0</ele><time>2026-04-12T08:18:28.998Z</time></trkpt><trkpt lat="41.80440498107002" lon="14.157418455982508"><ele>958.75</ele><time>2026-04-12T08:18:31.998Z</time></trkpt><trkpt lat="41.80439947416979" lon="14.15756482519681"><ele>953.5</ele><time>2026-04-12T08:18:33.998Z</time></trkpt><trkpt lat="41.804447553169254" lon="14.157697194078816"><ele>948.25</ele><time>2026-04-12T08:18:35.998Z</time></trkpt><trkpt lat="41.80462649458399" lon="14.157700795138197"><ele>943.0</ele><time>2026-04-12T08:18:39.998Z</time></trkpt><trkpt lat="41.80474425124685" lon="14.157801976406153"><ele>943.0</ele><time>2026-04-12T08:18:42.998Z</time></trkpt><trkpt lat="41.804816996094154" lon="14.157909698412979"><ele>943.0</ele><time>2026-04-12T08:18:44.998Z</time></trkpt><trkpt lat="41.804828102686855" lon="14.158079766320428"><ele>943.0</ele><time>2026-04-12T08:18:46.998Z</time></trkpt><trkpt lat="41.804806287310186" lon="14.158202526195955"><ele>943.0</ele><time>2026-04-12T08:18:47.998Z</time></trkpt><trkpt lat="41.80480587813117" lon="14.158309071970304"><ele>943.0</ele><time>2026-04-12T08:18:48.998Z</time></trkpt><trkpt lat="41.80489482443738" lon="14.15836853938252"><ele>944.0</ele><time>2026-04-12T08:18:50.998Z</time></trkpt><trkpt lat="41.80498527980199" lon="14.158339895313233"><ele>945.0</ele><time>2026-04-12T08:18:51.998Z</time></trkpt><trkpt lat="41.80509789506753" lon="14.158317954348037"><ele>946.0</ele><time>2026-04-12T08:18:52.998Z</time></trkpt><trkpt lat="41.805279380781116" lon="14.15839861188103"><ele>947.0</ele><time>2026-04-12T08:18:54.998Z</time></trkpt><trkpt lat="41.805335362046485" lon="14.158488612233487"><ele>943.0</ele><time>2026-04-12T08:18:55.998Z</time></trkpt><trkpt lat="41.80541983683326" lon="14.158603884709684"><ele>939.0</ele><time>2026-04-12T08:18:56.998Z</time></trkpt><trkpt lat="41.80552101517923" lon="14.15871033670842"><ele>935.0</ele><time>2026-04-12T08:18:57.998Z</time></trkpt><trkpt lat="41.80563121419794" lon="14.158764005818508"><ele>931.0</ele><time>2026-04-12T08:18:58.998Z</time></trkpt><trkpt lat="41.805707425860206" lon="14.15876487722829"><ele>927.0</ele><time>2026-04-12T08:18:59.998Z</time></trkpt><trkpt lat="41.80577470729497" lon="14.158834095516022"><ele>927.0</ele><time>2026-04-12T08:19:01.998Z</time></trkpt><trkpt lat="41.80572177837563" lon="14.158950506598234"><ele>927.0</ele><time>2026-04-12T08:19:03.998Z</time></trkpt><trkpt lat="41.80565070577374" lon="14.159017277437982"><ele>927.0</ele><time>2026-04-12T08:19:04.998Z</time></trkpt><trkpt lat="41.80559854178004" lon="14.159078887627217"><ele>927.0</ele><time>2026-04-12T08:19:05.998Z</time></trkpt><trkpt lat="41.805618394270525" lon="14.159191370192342"><ele>927.0</ele><time>2026-04-12T08:19:07.998Z</time></trkpt><trkpt lat="41.8056617532947" lon="14.159256686923689"><ele>927.0</ele><time>2026-04-12T08:19:08.998Z</time></trkpt><trkpt lat="41.805669689072175" lon="14.159356156366414"><ele>926.2</ele><time>2026-04-12T08:19:10.998Z</time></trkpt><trkpt lat="41.805572414111744" lon="14.159482746863842"><ele>925.4000000000001</ele><time>2026-04-12T08:19:12.998Z</time></trkpt><trkpt lat="41.805493404247734" lon="14.159574074651692"><ele>924.5999999999999</ele><time>2026-04-12T08:19:13.998Z</time></trkpt><trkpt lat="41.805459256942484" lon="14.159671302421664"><ele>923.8</ele><time>2026-04-12T08:19:15.998Z</time></trkpt><trkpt lat="41.8054349730806" lon="14.159777157006063"><ele>923.0</ele><time>2026-04-12T08:19:18.998Z</time></trkpt><trkpt lat="41.80539204880931" lon="14.159840614113103"><ele>920.8</ele><time>2026-04-12T08:19:20.998Z</time></trkpt><trkpt lat="41.80537295641099" lon="14.15994515058766"><ele>918.5999999999999</ele><time>2026-04-12T08:19:22.998Z</time></trkpt><trkpt lat="41.805397969418316" lon="14.1600441474017"><ele>916.4000000000001</ele><time>2026-04-12T08:19:25.998Z</time></trkpt><trkpt lat="41.805500883247326" lon="14.160059451760233"><ele>914.2</ele><time>2026-04-12T08:20:05.999Z</time></trkpt><trkpt lat="41.80562230246144" lon="14.16003455492207"><ele>912.0</ele><time>2026-04-12T08:20:08.999Z</time></trkpt><trkpt lat="41.80572593302839" lon="14.160084900468307"><ele>912.0</ele><time>2026-04-12T08:20:10.999Z</time></trkpt><trkpt lat="41.80579059136026" lon="14.160090465338353"><ele>912.0</ele><time>2026-04-12T08:20:11.999Z</time></trkpt><trkpt lat="41.805892005982095" lon="14.160126908230199"><ele>912.0</ele><time>2026-04-12T08:20:13.999Z</time></trkpt><trkpt lat="41.805970312307885" lon="14.160200305232527"><ele>912.0</ele><time>2026-04-12T08:20:14.999Z</time></trkpt><trkpt lat="41.80604075850658" lon="14.160278113422098"><ele>912.0</ele><time>2026-04-12T08:20:15.999Z</time></trkpt><trkpt lat="41.80611043235177" lon="14.160334449324976"><ele>912.0</ele><time>2026-04-12T08:20:16.999Z</time></trkpt><trkpt lat="41.80622050238575" lon="14.160371662538218"><ele>909.2</ele><time>2026-04-12T08:20:17.999Z</time></trkpt><trkpt lat="41.8063003393544" lon="14.160379678577547"><ele>906.4000000000001</ele><time>2026-04-12T08:20:18.999Z</time></trkpt><trkpt lat="41.806413418358765" lon="14.160460799879294"><ele>903.5999999999999</ele><time>2026-04-12T08:20:20.999Z</time></trkpt><trkpt lat="41.806451436584474" lon="14.160581286911842"><ele>900.8</ele><time>2026-04-12T08:20:22.999Z</time></trkpt><trkpt lat="41.80648680716185" lon="14.160694968642103"><ele>898.0</ele><time>2026-04-12T08:20:24.998Z</time></trkpt><trkpt lat="41.80654764849547" lon="14.160757414523708"><ele>896.6666666666666</ele><time>2026-04-12T08:20:25.998Z</time></trkpt><trkpt lat="41.806600972891246" lon="14.160813774789471"><ele>895.3333333333333</ele><time>2026-04-12T08:20:26.998Z</time></trkpt><trkpt lat="41.80665477057889" lon="14.16087154335157"><ele>894.0</ele><time>2026-04-12T08:20:27.998Z</time></trkpt><trkpt lat="41.806704363314786" lon="14.160926340304012"><ele>892.6666666666667</ele><time>2026-04-12T08:20:28.998Z</time></trkpt><trkpt lat="41.806762529893525" lon="14.160976729177452"><ele>891.3333333333334</ele><time>2026-04-12T08:20:29.998Z</time></trkpt><trkpt lat="41.80682734846265" lon="14.161054096826549"><ele>890.0</ele><time>2026-04-12T08:20:31.998Z</time></trkpt><trkpt lat="41.80693256619698" lon="14.161165659561986"><ele>888.0000000000001</ele><time>2026-04-12T08:20:33.998Z</time></trkpt><trkpt lat="41.80699122976161" lon="14.1612205123091"><ele>886.0</ele><time>2026-04-12T08:20:34.998Z</time></trkpt><trkpt lat="41.80703931471479" lon="14.16129942666275"><ele>884.0</ele><time>2026-04-12T08:20:35.998Z</time></trkpt><trkpt lat="41.80705350676087" lon="14.16138708740084"><ele>882.0</ele><time>2026-04-12T08:20:37.998Z</time></trkpt><trkpt lat="41.80708824862874" lon="14.16146203279749"><ele>880.0000000000001</ele><time>2026-04-12T08:20:38.998Z</time></trkpt><trkpt lat="41.80714068717907" lon="14.161595179504229"><ele>878.0</ele><time>2026-04-12T08:20:40.998Z</time></trkpt><trkpt lat="41.80717854290547" lon="14.16169659203994"><ele>876.6666666666667</ele><time>2026-04-12T08:20:42.998Z</time></trkpt><trkpt lat="41.80722563339407" lon="14.161790828287844"><ele>875.3333333333334</ele><time>2026-04-12T08:20:44.998Z</time></trkpt><trkpt lat="41.80726790298998" lon="14.16190700304877"><ele>874.0</ele><time>2026-04-12T08:20:46.998Z</time></trkpt><trkpt lat="41.80729072794703" lon="14.161986157984146"><ele>872.6666666666667</ele><time>2026-04-12T08:20:48.998Z</time></trkpt><trkpt lat="41.80727733551518" lon="14.162088595923032"><ele>871.3333333333334</ele><time>2026-04-12T08:20:50.998Z</time></trkpt><trkpt lat="41.80729845399747" lon="14.162175679739098"><ele>870.0</ele><time>2026-04-12T08:20:52.998Z</time></trkpt><trkpt lat="41.80737584354254" lon="14.162282948715427"><ele>871.2</ele><time>2026-04-12T08:20:54.998Z</time></trkpt><trkpt lat="41.80744264196154" lon="14.162373989571613"><ele>872.4</ele><time>2026-04-12T08:20:56.998Z</time></trkpt><trkpt lat="41.80745207368751" lon="14.162464034215102"><ele>873.5999999999999</ele><time>2026-04-12T08:20:57.998Z</time></trkpt><trkpt lat="41.807531866037934" lon="14.162601358168445"><ele>874.8</ele><time>2026-04-12T08:20:59.998Z</time></trkpt><trkpt lat="41.80756381609943" lon="14.162685924306224"><ele>876.0</ele><time>2026-04-12T08:21:00.998Z</time></trkpt><trkpt lat="41.80765741605359" lon="14.162828451090482"><ele>876.5</ele><time>2026-04-12T08:21:02.998Z</time></trkpt><trkpt lat="41.80769565854784" lon="14.162902888381101"><ele>877.0</ele><time>2026-04-12T08:21:03.998Z</time></trkpt><trkpt lat="41.80772322076087" lon="14.163025699079485"><ele>877.5</ele><time>2026-04-12T08:21:04.998Z</time></trkpt><trkpt lat="41.807749046254834" lon="14.163135118542552"><ele>878.0</ele><time>2026-04-12T08:21:05.998Z</time></trkpt><trkpt lat="41.807809118170525" lon="14.163222732903504"><ele>878.5</ele><time>2026-04-12T08:21:07.998Z</time></trkpt><trkpt lat="41.807819474260924" lon="14.163370432966738"><ele>879.0</ele><time>2026-04-12T08:21:09.998Z</time></trkpt><trkpt lat="41.80783693070774" lon="14.163507748089843"><ele>879.0</ele><time>2026-04-12T08:21:11.998Z</time></trkpt><trkpt lat="41.80784578405105" lon="14.16362120341436"><ele>879.0000000000001</ele><time>2026-04-12T08:21:13.998Z</time></trkpt><trkpt lat="41.80791527039532" lon="14.163642766776936"><ele>879.0000000000001</ele><time>2026-04-12T08:21:16.998Z</time></trkpt><trkpt lat="41.80795937640528" lon="14.163712745308503"><ele>879.0</ele><time>2026-04-12T08:21:19.998Z</time></trkpt><trkpt lat="41.80804808215796" lon="14.163750632576381"><ele>879.0</ele><time>2026-04-12T08:21:22.998Z</time></trkpt><trkpt lat="41.80824995207745" lon="14.163754057879304"><ele>879.0</ele><time>2026-04-12T08:21:30.998Z</time></trkpt><trkpt lat="41.80842931270302" lon="14.163715041375296"><ele>879.0</ele><time>2026-04-12T08:21:34.998Z</time></trkpt><trkpt lat="41.80854290252299" lon="14.163651119358613"><ele>879.0</ele><time>2026-04-12T08:21:36.998Z</time></trkpt><trkpt lat="41.80861104075687" lon="14.163646495017701"><ele>879.0</ele><time>2026-04-12T08:21:37.998Z</time></trkpt><trkpt lat="41.80868810697436" lon="14.16363490641786"><ele>876.0</ele><time>2026-04-12T08:21:38.998Z</time></trkpt><trkpt lat="41.80876449127055" lon="14.163584957644728"><ele>873.0000000000001</ele><time>2026-04-12T08:21:39.998Z</time></trkpt><trkpt lat="41.80885406318801" lon="14.163503544682492"><ele>870.0000000000001</ele><time>2026-04-12T08:21:40.998Z</time></trkpt><trkpt lat="41.808944256699704" lon="14.163419655171923"><ele>867.0</ele><time>2026-04-12T08:21:41.998Z</time></trkpt><trkpt lat="41.80902614552955" lon="14.163371195305368"><ele>864.0</ele><time>2026-04-12T08:21:42.998Z</time></trkpt><trkpt lat="41.809125177065425" lon="14.163325729718261"><ele>864.0</ele><time>2026-04-12T08:21:43.998Z</time></trkpt><trkpt lat="41.809251716235416" lon="14.163292391685037"><ele>864.0000000000001</ele><time>2026-04-12T08:21:44.998Z</time></trkpt><trkpt lat="41.80937788488559" lon="14.163266839720269"><ele>864.0000000000001</ele><time>2026-04-12T08:21:45.998Z</time></trkpt><trkpt lat="41.80946534814103" lon="14.163250730105823"><ele>864.0</ele><time>2026-04-12T08:21:46.998Z</time></trkpt><trkpt lat="41.80955107844131" lon="14.163223468932554"><ele>864.0</ele><time>2026-04-12T08:21:48.998Z</time></trkpt><trkpt lat="41.80966150103386" lon="14.163239456002175"><ele>860.8000000000001</ele><time>2026-04-12T08:21:50.998Z</time></trkpt><trkpt lat="41.809767881693794" lon="14.163255788316716"><ele>857.6000000000001</ele><time>2026-04-12T08:21:51.998Z</time></trkpt><trkpt lat="41.809872277772044" lon="14.163258820027643"><ele>854.4</ele><time>2026-04-12T08:21:52.998Z</time></trkpt><trkpt lat="41.809959120324876" lon="14.163255706131347"><ele>851.2</ele><time>2026-04-12T08:21:53.998Z</time></trkpt><trkpt lat="41.81003052240896" lon="14.163235487983645"><ele>848.0</ele><time>2026-04-12T08:21:54.998Z</time></trkpt><trkpt lat="41.81011833114698" lon="14.16323516262291"><ele>845.0</ele><time>2026-04-12T08:21:55.998Z</time></trkpt><trkpt lat="41.8103019933753" lon="14.16323226336748"><ele>842.0</ele><time>2026-04-12T08:21:57.999Z</time></trkpt><trkpt lat="41.810381604690754" lon="14.1632189287688"><ele>839.0</ele><time>2026-04-12T08:21:59Z</time></trkpt><trkpt lat="41.810458765835776" lon="14.163205992530482"><ele>836.0</ele><time>2026-04-12T08:22:00Z</time></trkpt><trkpt lat="41.81055090030764" lon="14.163180477027407"><ele>833.0</ele><time>2026-04-12T08:22:00.999Z</time></trkpt><trkpt lat="41.81065978319475" lon="14.163126621150077"><ele>833.0</ele><time>2026-04-12T08:22:01.999Z</time></trkpt><trkpt lat="41.810761837311475" lon="14.163061050675712"><ele>833.0</ele><time>2026-04-12T08:22:02.999Z</time></trkpt><trkpt lat="41.81088191293542" lon="14.16302564675508"><ele>833.0</ele><time>2026-04-12T08:22:04.999Z</time></trkpt><trkpt lat="41.811004877358315" lon="14.162982303868935"><ele>833.0</ele><time>2026-04-12T08:22:06.999Z</time></trkpt><trkpt lat="41.81108203502551" lon="14.162946609340473"><ele>833.0</ele><time>2026-04-12T08:22:07.999Z</time></trkpt><trkpt lat="41.81112489648695" lon="14.162869336848871"><ele>830.1666666666667</ele><time>2026-04-12T08:22:08.999Z</time></trkpt><trkpt lat="41.811175286701754" lon="14.162789729121817"><ele>827.3333333333334</ele><time>2026-04-12T08:22:11.999Z</time></trkpt><trkpt lat="41.81128522471075" lon="14.162743420616893"><ele>824.5</ele><time>2026-04-12T08:22:13.999Z</time></trkpt><trkpt lat="41.81134050766324" lon="14.162685253557456"><ele>821.6666666666667</ele><time>2026-04-12T08:22:14.999Z</time></trkpt><trkpt lat="41.81136663861541" lon="14.162605249991104"><ele>818.8333333333334</ele><time>2026-04-12T08:22:15.999Z</time></trkpt><trkpt lat="41.81134908461999" lon="14.162511097514004"><ele>816.0</ele><time>2026-04-12T08:22:16.999Z</time></trkpt><trkpt lat="41.81139560889588" lon="14.162422214567872"><ele>819.0</ele><time>2026-04-12T08:22:18.999Z</time></trkpt><trkpt lat="41.81149289069136" lon="14.162301762227681"><ele>822.0</ele><time>2026-04-12T08:22:20.999Z</time></trkpt><trkpt lat="41.8115336772028" lon="14.162229280293802"><ele>825.0</ele><time>2026-04-12T08:22:21.999Z</time></trkpt><trkpt lat="41.8115867609525" lon="14.162123348720291"><ele>828.0</ele><time>2026-04-12T08:22:23.999Z</time></trkpt><trkpt lat="41.811703009168866" lon="14.162106131339677"><ele>831.0</ele><time>2026-04-12T08:22:24.999Z</time></trkpt><trkpt lat="41.81179531455329" lon="14.162100628335907"><ele>826.25</ele><time>2026-04-12T08:22:25.999Z</time></trkpt><trkpt lat="41.811861951508384" lon="14.162084780964168"><ele>821.5</ele><time>2026-04-12T08:22:26.999Z</time></trkpt><trkpt lat="41.81192032426867" lon="14.162046402051311"><ele>816.75</ele><time>2026-04-12T08:22:27.999Z</time></trkpt><trkpt lat="41.811981821998" lon="14.161993136570846"><ele>812.0</ele><time>2026-04-12T08:22:28.999Z</time></trkpt><trkpt lat="41.81229711170685" lon="14.161918514501611"><ele>812.0</ele><time>2026-04-12T08:22:33.999Z</time></trkpt><trkpt lat="41.812354214594684" lon="14.161879101191074"><ele>812.0</ele><time>2026-04-12T08:22:34.999Z</time></trkpt><trkpt lat="41.8124704315081" lon="14.161757591363626"><ele>812.0</ele><time>2026-04-12T08:22:36.999Z</time></trkpt><trkpt lat="41.81252613813638" lon="14.161708496128332"><ele>812.0</ele><time>2026-04-12T08:22:37.999Z</time></trkpt><trkpt lat="41.8126266938698" lon="14.161653524512507"><ele>812.0</ele><time>2026-04-12T08:22:39.999Z</time></trkpt><trkpt lat="41.81269052600246" lon="14.161553019915981"><ele>813.0</ele><time>2026-04-12T08:22:41.999Z</time></trkpt><trkpt lat="41.812713762479476" lon="14.161429431202357"><ele>814.0</ele><time>2026-04-12T08:22:42.999Z</time></trkpt><trkpt lat="41.812741676314964" lon="14.161337959210055"><ele>815.0</ele><time>2026-04-12T08:22:43.999Z</time></trkpt><trkpt lat="41.81286705119677" lon="14.161284590532384"><ele>816.0</ele><time>2026-04-12T08:22:45.999Z</time></trkpt><trkpt lat="41.81294355263494" lon="14.161295045428739"><ele>817.0</ele><time>2026-04-12T08:22:47.999Z</time></trkpt><trkpt lat="41.81303875014073" lon="14.161276456817383"><ele>817.0</ele><time>2026-04-12T08:22:49.999Z</time></trkpt><trkpt lat="41.813131444813095" lon="14.161242929003844"><ele>817.0</ele><time>2026-04-12T08:22:51.999Z</time></trkpt><trkpt lat="41.81319428013465" lon="14.161223257904568"><ele>817.0</ele><time>2026-04-12T08:22:52.999Z</time></trkpt><trkpt lat="41.813278694103396" lon="14.161199560756264"><ele>817.0</ele><time>2026-04-12T08:22:53.999Z</time></trkpt><trkpt lat="41.813512289505866" lon="14.161191811869273"><ele>814.9999999999999</ele><time>2026-04-12T08:22:56.999Z</time></trkpt><trkpt lat="41.81359001599839" lon="14.161192624897309"><ele>813.0</ele><time>2026-04-12T08:22:57.999Z</time></trkpt><trkpt lat="41.81365446544822" lon="14.161174279599289"><ele>811.0</ele><time>2026-04-12T08:22:58.999Z</time></trkpt><trkpt lat="41.813771262482774" lon="14.161110368341598"><ele>809.0</ele><time>2026-04-12T08:23:00.999Z</time></trkpt><trkpt lat="41.81384173264714" lon="14.161075803135462"><ele>806.9999999999999</ele><time>2026-04-12T08:23:01.999Z</time></trkpt><trkpt lat="41.813904029637065" lon="14.161056518687134"><ele>805.0</ele><time>2026-04-12T08:23:02.999Z</time></trkpt><trkpt lat="41.81397587617514" lon="14.161030726272422"><ele>805.0</ele><time>2026-04-12T08:23:03.999Z</time></trkpt><trkpt lat="41.81405520001259" lon="14.160990677222763"><ele>805.0</ele><time>2026-04-12T08:23:04.999Z</time></trkpt><trkpt lat="41.814131973496224" lon="14.160937383767545"><ele>805.0</ele><time>2026-04-12T08:23:05.999Z</time></trkpt><trkpt lat="41.81420864858027" lon="14.160881866376776"><ele>805.0</ele><time>2026-04-12T08:23:06.999Z</time></trkpt><trkpt lat="41.814300447931984" lon="14.16082980780155"><ele>805.0</ele><time>2026-04-12T08:23:07.999Z</time></trkpt><trkpt lat="41.81438905449637" lon="14.160744259923108"><ele>802.6</ele><time>2026-04-12T08:23:08.998Z</time></trkpt><trkpt lat="41.81449938130362" lon="14.160666342051199"><ele>800.2</ele><time>2026-04-12T08:23:09.998Z</time></trkpt><trkpt lat="41.814611067619005" lon="14.160650312273676"><ele>797.8</ele><time>2026-04-12T08:23:10.998Z</time></trkpt><trkpt lat="41.81470120668927" lon="14.160651848769225"><ele>795.4</ele><time>2026-04-12T08:23:11.998Z</time></trkpt><trkpt lat="41.81476351748174" lon="14.160608527817917"><ele>793.0</ele><time>2026-04-12T08:23:12.998Z</time></trkpt><trkpt lat="41.81482363778588" lon="14.160557270691106"><ele>792.9999999999999</ele><time>2026-04-12T08:23:13.998Z</time></trkpt><trkpt lat="41.81487522465696" lon="14.160465383529763"><ele>793.0</ele><time>2026-04-12T08:23:14.998Z</time></trkpt><trkpt lat="41.81492180813228" lon="14.160393788054925"><ele>793.0</ele><time>2026-04-12T08:23:15.998Z</time></trkpt><trkpt lat="41.81497249270604" lon="14.160330080046268"><ele>793.0</ele><time>2026-04-12T08:23:16.998Z</time></trkpt><trkpt lat="41.81501960125053" lon="14.16024454022988"><ele>792.9999999999999</ele><time>2026-04-12T08:23:17.998Z</time></trkpt><trkpt lat="41.815079343857526" lon="14.16014818161423"><ele>793.0</ele><time>2026-04-12T08:23:18.998Z</time></trkpt><trkpt lat="41.8151485414503" lon="14.160078235256426"><ele>790.4999999999999</ele><time>2026-04-12T08:23:19.998Z</time></trkpt><trkpt lat="41.815190424314736" lon="14.160012266776388"><ele>788.0</ele><time>2026-04-12T08:23:20.998Z</time></trkpt><trkpt lat="41.8151933929987" lon="14.159890401767452"><ele>785.5</ele><time>2026-04-12T08:23:22.998Z</time></trkpt><trkpt lat="41.81523427741721" lon="14.159815267854642"><ele>783.0</ele><time>2026-04-12T08:23:24.998Z</time></trkpt><trkpt lat="41.81526253814013" lon="14.15969697204295"><ele>780.4999999999999</ele><time>2026-04-12T08:24:54.999Z</time></trkpt><trkpt lat="41.81524085163693" lon="14.159594159448835"><ele>778.0</ele><time>2026-04-12T08:25:10.999Z</time></trkpt><trkpt lat="41.8151801195586" lon="14.159559331211787"><ele>777.6666666666666</ele><time>2026-04-12T08:25:12.999Z</time></trkpt><trkpt lat="41.81523449724741" lon="14.159459592789652"><ele>777.3333333333333</ele><time>2026-04-12T08:25:16.999Z</time></trkpt><trkpt lat="41.8152983421863" lon="14.159418145746718"><ele>777.0</ele><time>2026-04-12T08:25:17.999Z</time></trkpt><trkpt lat="41.81536471710204" lon="14.159366918925944"><ele>776.6666666666667</ele><time>2026-04-12T08:25:18.999Z</time></trkpt><trkpt lat="41.81546042432329" lon="14.159302404316486"><ele>776.3333333333334</ele><time>2026-04-12T08:25:19.999Z</time></trkpt><trkpt lat="41.81554135840504" lon="14.159267799717602"><ele>776.0</ele><time>2026-04-12T08:25:20.999Z</time></trkpt><trkpt lat="41.81562476223914" lon="14.159227623185554"><ele>776.0</ele><time>2026-04-12T08:25:21.999Z</time></trkpt><trkpt lat="41.81575685473933" lon="14.1592493385774"><ele>776.0</ele><time>2026-04-12T08:25:23.999Z</time></trkpt><trkpt lat="41.81584292079983" lon="14.159292766695227"><ele>776.0</ele><time>2026-04-12T08:25:24.999Z</time></trkpt><trkpt lat="41.815928088446846" lon="14.159431244018801"><ele>776.0</ele><time>2026-04-12T08:25:25.999Z</time></trkpt><trkpt lat="41.815877613939186" lon="14.159607525529603"><ele>776.0</ele><time>2026-04-12T08:25:26.999Z</time></trkpt><trkpt lat="41.815851695490245" lon="14.159746624694293"><ele>776.0</ele><time>2026-04-12T08:25:27.999Z</time></trkpt><trkpt lat="41.81582289000252" lon="14.15984343317035"><ele>776.0</ele><time>2026-04-12T08:25:28.999Z</time></trkpt><trkpt lat="41.81579306910579" lon="14.15991879581548"><ele>776.0</ele><time>2026-04-12T08:25:29.999Z</time></trkpt><trkpt lat="41.81577601105491" lon="14.16001159925522"><ele>776.0</ele><time>2026-04-12T08:25:30.999Z</time></trkpt><trkpt lat="41.81580565943138" lon="14.160183631339367"><ele>776.3333333333334</ele><time>2026-04-12T08:25:32.999Z</time></trkpt><trkpt lat="41.81584792260688" lon="14.160262670469988"><ele>776.6666666666667</ele><time>2026-04-12T08:25:33.999Z</time></trkpt><trkpt lat="41.815904368145404" lon="14.160324537780694"><ele>777.0</ele><time>2026-04-12T08:25:34.999Z</time></trkpt><trkpt lat="41.81596727642089" lon="14.160363191353486"><ele>777.3333333333333</ele><time>2026-04-12T08:25:35.999Z</time></trkpt><trkpt lat="41.816047005984224" lon="14.160371750747778"><ele>777.6666666666666</ele><time>2026-04-12T08:25:36.999Z</time></trkpt><trkpt lat="41.81612540399861" lon="14.160329376591658"><ele>778.0</ele><time>2026-04-12T08:25:37.999Z</time></trkpt><trkpt lat="41.81620155983325" lon="14.160239571418156"><ele>776.2</ele><time>2026-04-12T08:25:38.999Z</time></trkpt><trkpt lat="41.81627016244411" lon="14.16014098387642"><ele>774.4</ele><time>2026-04-12T08:25:39.999Z</time></trkpt><trkpt lat="41.816332304899" lon="14.160048774348281"><ele>772.6</ele><time>2026-04-12T08:25:40.999Z</time></trkpt><trkpt lat="41.81639420088426" lon="14.159967815574445"><ele>770.8000000000001</ele><time>2026-04-12T08:25:41.999Z</time></trkpt><trkpt lat="41.81646010460075" lon="14.159875831819596"><ele>769.0</ele><time>2026-04-12T08:25:42.999Z</time></trkpt><trkpt lat="41.81651558858832" lon="14.159788822231206"><ele>768.0</ele><time>2026-04-12T08:25:43.999Z</time></trkpt><trkpt lat="41.81655900790507" lon="14.159693086197057"><ele>767.0</ele><time>2026-04-12T08:25:44.999Z</time></trkpt><trkpt lat="41.816581254076404" lon="14.159571686409333"><ele>766.0</ele><time>2026-04-12T08:25:45.999Z</time></trkpt><trkpt lat="41.816612940428556" lon="14.159447429837233"><ele>765.0</ele><time>2026-04-12T08:25:46.999Z</time></trkpt><trkpt lat="41.816669667457674" lon="14.159348433177712"><ele>764.0</ele><time>2026-04-12T08:25:47.999Z</time></trkpt><trkpt lat="41.81673496581361" lon="14.15925171359812"><ele>764.0</ele><time>2026-04-12T08:25:48.999Z</time></trkpt><trkpt lat="41.816796188146796" lon="14.159160214848985"><ele>764.0</ele><time>2026-04-12T08:25:49.999Z</time></trkpt><trkpt lat="41.81685218789601" lon="14.159063921186945"><ele>764.0</ele><time>2026-04-12T08:25:50.999Z</time></trkpt><trkpt lat="41.81688549837896" lon="14.158972285501228"><ele>764.0</ele><time>2026-04-12T08:25:51.999Z</time></trkpt><trkpt lat="41.81689390180682" lon="14.158880487184684"><ele>764.0</ele><time>2026-04-12T08:25:52.999Z</time></trkpt><trkpt lat="41.81685906605163" lon="14.1587646872292"><ele>764.0</ele><time>2026-04-12T08:25:53.999Z</time></trkpt><trkpt lat="41.81679601910348" lon="14.158648682506517"><ele>763.2</ele><time>2026-04-12T08:25:54.999Z</time></trkpt><trkpt lat="41.81674593789198" lon="14.158528189740178"><ele>762.4000000000001</ele><time>2026-04-12T08:25:55.999Z</time></trkpt><trkpt lat="41.816712381942054" lon="14.158410097940285"><ele>761.6</ele><time>2026-04-12T08:25:56.999Z</time></trkpt><trkpt lat="41.81668271122759" lon="14.158278477982341"><ele>760.8</ele><time>2026-04-12T08:25:57.999Z</time></trkpt><trkpt lat="41.81665131908242" lon="14.158139513992746"><ele>760.0</ele><time>2026-04-12T08:25:58.999Z</time></trkpt><trkpt lat="41.816593872288294" lon="14.158017011018607"><ele>759.8333333333334</ele><time>2026-04-12T08:25:59.999Z</time></trkpt><trkpt lat="41.8165519762806" lon="14.157902720677635"><ele>759.6666666666667</ele><time>2026-04-12T08:26:00.999Z</time></trkpt><trkpt lat="41.81650438562739" lon="14.157809047487413"><ele>759.5</ele><time>2026-04-12T08:26:01.999Z</time></trkpt><trkpt lat="41.81647236776684" lon="14.157723174539209"><ele>759.3333333333334</ele><time>2026-04-12T08:26:02.999Z</time></trkpt><trkpt lat="41.816438529768334" lon="14.15764247481528"><ele>759.1666666666666</ele><time>2026-04-12T08:26:03.999Z</time></trkpt><trkpt lat="41.81641465303217" lon="14.15756363576312"><ele>759.0</ele><time>2026-04-12T08:26:04.999Z</time></trkpt><trkpt lat="41.816429399052126" lon="14.157463111911822"><ele>759.0</ele><time>2026-04-12T08:26:06.999Z</time></trkpt><trkpt lat="41.816521446245076" lon="14.157403879776325"><ele>759.0</ele><time>2026-04-12T08:26:08.999Z</time></trkpt><trkpt lat="41.81660805834177" lon="14.157403600391518"><ele>759.0</ele><time>2026-04-12T08:26:10Z</time></trkpt><trkpt lat="41.81673259358068" lon="14.157359314275315"><ele>759.0</ele><time>2026-04-12T08:26:10.999Z</time></trkpt><trkpt lat="41.81686283648358" lon="14.157282416563701"><ele>759.3333333333334</ele><time>2026-04-12T08:26:11.999Z</time></trkpt><trkpt lat="41.81699155325695" lon="14.157204907032126"><ele>759.6666666666667</ele><time>2026-04-12T08:26:13Z</time></trkpt><trkpt lat="41.8171439847415" lon="14.157083523050172"><ele>760.0</ele><time>2026-04-12T08:26:14Z</time></trkpt><trkpt lat="41.81729646670699" lon="14.156969433352863"><ele>760.0</ele><time>2026-04-12T08:26:15Z</time></trkpt><trkpt lat="41.8174001900012" lon="14.15687635451586"><ele>760.0</ele><time>2026-04-12T08:26:16Z</time></trkpt><trkpt lat="41.81746599129724" lon="14.156799087973402"><ele>760.0</ele><time>2026-04-12T08:26:16.999Z</time></trkpt><trkpt lat="41.81751816083274" lon="14.156727388226697"><ele>760.0</ele><time>2026-04-12T08:26:17.999Z</time></trkpt><trkpt lat="41.817556389589534" lon="14.156654831477832"><ele>760.0</ele><time>2026-04-12T08:26:19Z</time></trkpt><trkpt lat="41.817558176200365" lon="14.156556506624984"><ele>760.0</ele><time>2026-04-12T08:26:20Z</time></trkpt><trkpt lat="41.817520852532155" lon="14.156434753816681"><ele>760.75</ele><time>2026-04-12T08:26:21Z</time></trkpt><trkpt lat="41.81745608317767" lon="14.156316312355674"><ele>761.5</ele><time>2026-04-12T08:26:22Z</time></trkpt><trkpt lat="41.81739358857114" lon="14.156171031594122"><ele>762.25</ele><time>2026-04-12T08:26:22.999Z</time></trkpt><trkpt lat="41.81733886593054" lon="14.156000700621604"><ele>763.0</ele><time>2026-04-12T08:26:23.999Z</time></trkpt><trkpt lat="41.8172973057546" lon="14.155829894720698"><ele>764.1666666666667</ele><time>2026-04-12T08:26:24.999Z</time></trkpt><trkpt lat="41.81728081856774" lon="14.155701804157376"><ele>765.3333333333334</ele><time>2026-04-12T08:26:25.999Z</time></trkpt><trkpt lat="41.81727687497501" lon="14.155581355718297"><ele>766.5</ele><time>2026-04-12T08:26:26.999Z</time></trkpt><trkpt lat="41.81732420711812" lon="14.155505315933834"><ele>767.6666666666667</ele><time>2026-04-12T08:26:27.999Z</time></trkpt><trkpt lat="41.8173993540839" lon="14.155439856988522"><ele>768.8333333333334</ele><time>2026-04-12T08:26:28.999Z</time></trkpt><trkpt lat="41.8174819876151" lon="14.155413534663563"><ele>770.0</ele><time>2026-04-12T08:26:29.999Z</time></trkpt><trkpt lat="41.81755206015016" lon="14.155373145556808"><ele>770.0000000000001</ele><time>2026-04-12T08:26:30.999Z</time></trkpt><trkpt lat="41.81759789213674" lon="14.155287756788425"><ele>770.0</ele><time>2026-04-12T08:26:31.999Z</time></trkpt><trkpt lat="41.817622846187064" lon="14.155177035933903"><ele>770.0</ele><time>2026-04-12T08:26:32.999Z</time></trkpt><trkpt lat="41.81764756256034" lon="14.155058701395014"><ele>770.0</ele><time>2026-04-12T08:26:33.999Z</time></trkpt><trkpt lat="41.81764655818223" lon="14.154936768440903"><ele>770.0000000000001</ele><time>2026-04-12T08:26:34.999Z</time></trkpt><trkpt lat="41.81763956213006" lon="14.154843894580106"><ele>770.0</ele><time>2026-04-12T08:26:35.999Z</time></trkpt><trkpt lat="41.8176254611643" lon="14.15471338128949"><ele>772.0000000000001</ele><time>2026-04-12T08:26:37.999Z</time></trkpt><trkpt lat="41.81768745006904" lon="14.15469102654606"><ele>774.0</ele><time>2026-04-12T08:26:39.999Z</time></trkpt><trkpt lat="41.81775155716718" lon="14.154731689650502"><ele>776.0</ele><time>2026-04-12T08:26:40.999Z</time></trkpt><trkpt lat="41.81781531937448" lon="14.154781820738437"><ele>778.0</ele><time>2026-04-12T08:26:41.999Z</time></trkpt><trkpt lat="41.81790677587011" lon="14.154815758578792"><ele>780.0000000000001</ele><time>2026-04-12T08:26:42.999Z</time></trkpt><trkpt lat="41.81798141433652" lon="14.154807645715744"><ele>782.0</ele><time>2026-04-12T08:26:43.999Z</time></trkpt><trkpt lat="41.8180790453153" lon="14.154790099046721"><ele>782.0000000000001</ele><time>2026-04-12T08:26:45.999Z</time></trkpt><trkpt lat="41.81819909067416" lon="14.154767567325555"><ele>782.0</ele><time>2026-04-12T08:26:47.999Z</time></trkpt><trkpt lat="41.81828533257738" lon="14.154742732497473"><ele>782.0</ele><time>2026-04-12T08:26:48.999Z</time></trkpt><trkpt lat="41.8183614562171" lon="14.154704494126529"><ele>782.0</ele><time>2026-04-12T08:26:49.999Z</time></trkpt><trkpt lat="41.818432286884175" lon="14.154701526961643"><ele>782.0000000000001</ele><time>2026-04-12T08:26:50.999Z</time></trkpt><trkpt lat="41.81851434376311" lon="14.15473411500448"><ele>782.0</ele><time>2026-04-12T08:26:51.999Z</time></trkpt><trkpt lat="41.81860055749367" lon="14.154792910807481"><ele>783.5</ele><time>2026-04-12T08:26:52.999Z</time></trkpt><trkpt lat="41.818700622389095" lon="14.154839282299442"><ele>785.0</ele><time>2026-04-12T08:26:53.999Z</time></trkpt><trkpt lat="41.81881592535931" lon="14.154892271433843"><ele>786.5</ele><time>2026-04-12T08:26:54.999Z</time></trkpt><trkpt lat="41.818920145322146" lon="14.154894730711442"><ele>788.0</ele><time>2026-04-12T08:26:55.999Z</time></trkpt><trkpt lat="41.81904201057753" lon="14.15487585207913"><ele>788.0</ele><time>2026-04-12T08:26:56.999Z</time></trkpt><trkpt lat="41.81916718706358" lon="14.154822176988818"><ele>788.0</ele><time>2026-04-12T08:26:57.999Z</time></trkpt><trkpt lat="41.81928099352346" lon="14.15477121557068"><ele>788.0</ele><time>2026-04-12T08:26:58.999Z</time></trkpt><trkpt lat="41.81937355808674" lon="14.154740746096223"><ele>788.0</ele><time>2026-04-12T08:26:59.999Z</time></trkpt><trkpt lat="41.819447507021266" lon="14.154742490138942"><ele>788.0</ele><time>2026-04-12T08:27:00.999Z</time></trkpt><trkpt lat="41.81954212656842" lon="14.15477345078582"><ele>789.8</ele><time>2026-04-12T08:27:01.999Z</time></trkpt><trkpt lat="41.81963426082084" lon="14.154783390350142"><ele>791.5999999999999</ele><time>2026-04-12T08:27:02.999Z</time></trkpt><trkpt lat="41.81974982088943" lon="14.154774420366476"><ele>793.4000000000001</ele><time>2026-04-12T08:27:03.999Z</time></trkpt><trkpt lat="41.8198441874398" lon="14.154773226514648"><ele>795.2</ele><time>2026-04-12T08:27:04.999Z</time></trkpt><trkpt lat="41.81992023540467" lon="14.15479194165728"><ele>797.0</ele><time>2026-04-12T08:27:05.999Z</time></trkpt><trkpt lat="41.81998027097483" lon="14.15484077298031"><ele>801.25</ele><time>2026-04-12T08:27:06.999Z</time></trkpt><trkpt lat="41.82007133137162" lon="14.154916491038646"><ele>805.5</ele><time>2026-04-12T08:27:07.999Z</time></trkpt><trkpt lat="41.82016866828862" lon="14.155007452456228"><ele>809.75</ele><time>2026-04-12T08:27:08.999Z</time></trkpt><trkpt lat="41.82027264512298" lon="14.155135064791438"><ele>814.0</ele><time>2026-04-12T08:27:09.999Z</time></trkpt><trkpt lat="41.82034315507427" lon="14.155211441225429"><ele>814.9999999999999</ele><time>2026-04-12T08:27:10.999Z</time></trkpt><trkpt lat="41.82041386535157" lon="14.155233560837981"><ele>816.0</ele><time>2026-04-12T08:27:11.999Z</time></trkpt><trkpt lat="41.820477684441755" lon="14.155234298037554"><ele>817.0</ele><time>2026-04-12T08:27:12.999Z</time></trkpt><trkpt lat="41.82043846668436" lon="14.155329605911476"><ele>818.0</ele><time>2026-04-12T08:27:15.999Z</time></trkpt><trkpt lat="41.82039100379935" lon="14.15539787310647"><ele>818.9999999999999</ele><time>2026-04-12T08:27:16.999Z</time></trkpt><trkpt lat="41.820415339038306" lon="14.155551588841707"><ele>820.0</ele><time>2026-04-12T08:27:18.999Z</time></trkpt><trkpt lat="41.82046786936402" lon="14.155626454687408"><ele>819.9999999999999</ele><time>2026-04-12T08:27:19.999Z</time></trkpt><trkpt lat="41.82055062541652" lon="14.155679755378237"><ele>820.0</ele><time>2026-04-12T08:27:20.999Z</time></trkpt><trkpt lat="41.82064436864377" lon="14.15570706476859"><ele>820.0</ele><time>2026-04-12T08:27:21.999Z</time></trkpt><trkpt lat="41.82071598562231" lon="14.155718685632548"><ele>820.0</ele><time>2026-04-12T08:27:22.999Z</time></trkpt><trkpt lat="41.82078833217547" lon="14.15574331790006"><ele>819.9999999999999</ele><time>2026-04-12T08:27:23.999Z</time></trkpt><trkpt lat="41.8208765129388" lon="14.155809173602398"><ele>820.0</ele><time>2026-04-12T08:27:24.999Z</time></trkpt><trkpt lat="41.8209377848652" lon="14.155897165754997"><ele>820.4999999999999</ele><time>2026-04-12T08:27:25.999Z</time></trkpt><trkpt lat="41.82098886284369" lon="14.155991525397395"><ele>821.0</ele><time>2026-04-12T08:27:26.999Z</time></trkpt><trkpt lat="41.82104482451243" lon="14.156055829512319"><ele>821.5</ele><time>2026-04-12T08:27:27.999Z</time></trkpt><trkpt lat="41.82110597065792" lon="14.156110759506872"><ele>822.0</ele><time>2026-04-12T08:27:28.999Z</time></trkpt><trkpt lat="41.82116834918777" lon="14.156156324844089"><ele>822.4999999999999</ele><time>2026-04-12T08:27:29.999Z</time></trkpt><trkpt lat="41.821275913821665" lon="14.156214023663004"><ele>823.0</ele><time>2026-04-12T08:27:31.999Z</time></trkpt><trkpt lat="41.82134762875599" lon="14.15624681883536"><ele>822.9999999999999</ele><time>2026-04-12T08:27:32.999Z</time></trkpt><trkpt lat="41.82143355191166" lon="14.156300159644095"><ele>823.0</ele><time>2026-04-12T08:27:33.999Z</time></trkpt><trkpt lat="41.82150290282927" lon="14.156377946565962"><ele>823.0</ele><time>2026-04-12T08:27:34.999Z</time></trkpt><trkpt lat="41.821571159706" lon="14.156442445414875"><ele>823.0</ele><time>2026-04-12T08:27:35.999Z</time></trkpt><trkpt lat="41.82164396244154" lon="14.156486734193424"><ele>822.9999999999999</ele><time>2026-04-12T08:27:36.999Z</time></trkpt><trkpt lat="41.821737687946744" lon="14.156517437165885"><ele>823.0</ele><time>2026-04-12T08:27:37.999Z</time></trkpt><trkpt lat="41.821827683097695" lon="14.156591530225006"><ele>826.5999999999999</ele><time>2026-04-12T08:27:38.999Z</time></trkpt><trkpt lat="41.821882033783226" lon="14.15666513317655"><ele>830.1999999999999</ele><time>2026-04-12T08:27:39.999Z</time></trkpt><trkpt lat="41.821954318468165" lon="14.156738458657474"><ele>833.8</ele><time>2026-04-12T08:27:40.999Z</time></trkpt><trkpt lat="41.82203057701673" lon="14.156809327987295"><ele>837.4</ele><time>2026-04-12T08:27:41.998Z</time></trkpt><trkpt lat="41.82212509176806" lon="14.156906824257629"><ele>841.0</ele><time>2026-04-12T08:27:42.998Z</time></trkpt><trkpt lat="41.822219627123914" lon="14.156984634794165"><ele>841.0</ele><time>2026-04-12T08:27:43.998Z</time></trkpt><trkpt lat="41.82230379809466" lon="14.157060918639974"><ele>841.0</ele><time>2026-04-12T08:27:44.998Z</time></trkpt><trkpt lat="41.8223576434527" lon="14.157128173420853"><ele>841.0</ele><time>2026-04-12T08:27:45.998Z</time></trkpt><trkpt lat="41.822411945605836" lon="14.157182588004595"><ele>841.0</ele><time>2026-04-12T08:27:46.998Z</time></trkpt><trkpt lat="41.82252160599995" lon="14.157185740687435"><ele>841.0</ele><time>2026-04-12T08:27:48.998Z</time></trkpt><trkpt lat="41.82261886243762" lon="14.157332671245877"><ele>844.8</ele><time>2026-04-12T08:27:50.998Z</time></trkpt><trkpt lat="41.8226809870551" lon="14.157442808162571"><ele>848.5999999999999</ele><time>2026-04-12T08:27:51.998Z</time></trkpt><trkpt lat="41.82276735448918" lon="14.157533538589934"><ele>852.4</ele><time>2026-04-12T08:27:52.998Z</time></trkpt><trkpt lat="41.82287361634388" lon="14.15761442013802"><ele>856.2</ele><time>2026-04-12T08:27:53.998Z</time></trkpt><trkpt lat="41.82298442507156" lon="14.157653644103284"><ele>860.0</ele><time>2026-04-12T08:27:54.998Z</time></trkpt><trkpt lat="41.82307635072026" lon="14.1577144095054"><ele>860.0</ele><time>2026-04-12T08:27:55.998Z</time></trkpt><trkpt lat="41.823158821343526" lon="14.157739064803847"><ele>860.0</ele><time>2026-04-12T08:27:56.998Z</time></trkpt><trkpt lat="41.8232635863445" lon="14.157800981153256"><ele>860.0</ele><time>2026-04-12T08:27:57.998Z</time></trkpt><trkpt lat="41.82335346439059" lon="14.15783246708841"><ele>860.0</ele><time>2026-04-12T08:27:58.998Z</time></trkpt><trkpt lat="41.82343694565156" lon="14.157871776214732"><ele>860.0</ele><time>2026-04-12T08:27:59.998Z</time></trkpt><trkpt lat="41.82351579282946" lon="14.1579093258075"><ele>862.5000000000001</ele><time>2026-04-12T08:28:00.998Z</time></trkpt><trkpt lat="41.823600610655575" lon="14.157974736628725"><ele>865.0</ele><time>2026-04-12T08:28:01.998Z</time></trkpt><trkpt lat="41.823672016704826" lon="14.1580623950446"><ele>867.5</ele><time>2026-04-12T08:28:02.998Z</time></trkpt><trkpt lat="41.82370875515993" lon="14.158137977729846"><ele>870.0</ele><time>2026-04-12T08:28:03.998Z</time></trkpt><trkpt lat="41.82374918413999" lon="14.158223685543442"><ele>872.5000000000001</ele><time>2026-04-12T08:28:04.998Z</time></trkpt><trkpt lat="41.82378102799364" lon="14.15829987274626"><ele>875.0</ele><time>2026-04-12T08:28:05.998Z</time></trkpt><trkpt lat="41.82379476769192" lon="14.158385988199614"><ele>875.8</ele><time>2026-04-12T08:28:06.998Z</time></trkpt><trkpt lat="41.823795791524006" lon="14.158485885615361"><ele>876.6</ele><time>2026-04-12T08:28:07.998Z</time></trkpt><trkpt lat="41.82378136086077" lon="14.158574168642359"><ele>877.4000000000001</ele><time>2026-04-12T08:28:08.998Z</time></trkpt><trkpt lat="41.82374960995692" lon="14.158727178867933"><ele>878.2</ele><time>2026-04-12T08:28:10.998Z</time></trkpt><trkpt lat="41.82365256920182" lon="14.158821760123885"><ele>879.0</ele><time>2026-04-12T08:28:12.998Z</time></trkpt><trkpt lat="41.82365781207693" lon="14.15891685229912"><ele>879.0</ele><time>2026-04-12T08:28:14.998Z</time></trkpt><trkpt lat="41.823698463479765" lon="14.158991019879243"><ele>879.0</ele><time>2026-04-12T08:28:16Z</time></trkpt><trkpt lat="41.82375218623168" lon="14.159074021501818"><ele>879.0</ele><time>2026-04-12T08:28:17Z</time></trkpt><trkpt lat="41.823794056887614" lon="14.1591418465427"><ele>879.0</ele><time>2026-04-12T08:28:18Z</time></trkpt><trkpt lat="41.82386628000269" lon="14.15922218228498"><ele>879.0</ele><time>2026-04-12T08:28:20Z</time></trkpt><trkpt lat="41.8238924932578" lon="14.159314363569452"><ele>879.0</ele><time>2026-04-12T08:28:21Z</time></trkpt><trkpt lat="41.8239172870634" lon="14.159463908411974"><ele>878.6666666666666</ele><time>2026-04-12T08:28:22Z</time></trkpt><trkpt lat="41.82393963060257" lon="14.159606910806028"><ele>878.3333333333333</ele><time>2026-04-12T08:28:23Z</time></trkpt><trkpt lat="41.82394980552316" lon="14.159703611489299"><ele>878.0</ele><time>2026-04-12T08:28:24Z</time></trkpt><trkpt lat="41.824019943142005" lon="14.15979974999158"><ele>877.6666666666666</ele><time>2026-04-12T08:28:26Z</time></trkpt><trkpt lat="41.82408251923384" lon="14.159843352802087"><ele>877.3333333333333</ele><time>2026-04-12T08:28:27Z</time></trkpt><trkpt lat="41.82413299485858" lon="14.15990324551913"><ele>877.0</ele><time>2026-04-12T08:28:28.001Z</time></trkpt><trkpt lat="41.824145420256926" lon="14.160024925501634"><ele>874.6</ele><time>2026-04-12T08:28:29Z</time></trkpt><trkpt lat="41.824144348307534" lon="14.16016026651952"><ele>872.2</ele><time>2026-04-12T08:28:30Z</time></trkpt><trkpt lat="41.824155160693316" lon="14.16026354747477"><ele>869.8</ele><time>2026-04-12T08:28:31Z</time></trkpt><trkpt lat="41.82416449954647" lon="14.160384769657776"><ele>867.4</ele><time>2026-04-12T08:28:32Z</time></trkpt><trkpt lat="41.8241377774523" lon="14.160532810678012"><ele>865.0</ele><time>2026-04-12T08:28:33Z</time></trkpt><trkpt lat="41.8240921218804" lon="14.16067438147386"><ele>864.8</ele><time>2026-04-12T08:28:34Z</time></trkpt><trkpt lat="41.824051826675365" lon="14.160809491091692"><ele>864.6</ele><time>2026-04-12T08:28:35Z</time></trkpt><trkpt lat="41.82405800953145" lon="14.16093775609555"><ele>864.4000000000001</ele><time>2026-04-12T08:28:36Z</time></trkpt><trkpt lat="41.82406106047026" lon="14.161093729718003"><ele>864.2</ele><time>2026-04-12T08:28:37Z</time></trkpt><trkpt lat="41.824063647825604" lon="14.161240393973939"><ele>864.0</ele><time>2026-04-12T08:28:38Z</time></trkpt><trkpt lat="41.82402721101913" lon="14.161352399161094"><ele>864.0</ele><time>2026-04-12T08:28:39Z</time></trkpt><trkpt lat="41.82397316808363" lon="14.16148993953169"><ele>864.0</ele><time>2026-04-12T08:28:40Z</time></trkpt><trkpt lat="41.82391989184998" lon="14.16162983125883"><ele>864.0</ele><time>2026-04-12T08:28:41Z</time></trkpt><trkpt lat="41.82386172718508" lon="14.161770879561328"><ele>864.0</ele><time>2026-04-12T08:28:42Z</time></trkpt><trkpt lat="41.82379957927841" lon="14.161874196712029"><ele>863.0</ele><time>2026-04-12T08:28:43Z</time></trkpt><trkpt lat="41.823697692122394" lon="14.161962519886355"><ele>862.0</ele><time>2026-04-12T08:28:44Z</time></trkpt><trkpt lat="41.8235843608778" lon="14.162041612209894"><ele>861.0</ele><time>2026-04-12T08:28:45Z</time></trkpt><trkpt lat="41.82346625253566" lon="14.162143234057815"><ele>860.0</ele><time>2026-04-12T08:28:46Z</time></trkpt><trkpt lat="41.82333649504556" lon="14.162227813217156"><ele>856.0</ele><time>2026-04-12T08:28:47Z</time></trkpt><trkpt lat="41.82320961687041" lon="14.162289034844461"><ele>852.0</ele><time>2026-04-12T08:28:48Z</time></trkpt><trkpt lat="41.82311081855784" lon="14.162369082896456"><ele>848.0</ele><time>2026-04-12T08:28:49Z</time></trkpt><trkpt lat="41.82303276337602" lon="14.162479275574745"><ele>844.0</ele><time>2026-04-12T08:28:50Z</time></trkpt><trkpt lat="41.82297526763687" lon="14.16259407578435"><ele>843.4000000000001</ele><time>2026-04-12T08:28:51Z</time></trkpt><trkpt lat="41.82290602302594" lon="14.162684964583152"><ele>842.8</ele><time>2026-04-12T08:28:52Z</time></trkpt><trkpt lat="41.822848709229575" lon="14.162765789010374"><ele>842.2</ele><time>2026-04-12T08:28:53Z</time></trkpt><trkpt lat="41.822815835847855" lon="14.16286852208994"><ele>841.5999999999999</ele><time>2026-04-12T08:28:54Z</time></trkpt><trkpt lat="41.822823261504894" lon="14.162987505868797"><ele>841.0</ele><time>2026-04-12T08:28:55Z</time></trkpt><trkpt lat="41.82282041081181" lon="14.163124258982885"><ele>838.0</ele><time>2026-04-12T08:28:56Z</time></trkpt><trkpt lat="41.82281071598116" lon="14.163267043476205"><ele>835.0</ele><time>2026-04-12T08:28:57Z</time></trkpt><trkpt lat="41.82281077049979" lon="14.16342497304118"><ele>832.0</ele><time>2026-04-12T08:28:58Z</time></trkpt><trkpt lat="41.82280208309134" lon="14.163583312204288"><ele>829.0</ele><time>2026-04-12T08:28:59Z</time></trkpt><trkpt lat="41.822792146616806" lon="14.163755301752873"><ele>829.0</ele><time>2026-04-12T08:29:00Z</time></trkpt><trkpt lat="41.82277787550228" lon="14.163927434887736"><ele>829.0</ele><time>2026-04-12T08:29:01Z</time></trkpt><trkpt lat="41.82275524687959" lon="14.164116778705397"><ele>829.0</ele><time>2026-04-12T08:29:02Z</time></trkpt><trkpt lat="41.82272586112473" lon="14.164254616428197"><ele>829.0</ele><time>2026-04-12T08:29:03Z</time></trkpt><trkpt lat="41.822702799417094" lon="14.1643524136394"><ele>827.0</ele><time>2026-04-12T08:29:04Z</time></trkpt><trkpt lat="41.82265945959147" lon="14.164464409614292"><ele>825.0</ele><time>2026-04-12T08:29:06Z</time></trkpt><trkpt lat="41.82265444483844" lon="14.164558819943577"><ele>823.0</ele><time>2026-04-12T08:29:09Z</time></trkpt><trkpt lat="41.822677473089016" lon="14.164753351093953"><ele>821.0</ele><time>2026-04-12T08:29:20Z</time></trkpt><trkpt lat="41.82268537734458" lon="14.164879097660352"><ele>819.0</ele><time>2026-04-12T08:29:21Z</time></trkpt><trkpt lat="41.82268396144288" lon="14.165022578988271"><ele>817.4000000000001</ele><time>2026-04-12T08:29:22Z</time></trkpt><trkpt lat="41.82266295235217" lon="14.165137588490452"><ele>815.8</ele><time>2026-04-12T08:29:23Z</time></trkpt><trkpt lat="41.82266248821711" lon="14.165251111800353"><ele>814.2</ele><time>2026-04-12T08:29:24Z</time></trkpt><trkpt lat="41.82269368703863" lon="14.16539295676568"><ele>812.5999999999999</ele><time>2026-04-12T08:29:25Z</time></trkpt><trkpt lat="41.82273342624237" lon="14.165500155892431"><ele>811.0</ele><time>2026-04-12T08:29:26Z</time></trkpt><trkpt lat="41.82277767258225" lon="14.16559385893359"><ele>810.9999999999999</ele><time>2026-04-12T08:29:27Z</time></trkpt><trkpt lat="41.82282589568389" lon="14.165657261293731"><ele>811.0</ele><time>2026-04-12T08:29:28Z</time></trkpt><trkpt lat="41.8229243303987" lon="14.165711493981563"><ele>811.0</ele><time>2026-04-12T08:29:30Z</time></trkpt><trkpt lat="41.82290415204844" lon="14.165847387413644"><ele>811.0</ele><time>2026-04-12T08:29:32Z</time></trkpt><trkpt lat="41.82287051633514" lon="14.165939035188215"><ele>810.9999999999999</ele><time>2026-04-12T08:29:33Z</time></trkpt><trkpt lat="41.822830385646355" lon="14.16601603566208"><ele>811.0</ele><time>2026-04-12T08:29:34Z</time></trkpt><trkpt lat="41.82279277695102" lon="14.166110371633483"><ele>810.4</ele><time>2026-04-12T08:29:35Z</time></trkpt><trkpt lat="41.82275511852717" lon="14.166207211454344"><ele>809.8</ele><time>2026-04-12T08:29:36Z</time></trkpt><trkpt lat="41.82274198590929" lon="14.166304671985946"><ele>809.1999999999999</ele><time>2026-04-12T08:29:38Z</time></trkpt><trkpt lat="41.82280122746739" lon="14.166386828204265"><ele>808.5999999999999</ele><time>2026-04-12T08:29:40Z</time></trkpt><trkpt lat="41.822896788468384" lon="14.16641956361011"><ele>808.0</ele><time>2026-04-12T08:29:42Z</time></trkpt><trkpt lat="41.82303882077658" lon="14.166322483983269"><ele>808.0</ele><time>2026-04-12T08:29:44Z</time></trkpt><trkpt lat="41.82316698473733" lon="14.166193152930346"><ele>808.0</ele><time>2026-04-12T08:29:45Z</time></trkpt><trkpt lat="41.82325509233848" lon="14.16607758090831"><ele>808.0</ele><time>2026-04-12T08:29:46Z</time></trkpt><trkpt lat="41.823334511309376" lon="14.1661040838659"><ele>808.0</ele><time>2026-04-12T08:29:50Z</time></trkpt><trkpt lat="41.82341922118247" lon="14.166190585301113"><ele>807.9999999999999</ele><time>2026-04-12T08:29:52Z</time></trkpt><trkpt lat="41.82346308610683" lon="14.166280756167776"><ele>808.0</ele><time>2026-04-12T08:29:53Z</time></trkpt><trkpt lat="41.82350670814929" lon="14.166407292975515"><ele>808.0</ele><time>2026-04-12T08:29:54Z</time></trkpt><trkpt lat="41.823543645902966" lon="14.166509916696839"><ele>808.0</ele><time>2026-04-12T08:29:55Z</time></trkpt><trkpt lat="41.82353861467698" lon="14.166612311274557"><ele>807.9999999999999</ele><time>2026-04-12T08:29:56.999Z</time></trkpt><trkpt lat="41.823506260441995" lon="14.16669759285638"><ele>808.0</ele><time>2026-04-12T08:29:58.999Z</time></trkpt><trkpt lat="41.823420663352394" lon="14.166854501513923"><ele>807.0</ele><time>2026-04-12T08:30:00.999Z</time></trkpt><trkpt lat="41.82334213035647" lon="14.16693753973481"><ele>806.0</ele><time>2026-04-12T08:30:01.999Z</time></trkpt><trkpt lat="41.82323644326565" lon="14.167036273025785"><ele>805.0</ele><time>2026-04-12T08:30:02.999Z</time></trkpt><trkpt lat="41.823103827154085" lon="14.167139122346088"><ele>804.0</ele><time>2026-04-12T08:30:03.999Z</time></trkpt><trkpt lat="41.82296292650237" lon="14.16723029392009"><ele>804.0</ele><time>2026-04-12T08:30:04.999Z</time></trkpt><trkpt lat="41.82285747611738" lon="14.167334802456924"><ele>804.0</ele><time>2026-04-12T08:30:05.999Z</time></trkpt><trkpt lat="41.82280243595891" lon="14.167411911456664"><ele>804.0</ele><time>2026-04-12T08:30:06.999Z</time></trkpt><trkpt lat="41.82273723832332" lon="14.167505471098384"><ele>804.0</ele><time>2026-04-12T08:30:08.999Z</time></trkpt><trkpt lat="41.82270582077613" lon="14.16763785141297"><ele>804.0</ele><time>2026-04-12T08:30:10.999Z</time></trkpt><trkpt lat="41.82267829174511" lon="14.167731037469741"><ele>803.1666666666666</ele><time>2026-04-12T08:30:11.999Z</time></trkpt><trkpt lat="41.82262897669531" lon="14.167792485813656"><ele>802.3333333333333</ele><time>2026-04-12T08:30:12.999Z</time></trkpt><trkpt lat="41.82255909604522" lon="14.167858121010648"><ele>801.5</ele><time>2026-04-12T08:30:13.999Z</time></trkpt><trkpt lat="41.82248607181835" lon="14.167916863270449"><ele>800.6666666666666</ele><time>2026-04-12T08:30:14.999Z</time></trkpt><trkpt lat="41.82242407216999" lon="14.167985424722577"><ele>799.8333333333333</ele><time>2026-04-12T08:30:15.999Z</time></trkpt><trkpt lat="41.82234496324263" lon="14.168029133062186"><ele>799.0</ele><time>2026-04-12T08:30:16.999Z</time></trkpt><trkpt lat="41.82226677868198" lon="14.168042351510042"><ele>799.0</ele><time>2026-04-12T08:30:17.999Z</time></trkpt><trkpt lat="41.822156421352446" lon="14.16808560974285"><ele>799.0</ele><time>2026-04-12T08:30:18.999Z</time></trkpt><trkpt lat="41.82203773755299" lon="14.168134581373055"><ele>799.0</ele><time>2026-04-12T08:30:19.999Z</time></trkpt><trkpt lat="41.82194884736424" lon="14.168183079277542"><ele>799.0</ele><time>2026-04-12T08:30:20.999Z</time></trkpt><trkpt lat="41.8218939715708" lon="14.168263779127184"><ele>799.0</ele><time>2026-04-12T08:30:22Z</time></trkpt><trkpt lat="41.821843776945244" lon="14.168380330623311"><ele>797.4000000000001</ele><time>2026-04-12T08:30:23Z</time></trkpt><trkpt lat="41.82180541458008" lon="14.168506922426804"><ele>795.8</ele><time>2026-04-12T08:30:24Z</time></trkpt><trkpt lat="41.821766714662225" lon="14.168622221844256"><ele>794.2</ele><time>2026-04-12T08:30:25Z</time></trkpt><trkpt lat="41.82171777792852" lon="14.168719471053892"><ele>792.5999999999999</ele><time>2026-04-12T08:30:26Z</time></trkpt><trkpt lat="41.82164139032683" lon="14.168793337774854"><ele>791.0</ele><time>2026-04-12T08:30:27Z</time></trkpt><trkpt lat="41.82157319752601" lon="14.16884038887159"><ele>791.0</ele><time>2026-04-12T08:30:28.001Z</time></trkpt><trkpt lat="41.82151171182246" lon="14.169009238084636"><ele>791.0</ele><time>2026-04-12T08:30:30.001Z</time></trkpt><trkpt lat="41.821453118999415" lon="14.16913542271569"><ele>791.0</ele><time>2026-04-12T08:30:31.001Z</time></trkpt><trkpt lat="41.82138103845377" lon="14.169293091953865"><ele>791.0</ele><time>2026-04-12T08:30:32.001Z</time></trkpt><trkpt lat="41.82134911384438" lon="14.169435537624853"><ele>789.5</ele><time>2026-04-12T08:30:33.001Z</time></trkpt><trkpt lat="41.82133768963617" lon="14.169574790199407"><ele>788.0</ele><time>2026-04-12T08:30:34.001Z</time></trkpt><trkpt lat="41.82132643413791" lon="14.169733243216303"><ele>786.5</ele><time>2026-04-12T08:30:35Z</time></trkpt><trkpt lat="41.82134002339168" lon="14.169922141186595"><ele>785.0</ele><time>2026-04-12T08:30:36Z</time></trkpt><trkpt lat="41.821349171368745" lon="14.17007946124316"><ele>783.6</ele><time>2026-04-12T08:30:37Z</time></trkpt><trkpt lat="41.821360782383195" lon="14.17022248888206"><ele>782.2</ele><time>2026-04-12T08:30:38Z</time></trkpt><trkpt lat="41.82134957830565" lon="14.170368414750422"><ele>780.8</ele><time>2026-04-12T08:30:39Z</time></trkpt><trkpt lat="41.821348998145055" lon="14.170505618872728"><ele>779.4</ele><time>2026-04-12T08:30:40Z</time></trkpt><trkpt lat="41.821359053955" lon="14.170643931640809"><ele>778.0</ele><time>2026-04-12T08:30:41Z</time></trkpt><trkpt lat="41.82140233463194" lon="14.1708206751624"><ele>777.2</ele><time>2026-04-12T08:30:42Z</time></trkpt><trkpt lat="41.8214456230142" lon="14.170988654966237"><ele>776.4</ele><time>2026-04-12T08:30:43Z</time></trkpt><trkpt lat="41.82148009156672" lon="14.171094547687062"><ele>775.6</ele><time>2026-04-12T08:30:44Z</time></trkpt><trkpt lat="41.821500935688135" lon="14.171243164364459"><ele>774.8000000000001</ele><time>2026-04-12T08:30:46Z</time></trkpt><trkpt lat="41.821501159031314" lon="14.171354007279819"><ele>774.0</ele><time>2026-04-12T08:30:47Z</time></trkpt><trkpt lat="41.821497912617275" lon="14.171512417467408"><ele>773.5</ele><time>2026-04-12T08:30:48Z</time></trkpt><trkpt lat="41.8214953210153" lon="14.171663154124237"><ele>773.0</ele><time>2026-04-12T08:30:49Z</time></trkpt><trkpt lat="41.82151844869181" lon="14.171814841550633"><ele>772.5</ele><time>2026-04-12T08:30:50Z</time></trkpt><trkpt lat="41.82156156868828" lon="14.17200584757917"><ele>772.0</ele><time>2026-04-12T08:30:51Z</time></trkpt><trkpt lat="41.82156851783826" lon="14.172191975381255"><ele>772.0</ele><time>2026-04-12T08:30:52Z</time></trkpt><trkpt lat="41.821572204985365" lon="14.172320015227196"><ele>772.0</ele><time>2026-04-12T08:30:53Z</time></trkpt><trkpt lat="41.821558871085024" lon="14.172426465328291"><ele>772.0</ele><time>2026-04-12T08:30:54Z</time></trkpt><trkpt lat="41.82151161590944" lon="14.1725263190023"><ele>772.0</ele><time>2026-04-12T08:30:55Z</time></trkpt><trkpt lat="41.821450495746774" lon="14.172624787547349"><ele>772.0</ele><time>2026-04-12T08:30:56Z</time></trkpt><trkpt lat="41.821365414702484" lon="14.172744765259372"><ele>770.25</ele><time>2026-04-12T08:30:57Z</time></trkpt><trkpt lat="41.821277357364224" lon="14.172901269838388"><ele>768.5</ele><time>2026-04-12T08:30:58Z</time></trkpt><trkpt lat="41.82120851213576" lon="14.173049768073643"><ele>766.75</ele><time>2026-04-12T08:30:59Z</time></trkpt><trkpt lat="41.821173312957654" lon="14.173177268270221"><ele>765.0</ele><time>2026-04-12T08:31:00Z</time></trkpt><trkpt lat="41.82112144657261" lon="14.173313165613873"><ele>764.0</ele><time>2026-04-12T08:31:01Z</time></trkpt><trkpt lat="41.82107056560366" lon="14.173403031387311"><ele>763.0</ele><time>2026-04-12T08:31:02Z</time></trkpt><trkpt lat="41.82107512970865" lon="14.1734873314788"><ele>762.0</ele><time>2026-04-12T08:31:04Z</time></trkpt><trkpt lat="41.821175505061696" lon="14.1734715016216"><ele>761.0</ele><time>2026-04-12T08:31:06Z</time></trkpt><trkpt lat="41.8212393136938" lon="14.173400850946816"><ele>760.0</ele><time>2026-04-12T08:31:07Z</time></trkpt><trkpt lat="41.82129734225155" lon="14.173337498470186"><ele>759.0</ele><time>2026-04-12T08:31:08Z</time></trkpt><trkpt lat="41.821363806256" lon="14.173316096796139"><ele>759.0</ele><time>2026-04-12T08:31:09Z</time></trkpt><trkpt lat="41.82142679521021" lon="14.173367005280841"><ele>759.0</ele><time>2026-04-12T08:31:10Z</time></trkpt><trkpt lat="41.82151045400448" lon="14.173450491837343"><ele>759.0</ele><time>2026-04-12T08:31:11Z</time></trkpt><trkpt lat="41.8216520581848" lon="14.173558938279292"><ele>759.0</ele><time>2026-04-12T08:31:12Z</time></trkpt><trkpt lat="41.821797423728206" lon="14.173654394244041"><ele>758.8000000000001</ele><time>2026-04-12T08:31:13Z</time></trkpt><trkpt lat="41.821891167694076" lon="14.173718897477407"><ele>758.6</ele><time>2026-04-12T08:31:14Z</time></trkpt><trkpt lat="41.82194854835241" lon="14.173853622408059"><ele>758.4</ele><time>2026-04-12T08:31:16Z</time></trkpt><trkpt lat="41.82191275075487" lon="14.173959974775343"><ele>758.2</ele><time>2026-04-12T08:31:17Z</time></trkpt><trkpt lat="41.821879886252596" lon="14.17409100426453"><ele>758.0</ele><time>2026-04-12T08:31:18Z</time></trkpt><trkpt lat="41.821868453678576" lon="14.174256456447361"><ele>758.0</ele><time>2026-04-12T08:31:19Z</time></trkpt><trkpt lat="41.821907247107944" lon="14.174395290424949"><ele>758.0</ele><time>2026-04-12T08:31:20Z</time></trkpt><trkpt lat="41.821976466597846" lon="14.17452895901682"><ele>758.0</ele><time>2026-04-12T08:31:21Z</time></trkpt><trkpt lat="41.82206094184358" lon="14.1746469652055"><ele>758.0</ele><time>2026-04-12T08:31:22Z</time></trkpt><trkpt lat="41.82215063193633" lon="14.174726304555822"><ele>758.0</ele><time>2026-04-12T08:31:23Z</time></trkpt><trkpt lat="41.82226706185957" lon="14.17482420419467"><ele>758.0</ele><time>2026-04-12T08:31:24Z</time></trkpt><trkpt lat="41.82239025307917" lon="14.1749288955013"><ele>758.0</ele><time>2026-04-12T08:31:25Z</time></trkpt><trkpt lat="41.822494836047866" lon="14.175021170239766"><ele>758.0</ele><time>2026-04-12T08:31:26Z</time></trkpt><trkpt lat="41.82257705230172" lon="14.17511609819692"><ele>757.25</ele><time>2026-04-12T08:31:27Z</time></trkpt><trkpt lat="41.822658173996565" lon="14.175231824607177"><ele>756.5</ele><time>2026-04-12T08:31:28Z</time></trkpt><trkpt lat="41.82275926551031" lon="14.17535210384218"><ele>755.75</ele><time>2026-04-12T08:31:29Z</time></trkpt><trkpt lat="41.82286325620626" lon="14.17546197875253"><ele>755.0</ele><time>2026-04-12T08:31:30Z</time></trkpt><trkpt lat="41.822981385041906" lon="14.175558899380825"><ele>755.0</ele><time>2026-04-12T08:31:31Z</time></trkpt><trkpt lat="41.82308367352144" lon="14.175651602984976"><ele>755.0</ele><time>2026-04-12T08:31:32Z</time></trkpt><trkpt lat="41.82318835259875" lon="14.175762446884308"><ele>755.0</ele><time>2026-04-12T08:31:33Z</time></trkpt><trkpt lat="41.82329413069817" lon="14.175900672487009"><ele>755.0</ele><time>2026-04-12T08:31:34Z</time></trkpt><trkpt lat="41.82341733206775" lon="14.176037463228196"><ele>754.3333333333333</ele><time>2026-04-12T08:31:35Z</time></trkpt><trkpt lat="41.82356593388976" lon="14.176152537158101"><ele>753.6666666666666</ele><time>2026-04-12T08:31:36Z</time></trkpt><trkpt lat="41.82371777747001" lon="14.176263947055377"><ele>753.0</ele><time>2026-04-12T08:31:37Z</time></trkpt><trkpt lat="41.82383247318756" lon="14.176377304235547"><ele>753.0</ele><time>2026-04-12T08:31:38Z</time></trkpt><trkpt lat="41.82391914293942" lon="14.176472325268579"><ele>753.0</ele><time>2026-04-12T08:31:39Z</time></trkpt><trkpt lat="41.823946878182966" lon="14.176560986469772"><ele>753.0</ele><time>2026-04-12T08:31:41Z</time></trkpt><trkpt lat="41.82389431441622" lon="14.176694888879517"><ele>753.0</ele><time>2026-04-12T08:31:43Z</time></trkpt><trkpt lat="41.823874804260335" lon="14.176783489562384"><ele>753.0</ele><time>2026-04-12T08:31:44Z</time></trkpt><trkpt lat="41.8238280781745" lon="14.176926386617366"><ele>752.3333333333334</ele><time>2026-04-12T08:31:46Z</time></trkpt><trkpt lat="41.82374151118098" lon="14.17694013167439"><ele>751.6666666666666</ele><time>2026-04-12T08:31:47Z</time></trkpt><trkpt lat="41.82368302863041" lon="14.176875942428426"><ele>751.0</ele><time>2026-04-12T08:31:51Z</time></trkpt><trkpt lat="41.8236138880255" lon="14.17685656530597"><ele>750.3333333333333</ele><time>2026-04-12T08:31:54Z</time></trkpt><trkpt lat="41.82354308729431" lon="14.176840497173718"><ele>749.6666666666666</ele><time>2026-04-12T08:31:57Z</time></trkpt><trkpt lat="41.82348724681041" lon="14.176775640574045"><ele>749.0</ele><time>2026-04-12T08:32:00Z</time></trkpt><trkpt lat="41.82342892470385" lon="14.176717611691219"><ele>749.0</ele><time>2026-04-12T08:32:03Z</time></trkpt><trkpt lat="41.82338727781188" lon="14.176653416308628"><ele>749.0</ele><time>2026-04-12T08:32:11.999Z</time></trkpt><trkpt lat="41.82330319434734" lon="14.17655076421876"><ele>749.0</ele><time>2026-04-12T08:32:28Z</time></trkpt><trkpt lat="41.823208830624964" lon="14.17645597717443"><ele>749.0</ele><time>2026-04-12T08:32:30Z</time></trkpt><trkpt lat="41.82315835156386" lon="14.176395803188893"><ele>749.0</ele><time>2026-04-12T08:32:31.001Z</time></trkpt><trkpt lat="41.823092385047936" lon="14.17633685073478"><ele>749.0</ele><time>2026-04-12T08:32:32Z</time></trkpt><trkpt lat="41.82301151956666" lon="14.176247205332684"><ele>749.25</ele><time>2026-04-12T08:32:33Z</time></trkpt><trkpt lat="41.82291871176604" lon="14.176168699005798"><ele>749.5</ele><time>2026-04-12T08:32:34Z</time></trkpt><trkpt lat="41.82280778207205" lon="14.17606127468077"><ele>749.75</ele><time>2026-04-12T08:32:35Z</time></trkpt><trkpt lat="41.822686999167324" lon="14.175939570148818"><ele>750.0</ele><time>2026-04-12T08:32:36Z</time></trkpt><trkpt lat="41.82256153047689" lon="14.175791905268358"><ele>750.75</ele><time>2026-04-12T08:32:37Z</time></trkpt><trkpt lat="41.8224499280379" lon="14.17565295878191"><ele>751.5</ele><time>2026-04-12T08:32:38Z</time></trkpt><trkpt lat="41.822356568367624" lon="14.175534302804316"><ele>752.25</ele><time>2026-04-12T08:32:39Z</time></trkpt><trkpt lat="41.82227105429479" lon="14.17539424382576"><ele>753.0</ele><time>2026-04-12T08:32:40.001Z</time></trkpt><trkpt lat="41.822178226866555" lon="14.17527002001959"><ele>753.0</ele><time>2026-04-12T08:32:41Z</time></trkpt><trkpt lat="41.82208938900511" lon="14.175143156783848"><ele>753.0</ele><time>2026-04-12T08:32:42Z</time></trkpt><trkpt lat="41.822005572622885" lon="14.175037294202124"><ele>753.0</ele><time>2026-04-12T08:32:43Z</time></trkpt><trkpt lat="41.82192295217589" lon="14.174939193506379"><ele>753.0</ele><time>2026-04-12T08:32:44Z</time></trkpt><trkpt lat="41.82185322057523" lon="14.174843253784378"><ele>753.6666666666666</ele><time>2026-04-12T08:32:45Z</time></trkpt><trkpt lat="41.82177496204569" lon="14.1747479628793"><ele>754.3333333333334</ele><time>2026-04-12T08:32:46Z</time></trkpt><trkpt lat="41.821712068201606" lon="14.174668452125307"><ele>755.0</ele><time>2026-04-12T08:32:47Z</time></trkpt><trkpt lat="41.82165802232588" lon="14.17460427823435"><ele>755.6666666666667</ele><time>2026-04-12T08:32:48Z</time></trkpt><trkpt lat="41.82158772580797" lon="14.174572439062239"><ele>756.3333333333334</ele><time>2026-04-12T08:32:50Z</time></trkpt><trkpt lat="41.82148441943644" lon="14.174595722752473"><ele>757.0</ele><time>2026-04-12T08:32:52Z</time></trkpt><trkpt lat="41.821388937747976" lon="14.174631207949412"><ele>757.0</ele><time>2026-04-12T08:32:54Z</time></trkpt><trkpt lat="41.82131222384792" lon="14.174600830856221"><ele>757.0</ele><time>2026-04-12T08:32:56Z</time></trkpt><trkpt lat="41.82127616132645" lon="14.17450887083741"><ele>757.0</ele><time>2026-04-12T08:33:00Z</time></trkpt><trkpt lat="41.82123746727057" lon="14.174437232674546"><ele>757.0</ele><time>2026-04-12T08:33:53.999Z</time></trkpt><trkpt lat="41.82117925992791" lon="14.174469920370244"><ele>757.0</ele><time>2026-04-12T08:34:20.999Z</time></trkpt><trkpt lat="41.8212639875756" lon="14.174429685025324"><ele>757.0</ele><time>2026-04-12T08:54:18.002Z</time></trkpt><trkpt lat="41.82132675658212" lon="14.174394149931363"><ele>757.0</ele><time>2026-04-12T08:54:22.002Z</time></trkpt><trkpt lat="41.82139272962463" lon="14.17447915180525"><ele>757.0</ele><time>2026-04-12T08:54:24.002Z</time></trkpt><trkpt lat="41.82147793363192" lon="14.174548190962993"><ele>757.0</ele><time>2026-04-12T08:54:26.002Z</time></trkpt><trkpt lat="41.82156590748332" lon="14.174547563025653"><ele>757.0</ele><time>2026-04-12T08:54:29.002Z</time></trkpt><trkpt lat="41.82163900504477" lon="14.174567552498276"><ele>757.0</ele><time>2026-04-12T08:54:33.002Z</time></trkpt><trkpt lat="41.8217296838529" lon="14.174679341754254"><ele>757.0</ele><time>2026-04-12T08:54:35.002Z</time></trkpt><trkpt lat="41.8218086878171" lon="14.174780249447789"><ele>756.0</ele><time>2026-04-12T08:54:36.002Z</time></trkpt><trkpt lat="41.82191511033713" lon="14.174903172039695"><ele>755.0</ele><time>2026-04-12T08:54:37.002Z</time></trkpt><trkpt lat="41.822011147178905" lon="14.175020524072597"><ele>754.0</ele><time>2026-04-12T08:54:38.002Z</time></trkpt><trkpt lat="41.82210639018299" lon="14.175143825812503"><ele>753.0</ele><time>2026-04-12T08:54:39.002Z</time></trkpt><trkpt lat="41.822192875664975" lon="14.175247983425132"><ele>753.0</ele><time>2026-04-12T08:54:40.002Z</time></trkpt><trkpt lat="41.82228402373281" lon="14.175351314742024"><ele>753.0</ele><time>2026-04-12T08:54:41.002Z</time></trkpt><trkpt lat="41.82236565069381" lon="14.175480777974922"><ele>753.0</ele><time>2026-04-12T08:54:42.002Z</time></trkpt><trkpt lat="41.822460268094986" lon="14.17561897644139"><ele>753.0</ele><time>2026-04-12T08:54:43.001Z</time></trkpt><trkpt lat="41.8225524795353" lon="14.175757331660833"><ele>752.5</ele><time>2026-04-12T08:54:44.001Z</time></trkpt><trkpt lat="41.82265077487804" lon="14.17588523503976"><ele>752.0</ele><time>2026-04-12T08:54:45.001Z</time></trkpt><trkpt lat="41.82275578936148" lon="14.175969261184678"><ele>751.5</ele><time>2026-04-12T08:54:46.001Z</time></trkpt><trkpt lat="41.822841025144484" lon="14.176064459040369"><ele>751.0</ele><time>2026-04-12T08:54:47.001Z</time></trkpt><trkpt lat="41.82292254626785" lon="14.176158129731894"><ele>751.0</ele><time>2026-04-12T08:54:48.001Z</time></trkpt><trkpt lat="41.82301653029971" lon="14.176238383308743"><ele>751.0</ele><time>2026-04-12T08:54:49.001Z</time></trkpt><trkpt lat="41.82311976620413" lon="14.176342106899478"><ele>751.0</ele><time>2026-04-12T08:54:50.001Z</time></trkpt><trkpt lat="41.82321349941892" lon="14.176463132175977"><ele>751.0</ele><time>2026-04-12T08:54:51.001Z</time></trkpt><trkpt lat="41.823299905051485" lon="14.176580738626372"><ele>750.5</ele><time>2026-04-12T08:54:52.001Z</time></trkpt><trkpt lat="41.823407624855925" lon="14.176690618389728"><ele>750.0</ele><time>2026-04-12T08:54:53.001Z</time></trkpt><trkpt lat="41.82349466603054" lon="14.176795185050386"><ele>749.5</ele><time>2026-04-12T08:54:54.001Z</time></trkpt><trkpt lat="41.82359378140714" lon="14.176885213718535"><ele>749.0</ele><time>2026-04-12T08:54:55.001Z</time></trkpt><trkpt lat="41.82369072537857" lon="14.17694311032338"><ele>748.8000000000001</ele><time>2026-04-12T08:54:56.001Z</time></trkpt><trkpt lat="41.82377718485902" lon="14.17695702497429"><ele>748.6</ele><time>2026-04-12T08:54:57.001Z</time></trkpt><trkpt lat="41.8238421702526" lon="14.176992501507343"><ele>748.4</ele><time>2026-04-12T08:54:58.001Z</time></trkpt><trkpt lat="41.82391394260103" lon="14.177069252829801"><ele>748.2</ele><time>2026-04-12T08:54:59.001Z</time></trkpt><trkpt lat="41.82398639695318" lon="14.177151978493749"><ele>748.0</ele><time>2026-04-12T08:55:00.001Z</time></trkpt><trkpt lat="41.82406658606654" lon="14.177249760935934"><ele>748.0</ele><time>2026-04-12T08:55:01.001Z</time></trkpt><trkpt lat="41.8241486328578" lon="14.177332792160037"><ele>748.0</ele><time>2026-04-12T08:55:02.001Z</time></trkpt><trkpt lat="41.82421266102438" lon="14.177401119152137"><ele>748.0</ele><time>2026-04-12T08:55:03.001Z</time></trkpt><trkpt lat="41.82429101050188" lon="14.177496702571865"><ele>748.0</ele><time>2026-04-12T08:55:05.001Z</time></trkpt><trkpt lat="41.824261344958686" lon="14.177669380524135"><ele>748.0</ele><time>2026-04-12T08:55:08.001Z</time></trkpt><trkpt lat="41.82426546106586" lon="14.177782800202754"><ele>748.2</ele><time>2026-04-12T08:55:09.001Z</time></trkpt><trkpt lat="41.82427895525391" lon="14.177929782641197"><ele>748.4</ele><time>2026-04-12T08:55:11.001Z</time></trkpt><trkpt lat="41.82431063259172" lon="14.178006787762692"><ele>748.6</ele><time>2026-04-12T08:55:12.001Z</time></trkpt><trkpt lat="41.824423385492594" lon="14.178089965923519"><ele>748.8000000000001</ele><time>2026-04-12T08:55:14.001Z</time></trkpt><trkpt lat="41.82452650561218" lon="14.178063795520876"><ele>749.0</ele><time>2026-04-12T08:55:15.001Z</time></trkpt><trkpt lat="41.824623435738125" lon="14.178048398666105"><ele>749.0</ele><time>2026-04-12T08:55:16.001Z</time></trkpt><trkpt lat="41.824703499707816" lon="14.17806998374298"><ele>749.0</ele><time>2026-04-12T08:55:17.001Z</time></trkpt><trkpt lat="41.82476840926915" lon="14.178130779797879"><ele>749.0</ele><time>2026-04-12T08:55:18.001Z</time></trkpt><trkpt lat="41.82482055667354" lon="14.178202782768038"><ele>749.0</ele><time>2026-04-12T08:55:19.001Z</time></trkpt><trkpt lat="41.82486953705885" lon="14.178327280786457"><ele>749.0</ele><time>2026-04-12T08:55:20.001Z</time></trkpt><trkpt lat="41.824928199832016" lon="14.178438277900886"><ele>749.0</ele><time>2026-04-12T08:55:21.001Z</time></trkpt><trkpt lat="41.82496037190679" lon="14.178568151873439"><ele>749.25</ele><time>2026-04-12T08:55:22.001Z</time></trkpt><trkpt lat="41.824964837120426" lon="14.178725851341746"><ele>749.5</ele><time>2026-04-12T08:55:23.001Z</time></trkpt><trkpt lat="41.8249620161661" lon="14.178893714311592"><ele>749.75</ele><time>2026-04-12T08:55:24.001Z</time></trkpt><trkpt lat="41.824928829965145" lon="14.17904665528343"><ele>750.0</ele><time>2026-04-12T08:55:25.001Z</time></trkpt><trkpt lat="41.82487946333336" lon="14.179188073880074"><ele>750.0</ele><time>2026-04-12T08:55:26.001Z</time></trkpt><trkpt lat="41.82479539429095" lon="14.17932829269581"><ele>750.0</ele><time>2026-04-12T08:55:27.001Z</time></trkpt><trkpt lat="41.82471087034601" lon="14.179494449217058"><ele>750.0</ele><time>2026-04-12T08:55:28.001Z</time></trkpt><trkpt lat="41.82460869359587" lon="14.179659677153944"><ele>750.0</ele><time>2026-04-12T08:55:29.001Z</time></trkpt><trkpt lat="41.82450393772691" lon="14.179786305851517"><ele>749.4</ele><time>2026-04-12T08:55:30.001Z</time></trkpt><trkpt lat="41.82441658587186" lon="14.179895177509218"><ele>748.8</ele><time>2026-04-12T08:55:31.001Z</time></trkpt><trkpt lat="41.82434215842808" lon="14.179971157069781"><ele>748.2</ele><time>2026-04-12T08:55:32.001Z</time></trkpt><trkpt lat="41.824284670703726" lon="14.180035685690898"><ele>747.6</ele><time>2026-04-12T08:55:33.002Z</time></trkpt><trkpt lat="41.82416297775304" lon="14.180027455588153"><ele>747.0</ele><time>2026-04-12T08:55:35.002Z</time></trkpt><trkpt lat="41.824083996227806" lon="14.180002664609688"><ele>747.6</ele><time>2026-04-12T08:55:36.002Z</time></trkpt><trkpt lat="41.82400327233366" lon="14.17994065429237"><ele>748.2</ele><time>2026-04-12T08:55:38.002Z</time></trkpt><trkpt lat="41.823951164366875" lon="14.179856237210686"><ele>748.8</ele><time>2026-04-12T08:55:39.002Z</time></trkpt><trkpt lat="41.82390949054206" lon="14.179724200105662"><ele>749.4</ele><time>2026-04-12T08:55:40.002Z</time></trkpt><trkpt lat="41.82386640814624" lon="14.179531404114433"><ele>750.0</ele><time>2026-04-12T08:55:41.002Z</time></trkpt><trkpt lat="41.823814418957745" lon="14.17931633954684"><ele>750.0</ele><time>2026-04-12T08:55:42.002Z</time></trkpt><trkpt lat="41.8237428295584" lon="14.17908510744077"><ele>750.0</ele><time>2026-04-12T08:55:43.002Z</time></trkpt><trkpt lat="41.82367103930674" lon="14.178897742139872"><ele>750.0</ele><time>2026-04-12T08:55:44.002Z</time></trkpt><trkpt lat="41.823588496295955" lon="14.17877581769653"><ele>750.0</ele><time>2026-04-12T08:55:45.002Z</time></trkpt><trkpt lat="41.82348600527537" lon="14.178692453364384"><ele>750.0</ele><time>2026-04-12T08:55:46.002Z</time></trkpt><trkpt lat="41.823342350143896" lon="14.178650400197995"><ele>750.0</ele><time>2026-04-12T08:55:47.002Z</time></trkpt><trkpt lat="41.82319865002842" lon="14.178669477786471"><ele>750.0</ele><time>2026-04-12T08:55:48.002Z</time></trkpt><trkpt lat="41.823058076639256" lon="14.178721384465813"><ele>750.0</ele><time>2026-04-12T08:55:49.002Z</time></trkpt><trkpt lat="41.822918280152464" lon="14.178824810011283"><ele>750.0</ele><time>2026-04-12T08:55:50.002Z</time></trkpt><trkpt lat="41.8228031795855" lon="14.17899735329834"><ele>750.0</ele><time>2026-04-12T08:55:51.002Z</time></trkpt><trkpt lat="41.82268356084477" lon="14.179210695272204"><ele>751.3333333333334</ele><time>2026-04-12T08:55:52.002Z</time></trkpt><trkpt lat="41.82255423201401" lon="14.17941525437369"><ele>752.6666666666667</ele><time>2026-04-12T08:55:53.002Z</time></trkpt><trkpt lat="41.82240277364777" lon="14.179596112805196"><ele>754.0</ele><time>2026-04-12T08:55:54.002Z</time></trkpt><trkpt lat="41.82226862080007" lon="14.179727859046718"><ele>754.0</ele><time>2026-04-12T08:55:55.002Z</time></trkpt><trkpt lat="41.822131784072724" lon="14.179825824068816"><ele>754.0</ele><time>2026-04-12T08:55:56.001Z</time></trkpt><trkpt lat="41.82200439366913" lon="14.179872887733888"><ele>754.0</ele><time>2026-04-12T08:55:57.001Z</time></trkpt><trkpt lat="41.821894112031785" lon="14.179884520627336"><ele>754.0</ele><time>2026-04-12T08:55:58.001Z</time></trkpt><trkpt lat="41.821772451008506" lon="14.179851759651612"><ele>753.0</ele><time>2026-04-12T08:55:59.001Z</time></trkpt><trkpt lat="41.82164679899079" lon="14.179757082747981"><ele>752.0</ele><time>2026-04-12T08:56:00.001Z</time></trkpt><trkpt lat="41.821503723651226" lon="14.179636284297315"><ele>751.0</ele><time>2026-04-12T08:56:01.001Z</time></trkpt><trkpt lat="41.82135352718105" lon="14.179512953166544"><ele>751.0</ele><time>2026-04-12T08:56:02.001Z</time></trkpt><trkpt lat="41.82122530116045" lon="14.179473625365516"><ele>751.0</ele><time>2026-04-12T08:56:03.001Z</time></trkpt><trkpt lat="41.82110785336235" lon="14.179478431136129"><ele>751.0</ele><time>2026-04-12T08:56:04.001Z</time></trkpt><trkpt lat="41.8209937159185" lon="14.17948500179432"><ele>751.0</ele><time>2026-04-12T08:56:05.001Z</time></trkpt><trkpt lat="41.82089074303364" lon="14.179513103651187"><ele>751.1999999999999</ele><time>2026-04-12T08:56:06.001Z</time></trkpt><trkpt lat="41.82078862150304" lon="14.17953693718345"><ele>751.4</ele><time>2026-04-12T08:56:07.001Z</time></trkpt><trkpt lat="41.82068282620246" lon="14.179550610073516"><ele>751.6</ele><time>2026-04-12T08:56:08.001Z</time></trkpt><trkpt lat="41.82057740775456" lon="14.17954963315628"><ele>751.8</ele><time>2026-04-12T08:56:09.001Z</time></trkpt><trkpt lat="41.82049956667849" lon="14.179561409591"><ele>752.0</ele><time>2026-04-12T08:56:10.001Z</time></trkpt><trkpt lat="41.82044259268792" lon="14.179663065822526"><ele>752.0</ele><time>2026-04-12T08:56:12.001Z</time></trkpt><trkpt lat="41.82043910255083" lon="14.179761929503906"><ele>752.0</ele><time>2026-04-12T08:56:13.001Z</time></trkpt><trkpt lat="41.82043815504543" lon="14.179861886965675"><ele>752.0</ele><time>2026-04-12T08:56:14.001Z</time></trkpt><trkpt lat="41.820397120183614" lon="14.179933913163666"><ele>752.0</ele><time>2026-04-12T08:56:16.001Z</time></trkpt><trkpt lat="41.82030308889627" lon="14.17995397584659"><ele>752.0</ele><time>2026-04-12T08:56:18.001Z</time></trkpt><trkpt lat="41.820240420505705" lon="14.17993733256246"><ele>752.0</ele><time>2026-04-12T08:56:19.001Z</time></trkpt><trkpt lat="41.82017323948535" lon="14.179909590144234"><ele>752.0</ele><time>2026-04-12T08:56:20.001Z</time></trkpt><trkpt lat="41.820064942805274" lon="14.179969407563215"><ele>753.4285714285714</ele><time>2026-04-12T08:56:22.001Z</time></trkpt><trkpt lat="41.82006353128034" lon="14.180054978574926"><ele>754.8571428571429</ele><time>2026-04-12T08:56:23.001Z</time></trkpt><trkpt lat="41.8200628446899" lon="14.180145464779944"><ele>756.2857142857142</ele><time>2026-04-12T08:56:25.001Z</time></trkpt><trkpt lat="41.820041356139456" lon="14.180254679274354"><ele>757.7142857142858</ele><time>2026-04-12T08:56:27.001Z</time></trkpt><trkpt lat="41.82002522576505" lon="14.180350254635517"><ele>759.1428571428572</ele><time>2026-04-12T08:56:29.001Z</time></trkpt><trkpt lat="41.820013410213754" lon="14.180440648586625"><ele>760.5714285714286</ele><time>2026-04-12T08:56:30.001Z</time></trkpt><trkpt lat="41.82001644029386" lon="14.1805329948351"><ele>762.0</ele><time>2026-04-12T08:56:31.001Z</time></trkpt><trkpt lat="41.820030579258436" lon="14.180647614626615"><ele>764.3333333333334</ele><time>2026-04-12T08:56:32.001Z</time></trkpt><trkpt lat="41.82004505961222" lon="14.180782431627396"><ele>766.6666666666667</ele><time>2026-04-12T08:56:33.001Z</time></trkpt><trkpt lat="41.82006903120235" lon="14.180913496346166"><ele>769.0</ele><time>2026-04-12T08:56:34.001Z</time></trkpt><trkpt lat="41.820085610127094" lon="14.181035924953083"><ele>771.3333333333334</ele><time>2026-04-12T08:56:35.001Z</time></trkpt><trkpt lat="41.82010883530333" lon="14.181131129689284"><ele>773.6666666666667</ele><time>2026-04-12T08:56:36.001Z</time></trkpt><trkpt lat="41.82015006934259" lon="14.18121994335767"><ele>776.0</ele><time>2026-04-12T08:56:37.001Z</time></trkpt><trkpt lat="41.82018401624271" lon="14.181329078763152"><ele>776.3333333333334</ele><time>2026-04-12T08:56:38.001Z</time></trkpt><trkpt lat="41.820206135441516" lon="14.181438289487287"><ele>776.6666666666667</ele><time>2026-04-12T08:56:39.001Z</time></trkpt><trkpt lat="41.82023274654786" lon="14.181547458792489"><ele>777.0</ele><time>2026-04-12T08:56:40.001Z</time></trkpt><trkpt lat="41.820275719237934" lon="14.181648819648075"><ele>777.3333333333333</ele><time>2026-04-12T08:56:41.001Z</time></trkpt><trkpt lat="41.820318255605315" lon="14.181733479676936"><ele>777.6666666666666</ele><time>2026-04-12T08:56:42.001Z</time></trkpt><trkpt lat="41.8203670051843" lon="14.181814658488623"><ele>778.0</ele><time>2026-04-12T08:56:43.001Z</time></trkpt><trkpt lat="41.82043121854013" lon="14.181875822998842"><ele>779.6666666666666</ele><time>2026-04-12T08:56:44.001Z</time></trkpt><trkpt lat="41.820515717420086" lon="14.181925943528029"><ele>781.3333333333333</ele><time>2026-04-12T08:56:45.001Z</time></trkpt><trkpt lat="41.82059521478061" lon="14.181976696596305"><ele>783.0</ele><time>2026-04-12T08:56:46.001Z</time></trkpt><trkpt lat="41.820685913331126" lon="14.182032411321158"><ele>784.6666666666667</ele><time>2026-04-12T08:56:47.001Z</time></trkpt><trkpt lat="41.82076612931328" lon="14.18207568701153"><ele>786.3333333333334</ele><time>2026-04-12T08:56:48.001Z</time></trkpt><trkpt lat="41.82082764088526" lon="14.182096633113526"><ele>788.0</ele><time>2026-04-12T08:56:49.001Z</time></trkpt><trkpt lat="41.82087480211556" lon="14.182244807832669"><ele>790.0000000000001</ele><time>2026-04-12T08:56:51.001Z</time></trkpt><trkpt lat="41.82089632105853" lon="14.182349736258407"><ele>792.0</ele><time>2026-04-12T08:56:52.001Z</time></trkpt><trkpt lat="41.8209140079176" lon="14.182435604361226"><ele>794.0</ele><time>2026-04-12T08:56:53.001Z</time></trkpt><trkpt lat="41.82093171929648" lon="14.182522213287452"><ele>796.0</ele><time>2026-04-12T08:56:54.001Z</time></trkpt><trkpt lat="41.82094792795215" lon="14.182622242475691"><ele>798.0000000000001</ele><time>2026-04-12T08:56:56.001Z</time></trkpt><trkpt lat="41.82095501227121" lon="14.182725986235212"><ele>800.0</ele><time>2026-04-12T08:57:01.001Z</time></trkpt><trkpt lat="41.820943108837454" lon="14.182837093175223"><ele>800.0000000000001</ele><time>2026-04-12T08:57:03.001Z</time></trkpt><trkpt lat="41.82091398456735" lon="14.182942164938956"><ele>800.0</ele><time>2026-04-12T08:57:05.001Z</time></trkpt><trkpt lat="41.820921233719965" lon="14.183049160921296"><ele>800.0</ele><time>2026-04-12T08:57:07.001Z</time></trkpt><trkpt lat="41.820952289101164" lon="14.183180112767605"><ele>800.0</ele><time>2026-04-12T08:57:10.001Z</time></trkpt><trkpt lat="41.820969508536756" lon="14.183278357460122"><ele>800.0000000000001</ele><time>2026-04-12T08:57:12.001Z</time></trkpt><trkpt lat="41.82093403208661" lon="14.183349294942943"><ele>800.0</ele><time>2026-04-12T08:57:13.001Z</time></trkpt><trkpt lat="41.820875133978745" lon="14.183446367139826"><ele>802.2</ele><time>2026-04-12T08:57:14.001Z</time></trkpt><trkpt lat="41.82084831448548" lon="14.18355623265854"><ele>804.4</ele><time>2026-04-12T08:57:15.001Z</time></trkpt><trkpt lat="41.82085190225371" lon="14.183683994156882"><ele>806.5999999999999</ele><time>2026-04-12T08:57:16.001Z</time></trkpt><trkpt lat="41.820846734812335" lon="14.183823129160219"><ele>808.8</ele><time>2026-04-12T08:57:17.001Z</time></trkpt><trkpt lat="41.82083299397807" lon="14.183959855466286"><ele>811.0</ele><time>2026-04-12T08:57:18.001Z</time></trkpt><trkpt lat="41.82082784391196" lon="14.184073998630856"><ele>813.4</ele><time>2026-04-12T08:57:19.001Z</time></trkpt><trkpt lat="41.82085582899084" lon="14.184244039068751"><ele>815.8</ele><time>2026-04-12T08:57:21.001Z</time></trkpt><trkpt lat="41.82086333245055" lon="14.184358647081579"><ele>818.1999999999999</ele><time>2026-04-12T08:57:22.001Z</time></trkpt><trkpt lat="41.820850900263146" lon="14.18450368486289"><ele>820.5999999999999</ele><time>2026-04-12T08:57:23.001Z</time></trkpt><trkpt lat="41.820828600974274" lon="14.18465530747737"><ele>823.0</ele><time>2026-04-12T08:57:24.001Z</time></trkpt><trkpt lat="41.820809643859896" lon="14.184810511937217"><ele>824.75</ele><time>2026-04-12T08:57:25.001Z</time></trkpt><trkpt lat="41.8208158910792" lon="14.184970655382589"><ele>826.5</ele><time>2026-04-12T08:57:26.001Z</time></trkpt><trkpt lat="41.82085351369696" lon="14.185172136402379"><ele>828.25</ele><time>2026-04-12T08:57:27.001Z</time></trkpt><trkpt lat="41.82087144343411" lon="14.185362763211462"><ele>830.0</ele><time>2026-04-12T08:57:28.001Z</time></trkpt><trkpt lat="41.82088259404399" lon="14.185489627912983"><ele>830.0</ele><time>2026-04-12T08:57:29.001Z</time></trkpt><trkpt lat="41.82095254911082" lon="14.18563705891199"><ele>830.0</ele><time>2026-04-12T08:57:31.001Z</time></trkpt><trkpt lat="41.82094665364507" lon="14.185794690936966"><ele>830.0</ele><time>2026-04-12T08:57:33.001Z</time></trkpt><trkpt lat="41.82091489328046" lon="14.185921477126886"><ele>830.0</ele><time>2026-04-12T08:57:34.001Z</time></trkpt><trkpt lat="41.820851818408165" lon="14.186055515030736"><ele>829.8</ele><time>2026-04-12T08:57:35.001Z</time></trkpt><trkpt lat="41.82079202397189" lon="14.186158950506039"><ele>829.6</ele><time>2026-04-12T08:57:36.001Z</time></trkpt><trkpt lat="41.82071430857436" lon="14.18622044531626"><ele>829.4000000000001</ele><time>2026-04-12T08:57:37.001Z</time></trkpt><trkpt lat="41.82065097722936" lon="14.186261097663907"><ele>829.2</ele><time>2026-04-12T08:57:38.001Z</time></trkpt><trkpt lat="41.82058575189961" lon="14.18635442918143"><ele>829.0</ele><time>2026-04-12T08:57:40.002Z</time></trkpt><trkpt lat="41.820544533326434" lon="14.186513744246277"><ele>829.0</ele><time>2026-04-12T08:57:42.002Z</time></trkpt><trkpt lat="41.820465145147196" lon="14.186625737309393"><ele>829.0</ele><time>2026-04-12T08:57:44.003Z</time></trkpt><trkpt lat="41.82040561681508" lon="14.18667858587447"><ele>829.0</ele><time>2026-04-12T08:57:45.002Z</time></trkpt><trkpt lat="41.82032860558794" lon="14.186751822276884"><ele>829.0</ele><time>2026-04-12T08:57:46.002Z</time></trkpt><trkpt lat="41.82024305132883" lon="14.18683818394766"><ele>829.0</ele><time>2026-04-12T08:57:47.002Z</time></trkpt><trkpt lat="41.820167569668726" lon="14.186909795039325"><ele>829.9999999999999</ele><time>2026-04-12T08:57:48.002Z</time></trkpt><trkpt lat="41.82011865505946" lon="14.186981354071895"><ele>831.0</ele><time>2026-04-12T08:57:50.001Z</time></trkpt><trkpt lat="41.82005663918567" lon="14.187033935348975"><ele>832.0</ele><time>2026-04-12T08:57:52.001Z</time></trkpt><trkpt lat="41.820005039494625" lon="14.187087354005742"><ele>833.0</ele><time>2026-04-12T08:57:53.001Z</time></trkpt><trkpt lat="41.81993131886585" lon="14.187185415147598"><ele>833.9999999999999</ele><time>2026-04-12T08:57:55.001Z</time></trkpt><trkpt lat="41.81986244283924" lon="14.187293703944054"><ele>835.0</ele><time>2026-04-12T08:57:57.001Z</time></trkpt><trkpt lat="41.81980959536282" lon="14.187350716792652"><ele>836.4999999999999</ele><time>2026-04-12T08:57:58.001Z</time></trkpt><trkpt lat="41.81973976706228" lon="14.187473307627197"><ele>838.0</ele><time>2026-04-12T08:58:00.001Z</time></trkpt><trkpt lat="41.819702472426364" lon="14.187546110148578"><ele>839.5</ele><time>2026-04-12T08:58:01.001Z</time></trkpt><trkpt lat="41.819643057838384" lon="14.18760091496898"><ele>841.0</ele><time>2026-04-12T08:58:02.001Z</time></trkpt><trkpt lat="41.81958893202101" lon="14.187647817935023"><ele>842.4999999999999</ele><time>2026-04-12T08:58:03.001Z</time></trkpt><trkpt lat="41.81952375311579" lon="14.187694378282476"><ele>844.0</ele><time>2026-04-12T08:58:04.001Z</time></trkpt><trkpt lat="41.8194773513439" lon="14.18777711966092"><ele>844.0</ele><time>2026-04-12T08:58:05.001Z</time></trkpt><trkpt lat="41.81942681509101" lon="14.187865684994145"><ele>844.0</ele><time>2026-04-12T08:58:06.001Z</time></trkpt><trkpt lat="41.81936681692502" lon="14.187984512290468"><ele>844.0</ele><time>2026-04-12T08:58:07.001Z</time></trkpt><trkpt lat="41.81931615169674" lon="14.18809547074982"><ele>844.0</ele><time>2026-04-12T08:58:08.001Z</time></trkpt><trkpt lat="41.81927135527306" lon="14.18820829382543"><ele>844.0</ele><time>2026-04-12T08:58:09.001Z</time></trkpt><trkpt lat="41.81924349320017" lon="14.188309628914459"><ele>844.0</ele><time>2026-04-12T08:58:10.001Z</time></trkpt><trkpt lat="41.81919859496596" lon="14.188382305419216"><ele>844.0</ele><time>2026-04-12T08:58:11.001Z</time></trkpt><trkpt lat="41.81913755145407" lon="14.188439448259244"><ele>844.0</ele><time>2026-04-12T08:58:12.001Z</time></trkpt><trkpt lat="41.81904568138286" lon="14.18850588282348"><ele>844.0</ele><time>2026-04-12T08:58:13.001Z</time></trkpt><trkpt lat="41.81896197288495" lon="14.188605086205666"><ele>844.0</ele><time>2026-04-12T08:58:14.001Z</time></trkpt><trkpt lat="41.818884840120724" lon="14.188701164970864"><ele>844.0</ele><time>2026-04-12T08:58:15.001Z</time></trkpt><trkpt lat="41.818813387300544" lon="14.18876474345838"><ele>844.0</ele><time>2026-04-12T08:58:16.001Z</time></trkpt><trkpt lat="41.81873187941217" lon="14.188802276771186"><ele>844.0</ele><time>2026-04-12T08:58:17.001Z</time></trkpt><trkpt lat="41.818625048617086" lon="14.188817438138027"><ele>844.0</ele><time>2026-04-12T08:58:18.001Z</time></trkpt><trkpt lat="41.81849253516513" lon="14.188832633137924"><ele>844.0</ele><time>2026-04-12T08:58:19.001Z</time></trkpt><trkpt lat="41.81836780824489" lon="14.188843242894006"><ele>847.75</ele><time>2026-04-12T08:58:20.001Z</time></trkpt><trkpt lat="41.818269936019654" lon="14.188826040689314"><ele>851.5</ele><time>2026-04-12T08:58:21.001Z</time></trkpt><trkpt lat="41.8181663380031" lon="14.188839363172514"><ele>855.25</ele><time>2026-04-12T08:58:22.001Z</time></trkpt><trkpt lat="41.81804755230633" lon="14.188824743005132"><ele>859.0</ele><time>2026-04-12T08:58:23.001Z</time></trkpt><trkpt lat="41.81791105312414" lon="14.188804650000737"><ele>859.0</ele><time>2026-04-12T08:58:24.001Z</time></trkpt><trkpt lat="41.81777099963007" lon="14.188779864681042"><ele>859.0</ele><time>2026-04-12T08:58:25.001Z</time></trkpt><trkpt lat="41.81763968138789" lon="14.18875176561896"><ele>859.0</ele><time>2026-04-12T08:58:26.001Z</time></trkpt><trkpt lat="41.817538703183175" lon="14.188706449449393"><ele>859.0</ele><time>2026-04-12T08:58:27.001Z</time></trkpt><trkpt lat="41.817448371020596" lon="14.188629036430415"><ele>859.75</ele><time>2026-04-12T08:58:28.001Z</time></trkpt><trkpt lat="41.817368775840166" lon="14.188546347752515"><ele>860.5</ele><time>2026-04-12T08:58:29.001Z</time></trkpt><trkpt lat="41.81725495401897" lon="14.188533285339899"><ele>861.25</ele><time>2026-04-12T08:58:30.001Z</time></trkpt><trkpt lat="41.817132139592196" lon="14.18857411852521"><ele>862.0</ele><time>2026-04-12T08:58:31.001Z</time></trkpt><trkpt lat="41.81699907085866" lon="14.18859542742708"><ele>862.0</ele><time>2026-04-12T08:58:32.001Z</time></trkpt><trkpt lat="41.816878265760586" lon="14.188609771228696"><ele>862.0</ele><time>2026-04-12T08:58:33.001Z</time></trkpt><trkpt lat="41.81676219380037" lon="14.188640047172488"><ele>862.0</ele><time>2026-04-12T08:58:34.001Z</time></trkpt><trkpt lat="41.81667852368371" lon="14.188709620123655"><ele>862.0</ele><time>2026-04-12T08:58:35.001Z</time></trkpt><trkpt lat="41.816623665741794" lon="14.188816146441114"><ele>862.0</ele><time>2026-04-12T08:58:36Z</time></trkpt><trkpt lat="41.81657441726532" lon="14.188916757495173"><ele>862.8</ele><time>2026-04-12T08:58:37Z</time></trkpt><trkpt lat="41.81653185703791" lon="14.188986734005297"><ele>863.6</ele><time>2026-04-12T08:58:38Z</time></trkpt><trkpt lat="41.81645658995995" lon="14.189055248421928"><ele>864.3999999999999</ele><time>2026-04-12T08:58:39Z</time></trkpt><trkpt lat="41.816350267659196" lon="14.189089624949561"><ele>865.1999999999999</ele><time>2026-04-12T08:58:39.999Z</time></trkpt><trkpt lat="41.81621724279746" lon="14.189071632130238"><ele>866.0</ele><time>2026-04-12T08:58:40.999Z</time></trkpt><trkpt lat="41.81611594414036" lon="14.189029871460484"><ele>866.0</ele><time>2026-04-12T08:58:41.999Z</time></trkpt><trkpt lat="41.8160231958123" lon="14.188975805759219"><ele>865.9999999999999</ele><time>2026-04-12T08:58:42.999Z</time></trkpt><trkpt lat="41.81593800710595" lon="14.188935821173677"><ele>865.9999999999999</ele><time>2026-04-12T08:58:43.999Z</time></trkpt><trkpt lat="41.81586574996232" lon="14.188896358745783"><ele>866.0</ele><time>2026-04-12T08:58:44.998Z</time></trkpt><trkpt lat="41.815783220058755" lon="14.188904601218882"><ele>866.0</ele><time>2026-04-12T08:58:45.998Z</time></trkpt><trkpt lat="41.81566993149306" lon="14.18887407688118"><ele>866.8</ele><time>2026-04-12T08:58:47.998Z</time></trkpt><trkpt lat="41.81558956171603" lon="14.188796149598245"><ele>867.5999999999999</ele><time>2026-04-12T08:58:48.998Z</time></trkpt><trkpt lat="41.81548653403127" lon="14.188757097524501"><ele>868.4</ele><time>2026-04-12T08:58:49.998Z</time></trkpt><trkpt lat="41.81538366898811" lon="14.188704897627055"><ele>869.2</ele><time>2026-04-12T08:58:50.998Z</time></trkpt><trkpt lat="41.815310046016805" lon="14.18864980439413"><ele>870.0</ele><time>2026-04-12T08:58:51.998Z</time></trkpt><trkpt lat="41.81524524037239" lon="14.188586939934016"><ele>870.0</ele><time>2026-04-12T08:58:52.998Z</time></trkpt><trkpt lat="41.815159185024" lon="14.188507176408336"><ele>870.0</ele><time>2026-04-12T08:58:53.997Z</time></trkpt><trkpt lat="41.81503843732677" lon="14.188434534703074"><ele>870.0</ele><time>2026-04-12T08:58:54.997Z</time></trkpt><trkpt lat="41.81492972796104" lon="14.188382495937985"><ele>870.0</ele><time>2026-04-12T08:58:55.997Z</time></trkpt><trkpt lat="41.81480238118911" lon="14.1883749362468"><ele>868.5</ele><time>2026-04-12T08:58:56.997Z</time></trkpt><trkpt lat="41.814655160545705" lon="14.188381559796255"><ele>867.0</ele><time>2026-04-12T08:58:57.997Z</time></trkpt><trkpt lat="41.81451008018186" lon="14.188363289424759"><ele>865.5</ele><time>2026-04-12T08:58:58.997Z</time></trkpt><trkpt lat="41.81439270539936" lon="14.188350712395291"><ele>864.0</ele><time>2026-04-12T08:58:59.997Z</time></trkpt><trkpt lat="41.81428326902903" lon="14.18831072799988"><ele>864.0</ele><time>2026-04-12T08:59:00.997Z</time></trkpt><trkpt lat="41.814213771423624" lon="14.188277918283374"><ele>864.0000000000001</ele><time>2026-04-12T08:59:01.997Z</time></trkpt><trkpt lat="41.814100899150894" lon="14.18822882146794"><ele>864.0000000000001</ele><time>2026-04-12T08:59:03.997Z</time></trkpt><trkpt lat="41.81403238221359" lon="14.188236431240217"><ele>864.0</ele><time>2026-04-12T08:59:04.997Z</time></trkpt><trkpt lat="41.81394765935269" lon="14.188275303254166"><ele>864.0</ele><time>2026-04-12T08:59:05.997Z</time></trkpt><trkpt lat="41.813848499890184" lon="14.188299129767936"><ele>864.0</ele><time>2026-04-12T08:59:06.997Z</time></trkpt><trkpt lat="41.813740473566256" lon="14.188310610741908"><ele>864.0000000000001</ele><time>2026-04-12T08:59:07.997Z</time></trkpt><trkpt lat="41.813635313715736" lon="14.188289596182193"><ele>864.0000000000001</ele><time>2026-04-12T08:59:08.997Z</time></trkpt><trkpt lat="41.81354475929032" lon="14.188241916601628"><ele>864.0</ele><time>2026-04-12T08:59:09.996Z</time></trkpt><trkpt lat="41.813472854429286" lon="14.188184209009913"><ele>864.0</ele><time>2026-04-12T08:59:10.996Z</time></trkpt><trkpt lat="41.813387976103364" lon="14.188101277270153"><ele>866.8000000000001</ele><time>2026-04-12T08:59:11.996Z</time></trkpt><trkpt lat="41.8132997677005" lon="14.187999759403542"><ele>869.6000000000001</ele><time>2026-04-12T08:59:12.996Z</time></trkpt><trkpt lat="41.81321615564077" lon="14.187946126190335"><ele>872.4</ele><time>2026-04-12T08:59:13.996Z</time></trkpt><trkpt lat="41.81312071634163" lon="14.187912346063454"><ele>875.2</ele><time>2026-04-12T08:59:14.996Z</time></trkpt><trkpt lat="41.813033607012905" lon="14.187891558214853"><ele>878.0</ele><time>2026-04-12T08:59:15.996Z</time></trkpt><trkpt lat="41.812956186243916" lon="14.18789583824653"><ele>878.0000000000001</ele><time>2026-04-12T08:59:16.996Z</time></trkpt><trkpt lat="41.81289829182041" lon="14.187941758256862"><ele>878.0</ele><time>2026-04-12T08:59:17.996Z</time></trkpt><trkpt lat="41.81282884529526" lon="14.187999533259307"><ele>878.0</ele><time>2026-04-12T08:59:18.996Z</time></trkpt><trkpt lat="41.812756235146324" lon="14.18807536445648"><ele>878.0</ele><time>2026-04-12T08:59:19.996Z</time></trkpt><trkpt lat="41.81267685538571" lon="14.188163542619543"><ele>878.0000000000001</ele><time>2026-04-12T08:59:21.996Z</time></trkpt><trkpt lat="41.81262035593395" lon="14.188214084718254"><ele>878.0</ele><time>2026-04-12T08:59:23.996Z</time></trkpt><trkpt lat="41.81249375600233" lon="14.188292434371863"><ele>876.0</ele><time>2026-04-12T08:59:25.996Z</time></trkpt><trkpt lat="41.81240274687351" lon="14.188316254405164"><ele>874.0</ele><time>2026-04-12T08:59:26.996Z</time></trkpt><trkpt lat="41.812285639744" lon="14.188323773778283"><ele>872.0</ele><time>2026-04-12T08:59:27.996Z</time></trkpt><trkpt lat="41.81216448772698" lon="14.188322297304813"><ele>870.0</ele><time>2026-04-12T08:59:28.996Z</time></trkpt><trkpt lat="41.81204456187868" lon="14.188330631183891"><ele>870.0</ele><time>2026-04-12T08:59:29.996Z</time></trkpt><trkpt lat="41.811924077837254" lon="14.18837012726812"><ele>870.0</ele><time>2026-04-12T08:59:30.996Z</time></trkpt><trkpt lat="41.81181733821123" lon="14.188433268473139"><ele>870.0</ele><time>2026-04-12T08:59:31.996Z</time></trkpt><trkpt lat="41.81174057285738" lon="14.188461745661655"><ele>870.0</ele><time>2026-04-12T08:59:32.996Z</time></trkpt><trkpt lat="41.811657516827495" lon="14.188463789941023"><ele>870.0</ele><time>2026-04-12T08:59:33.996Z</time></trkpt><trkpt lat="41.811576554648894" lon="14.188432152425206"><ele>871.2</ele><time>2026-04-12T08:59:34.996Z</time></trkpt><trkpt lat="41.81149006652274" lon="14.188434686135"><ele>872.4</ele><time>2026-04-12T08:59:36.996Z</time></trkpt><trkpt lat="41.81139621914367" lon="14.18843986771901"><ele>873.5999999999999</ele><time>2026-04-12T08:59:38.996Z</time></trkpt><trkpt lat="41.811279996929706" lon="14.188452059650913"><ele>874.8</ele><time>2026-04-12T08:59:40.996Z</time></trkpt><trkpt lat="41.81113617386636" lon="14.188468959721636"><ele>876.0</ele><time>2026-04-12T08:59:42.996Z</time></trkpt><trkpt lat="41.81102835839938" lon="14.188475501790883"><ele>875.75</ele><time>2026-04-12T08:59:43.996Z</time></trkpt><trkpt lat="41.81090689312746" lon="14.188488667430464"><ele>875.5</ele><time>2026-04-12T08:59:44.997Z</time></trkpt><trkpt lat="41.81077333017832" lon="14.188515483533175"><ele>875.25</ele><time>2026-04-12T08:59:45.998Z</time></trkpt><trkpt lat="41.810650681133225" lon="14.188497431309198"><ele>875.0</ele><time>2026-04-12T08:59:46.997Z</time></trkpt><trkpt lat="41.810558177710725" lon="14.188474739155238"><ele>875.0</ele><time>2026-04-12T08:59:47.998Z</time></trkpt><trkpt lat="41.81046627629811" lon="14.188479498569897"><ele>875.0</ele><time>2026-04-12T08:59:48.998Z</time></trkpt><trkpt lat="41.810383496831335" lon="14.188501520003342"><ele>875.0</ele><time>2026-04-12T08:59:49.998Z</time></trkpt><trkpt lat="41.81029199806014" lon="14.188588471541248"><ele>875.0</ele><time>2026-04-12T08:59:51.997Z</time></trkpt><trkpt lat="41.81022309280759" lon="14.188647457709747"><ele>875.0</ele><time>2026-04-12T08:59:52.997Z</time></trkpt><trkpt lat="41.810113717649905" lon="14.188682178727896"><ele>873.8</ele><time>2026-04-12T08:59:53.997Z</time></trkpt><trkpt lat="41.80998564784816" lon="14.188693067283989"><ele>872.6</ele><time>2026-04-12T08:59:54.997Z</time></trkpt><trkpt lat="41.80987717454044" lon="14.188724969606705"><ele>871.4000000000001</ele><time>2026-04-12T08:59:55.997Z</time></trkpt><trkpt lat="41.80978329252887" lon="14.18878518707828"><ele>870.2</ele><time>2026-04-12T08:59:56.997Z</time></trkpt><trkpt lat="41.80973476124926" lon="14.188844454191491"><ele>869.0</ele><time>2026-04-12T08:59:57.997Z</time></trkpt><trkpt lat="41.80964974756338" lon="14.188912355125648"><ele>867.6</ele><time>2026-04-12T08:59:59.997Z</time></trkpt><trkpt lat="41.809582880747904" lon="14.189039019311554"><ele>866.2</ele><time>2026-04-12T09:00:01.997Z</time></trkpt><trkpt lat="41.80954169183081" lon="14.18915251876289"><ele>864.8000000000001</ele><time>2026-04-12T09:00:02.997Z</time></trkpt><trkpt lat="41.80947515803636" lon="14.189227396602274"><ele>863.4000000000001</ele><time>2026-04-12T09:00:03.997Z</time></trkpt><trkpt lat="41.80939955228157" lon="14.189276215532983"><ele>862.0</ele><time>2026-04-12T09:00:04.997Z</time></trkpt><trkpt lat="41.80932194082323" lon="14.189328719603227"><ele>862.0</ele><time>2026-04-12T09:00:05.997Z</time></trkpt><trkpt lat="41.80924249432518" lon="14.189361993625491"><ele>862.0</ele><time>2026-04-12T09:00:06.997Z</time></trkpt><trkpt lat="41.80914292711976" lon="14.18938692008833"><ele>862.0</ele><time>2026-04-12T09:00:07.997Z</time></trkpt><trkpt lat="41.809049656731474" lon="14.189410698006053"><ele>862.0</ele><time>2026-04-12T09:00:08.997Z</time></trkpt><trkpt lat="41.80894188279452" lon="14.189464209010143"><ele>862.0</ele><time>2026-04-12T09:00:09.997Z</time></trkpt><trkpt lat="41.80883950426736" lon="14.189548801822434"><ele>862.0</ele><time>2026-04-12T09:00:10.997Z</time></trkpt><trkpt lat="41.808739432211205" lon="14.18962065320029"><ele>862.0</ele><time>2026-04-12T09:00:11.997Z</time></trkpt><trkpt lat="41.808648467679575" lon="14.18969583056261"><ele>862.0</ele><time>2026-04-12T09:00:12.997Z</time></trkpt><trkpt lat="41.80858046278042" lon="14.189737838387458"><ele>862.0</ele><time>2026-04-12T09:00:13.997Z</time></trkpt><trkpt lat="41.80850960913434" lon="14.189785210667516"><ele>862.0</ele><time>2026-04-12T09:00:14.997Z</time></trkpt><trkpt lat="41.80843325434319" lon="14.189825125670655"><ele>862.6</ele><time>2026-04-12T09:00:15.997Z</time></trkpt><trkpt lat="41.808319184791095" lon="14.189847788396829"><ele>863.2</ele><time>2026-04-12T09:00:16.997Z</time></trkpt><trkpt lat="41.80821251592267" lon="14.189874914156068"><ele>863.8</ele><time>2026-04-12T09:00:17.997Z</time></trkpt><trkpt lat="41.80812710473515" lon="14.189924179819082"><ele>864.4</ele><time>2026-04-12T09:00:19.997Z</time></trkpt><trkpt lat="41.80814123286111" lon="14.1900441974125"><ele>865.0</ele><time>2026-04-12T09:00:23.997Z</time></trkpt><trkpt lat="41.80822076319644" lon="14.190085595928023"><ele>865.0</ele><time>2026-04-12T09:00:26.996Z</time></trkpt><trkpt lat="41.808312653333296" lon="14.190081417724096"><ele>865.0</ele><time>2026-04-12T09:00:28.996Z</time></trkpt><trkpt lat="41.80838107513456" lon="14.19009274172029"><ele>865.0</ele><time>2026-04-12T09:00:29.996Z</time></trkpt><trkpt lat="41.80847202300837" lon="14.190118942032289"><ele>865.0</ele><time>2026-04-12T09:00:30.996Z</time></trkpt><trkpt lat="41.80858787879542" lon="14.190139140164455"><ele>865.0</ele><time>2026-04-12T09:00:31.996Z</time></trkpt><trkpt lat="41.8087115433365" lon="14.190167666654656"><ele>863.25</ele><time>2026-04-12T09:00:32.996Z</time></trkpt><trkpt lat="41.808841926698335" lon="14.190195858889378"><ele>861.5</ele><time>2026-04-12T09:00:33.996Z</time></trkpt><trkpt lat="41.80898763955889" lon="14.190224506308619"><ele>859.75</ele><time>2026-04-12T09:00:34.996Z</time></trkpt><trkpt lat="41.809136332515735" lon="14.190248324278574"><ele>858.0</ele><time>2026-04-12T09:00:35.996Z</time></trkpt><trkpt lat="41.80928540724425" lon="14.190273024526068"><ele>856.3333333333333</ele><time>2026-04-12T09:00:36.996Z</time></trkpt><trkpt lat="41.80943986022747" lon="14.190309228706566"><ele>854.6666666666666</ele><time>2026-04-12T09:00:37.996Z</time></trkpt><trkpt lat="41.809612107962046" lon="14.190342388975981"><ele>853.0</ele><time>2026-04-12T09:00:38.996Z</time></trkpt><trkpt lat="41.80978392881508" lon="14.190386947577272"><ele>853.0</ele><time>2026-04-12T09:00:39.996Z</time></trkpt><trkpt lat="41.80994586163069" lon="14.190415696892744"><ele>853.0</ele><time>2026-04-12T09:00:40.996Z</time></trkpt><trkpt lat="41.8101035942255" lon="14.190457016922874"><ele>853.0</ele><time>2026-04-12T09:00:41.996Z</time></trkpt><trkpt lat="41.81025685154457" lon="14.190533472636721"><ele>853.0</ele><time>2026-04-12T09:00:42.996Z</time></trkpt><trkpt lat="41.81040139672979" lon="14.190650575925046"><ele>853.0</ele><time>2026-04-12T09:00:43.996Z</time></trkpt><trkpt lat="41.81053409443601" lon="14.190803717670736"><ele>853.0</ele><time>2026-04-12T09:00:44.996Z</time></trkpt><trkpt lat="41.81065362860382" lon="14.19096426152298"><ele>851.6666666666666</ele><time>2026-04-12T09:00:45.996Z</time></trkpt><trkpt lat="41.810766697329164" lon="14.191129326342192"><ele>850.3333333333333</ele><time>2026-04-12T09:00:46.996Z</time></trkpt><trkpt lat="41.810887437828065" lon="14.191298618100113"><ele>849.0</ele><time>2026-04-12T09:00:47.996Z</time></trkpt><trkpt lat="41.811003378741965" lon="14.191453049781268"><ele>846.6666666666667</ele><time>2026-04-12T09:00:48.996Z</time></trkpt><trkpt lat="41.811124767867554" lon="14.19161749672304"><ele>844.3333333333334</ele><time>2026-04-12T09:00:49.996Z</time></trkpt><trkpt lat="41.811243013481615" lon="14.191778844786715"><ele>842.0</ele><time>2026-04-12T09:00:50.996Z</time></trkpt><trkpt lat="41.81136120511285" lon="14.191938071738212"><ele>842.0</ele><time>2026-04-12T09:00:51.996Z</time></trkpt><trkpt lat="41.8114820905334" lon="14.192099029096227"><ele>842.0</ele><time>2026-04-12T09:00:52.996Z</time></trkpt><trkpt lat="41.811603359915786" lon="14.192245761331728"><ele>842.0</ele><time>2026-04-12T09:00:53.996Z</time></trkpt><trkpt lat="41.811709536101276" lon="14.192384037044292"><ele>840.25</ele><time>2026-04-12T09:00:54.996Z</time></trkpt><trkpt lat="41.81181308311215" lon="14.192524770198016"><ele>838.5</ele><time>2026-04-12T09:00:55.996Z</time></trkpt><trkpt lat="41.81190507432433" lon="14.192650473397254"><ele>836.75</ele><time>2026-04-12T09:00:56.996Z</time></trkpt><trkpt lat="41.81198654193997" lon="14.192761734959628"><ele>835.0</ele><time>2026-04-12T09:00:57.996Z</time></trkpt><trkpt lat="41.812072675555115" lon="14.192866256800663"><ele>834.6</ele><time>2026-04-12T09:00:58.996Z</time></trkpt><trkpt lat="41.81216438291665" lon="14.192959945600686"><ele>834.2</ele><time>2026-04-12T09:00:59.996Z</time></trkpt><trkpt lat="41.81226089191599" lon="14.193035243191721"><ele>833.8</ele><time>2026-04-12T09:01:00.996Z</time></trkpt><trkpt lat="41.81236124533381" lon="14.19309689227666"><ele>833.4</ele><time>2026-04-12T09:01:01.996Z</time></trkpt><trkpt lat="41.81246287969547" lon="14.193148238505923"><ele>833.0</ele><time>2026-04-12T09:01:02.996Z</time></trkpt><trkpt lat="41.812548877265165" lon="14.193189800211979"><ele>832.4</ele><time>2026-04-12T09:01:03.996Z</time></trkpt><trkpt lat="41.81263355940055" lon="14.193220152986548"><ele>831.8</ele><time>2026-04-12T09:01:04.996Z</time></trkpt><trkpt lat="41.81269928911457" lon="14.193241530049841"><ele>831.2</ele><time>2026-04-12T09:01:05.996Z</time></trkpt><trkpt lat="41.812779303234535" lon="14.193303692601555"><ele>830.6</ele><time>2026-04-12T09:01:07.996Z</time></trkpt><trkpt lat="41.81286635203534" lon="14.193427306371282"><ele>830.0</ele><time>2026-04-12T09:01:09.996Z</time></trkpt><trkpt lat="41.812939521499935" lon="14.193461547023414"><ele>828.8571428571429</ele><time>2026-04-12T09:01:10.996Z</time></trkpt><trkpt lat="41.81300417747682" lon="14.193455726580702"><ele>827.7142857142858</ele><time>2026-04-12T09:01:11.996Z</time></trkpt><trkpt lat="41.81306889932695" lon="14.193463858066806"><ele>826.5714285714286</ele><time>2026-04-12T09:01:12.996Z</time></trkpt><trkpt lat="41.813142882980586" lon="14.19346851710926"><ele>825.4285714285714</ele><time>2026-04-12T09:01:13.996Z</time></trkpt><trkpt lat="41.813209323298835" lon="14.193494035930625"><ele>824.2857142857142</ele><time>2026-04-12T09:01:14.996Z</time></trkpt><trkpt lat="41.81326941841279" lon="14.193551619255496"><ele>823.1428571428571</ele><time>2026-04-12T09:01:15.996Z</time></trkpt><trkpt lat="41.81330162796823" lon="14.19363429057204"><ele>822.0</ele><time>2026-04-12T09:01:16.996Z</time></trkpt><trkpt lat="41.813323470934286" lon="14.193745992231342"><ele>822.0</ele><time>2026-04-12T09:01:18.996Z</time></trkpt><trkpt lat="41.81341417221256" lon="14.193783851156734"><ele>822.0</ele><time>2026-04-12T09:01:20.996Z</time></trkpt><trkpt lat="41.813488664290205" lon="14.193798435531534"><ele>822.0</ele><time>2026-04-12T09:01:21.996Z</time></trkpt><trkpt lat="41.813550475252214" lon="14.193838800421567"><ele>822.0</ele><time>2026-04-12T09:01:22.996Z</time></trkpt><trkpt lat="41.813627609845575" lon="14.193892193173197"><ele>822.0</ele><time>2026-04-12T09:01:23.996Z</time></trkpt><trkpt lat="41.813714411261614" lon="14.193944689740519"><ele>822.0</ele><time>2026-04-12T09:01:24.996Z</time></trkpt><trkpt lat="41.81377442046299" lon="14.19402711059015"><ele>821.0</ele><time>2026-04-12T09:01:25.996Z</time></trkpt><trkpt lat="41.813835466320484" lon="14.194127598361243"><ele>820.0</ele><time>2026-04-12T09:01:26.996Z</time></trkpt><trkpt lat="41.81389813265371" lon="14.194205881052474"><ele>819.0</ele><time>2026-04-12T09:01:27.996Z</time></trkpt><trkpt lat="41.8139685828189" lon="14.19426785950198"><ele>818.0</ele><time>2026-04-12T09:01:28.996Z</time></trkpt><trkpt lat="41.81405403650243" lon="14.194316369809735"><ele>817.0</ele><time>2026-04-12T09:01:29.996Z</time></trkpt><trkpt lat="41.81413621637286" lon="14.194337528010786"><ele>816.0</ele><time>2026-04-12T09:01:30.996Z</time></trkpt><trkpt lat="41.814214698466934" lon="14.194352559577476"><ele>816.0</ele><time>2026-04-12T09:01:31.996Z</time></trkpt><trkpt lat="41.81430593875711" lon="14.19435812999323"><ele>816.0</ele><time>2026-04-12T09:01:32.996Z</time></trkpt><trkpt lat="41.81439849862875" lon="14.194361125555538"><ele>816.0</ele><time>2026-04-12T09:01:33.996Z</time></trkpt><trkpt lat="41.81448452970393" lon="14.194376441464874"><ele>816.0</ele><time>2026-04-12T09:01:34.996Z</time></trkpt><trkpt lat="41.81457388100092" lon="14.194387262163369"><ele>816.0</ele><time>2026-04-12T09:01:35.996Z</time></trkpt><trkpt lat="41.81467210309424" lon="14.194394042129298"><ele>814.5999999999999</ele><time>2026-04-12T09:01:36.996Z</time></trkpt><trkpt lat="41.81475833653803" lon="14.19442230105089"><ele>813.2</ele><time>2026-04-12T09:01:37.996Z</time></trkpt><trkpt lat="41.8148456575418" lon="14.194430760166039"><ele>811.8</ele><time>2026-04-12T09:01:38.996Z</time></trkpt><trkpt lat="41.81495104104971" lon="14.194457048152982"><ele>810.4000000000001</ele><time>2026-04-12T09:01:39.996Z</time></trkpt><trkpt lat="41.81504338786841" lon="14.194471269654652"><ele>809.0</ele><time>2026-04-12T09:01:40.996Z</time></trkpt><trkpt lat="41.815138686289664" lon="14.194503573273668"><ele>805.8000000000001</ele><time>2026-04-12T09:01:41.996Z</time></trkpt><trkpt lat="41.81523156277847" lon="14.19451354174466"><ele>802.6</ele><time>2026-04-12T09:01:42.996Z</time></trkpt><trkpt lat="41.81532731085038" lon="14.194522489411018"><ele>799.4</ele><time>2026-04-12T09:01:43.996Z</time></trkpt><trkpt lat="41.81540880659162" lon="14.194541073135175"><ele>796.2</ele><time>2026-04-12T09:01:44.996Z</time></trkpt><trkpt lat="41.81547575702544" lon="14.194562780938572"><ele>793.0</ele><time>2026-04-12T09:01:45.996Z</time></trkpt><trkpt lat="41.815564421602566" lon="14.194670006638164"><ele>793.0</ele><time>2026-04-12T09:01:47.996Z</time></trkpt><trkpt lat="41.815614620793234" lon="14.194737416753593"><ele>793.0</ele><time>2026-04-12T09:01:48.996Z</time></trkpt><trkpt lat="41.81568728268226" lon="14.194835317577322"><ele>793.0</ele><time>2026-04-12T09:01:50.997Z</time></trkpt><trkpt lat="41.815771000819176" lon="14.194933831894152"><ele>793.0</ele><time>2026-04-12T09:01:52.996Z</time></trkpt><trkpt lat="41.815826737751614" lon="14.195039774332557"><ele>793.0</ele><time>2026-04-12T09:01:54.997Z</time></trkpt><trkpt lat="41.81587824182746" lon="14.1951435422461"><ele>791.3333333333333</ele><time>2026-04-12T09:01:58.997Z</time></trkpt><trkpt lat="41.815956676588854" lon="14.195247985839504"><ele>789.6666666666666</ele><time>2026-04-12T09:02:00.997Z</time></trkpt><trkpt lat="41.81602255087829" lon="14.195314190339943"><ele>788.0</ele><time>2026-04-12T09:02:01.997Z</time></trkpt><trkpt lat="41.81609022105448" lon="14.195352982170903"><ele>786.3333333333333</ele><time>2026-04-12T09:02:02.998Z</time></trkpt><trkpt lat="41.816161935174975" lon="14.19537079610252"><ele>784.6666666666666</ele><time>2026-04-12T09:02:03.997Z</time></trkpt><trkpt lat="41.8162268716154" lon="14.195394575214456"><ele>783.0</ele><time>2026-04-12T09:02:04.997Z</time></trkpt><trkpt lat="41.81630379338284" lon="14.195440989485734"><ele>782.6666666666666</ele><time>2026-04-12T09:02:05.997Z</time></trkpt><trkpt lat="41.816375345937075" lon="14.195478301324588"><ele>782.3333333333333</ele><time>2026-04-12T09:02:06.997Z</time></trkpt><trkpt lat="41.81644173107021" lon="14.195515626829934"><ele>782.0</ele><time>2026-04-12T09:02:07.997Z</time></trkpt><trkpt lat="41.81651915847575" lon="14.195532180842687"><ele>781.6666666666666</ele><time>2026-04-12T09:02:08.997Z</time></trkpt><trkpt lat="41.81660662587023" lon="14.19555399337117"><ele>781.3333333333333</ele><time>2026-04-12T09:02:11.997Z</time></trkpt><trkpt lat="41.816672990160555" lon="14.195633934955444"><ele>781.0</ele><time>2026-04-12T09:02:13.997Z</time></trkpt><trkpt lat="41.81670049886073" lon="14.195762420886325"><ele>782.25</ele><time>2026-04-12T09:02:15.997Z</time></trkpt><trkpt lat="41.81672254366165" lon="14.195912045855994"><ele>783.5</ele><time>2026-04-12T09:02:17.997Z</time></trkpt><trkpt lat="41.816732601585585" lon="14.19607308921618"><ele>784.75</ele><time>2026-04-12T09:02:19.997Z</time></trkpt><trkpt lat="41.81676382453425" lon="14.196231134562664"><ele>786.0</ele><time>2026-04-12T09:02:21.997Z</time></trkpt><trkpt lat="41.81677267791224" lon="14.196371677843253"><ele>786.0000000000001</ele><time>2026-04-12T09:02:23.997Z</time></trkpt><trkpt lat="41.81678674526446" lon="14.196466203077454"><ele>786.0</ele><time>2026-04-12T09:02:24.997Z</time></trkpt><trkpt lat="41.81679537793304" lon="14.196590650225948"><ele>786.0</ele><time>2026-04-12T09:02:26.997Z</time></trkpt><trkpt lat="41.8167713063985" lon="14.196671860738068"><ele>786.0</ele><time>2026-04-12T09:02:38.996Z</time></trkpt><trkpt lat="41.81676609696665" lon="14.196758858740445"><ele>786.0</ele><time>2026-04-12T09:03:03.996Z</time></trkpt><trkpt lat="41.816765750177225" lon="14.196848584698873"><ele>786.0000000000001</ele><time>2026-04-12T09:03:09.996Z</time></trkpt><trkpt lat="41.8168076541681" lon="14.196949657865687"><ele>786.0</ele><time>2026-04-12T09:03:14.996Z</time></trkpt><trkpt lat="41.816860692903276" lon="14.19699837314023"><ele>788.8333333333334</ele><time>2026-04-12T09:03:16.996Z</time></trkpt><trkpt lat="41.816943862016096" lon="14.1970513472631"><ele>791.6666666666667</ele><time>2026-04-12T09:03:19.996Z</time></trkpt><trkpt lat="41.816999591579595" lon="14.197098539178176"><ele>794.5</ele><time>2026-04-12T09:03:24.996Z</time></trkpt><trkpt lat="41.81703579587884" lon="14.197167728066129"><ele>797.3333333333334</ele><time>2026-04-12T09:03:33.996Z</time></trkpt><trkpt lat="41.817115432284915" lon="14.197232491330688"><ele>800.1666666666667</ele><time>2026-04-12T09:03:35.996Z</time></trkpt><trkpt lat="41.81717737250703" lon="14.197302508584887"><ele>803.0</ele><time>2026-04-12T09:03:36.996Z</time></trkpt><trkpt lat="41.817219162899185" lon="14.197378812507344"><ele>804.0000000000001</ele><time>2026-04-12T09:03:37.996Z</time></trkpt><trkpt lat="41.817262015226966" lon="14.197474974659665"><ele>805.0</ele><time>2026-04-12T09:03:38.996Z</time></trkpt><trkpt lat="41.81730568241413" lon="14.197566066409054"><ele>806.0</ele><time>2026-04-12T09:03:39.996Z</time></trkpt><trkpt lat="41.81732963971437" lon="14.197654989099284"><ele>807.0</ele><time>2026-04-12T09:03:40.996Z</time></trkpt><trkpt lat="41.81737125263414" lon="14.197748979446128"><ele>808.0000000000001</ele><time>2026-04-12T09:03:41.996Z</time></trkpt><trkpt lat="41.81742205092378" lon="14.19784830548958"><ele>809.0</ele><time>2026-04-12T09:03:42.996Z</time></trkpt><trkpt lat="41.817468049925914" lon="14.197942076955911"><ele>809.0000000000001</ele><time>2026-04-12T09:03:43.996Z</time></trkpt><trkpt lat="41.817508140694734" lon="14.198028349183572"><ele>809.0</ele><time>2026-04-12T09:03:44.996Z</time></trkpt><trkpt lat="41.81757437841981" lon="14.198157747859266"><ele>809.0</ele><time>2026-04-12T09:03:46.996Z</time></trkpt><trkpt lat="41.81763875398357" lon="14.198233192991907"><ele>809.0</ele><time>2026-04-12T09:03:47.996Z</time></trkpt><trkpt lat="41.8177117644444" lon="14.198314811548666"><ele>809.0000000000001</ele><time>2026-04-12T09:03:48.996Z</time></trkpt><trkpt lat="41.81776487339258" lon="14.198374664739914"><ele>809.0</ele><time>2026-04-12T09:03:49.996Z</time></trkpt><trkpt lat="41.817849776664694" lon="14.198415383617444"><ele>809.6666666666667</ele><time>2026-04-12T09:03:50.996Z</time></trkpt><trkpt lat="41.817922865063736" lon="14.198437128700252"><ele>810.3333333333334</ele><time>2026-04-12T09:03:51.996Z</time></trkpt><trkpt lat="41.81800586412465" lon="14.198478396971536"><ele>811.0</ele><time>2026-04-12T09:03:52.996Z</time></trkpt><trkpt lat="41.81811794227701" lon="14.198514156465453"><ele>811.6666666666667</ele><time>2026-04-12T09:03:53.996Z</time></trkpt><trkpt lat="41.81819047887208" lon="14.198538908407189"><ele>812.3333333333334</ele><time>2026-04-12T09:03:54.996Z</time></trkpt><trkpt lat="41.818276620662104" lon="14.198580434308973"><ele>813.0</ele><time>2026-04-12T09:03:56.998Z</time></trkpt><trkpt lat="41.81834409468915" lon="14.198636069149405"><ele>813.0</ele><time>2026-04-12T09:03:58.997Z</time></trkpt><trkpt lat="41.81844788484677" lon="14.198765062873381"><ele>813.0</ele><time>2026-04-12T09:04:00.997Z</time></trkpt><trkpt lat="41.81850129385218" lon="14.19881160881946"><ele>813.0</ele><time>2026-04-12T09:04:01.997Z</time></trkpt><trkpt lat="41.81855299723897" lon="14.198918176450285"><ele>813.0</ele><time>2026-04-12T09:04:04.997Z</time></trkpt><trkpt lat="41.818619839956334" lon="14.19896329238479"><ele>813.0</ele><time>2026-04-12T09:04:15.997Z</time></trkpt><trkpt lat="41.818674972782624" lon="14.199006422238083"><ele>813.0</ele><time>2026-04-12T09:04:17.997Z</time></trkpt><trkpt lat="41.818781408905615" lon="14.19909052167956"><ele>813.4</ele><time>2026-04-12T09:04:19.997Z</time></trkpt><trkpt lat="41.81885735582132" lon="14.199183708629656"><ele>813.8</ele><time>2026-04-12T09:04:21.997Z</time></trkpt><trkpt lat="41.818861307576526" lon="14.19927032539481"><ele>814.2</ele><time>2026-04-12T09:04:59.997Z</time></trkpt><trkpt lat="41.81882569660252" lon="14.199372100595673"><ele>814.6</ele><time>2026-04-12T09:05:04.996Z</time></trkpt><trkpt lat="41.81883316838836" lon="14.199495161237506"><ele>815.0</ele><time>2026-04-12T09:05:06.996Z</time></trkpt><trkpt lat="41.81881421942773" lon="14.199652551047963"><ele>815.0000000000001</ele><time>2026-04-12T09:05:08.996Z</time></trkpt><trkpt lat="41.818768847467716" lon="14.199776550967933"><ele>815.0</ele><time>2026-04-12T09:05:10.996Z</time></trkpt><trkpt lat="41.81869259130605" lon="14.19983234683502"><ele>815.0</ele><time>2026-04-12T09:05:12.996Z</time></trkpt><trkpt lat="41.81860302378431" lon="14.199874872946321"><ele>815.0</ele><time>2026-04-12T09:05:14.996Z</time></trkpt><trkpt lat="41.818522887970026" lon="14.19990110399987"><ele>815.0000000000001</ele><time>2026-04-12T09:05:16.996Z</time></trkpt><trkpt lat="41.81846211274629" lon="14.199854145959371"><ele>815.0</ele><time>2026-04-12T09:05:27.996Z</time></trkpt><trkpt lat="41.81840362774062" lon="14.199886524500089"><ele>815.0000000000001</ele><time>2026-04-12T09:05:29.996Z</time></trkpt><trkpt lat="41.81833896581387" lon="14.1998993156256"><ele>815.0</ele><time>2026-04-12T09:05:31.996Z</time></trkpt><trkpt lat="41.81825588641609" lon="14.199880008993153"><ele>815.0</ele><time>2026-04-12T09:05:34.996Z</time></trkpt><trkpt lat="41.81815381445532" lon="14.19982291980072"><ele>815.0</ele><time>2026-04-12T09:05:36.996Z</time></trkpt><trkpt lat="41.818093998712975" lon="14.199795219830138"><ele>815.0000000000001</ele><time>2026-04-12T09:05:37.996Z</time></trkpt><trkpt lat="41.81802362431684" lon="14.199756292351921"><ele>815.0</ele><time>2026-04-12T09:05:39.996Z</time></trkpt><trkpt lat="41.81794335135384" lon="14.199708800187098"><ele>815.0000000000001</ele><time>2026-04-12T09:05:51.996Z</time></trkpt><trkpt lat="41.81786413907675" lon="14.199726381507766"><ele>815.0</ele><time>2026-04-12T09:05:53.996Z</time></trkpt><trkpt lat="41.81782845308907" lon="14.199838503632291"><ele>815.0</ele><time>2026-04-12T09:05:56.996Z</time></trkpt><trkpt lat="41.81777767921534" lon="14.19998133049057"><ele>815.0</ele><time>2026-04-12T09:05:58.996Z</time></trkpt><trkpt lat="41.8177538584128" lon="14.200063033869244"><ele>815.0000000000001</ele><time>2026-04-12T09:05:59.996Z</time></trkpt><trkpt lat="41.81769081837165" lon="14.200131897244018"><ele>815.0</ele><time>2026-04-12T09:06:00.996Z</time></trkpt><trkpt lat="41.817638888102586" lon="14.200208539992191"><ele>816.4</ele><time>2026-04-12T09:06:01.996Z</time></trkpt><trkpt lat="41.81757903889649" lon="14.200279797056487"><ele>817.8</ele><time>2026-04-12T09:06:02.997Z</time></trkpt><trkpt lat="41.81744923549861" lon="14.200357515530193"><ele>819.2</ele><time>2026-04-12T09:06:04.997Z</time></trkpt><trkpt lat="41.81735458961199" lon="14.20043538003759"><ele>820.6</ele><time>2026-04-12T09:06:05.997Z</time></trkpt><trkpt lat="41.81728619324844" lon="14.200455047808283"><ele>822.0</ele><time>2026-04-12T09:06:06.996Z</time></trkpt><trkpt lat="41.817232617113284" lon="14.200501076966765"><ele>822.0</ele><time>2026-04-12T09:06:07.996Z</time></trkpt><trkpt lat="41.81719514133506" lon="14.200626307759663"><ele>822.0</ele><time>2026-04-12T09:06:09.997Z</time></trkpt><trkpt lat="41.817119899239934" lon="14.200764645843678"><ele>822.0</ele><time>2026-04-12T09:06:11.997Z</time></trkpt><trkpt lat="41.817046231762106" lon="14.200818679448536"><ele>822.0</ele><time>2026-04-12T09:06:12.997Z</time></trkpt><trkpt lat="41.81695134394415" lon="14.200881148818818"><ele>822.0</ele><time>2026-04-12T09:06:13.997Z</time></trkpt><trkpt lat="41.816894452802174" lon="14.200941562354958"><ele>823.6</ele><time>2026-04-12T09:06:14.997Z</time></trkpt><trkpt lat="41.816843238298674" lon="14.201000950414508"><ele>825.2</ele><time>2026-04-12T09:06:15.998Z</time></trkpt><trkpt lat="41.81678665434821" lon="14.201049503685686"><ele>826.8</ele><time>2026-04-12T09:06:16.998Z</time></trkpt><trkpt lat="41.816694854885846" lon="14.20115294013385"><ele>828.4</ele><time>2026-04-12T09:06:18.998Z</time></trkpt><trkpt lat="41.81666276983218" lon="14.201289519074917"><ele>830.0</ele><time>2026-04-12T09:06:20.998Z</time></trkpt><trkpt lat="41.816648064609836" lon="14.201425495664314"><ele>833.8</ele><time>2026-04-12T09:06:22.998Z</time></trkpt><trkpt lat="41.81663938403536" lon="14.201572656236605"><ele>837.6</ele><time>2026-04-12T09:06:24.998Z</time></trkpt><trkpt lat="41.8165917316874" lon="14.20163092943096"><ele>841.4000000000001</ele><time>2026-04-12T09:06:26.998Z</time></trkpt><trkpt lat="41.816500638695366" lon="14.201598350886876"><ele>845.2</ele><time>2026-04-12T09:06:29.997Z</time></trkpt><trkpt lat="41.816412262715616" lon="14.201593897034606"><ele>849.0</ele><time>2026-04-12T09:06:32.997Z</time></trkpt><trkpt lat="41.81630079243608" lon="14.20155084290477"><ele>849.0</ele><time>2026-04-12T09:06:35.997Z</time></trkpt><trkpt lat="41.81621587653974" lon="14.201576815771325"><ele>849.0</ele><time>2026-04-12T09:06:37.997Z</time></trkpt><trkpt lat="41.81613844804391" lon="14.201603376443105"><ele>849.0</ele><time>2026-04-12T09:06:38.997Z</time></trkpt><trkpt lat="41.81607954809387" lon="14.201644011364449"><ele>849.0</ele><time>2026-04-12T09:06:39.997Z</time></trkpt><trkpt lat="41.81602028806333" lon="14.20168715998455"><ele>849.0</ele><time>2026-04-12T09:06:40.997Z</time></trkpt><trkpt lat="41.815924561805424" lon="14.201726009595674"><ele>849.0</ele><time>2026-04-12T09:06:42.997Z</time></trkpt><trkpt lat="41.81584630128219" lon="14.20170128515064"><ele>849.5</ele><time>2026-04-12T09:06:57.997Z</time></trkpt><trkpt lat="41.815707732515186" lon="14.201746550636516"><ele>850.0</ele><time>2026-04-12T09:06:59.997Z</time></trkpt><trkpt lat="41.81564201411447" lon="14.201766123847253"><ele>850.5</ele><time>2026-04-12T09:07:00.997Z</time></trkpt><trkpt lat="41.81557801898327" lon="14.201794918499244"><ele>851.0</ele><time>2026-04-12T09:07:01.997Z</time></trkpt><trkpt lat="41.81550884671021" lon="14.201835313791573"><ele>851.5</ele><time>2026-04-12T09:07:02.997Z</time></trkpt><trkpt lat="41.81544572302823" lon="14.201854045914326"><ele>852.0</ele><time>2026-04-12T09:07:03.997Z</time></trkpt><trkpt lat="41.8153604033526" lon="14.201983109675297"><ele>852.0</ele><time>2026-04-12T09:07:05.997Z</time></trkpt><trkpt lat="41.81534090017407" lon="14.202106514813211"><ele>852.0</ele><time>2026-04-12T09:07:06.997Z</time></trkpt><trkpt lat="41.815321714752585" lon="14.20223378815785"><ele>852.0</ele><time>2026-04-12T09:07:07.997Z</time></trkpt><trkpt lat="41.81529720276834" lon="14.202367912585151"><ele>852.0</ele><time>2026-04-12T09:07:08.997Z</time></trkpt><trkpt lat="41.81526419060778" lon="14.202488076437263"><ele>852.0</ele><time>2026-04-12T09:07:09.997Z</time></trkpt><trkpt lat="41.81523505535809" lon="14.202577542123583"><ele>854.6666666666666</ele><time>2026-04-12T09:07:10.997Z</time></trkpt><trkpt lat="41.815125417496716" lon="14.202649772343444"><ele>857.3333333333333</ele><time>2026-04-12T09:07:12.997Z</time></trkpt><trkpt lat="41.81506643937906" lon="14.202703249156292"><ele>860.0</ele><time>2026-04-12T09:07:13.997Z</time></trkpt><trkpt lat="41.8150332795265" lon="14.20278728681041"><ele>862.6666666666666</ele><time>2026-04-12T09:07:14.997Z</time></trkpt><trkpt lat="41.81498585690769" lon="14.202861881451767"><ele>865.3333333333333</ele><time>2026-04-12T09:07:15.997Z</time></trkpt><trkpt lat="41.81492267363716" lon="14.20289962173083"><ele>868.0</ele><time>2026-04-12T09:07:32.997Z</time></trkpt><trkpt lat="41.81485489442769" lon="14.20295937479902"><ele>868.0</ele><time>2026-04-12T09:07:35.997Z</time></trkpt><trkpt lat="41.81475671363085" lon="14.203046210241759"><ele>868.0</ele><time>2026-04-12T09:07:37.997Z</time></trkpt><trkpt lat="41.81468802806157" lon="14.203043522157538"><ele>868.0</ele><time>2026-04-12T09:07:38.997Z</time></trkpt><trkpt lat="41.81460633635507" lon="14.203039053685615"><ele>868.0</ele><time>2026-04-12T09:07:39.997Z</time></trkpt><trkpt lat="41.81451236843647" lon="14.203039364337437"><ele>868.0</ele><time>2026-04-12T09:07:40.997Z</time></trkpt><trkpt lat="41.81442276523325" lon="14.203026175816163"><ele>868.0</ele><time>2026-04-12T09:07:41.997Z</time></trkpt><trkpt lat="41.814342097479106" lon="14.202996575197014"><ele>868.0</ele><time>2026-04-12T09:07:42.997Z</time></trkpt><trkpt lat="41.81426122375869" lon="14.202939468842338"><ele>868.0</ele><time>2026-04-12T09:07:43.997Z</time></trkpt><trkpt lat="41.81419726302777" lon="14.202892295267848"><ele>868.0</ele><time>2026-04-12T09:07:44.997Z</time></trkpt><trkpt lat="41.814092891519955" lon="14.202811110504602"><ele>868.0</ele><time>2026-04-12T09:07:46.997Z</time></trkpt><trkpt lat="41.81403046727694" lon="14.202681867180637"><ele>867.3333333333333</ele><time>2026-04-12T09:07:48.997Z</time></trkpt><trkpt lat="41.81397394115247" lon="14.20259418081627"><ele>866.6666666666666</ele><time>2026-04-12T09:07:52.997Z</time></trkpt><trkpt lat="41.81391873853955" lon="14.202482436426369"><ele>866.0</ele><time>2026-04-12T09:07:55.997Z</time></trkpt><trkpt lat="41.81390343436487" lon="14.202399680575967"><ele>865.3333333333333</ele><time>2026-04-12T09:07:56.997Z</time></trkpt><trkpt lat="41.813888470780704" lon="14.202304837502565"><ele>864.6666666666666</ele><time>2026-04-12T09:07:57.997Z</time></trkpt><trkpt lat="41.81386179727965" lon="14.202209977188573"><ele>864.0</ele><time>2026-04-12T09:07:58.997Z</time></trkpt><trkpt lat="41.81383126751062" lon="14.2021105101269"><ele>864.0</ele><time>2026-04-12T09:07:59.997Z</time></trkpt><trkpt lat="41.81380216086572" lon="14.20201763896234"><ele>864.0</ele><time>2026-04-12T09:08:00.997Z</time></trkpt><trkpt lat="41.81377127754713" lon="14.20193956137744"><ele>864.0</ele><time>2026-04-12T09:08:01.997Z</time></trkpt><trkpt lat="41.81370825451002" lon="14.20184102507002"><ele>864.0</ele><time>2026-04-12T09:08:03.997Z</time></trkpt><trkpt lat="41.8136327126618" lon="14.20181325435759"><ele>864.0</ele><time>2026-04-12T09:08:04.996Z</time></trkpt><trkpt lat="41.81352380482958" lon="14.201818414532037"><ele>864.0</ele><time>2026-04-12T09:08:05.996Z</time></trkpt><trkpt lat="41.81340964159571" lon="14.201794252391565"><ele>862.4000000000001</ele><time>2026-04-12T09:08:06.996Z</time></trkpt><trkpt lat="41.813308658639755" lon="14.201750459875194"><ele>860.8000000000001</ele><time>2026-04-12T09:08:07.996Z</time></trkpt><trkpt lat="41.813249224399016" lon="14.201667560801091"><ele>859.1999999999999</ele><time>2026-04-12T09:08:08.997Z</time></trkpt><trkpt lat="41.81324323003484" lon="14.20155856256022"><ele>857.5999999999999</ele><time>2026-04-12T09:08:10.997Z</time></trkpt><trkpt lat="41.813264512482235" lon="14.201375062761265"><ele>856.0</ele><time>2026-04-12T09:08:12.997Z</time></trkpt><trkpt lat="41.81324130882406" lon="14.20128997481444"><ele>855.8</ele><time>2026-04-12T09:08:13.997Z</time></trkpt><trkpt lat="41.813211010592795" lon="14.201153554000424"><ele>855.5999999999999</ele><time>2026-04-12T09:08:15.997Z</time></trkpt><trkpt lat="41.81328339703157" lon="14.201099192464973"><ele>855.4</ele><time>2026-04-12T09:08:19.997Z</time></trkpt><trkpt lat="41.81333838082366" lon="14.20101479740944"><ele>855.2</ele><time>2026-04-12T09:08:21.997Z</time></trkpt><trkpt lat="41.81335208153105" lon="14.200866707631281"><ele>855.0</ele><time>2026-04-12T09:08:23.997Z</time></trkpt><trkpt lat="41.81333592043805" lon="14.200729885876589"><ele>854.2</ele><time>2026-04-12T09:08:25.997Z</time></trkpt><trkpt lat="41.81333424744509" lon="14.200590973377675"><ele>853.4</ele><time>2026-04-12T09:08:27.997Z</time></trkpt><trkpt lat="41.81324538018566" lon="14.20045631783091"><ele>852.5999999999999</ele><time>2026-04-12T09:08:29.997Z</time></trkpt><trkpt lat="41.81318135023189" lon="14.200397926726918"><ele>851.8</ele><time>2026-04-12T09:08:30.997Z</time></trkpt><trkpt lat="41.813127274285016" lon="14.200329601850106"><ele>851.0</ele><time>2026-04-12T09:08:31.997Z</time></trkpt><trkpt lat="41.813079775474634" lon="14.20021910225904"><ele>851.0</ele><time>2026-04-12T09:08:32.997Z</time></trkpt><trkpt lat="41.81303523940392" lon="14.200078772103838"><ele>851.0</ele><time>2026-04-12T09:08:33.997Z</time></trkpt><trkpt lat="41.81301157360122" lon="14.19992216230453"><ele>851.0</ele><time>2026-04-12T09:08:34.997Z</time></trkpt><trkpt lat="41.81301035650556" lon="14.199792464103078"><ele>851.0</ele><time>2026-04-12T09:08:35.997Z</time></trkpt><trkpt lat="41.81289007743351" lon="14.199649732025929"><ele>849.4</ele><time>2026-04-12T09:08:37.997Z</time></trkpt><trkpt lat="41.812813383739645" lon="14.199570790565454"><ele>847.8</ele><time>2026-04-12T09:08:38.997Z</time></trkpt><trkpt lat="41.812779587265474" lon="14.199444404670782"><ele>846.1999999999999</ele><time>2026-04-12T09:08:40.997Z</time></trkpt><trkpt lat="41.81284055371363" lon="14.199298241860097"><ele>844.5999999999999</ele><time>2026-04-12T09:08:42.997Z</time></trkpt><trkpt lat="41.81284282038343" lon="14.1991914142498"><ele>843.0</ele><time>2026-04-12T09:08:43.997Z</time></trkpt><trkpt lat="41.812828456855335" lon="14.19907622171559"><ele>840.0</ele><time>2026-04-12T09:08:44.997Z</time></trkpt><trkpt lat="41.8128081292945" lon="14.198968906162019"><ele>837.0</ele><time>2026-04-12T09:08:45.997Z</time></trkpt><trkpt lat="41.8127850958993" lon="14.198842228473648"><ele>834.0</ele><time>2026-04-12T09:08:46.997Z</time></trkpt><trkpt lat="41.812745692641535" lon="14.198731917285103"><ele>831.0</ele><time>2026-04-12T09:08:47.997Z</time></trkpt><trkpt lat="41.81269907963677" lon="14.19860243600935"><ele>828.0</ele><time>2026-04-12T09:08:48.997Z</time></trkpt><trkpt lat="41.81266951034396" lon="14.19848456440809"><ele>827.4</ele><time>2026-04-12T09:08:49.997Z</time></trkpt><trkpt lat="41.8126537954233" lon="14.198343097358103"><ele>826.8</ele><time>2026-04-12T09:08:50.997Z</time></trkpt><trkpt lat="41.812625458885904" lon="14.198204874216813"><ele>826.2</ele><time>2026-04-12T09:08:51.997Z</time></trkpt><trkpt lat="41.812620048545945" lon="14.198084567537608"><ele>825.6</ele><time>2026-04-12T09:08:52.997Z</time></trkpt><trkpt lat="41.812532748492764" lon="14.197980980133783"><ele>825.0</ele><time>2026-04-12T09:08:54.997Z</time></trkpt><trkpt lat="41.81243496106486" lon="14.198024477954743"><ele>823.8</ele><time>2026-04-12T09:08:55.997Z</time></trkpt><trkpt lat="41.81235292161849" lon="14.198089274054926"><ele>822.6</ele><time>2026-04-12T09:08:56.997Z</time></trkpt><trkpt lat="41.81221760643723" lon="14.198030585362147"><ele>821.4000000000001</ele><time>2026-04-12T09:08:58.997Z</time></trkpt><trkpt lat="41.81215427055759" lon="14.197945062822074"><ele>820.2</ele><time>2026-04-12T09:08:59.997Z</time></trkpt><trkpt lat="41.812096549255635" lon="14.197850898263571"><ele>819.0</ele><time>2026-04-12T09:09:00.997Z</time></trkpt><trkpt lat="41.812046832607365" lon="14.197786883186394"><ele>819.0</ele><time>2026-04-12T09:09:01.997Z</time></trkpt><trkpt lat="41.81199114415055" lon="14.19772040733541"><ele>819.0</ele><time>2026-04-12T09:09:02.997Z</time></trkpt><trkpt lat="41.81193805848777" lon="14.197650983502337"><ele>819.0</ele><time>2026-04-12T09:09:03.997Z</time></trkpt><trkpt lat="41.81187765260638" lon="14.1975676279535"><ele>819.0</ele><time>2026-04-12T09:09:04.997Z</time></trkpt><trkpt lat="41.81181360197873" lon="14.197489298115695"><ele>819.0</ele><time>2026-04-12T09:09:05.997Z</time></trkpt><trkpt lat="41.81177278096161" lon="14.19739882234324"><ele>819.0</ele><time>2026-04-12T09:09:06.997Z</time></trkpt><trkpt lat="41.81175462365441" lon="14.197297965445728"><ele>814.0</ele><time>2026-04-12T09:09:07.997Z</time></trkpt><trkpt lat="41.81175617416807" lon="14.197201536969848"><ele>809.0</ele><time>2026-04-12T09:09:08.997Z</time></trkpt><trkpt lat="41.81170195047199" lon="14.197097513314153"><ele>804.0</ele><time>2026-04-12T09:09:10.997Z</time></trkpt><trkpt lat="41.81168655446252" lon="14.19699742265527"><ele>799.0</ele><time>2026-04-12T09:09:12.997Z</time></trkpt><trkpt lat="41.81181137349814" lon="14.196755913239796"><ele>799.6</ele><time>2026-04-12T09:09:21.997Z</time></trkpt><trkpt lat="41.81182664620426" lon="14.196576448848234"><ele>800.2</ele><time>2026-04-12T09:09:23.997Z</time></trkpt><trkpt lat="41.81180239585133" lon="14.196461190814082"><ele>800.8000000000001</ele><time>2026-04-12T09:09:24.997Z</time></trkpt><trkpt lat="41.811763915331355" lon="14.196358899389226"><ele>801.4000000000001</ele><time>2026-04-12T09:09:25.997Z</time></trkpt><trkpt lat="41.811744354307" lon="14.196251442029467"><ele>802.0</ele><time>2026-04-12T09:09:27.997Z</time></trkpt><trkpt lat="41.81175905529653" lon="14.196107133074358"><ele>799.25</ele><time>2026-04-12T09:09:29.997Z</time></trkpt><trkpt lat="41.81188542776033" lon="14.195940911636429"><ele>796.5</ele><time>2026-04-12T09:09:31.997Z</time></trkpt><trkpt lat="41.811984279261296" lon="14.195850799187108"><ele>793.75</ele><time>2026-04-12T09:09:32.997Z</time></trkpt><trkpt lat="41.81207495406831" lon="14.19579566761671"><ele>791.0</ele><time>2026-04-12T09:09:33.997Z</time></trkpt><trkpt lat="41.81215079246724" lon="14.195748481515281"><ele>793.0</ele><time>2026-04-12T09:09:35.997Z</time></trkpt><trkpt lat="41.81217657789703" lon="14.19566635659905"><ele>795.0</ele><time>2026-04-12T09:09:41.997Z</time></trkpt><trkpt lat="41.81218169638172" lon="14.195580075143262"><ele>797.0</ele><time>2026-04-12T09:09:44.996Z</time></trkpt><trkpt lat="41.81215529700444" lon="14.195496753689307"><ele>799.0</ele><time>2026-04-12T09:09:46.996Z</time></trkpt><trkpt lat="41.81208130170958" lon="14.195424618663836"><ele>801.0</ele><time>2026-04-12T09:09:48.996Z</time></trkpt><trkpt lat="41.811910196457305" lon="14.195330331788867"><ele>801.1999999999999</ele><time>2026-04-12T09:10:13.996Z</time></trkpt><trkpt lat="41.81182081231217" lon="14.195285597221556"><ele>801.4</ele><time>2026-04-12T09:10:14.997Z</time></trkpt><trkpt lat="41.81171396407804" lon="14.195269518796188"><ele>801.6</ele><time>2026-04-12T09:10:15.997Z</time></trkpt><trkpt lat="41.81160396588603" lon="14.195239179851379"><ele>801.8</ele><time>2026-04-12T09:10:16.997Z</time></trkpt><trkpt lat="41.81148419210258" lon="14.195210534419516"><ele>802.0</ele><time>2026-04-12T09:10:17.997Z</time></trkpt><trkpt lat="41.81137571457208" lon="14.195208408832606"><ele>802.0</ele><time>2026-04-12T09:10:18.997Z</time></trkpt><trkpt lat="41.811271796600636" lon="14.195200110075469"><ele>802.0</ele><time>2026-04-12T09:10:19.997Z</time></trkpt><trkpt lat="41.81118646785394" lon="14.195191693822329"><ele>802.0</ele><time>2026-04-12T09:10:20.997Z</time></trkpt><trkpt lat="41.81109347498329" lon="14.195205089156874"><ele>802.0</ele><time>2026-04-12T09:10:21.997Z</time></trkpt><trkpt lat="41.811010366347865" lon="14.195212702702232"><ele>802.0</ele><time>2026-04-12T09:10:22.997Z</time></trkpt><trkpt lat="41.810926027376645" lon="14.195218144670008"><ele>801.4000000000001</ele><time>2026-04-12T09:10:23.997Z</time></trkpt><trkpt lat="41.810821574373726" lon="14.195208534329545"><ele>800.8000000000001</ele><time>2026-04-12T09:10:24.997Z</time></trkpt><trkpt lat="41.81074319995967" lon="14.195193570390025"><ele>800.2</ele><time>2026-04-12T09:10:25.997Z</time></trkpt><trkpt lat="41.81067535877946" lon="14.19520074036452"><ele>799.6</ele><time>2026-04-12T09:10:26.997Z</time></trkpt><trkpt lat="41.81056718870415" lon="14.195125119384302"><ele>799.0</ele><time>2026-04-12T09:10:28.997Z</time></trkpt><trkpt lat="41.81048499644252" lon="14.195016251634058"><ele>799.0</ele><time>2026-04-12T09:10:29.997Z</time></trkpt><trkpt lat="41.81038621014103" lon="14.194905060781794"><ele>799.0</ele><time>2026-04-12T09:10:30.997Z</time></trkpt><trkpt lat="41.81029925352428" lon="14.194776336477391"><ele>799.0</ele><time>2026-04-12T09:10:31.997Z</time></trkpt><trkpt lat="41.81022899073549" lon="14.194664509342676"><ele>799.0</ele><time>2026-04-12T09:10:32.997Z</time></trkpt><trkpt lat="41.81016514997989" lon="14.19457263623326"><ele>800.9999999999999</ele><time>2026-04-12T09:10:33.997Z</time></trkpt><trkpt lat="41.81012737764989" lon="14.194484331787443"><ele>803.0</ele><time>2026-04-12T09:10:34.997Z</time></trkpt><trkpt lat="41.81007816430886" lon="14.194337600953865"><ele>805.0</ele><time>2026-04-12T09:10:36.997Z</time></trkpt><trkpt lat="41.81001115646451" lon="14.194299759303194"><ele>807.0</ele><time>2026-04-12T09:10:37.997Z</time></trkpt><trkpt lat="41.80992509434382" lon="14.194311983384164"><ele>808.9999999999999</ele><time>2026-04-12T09:10:38.997Z</time></trkpt><trkpt lat="41.809843386808836" lon="14.194313051834776"><ele>811.0</ele><time>2026-04-12T09:10:39.997Z</time></trkpt><trkpt lat="41.809750406610426" lon="14.194329339738292"><ele>810.9999999999999</ele><time>2026-04-12T09:10:40.997Z</time></trkpt><trkpt lat="41.80967298513589" lon="14.194366629425723"><ele>811.0</ele><time>2026-04-12T09:10:41.997Z</time></trkpt><trkpt lat="41.809620154799006" lon="14.194414184074427"><ele>811.0</ele><time>2026-04-12T09:10:42.997Z</time></trkpt><trkpt lat="41.809517981544396" lon="14.19447115641997"><ele>811.0</ele><time>2026-04-12T09:10:45.997Z</time></trkpt><trkpt lat="41.80945992615542" lon="14.194570163124009"><ele>810.9999999999999</ele><time>2026-04-12T09:10:47.997Z</time></trkpt><trkpt lat="41.80941331629098" lon="14.194639839218514"><ele>811.0</ele><time>2026-04-12T09:10:48.997Z</time></trkpt><trkpt lat="41.809354826517676" lon="14.194707429843994"><ele>810.4999999999999</ele><time>2026-04-12T09:10:49.996Z</time></trkpt><trkpt lat="41.80926174508046" lon="14.194769093926036"><ele>810.0</ele><time>2026-04-12T09:10:51.996Z</time></trkpt><trkpt lat="41.80918847507994" lon="14.19471374119626"><ele>809.5</ele><time>2026-04-12T09:10:53.996Z</time></trkpt><trkpt lat="41.80913599419335" lon="14.194636434385478"><ele>809.0</ele><time>2026-04-12T09:10:54.996Z</time></trkpt><trkpt lat="41.809075396662536" lon="14.19456964200546"><ele>808.4999999999999</ele><time>2026-04-12T09:10:55.996Z</time></trkpt><trkpt lat="41.80900588365266" lon="14.194523341986214"><ele>808.0</ele><time>2026-04-12T09:10:56.996Z</time></trkpt><trkpt lat="41.808917569441796" lon="14.194522079234154"><ele>808.0</ele><time>2026-04-12T09:10:57.996Z</time></trkpt><trkpt lat="41.808810402206745" lon="14.194533229658967"><ele>808.0</ele><time>2026-04-12T09:10:58.996Z</time></trkpt><trkpt lat="41.80872433822495" lon="14.194520436587275"><ele>808.0</ele><time>2026-04-12T09:10:59.996Z</time></trkpt><trkpt lat="41.80863919953382" lon="14.194480007603705"><ele>808.0</ele><time>2026-04-12T09:11:00.996Z</time></trkpt><trkpt lat="41.80855342927963" lon="14.194479205559349"><ele>808.0</ele><time>2026-04-12T09:11:01.996Z</time></trkpt><trkpt lat="41.80843729143665" lon="14.19449693849814"><ele>807.8</ele><time>2026-04-12T09:11:02.996Z</time></trkpt><trkpt lat="41.80832780905695" lon="14.194512552013427"><ele>807.5999999999999</ele><time>2026-04-12T09:11:03.996Z</time></trkpt><trkpt lat="41.808225340702" lon="14.19452050397489"><ele>807.4000000000001</ele><time>2026-04-12T09:11:04.996Z</time></trkpt><trkpt lat="41.80813153698052" lon="14.194529835455254"><ele>807.2</ele><time>2026-04-12T09:11:05.996Z</time></trkpt><trkpt lat="41.80803118049326" lon="14.194542816559615"><ele>807.0</ele><time>2026-04-12T09:11:06.996Z</time></trkpt><trkpt lat="41.80792655785241" lon="14.194539741265471"><ele>807.0</ele><time>2026-04-12T09:11:07.996Z</time></trkpt><trkpt lat="41.80781992100389" lon="14.194524852962713"><ele>807.0</ele><time>2026-04-12T09:11:08.996Z</time></trkpt><trkpt lat="41.807724853576744" lon="14.194516383563785"><ele>807.0</ele><time>2026-04-12T09:11:09.996Z</time></trkpt><trkpt lat="41.80762993276954" lon="14.194538018341524"><ele>807.0</ele><time>2026-04-12T09:11:10.996Z</time></trkpt><trkpt lat="41.80754224357743" lon="14.194534016101692"><ele>807.0</ele><time>2026-04-12T09:11:11.996Z</time></trkpt><trkpt lat="41.807464011952206" lon="14.194484751860887"><ele>807.2</ele><time>2026-04-12T09:11:12.996Z</time></trkpt><trkpt lat="41.80741778037792" lon="14.194402042968825"><ele>807.4000000000001</ele><time>2026-04-12T09:11:13.996Z</time></trkpt><trkpt lat="41.80737846725322" lon="14.194291594303282"><ele>807.5999999999999</ele><time>2026-04-12T09:11:14.996Z</time></trkpt><trkpt lat="41.807325080957874" lon="14.194202361619311"><ele>807.8</ele><time>2026-04-12T09:11:15.996Z</time></trkpt><trkpt lat="41.80723077300397" lon="14.194155747414749"><ele>808.0</ele><time>2026-04-12T09:11:16.996Z</time></trkpt><trkpt lat="41.80713338318654" lon="14.194136630838054"><ele>808.0</ele><time>2026-04-12T09:11:17.996Z</time></trkpt><trkpt lat="41.807047957965025" lon="14.194089924919602"><ele>808.0</ele><time>2026-04-12T09:11:18.996Z</time></trkpt><trkpt lat="41.80695959915725" lon="14.194018813427226"><ele>808.0</ele><time>2026-04-12T09:11:19.996Z</time></trkpt><trkpt lat="41.80687935546999" lon="14.19395965992125"><ele>808.0</ele><time>2026-04-12T09:11:20.996Z</time></trkpt><trkpt lat="41.80678492882916" lon="14.193933019622673"><ele>808.0</ele><time>2026-04-12T09:11:21.996Z</time></trkpt><trkpt lat="41.8066907690034" lon="14.193914680467731"><ele>810.4999999999999</ele><time>2026-04-12T09:11:22.996Z</time></trkpt><trkpt lat="41.806623639940454" lon="14.193911983078523"><ele>813.0</ele><time>2026-04-12T09:11:23.996Z</time></trkpt><trkpt lat="41.80653188036349" lon="14.193890944932036"><ele>815.5</ele><time>2026-04-12T09:11:25.996Z</time></trkpt><trkpt lat="41.80648976601386" lon="14.19380020648852"><ele>818.0</ele><time>2026-04-12T09:11:28.996Z</time></trkpt><trkpt lat="41.806420359397784" lon="14.193778676892078"><ele>820.4999999999999</ele><time>2026-04-12T09:11:35.996Z</time></trkpt><trkpt lat="41.80633777751065" lon="14.193808731108039"><ele>823.0</ele><time>2026-04-12T09:11:38.996Z</time></trkpt><trkpt lat="41.80624291855757" lon="14.193884646435684"><ele>822.9999999999999</ele><time>2026-04-12T09:11:40.996Z</time></trkpt><trkpt lat="41.806182730275665" lon="14.193925249164652"><ele>823.0</ele><time>2026-04-12T09:11:41.996Z</time></trkpt><trkpt lat="41.8060975826322" lon="14.193979880705498"><ele>823.0</ele><time>2026-04-12T09:11:42.996Z</time></trkpt><trkpt lat="41.80601533554551" lon="14.194031045717425"><ele>823.0</ele><time>2026-04-12T09:11:43.996Z</time></trkpt><trkpt lat="41.805932130717515" lon="14.194080009971865"><ele>822.9999999999999</ele><time>2026-04-12T09:11:44.996Z</time></trkpt><trkpt lat="41.80584299407153" lon="14.194135144459787"><ele>823.0</ele><time>2026-04-12T09:11:45.996Z</time></trkpt><trkpt lat="41.80573239851657" lon="14.194201096361464"><ele>820.75</ele><time>2026-04-12T09:11:46.996Z</time></trkpt><trkpt lat="41.80561348675392" lon="14.194264615546032"><ele>818.5</ele><time>2026-04-12T09:11:47.996Z</time></trkpt><trkpt lat="41.80550105575711" lon="14.194346820612736"><ele>816.25</ele><time>2026-04-12T09:11:48.996Z</time></trkpt><trkpt lat="41.805395588101526" lon="14.194424046744551"><ele>814.0</ele><time>2026-04-12T09:11:49.996Z</time></trkpt><trkpt lat="41.8052976614507" lon="14.194490254289411"><ele>814.0</ele><time>2026-04-12T09:11:50.996Z</time></trkpt><trkpt lat="41.805208411774196" lon="14.194558810178727"><ele>814.0</ele><time>2026-04-12T09:11:51.996Z</time></trkpt><trkpt lat="41.80510559359711" lon="14.194572232823539"><ele>814.0</ele><time>2026-04-12T09:11:52.996Z</time></trkpt><trkpt lat="41.805004487940074" lon="14.194552577025027"><ele>814.0</ele><time>2026-04-12T09:11:53.996Z</time></trkpt><trkpt lat="41.80491615652212" lon="14.194482708861328"><ele>814.0</ele><time>2026-04-12T09:11:54.996Z</time></trkpt><trkpt lat="41.804808655723896" lon="14.19434231228995"><ele>814.75</ele><time>2026-04-12T09:11:55.996Z</time></trkpt><trkpt lat="41.804678044051315" lon="14.194250667228438"><ele>815.5</ele><time>2026-04-12T09:11:56.996Z</time></trkpt><trkpt lat="41.80454569307301" lon="14.194254927619495"><ele>816.25</ele><time>2026-04-12T09:11:57.996Z</time></trkpt><trkpt lat="41.804408011802835" lon="14.194283224542286"><ele>817.0</ele><time>2026-04-12T09:11:58.996Z</time></trkpt><trkpt lat="41.80426684755219" lon="14.19433673572681"><ele>819.0</ele><time>2026-04-12T09:11:59.996Z</time></trkpt><trkpt lat="41.80412449126698" lon="14.194419415275448"><ele>821.0</ele><time>2026-04-12T09:12:00.996Z</time></trkpt><trkpt lat="41.80395251445691" lon="14.194489409285506"><ele>823.0</ele><time>2026-04-12T09:12:01.996Z</time></trkpt><trkpt lat="41.803769474017656" lon="14.194544422032312"><ele>823.0</ele><time>2026-04-12T09:12:02.996Z</time></trkpt><trkpt lat="41.80360489319167" lon="14.194582250153138"><ele>823.0</ele><time>2026-04-12T09:12:03.996Z</time></trkpt><trkpt lat="41.8034632824728" lon="14.194611834511688"><ele>823.0</ele><time>2026-04-12T09:12:04.996Z</time></trkpt><trkpt lat="41.80335356191369" lon="14.194650719780675"><ele>823.0</ele><time>2026-04-12T09:12:05.996Z</time></trkpt><trkpt lat="41.8032488712679" lon="14.194732985114815"><ele>825.2</ele><time>2026-04-12T09:12:06.996Z</time></trkpt><trkpt lat="41.803176362341965" lon="14.19485182560237"><ele>827.4</ele><time>2026-04-12T09:12:07.996Z</time></trkpt><trkpt lat="41.80311719709044" lon="14.194954084611684"><ele>829.6</ele><time>2026-04-12T09:12:08.996Z</time></trkpt><trkpt lat="41.80306790374128" lon="14.195026927957816"><ele>831.8000000000001</ele><time>2026-04-12T09:12:09.996Z</time></trkpt><trkpt lat="41.8029769204768" lon="14.195116773203743"><ele>834.0</ele><time>2026-04-12T09:12:11.996Z</time></trkpt><trkpt lat="41.80291740729106" lon="14.195149194421179"><ele>834.0</ele><time>2026-04-12T09:12:12.996Z</time></trkpt><trkpt lat="41.802829458276626" lon="14.195171293708727"><ele>834.0</ele><time>2026-04-12T09:12:14.996Z</time></trkpt><trkpt lat="41.80279819389199" lon="14.195047427996029"><ele>834.0</ele><time>2026-04-12T09:12:16.996Z</time></trkpt><trkpt lat="41.80274999691403" lon="14.19494017947575"><ele>834.0</ele><time>2026-04-12T09:12:17.996Z</time></trkpt><trkpt lat="41.802714488136424" lon="14.194842075491215"><ele>834.0</ele><time>2026-04-12T09:12:18.996Z</time></trkpt><trkpt lat="41.80268662201764" lon="14.194739466800664"><ele>834.0</ele><time>2026-04-12T09:12:19.996Z</time></trkpt><trkpt lat="41.80267760370911" lon="14.19461749887644"><ele>832.5714285714286</ele><time>2026-04-12T09:12:20.997Z</time></trkpt><trkpt lat="41.80267774429612" lon="14.194514454378485"><ele>831.1428571428571</ele><time>2026-04-12T09:12:21.997Z</time></trkpt><trkpt lat="41.80269688973223" lon="14.194427613593044"><ele>829.7142857142857</ele><time>2026-04-12T09:12:22.997Z</time></trkpt><trkpt lat="41.80271103481714" lon="14.194326523536732"><ele>828.2857142857142</ele><time>2026-04-12T09:12:23.997Z</time></trkpt><trkpt lat="41.80267548622063" lon="14.194247900580757"><ele>826.8571428571429</ele><time>2026-04-12T09:12:26.997Z</time></trkpt><trkpt lat="41.802606678422634" lon="14.194289555504872"><ele>825.4285714285713</ele><time>2026-04-12T09:12:30.997Z</time></trkpt><trkpt lat="41.80255487138176" lon="14.194241126665306"><ele>824.0</ele><time>2026-04-12T09:12:33.997Z</time></trkpt><trkpt lat="41.8025587232131" lon="14.19415650503552"><ele>824.0</ele><time>2026-04-12T09:12:35.997Z</time></trkpt><trkpt lat="41.80253791234484" lon="14.194039663323583"><ele>824.0</ele><time>2026-04-12T09:12:38.997Z</time></trkpt><trkpt lat="41.80245961291647" lon="14.194016959855478"><ele>824.0</ele><time>2026-04-12T09:13:49.996Z</time></trkpt><trkpt lat="41.80241517332194" lon="14.1938904714769"><ele>824.0</ele><time>2026-04-12T09:13:51.996Z</time></trkpt><trkpt lat="41.802414041278716" lon="14.193721818633538"><ele>824.0</ele><time>2026-04-12T09:13:53.996Z</time></trkpt><trkpt lat="41.80239185525202" lon="14.193635219883781"><ele>824.4285714285713</ele><time>2026-04-12T09:13:54.996Z</time></trkpt><trkpt lat="41.80236071961455" lon="14.193551432197657"><ele>824.8571428571429</ele><time>2026-04-12T09:13:55.996Z</time></trkpt><trkpt lat="41.80227817591421" lon="14.193533643228962"><ele>825.2857142857142</ele><time>2026-04-12T09:13:56.996Z</time></trkpt><trkpt lat="41.80220964008977" lon="14.193557542002383"><ele>825.7142857142857</ele><time>2026-04-12T09:13:57.996Z</time></trkpt><trkpt lat="41.802145615014844" lon="14.193606668804884"><ele>826.1428571428571</ele><time>2026-04-12T09:13:58.996Z</time></trkpt><trkpt lat="41.80207776917776" lon="14.193622585341894"><ele>826.5714285714286</ele><time>2026-04-12T09:13:59.996Z</time></trkpt><trkpt lat="41.80201372487064" lon="14.193670717077564"><ele>827.0</ele><time>2026-04-12T09:14:00.996Z</time></trkpt><trkpt lat="41.80197544291469" lon="14.193755643167806"><ele>827.0</ele><time>2026-04-12T09:14:01.996Z</time></trkpt><trkpt lat="41.80195336094265" lon="14.193921657547481"><ele>827.0</ele><time>2026-04-12T09:14:02.996Z</time></trkpt><trkpt lat="41.80195580652512" lon="14.19405323642305"><ele>827.0</ele><time>2026-04-12T09:14:03.996Z</time></trkpt><trkpt lat="41.80196159995324" lon="14.194139180812407"><ele>827.0</ele><time>2026-04-12T09:14:04.996Z</time></trkpt><trkpt lat="41.8019054138508" lon="14.194277834720813"><ele>827.0</ele><time>2026-04-12T09:14:06.996Z</time></trkpt><trkpt lat="41.80183684122949" lon="14.194298061283785"><ele>829.1666666666667</ele><time>2026-04-12T09:14:07.996Z</time></trkpt><trkpt lat="41.8017710947503" lon="14.194319867172014"><ele>831.3333333333334</ele><time>2026-04-12T09:14:08.996Z</time></trkpt><trkpt lat="41.80168493747458" lon="14.194388965604665"><ele>833.5</ele><time>2026-04-12T09:14:09.996Z</time></trkpt><trkpt lat="41.80162442185692" lon="14.194435199778582"><ele>835.6666666666667</ele><time>2026-04-12T09:14:10.996Z</time></trkpt><trkpt lat="41.80156574151871" lon="14.19439595373414"><ele>837.8333333333334</ele><time>2026-04-12T09:14:12.996Z</time></trkpt><trkpt lat="41.80152908177361" lon="14.194305984127812"><ele>840.0</ele><time>2026-04-12T09:14:13.996Z</time></trkpt><trkpt lat="41.80149217276531" lon="14.19419989097386"><ele>840.0</ele><time>2026-04-12T09:14:14.996Z</time></trkpt><trkpt lat="41.80145972356881" lon="14.194097095170136"><ele>840.0</ele><time>2026-04-12T09:14:15.996Z</time></trkpt><trkpt lat="41.80142477017447" lon="14.193962191459528"><ele>840.0</ele><time>2026-04-12T09:14:16.996Z</time></trkpt><trkpt lat="41.801387221180384" lon="14.193857515548782"><ele>840.0</ele><time>2026-04-12T09:14:17.996Z</time></trkpt><trkpt lat="41.80134074563026" lon="14.193781081301582"><ele>840.0</ele><time>2026-04-12T09:14:18.996Z</time></trkpt><trkpt lat="41.80133640221636" lon="14.1936956517643"><ele>840.0</ele><time>2026-04-12T09:14:19.996Z</time></trkpt><trkpt lat="41.801349101001044" lon="14.193596690091026"><ele>840.3333333333334</ele><time>2026-04-12T09:14:20.996Z</time></trkpt><trkpt lat="41.8014069775464" lon="14.193481709427573"><ele>840.6666666666667</ele><time>2026-04-12T09:14:22.996Z</time></trkpt><trkpt lat="41.80129377869661" lon="14.193469746141783"><ele>841.0</ele><time>2026-04-12T09:14:25.996Z</time></trkpt><trkpt lat="41.80121859811228" lon="14.193490336190418"><ele>841.3333333333334</ele><time>2026-04-12T09:14:26.997Z</time></trkpt><trkpt lat="41.80116043084653" lon="14.193527166742438"><ele>841.6666666666667</ele><time>2026-04-12T09:14:27.997Z</time></trkpt><trkpt lat="41.8010994760532" lon="14.19360244455815"><ele>842.0</ele><time>2026-04-12T09:14:28.997Z</time></trkpt><trkpt lat="41.80102983579435" lon="14.193674068370203"><ele>847.2</ele><time>2026-04-12T09:14:29.997Z</time></trkpt><trkpt lat="41.80093671814633" lon="14.1937487370766"><ele>852.4000000000001</ele><time>2026-04-12T09:14:30.997Z</time></trkpt><trkpt lat="41.80086089493501" lon="14.193842562137243"><ele>857.5999999999999</ele><time>2026-04-12T09:14:31.997Z</time></trkpt><trkpt lat="41.800797147071115" lon="14.193928162582456"><ele>862.8</ele><time>2026-04-12T09:14:32.997Z</time></trkpt><trkpt lat="41.800684567305446" lon="14.193942179978034"><ele>868.0</ele><time>2026-04-12T09:14:34.996Z</time></trkpt><trkpt lat="41.800571197273825" lon="14.19391511230437"><ele>868.0</ele><time>2026-04-12T09:14:35.996Z</time></trkpt><trkpt lat="41.80043904750177" lon="14.193866926604162"><ele>868.0</ele><time>2026-04-12T09:14:36.995Z</time></trkpt><trkpt lat="41.800329491220445" lon="14.193847049352245"><ele>868.0</ele><time>2026-04-12T09:14:37.994Z</time></trkpt><trkpt lat="41.80022656859327" lon="14.193839265472805"><ele>868.0</ele><time>2026-04-12T09:14:38.995Z</time></trkpt><trkpt lat="41.80015261654959" lon="14.19384177692048"><ele>868.0</ele><time>2026-04-12T09:14:39.993Z</time></trkpt><trkpt lat="41.80004810319106" lon="14.193934179207485"><ele>873.4</ele><time>2026-04-12T09:14:41.993Z</time></trkpt><trkpt lat="41.79998039924787" lon="14.194021571547369"><ele>878.8</ele><time>2026-04-12T09:14:42.992Z</time></trkpt><trkpt lat="41.79991277615619" lon="14.194075958942106"><ele>884.2</ele><time>2026-04-12T09:14:43.992Z</time></trkpt><trkpt lat="41.79979865052855" lon="14.194103744121408"><ele>889.6</ele><time>2026-04-12T09:14:45.992Z</time></trkpt><trkpt lat="41.799710606515006" lon="14.194156872262157"><ele>895.0</ele><time>2026-04-12T09:14:46.991Z</time></trkpt><trkpt lat="41.79961665015796" lon="14.194220736403667"><ele>894.9999999999999</ele><time>2026-04-12T09:14:47.991Z</time></trkpt><trkpt lat="41.79953686519956" lon="14.194291315476514"><ele>895.0</ele><time>2026-04-12T09:14:48.991Z</time></trkpt><trkpt lat="41.799477653716345" lon="14.19437448548854"><ele>895.0</ele><time>2026-04-12T09:14:49.991Z</time></trkpt><trkpt lat="41.79943646146014" lon="14.194471024270113"><ele>895.0</ele><time>2026-04-12T09:14:50.991Z</time></trkpt><trkpt lat="41.79935757660146" lon="14.194557254284863"><ele>894.9999999999999</ele><time>2026-04-12T09:14:52.99Z</time></trkpt><trkpt lat="41.79932013102554" lon="14.194639848227403"><ele>895.0</ele><time>2026-04-12T09:14:54.99Z</time></trkpt><trkpt lat="41.79924855651679" lon="14.194683780605622"><ele>898.0</ele><time>2026-04-12T09:14:58.99Z</time></trkpt><trkpt lat="41.799182930132304" lon="14.194700975982025"><ele>901.0</ele><time>2026-04-12T09:15:00.989Z</time></trkpt><trkpt lat="41.7991719515319" lon="14.194615273720725"><ele>904.0</ele><time>2026-04-12T09:15:15.988Z</time></trkpt><trkpt lat="41.79910974850966" lon="14.194562896889964"><ele>907.0</ele><time>2026-04-12T09:15:28.988Z</time></trkpt><trkpt lat="41.799049070481395" lon="14.19449630959337"><ele>910.0</ele><time>2026-04-12T09:15:41.988Z</time></trkpt><trkpt lat="41.799110472935446" lon="14.19454388107559"><ele>913.0</ele><time>2026-04-12T09:16:12.987Z</time></trkpt><trkpt lat="41.799187500990435" lon="14.194577424306793"><ele>916.0</ele><time>2026-04-12T09:16:19.987Z</time></trkpt><trkpt lat="41.79924576669731" lon="14.194521743029673"><ele>915.9999999999999</ele><time>2026-04-12T09:16:27.987Z</time></trkpt><trkpt lat="41.799307578507694" lon="14.194444412375413"><ele>916.0</ele><time>2026-04-12T09:16:30.987Z</time></trkpt><trkpt lat="41.79935831271052" lon="14.194384612017208"><ele>916.0</ele><time>2026-04-12T09:16:32.989Z</time></trkpt><trkpt lat="41.79942141981651" lon="14.194312000678801"><ele>916.0</ele><time>2026-04-12T09:16:34.988Z</time></trkpt><trkpt lat="41.79949460813785" lon="14.194238860277869"><ele>915.9999999999999</ele><time>2026-04-12T09:16:36.989Z</time></trkpt><trkpt lat="41.799553373273675" lon="14.194169739263328"><ele>916.0</ele><time>2026-04-12T09:16:38.988Z</time></trkpt><trkpt lat="41.79962337423115" lon="14.194124120659174"><ele>912.4999999999999</ele><time>2026-04-12T09:16:40.988Z</time></trkpt><trkpt lat="41.799681854758795" lon="14.194091012668636"><ele>909.0</ele><time>2026-04-12T09:16:49.988Z</time></trkpt><trkpt lat="41.79980433160154" lon="14.194029148481631"><ele>905.5</ele><time>2026-04-12T09:17:28.988Z</time></trkpt><trkpt lat="41.7997488826327" lon="14.194098117689467"><ele>902.0</ele><time>2026-04-12T09:30:59.979Z</time></trkpt><trkpt lat="41.79981561231738" lon="14.194046131974714"><ele>898.4999999999999</ele><time>2026-04-12T09:42:46.973Z</time></trkpt><trkpt lat="41.79988003833797" lon="14.194014425406536"><ele>895.0</ele><time>2026-04-12T09:42:49.973Z</time></trkpt><trkpt lat="41.799939612603154" lon="14.1939727595125"><ele>894.4</ele><time>2026-04-12T09:42:52.973Z</time></trkpt><trkpt lat="41.79999300694792" lon="14.193918602521721"><ele>893.8</ele><time>2026-04-12T09:42:56.973Z</time></trkpt><trkpt lat="41.80004487335142" lon="14.193866511841073"><ele>893.2</ele><time>2026-04-12T09:42:57.973Z</time></trkpt><trkpt lat="41.80010714298314" lon="14.193819934236794"><ele>892.6</ele><time>2026-04-12T09:42:59.973Z</time></trkpt><trkpt lat="41.800172708071685" lon="14.193807801513259"><ele>892.0</ele><time>2026-04-12T09:43:01.973Z</time></trkpt><trkpt lat="41.80036755518201" lon="14.193836665194185"><ele>887.2</ele><time>2026-04-12T09:43:06.973Z</time></trkpt><trkpt lat="41.800472118385066" lon="14.193853076711488"><ele>882.4000000000001</ele><time>2026-04-12T09:43:08.973Z</time></trkpt><trkpt lat="41.80055953553833" lon="14.193862499937836"><ele>877.5999999999999</ele><time>2026-04-12T09:43:10.973Z</time></trkpt><trkpt lat="41.800649948548255" lon="14.193850699680517"><ele>872.8</ele><time>2026-04-12T09:43:12.973Z</time></trkpt><trkpt lat="41.80075143889144" lon="14.193811733843388"><ele>868.0</ele><time>2026-04-12T09:43:14.973Z</time></trkpt><trkpt lat="41.80081007587449" lon="14.193695532512633"><ele>867.9999999999999</ele><time>2026-04-12T09:43:16.973Z</time></trkpt><trkpt lat="41.800877569303644" lon="14.193631909588603"><ele>868.0</ele><time>2026-04-12T09:43:17.973Z</time></trkpt><trkpt lat="41.80095858842347" lon="14.193580810316671"><ele>868.0</ele><time>2026-04-12T09:43:19.973Z</time></trkpt><trkpt lat="41.80104827268642" lon="14.193527690873264"><ele>868.0</ele><time>2026-04-12T09:43:21.973Z</time></trkpt><trkpt lat="41.80110646554066" lon="14.193464312444807"><ele>867.9999999999999</ele><time>2026-04-12T09:43:23.973Z</time></trkpt><trkpt lat="41.80116916821605" lon="14.1934268926833"><ele>868.0</ele><time>2026-04-12T09:43:25.973Z</time></trkpt><trkpt lat="41.80124257573391" lon="14.193439687521794"><ele>863.6666666666666</ele><time>2026-04-12T09:43:27.973Z</time></trkpt><trkpt lat="41.801312480522164" lon="14.193445578619746"><ele>859.3333333333333</ele><time>2026-04-12T09:43:30.973Z</time></trkpt><trkpt lat="41.801324611243125" lon="14.193528974608085"><ele>855.0</ele><time>2026-04-12T09:43:35.973Z</time></trkpt><trkpt lat="41.80132525047425" lon="14.193617189091345"><ele>850.6666666666667</ele><time>2026-04-12T09:43:39.973Z</time></trkpt><trkpt lat="41.80139594226256" lon="14.193771558992111"><ele>846.3333333333334</ele><time>2026-04-12T09:43:42.973Z</time></trkpt><trkpt lat="41.80143530802536" lon="14.193898959062622"><ele>842.0</ele><time>2026-04-12T09:43:44.973Z</time></trkpt><trkpt lat="41.80147266222899" lon="14.194002510296942"><ele>841.6666666666667</ele><time>2026-04-12T09:43:46.973Z</time></trkpt><trkpt lat="41.80151924137898" lon="14.194144614478292"><ele>841.3333333333334</ele><time>2026-04-12T09:43:48.972Z</time></trkpt><trkpt lat="41.80158438784469" lon="14.19423077027952"><ele>841.0</ele><time>2026-04-12T09:43:51.974Z</time></trkpt><trkpt lat="41.801657198012535" lon="14.194221314269626"><ele>840.6666666666667</ele><time>2026-04-12T09:43:54.974Z</time></trkpt><trkpt lat="41.80172788478494" lon="14.194163241587464"><ele>840.3333333333334</ele><time>2026-04-12T09:43:58.973Z</time></trkpt><trkpt lat="41.80179413923412" lon="14.19409359007861"><ele>840.0</ele><time>2026-04-12T09:44:01.974Z</time></trkpt><trkpt lat="41.801842916630406" lon="14.194009386245796"><ele>838.1428571428571</ele><time>2026-04-12T09:44:03.974Z</time></trkpt><trkpt lat="41.80188063594694" lon="14.193929793355396"><ele>836.2857142857142</ele><time>2026-04-12T09:44:05.974Z</time></trkpt><trkpt lat="41.80190434977192" lon="14.193850754708215"><ele>834.4285714285714</ele><time>2026-04-12T09:44:09.974Z</time></trkpt><trkpt lat="41.80194098947968" lon="14.193781003353742"><ele>832.5714285714286</ele><time>2026-04-12T09:44:17.973Z</time></trkpt><trkpt lat="41.80197765163638" lon="14.193708746571627"><ele>830.7142857142857</ele><time>2026-04-12T09:44:22.973Z</time></trkpt><trkpt lat="41.80202843395703" lon="14.193608953464837"><ele>828.8571428571429</ele><time>2026-04-12T09:44:26.973Z</time></trkpt><trkpt lat="41.80212074349652" lon="14.193579631198869"><ele>827.0</ele><time>2026-04-12T09:44:29.973Z</time></trkpt><trkpt lat="41.80218852213499" lon="14.19353734347182"><ele>827.0000000000001</ele><time>2026-04-12T09:44:32.973Z</time></trkpt><trkpt lat="41.80227450042405" lon="14.193544066084815"><ele>827.0</ele><time>2026-04-12T09:44:35.973Z</time></trkpt><trkpt lat="41.802355260454355" lon="14.193624512905348"><ele>827.0</ele><time>2026-04-12T09:44:38.973Z</time></trkpt><trkpt lat="41.802420116037354" lon="14.193667452260222"><ele>827.0</ele><time>2026-04-12T09:44:41.973Z</time></trkpt><trkpt lat="41.8024327606014" lon="14.193821314935672"><ele>827.0000000000001</ele><time>2026-04-12T09:44:44.973Z</time></trkpt><trkpt lat="41.802460713755345" lon="14.193907107829606"><ele>827.0</ele><time>2026-04-12T09:44:47.973Z</time></trkpt><trkpt lat="41.80251093002737" lon="14.193969872850666"><ele>826.5000000000001</ele><time>2026-04-12T09:44:56.973Z</time></trkpt><trkpt lat="41.80261443573496" lon="14.194055407410758"><ele>826.0</ele><time>2026-04-12T10:01:57.959Z</time></trkpt><trkpt lat="41.802536952876814" lon="14.194051817416504"><ele>825.5</ele><time>2026-04-12T10:05:56.956Z</time></trkpt><trkpt lat="41.80259486462838" lon="14.194085145732826"><ele>825.0</ele><time>2026-04-12T10:06:09.956Z</time></trkpt><trkpt lat="41.80255452059882" lon="14.194192476463972"><ele>824.5000000000001</ele><time>2026-04-12T10:06:38.956Z</time></trkpt><trkpt lat="41.80256395404832" lon="14.19409983524513"><ele>824.0</ele><time>2026-04-12T10:06:51.955Z</time></trkpt><trkpt lat="41.802572025887216" lon="14.19419488037027"><ele>824.0000000000001</ele><time>2026-04-12T10:08:51.955Z</time></trkpt><trkpt lat="41.8026271864569" lon="14.194285372081893"><ele>824.0</ele><time>2026-04-12T10:09:28.954Z</time></trkpt><trkpt lat="41.80270996772098" lon="14.194295587734304"><ele>824.0</ele><time>2026-04-12T10:10:00.954Z</time></trkpt><trkpt lat="41.80273259199361" lon="14.19420597998085"><ele>824.0</ele><time>2026-04-12T10:10:40.953Z</time></trkpt><trkpt lat="41.802678861711215" lon="14.194155726257689"><ele>824.0000000000001</ele><time>2026-04-12T10:10:52.953Z</time></trkpt><trkpt lat="41.80263296217988" lon="14.194091779973348"><ele>824.0</ele><time>2026-04-12T10:10:58.953Z</time></trkpt><trkpt lat="41.8025444686194" lon="14.194048146653376"><ele>824.0000000000001</ele><time>2026-04-12T10:11:44.953Z</time></trkpt><trkpt lat="41.8025879529464" lon="14.194192333059936"><ele>824.0</ele><time>2026-04-12T10:15:41.951Z</time></trkpt><trkpt lat="41.80261593186233" lon="14.194268775175974"><ele>824.0</ele><time>2026-04-12T10:15:47.95Z</time></trkpt><trkpt lat="41.802673019809006" lon="14.194217877274433"><ele>824.0</ele><time>2026-04-12T10:15:50.95Z</time></trkpt><trkpt lat="41.8027038869033" lon="14.194305853389057"><ele>824.0000000000001</ele><time>2026-04-12T10:16:02.95Z</time></trkpt><trkpt lat="41.80267851370391" lon="14.19439396184894"><ele>824.0</ele><time>2026-04-12T10:18:43.949Z</time></trkpt><trkpt lat="41.8026668396878" lon="14.194518905133425"><ele>823.5000000000001</ele><time>2026-04-12T10:18:45.949Z</time></trkpt><trkpt lat="41.80267070336063" lon="14.194610167513938"><ele>823.0</ele><time>2026-04-12T10:18:46.949Z</time></trkpt><trkpt lat="41.802677897329936" lon="14.194702490674937"><ele>822.5</ele><time>2026-04-12T10:18:47.949Z</time></trkpt><trkpt lat="41.80271176364523" lon="14.194819658537835"><ele>822.0</ele><time>2026-04-12T10:18:49.95Z</time></trkpt><trkpt lat="41.802757005411834" lon="14.194946485564184"><ele>821.5000000000001</ele><time>2026-04-12T10:18:51.95Z</time></trkpt><trkpt lat="41.80280073644206" lon="14.195049423993279"><ele>821.0</ele><time>2026-04-12T10:18:53.95Z</time></trkpt><trkpt lat="41.80303088660275" lon="14.19505200939991"><ele>821.0</ele><time>2026-04-12T10:19:00.95Z</time></trkpt><trkpt lat="41.80308036459489" lon="14.194985455865783"><ele>821.0</ele><time>2026-04-12T10:19:04.95Z</time></trkpt><trkpt lat="41.803182154836676" lon="14.194867637600982"><ele>821.0</ele><time>2026-04-12T10:19:06.95Z</time></trkpt><trkpt lat="41.803250408664525" lon="14.19477258379663"><ele>821.0</ele><time>2026-04-12T10:19:07.95Z</time></trkpt><trkpt lat="41.803330550978224" lon="14.194675686195005"><ele>821.0</ele><time>2026-04-12T10:19:08.95Z</time></trkpt><trkpt lat="41.80342669839049" lon="14.194593439885695"><ele>821.5</ele><time>2026-04-12T10:19:09.95Z</time></trkpt><trkpt lat="41.8035227749379" lon="14.194535223999251"><ele>822.0</ele><time>2026-04-12T10:19:10.95Z</time></trkpt><trkpt lat="41.80364389211267" lon="14.194497188611791"><ele>822.5</ele><time>2026-04-12T10:19:11.95Z</time></trkpt><trkpt lat="41.803785649487374" lon="14.194481688769635"><ele>823.0</ele><time>2026-04-12T10:19:12.95Z</time></trkpt><trkpt lat="41.803937796693795" lon="14.19446379087812"><ele>823.0</ele><time>2026-04-12T10:19:13.95Z</time></trkpt><trkpt lat="41.80408884126469" lon="14.194434848292703"><ele>823.0</ele><time>2026-04-12T10:19:14.95Z</time></trkpt><trkpt lat="41.80422908295587" lon="14.194371038738245"><ele>823.0</ele><time>2026-04-12T10:19:15.949Z</time></trkpt><trkpt lat="41.80434348950651" lon="14.194301105312936"><ele>823.0</ele><time>2026-04-12T10:19:16.949Z</time></trkpt><trkpt lat="41.804450322524445" lon="14.1942402640288"><ele>821.5</ele><time>2026-04-12T10:19:17.949Z</time></trkpt><trkpt lat="41.80458513368367" lon="14.19422843710683"><ele>820.0</ele><time>2026-04-12T10:19:18.949Z</time></trkpt><trkpt lat="41.80471552605731" lon="14.194238630388421"><ele>818.5</ele><time>2026-04-12T10:19:19.949Z</time></trkpt><trkpt lat="41.80481914599485" lon="14.19430242297442"><ele>817.0</ele><time>2026-04-12T10:19:20.949Z</time></trkpt><trkpt lat="41.804936649690426" lon="14.19438548529208"><ele>817.0</ele><time>2026-04-12T10:19:21.949Z</time></trkpt><trkpt lat="41.80502498224029" lon="14.194493881635685"><ele>817.0</ele><time>2026-04-12T10:19:22.949Z</time></trkpt><trkpt lat="41.805084012113916" lon="14.194575405383867"><ele>817.0</ele><time>2026-04-12T10:19:23.949Z</time></trkpt><trkpt lat="41.80518161763202" lon="14.194569735550452"><ele>817.0</ele><time>2026-04-12T10:19:24.949Z</time></trkpt><trkpt lat="41.80530864921236" lon="14.194511003245923"><ele>817.0</ele><time>2026-04-12T10:19:25.949Z</time></trkpt><trkpt lat="41.80541484836305" lon="14.1943940566377"><ele>816.0</ele><time>2026-04-12T10:19:26.949Z</time></trkpt><trkpt lat="41.805542914636696" lon="14.19426576771387"><ele>815.0</ele><time>2026-04-12T10:19:27.949Z</time></trkpt><trkpt lat="41.80567780599933" lon="14.194156340679495"><ele>814.0</ele><time>2026-04-12T10:19:28.949Z</time></trkpt><trkpt lat="41.80581701444449" lon="14.194078024962758"><ele>816.25</ele><time>2026-04-12T10:19:29.949Z</time></trkpt><trkpt lat="41.80596674413055" lon="14.193994548118221"><ele>818.5</ele><time>2026-04-12T10:19:30.951Z</time></trkpt><trkpt lat="41.80610063062453" lon="14.19392436472852"><ele>820.75</ele><time>2026-04-12T10:19:31.95Z</time></trkpt><trkpt lat="41.80623159130295" lon="14.19384993589146"><ele>823.0</ele><time>2026-04-12T10:19:32.95Z</time></trkpt><trkpt lat="41.80635278007013" lon="14.19379864899063"><ele>823.0</ele><time>2026-04-12T10:19:33.95Z</time></trkpt><trkpt lat="41.80650571060391" lon="14.19377435333457"><ele>823.0</ele><time>2026-04-12T10:19:34.95Z</time></trkpt><trkpt lat="41.806677490243054" lon="14.19375528684486"><ele>823.0</ele><time>2026-04-12T10:19:35.95Z</time></trkpt><trkpt lat="41.80682230828398" lon="14.193710837317129"><ele>822.6666666666666</ele><time>2026-04-12T10:19:36.951Z</time></trkpt><trkpt lat="41.80696277480691" lon="14.193655044162156"><ele>822.3333333333333</ele><time>2026-04-12T10:19:37.951Z</time></trkpt><trkpt lat="41.80711650758175" lon="14.193555603816439"><ele>822.0</ele><time>2026-04-12T10:19:38.951Z</time></trkpt><trkpt lat="41.80726019004477" lon="14.193442826149912"><ele>822.0</ele><time>2026-04-12T10:19:39.95Z</time></trkpt><trkpt lat="41.807410945664905" lon="14.19340650505558"><ele>822.0</ele><time>2026-04-12T10:19:40.95Z</time></trkpt><trkpt lat="41.80756667708391" lon="14.193375550762545"><ele>822.0</ele><time>2026-04-12T10:19:41.95Z</time></trkpt><trkpt lat="41.80774070808542" lon="14.193354015470343"><ele>824.0</ele><time>2026-04-12T10:19:42.951Z</time></trkpt><trkpt lat="41.80791946490955" lon="14.193306471232441"><ele>826.0</ele><time>2026-04-12T10:19:43.95Z</time></trkpt><trkpt lat="41.808072587820114" lon="14.193262344561994"><ele>828.0</ele><time>2026-04-12T10:19:44.95Z</time></trkpt><trkpt lat="41.80822881834112" lon="14.193203788409175"><ele>832.5</ele><time>2026-04-12T10:19:45.95Z</time></trkpt><trkpt lat="41.80837451043366" lon="14.193156233089127"><ele>837.0</ele><time>2026-04-12T10:19:46.95Z</time></trkpt><trkpt lat="41.80850657292732" lon="14.19307719087463"><ele>841.5</ele><time>2026-04-12T10:19:47.95Z</time></trkpt><trkpt lat="41.808632586170546" lon="14.19302029561164"><ele>846.0</ele><time>2026-04-12T10:19:48.95Z</time></trkpt><trkpt lat="41.808754917080336" lon="14.192988473668299"><ele>846.25</ele><time>2026-04-12T10:19:49.95Z</time></trkpt><trkpt lat="41.80888250978735" lon="14.19302227045361"><ele>846.5</ele><time>2026-04-12T10:19:50.95Z</time></trkpt><trkpt lat="41.80901677204308" lon="14.193081006638934"><ele>846.75</ele><time>2026-04-12T10:19:51.95Z</time></trkpt><trkpt lat="41.809148671525094" lon="14.193067571769943"><ele>847.0</ele><time>2026-04-12T10:19:52.95Z</time></trkpt><trkpt lat="41.80926095648383" lon="14.193020939866361"><ele>846.9999999999999</ele><time>2026-04-12T10:19:53.95Z</time></trkpt><trkpt lat="41.809349819116264" lon="14.19298306344001"><ele>847.0</ele><time>2026-04-12T10:19:54.95Z</time></trkpt><trkpt lat="41.809404444135076" lon="14.192926820126518"><ele>847.0</ele><time>2026-04-12T10:19:55.95Z</time></trkpt><trkpt lat="41.80943114372986" lon="14.192844976161961"><ele>847.0</ele><time>2026-04-12T10:19:56.95Z</time></trkpt><trkpt lat="41.809417156224754" lon="14.192725248684987"><ele>846.9999999999999</ele><time>2026-04-12T10:19:57.95Z</time></trkpt><trkpt lat="41.809362116093304" lon="14.19261261325915"><ele>847.0</ele><time>2026-04-12T10:19:58.95Z</time></trkpt><trkpt lat="41.80924979278144" lon="14.19253249659946"><ele>847.0</ele><time>2026-04-12T10:19:59.95Z</time></trkpt><trkpt lat="41.8091236052541" lon="14.192464370881373"><ele>847.0</ele><time>2026-04-12T10:20:00.95Z</time></trkpt><trkpt lat="41.80898379473279" lon="14.192426119031401"><ele>847.0</ele><time>2026-04-12T10:20:01.95Z</time></trkpt><trkpt lat="41.8088426271358" lon="14.192391691669684"><ele>847.0</ele><time>2026-04-12T10:20:02.95Z</time></trkpt><trkpt lat="41.808710976178965" lon="14.19231555151969"><ele>847.6666666666666</ele><time>2026-04-12T10:20:03.95Z</time></trkpt><trkpt lat="41.808620352166976" lon="14.192225466423256"><ele>848.3333333333333</ele><time>2026-04-12T10:20:04.95Z</time></trkpt><trkpt lat="41.80854984869773" lon="14.192156186729093"><ele>849.0</ele><time>2026-04-12T10:20:05.95Z</time></trkpt><trkpt lat="41.808484422762305" lon="14.192111755635295"><ele>849.6666666666667</ele><time>2026-04-12T10:20:06.95Z</time></trkpt><trkpt lat="41.80840981424066" lon="14.192113315760663"><ele>850.3333333333334</ele><time>2026-04-12T10:20:07.95Z</time></trkpt><trkpt lat="41.80836109689982" lon="14.191995084202084"><ele>851.0</ele><time>2026-04-12T10:20:12.95Z</time></trkpt><trkpt lat="41.80828403826788" lon="14.191912566990137"><ele>852.5999999999999</ele><time>2026-04-12T10:20:20.95Z</time></trkpt><trkpt lat="41.80825608876984" lon="14.191771235067717"><ele>854.2</ele><time>2026-04-12T10:20:22.95Z</time></trkpt><trkpt lat="41.80821278509601" lon="14.19158866157821"><ele>855.8000000000001</ele><time>2026-04-12T10:20:24.95Z</time></trkpt><trkpt lat="41.80817850612487" lon="14.191474130248436"><ele>857.4000000000001</ele><time>2026-04-12T10:20:25.95Z</time></trkpt><trkpt lat="41.80813089077546" lon="14.191387962993746"><ele>859.0</ele><time>2026-04-12T10:20:26.95Z</time></trkpt><trkpt lat="41.80804419985186" lon="14.191306038053646"><ele>859.4000000000001</ele><time>2026-04-12T10:20:28.95Z</time></trkpt><trkpt lat="41.80794237177721" lon="14.19122217440454"><ele>859.8000000000001</ele><time>2026-04-12T10:20:30.95Z</time></trkpt><trkpt lat="41.80789058743788" lon="14.191150948041537"><ele>860.1999999999999</ele><time>2026-04-12T10:20:31.95Z</time></trkpt><trkpt lat="41.80783869587038" lon="14.1910491380555"><ele>860.5999999999999</ele><time>2026-04-12T10:20:32.95Z</time></trkpt><trkpt lat="41.807753177131595" lon="14.190926570483416"><ele>861.0</ele><time>2026-04-12T10:20:33.949Z</time></trkpt><trkpt lat="41.80769871370733" lon="14.190868173828113"><ele>861.0</ele><time>2026-04-12T10:20:34.949Z</time></trkpt><trkpt lat="41.807691522774356" lon="14.190724187115542"><ele>861.0</ele><time>2026-04-12T10:20:36.949Z</time></trkpt><trkpt lat="41.80770669075551" lon="14.190629552810307"><ele>861.0</ele><time>2026-04-12T10:20:37.949Z</time></trkpt><trkpt lat="41.80768775429524" lon="14.19054677398501"><ele>861.0</ele><time>2026-04-12T10:20:38.949Z</time></trkpt><trkpt lat="41.80767862328375" lon="14.190462292114114"><ele>861.0</ele><time>2026-04-12T10:20:39.949Z</time></trkpt><trkpt lat="41.80769434483238" lon="14.19034864390449"><ele>861.0</ele><time>2026-04-12T10:20:40.949Z</time></trkpt><trkpt lat="41.807744426365524" lon="14.190245365473258"><ele>861.5714285714286</ele><time>2026-04-12T10:20:42.949Z</time></trkpt><trkpt lat="41.80779404702428" lon="14.190188831202033"><ele>862.1428571428571</ele><time>2026-04-12T10:20:45.949Z</time></trkpt><trkpt lat="41.80786254894559" lon="14.190160805742495"><ele>862.7142857142858</ele><time>2026-04-12T10:20:46.949Z</time></trkpt><trkpt lat="41.8079451324244" lon="14.190146004560452"><ele>863.2857142857142</ele><time>2026-04-12T10:20:47.949Z</time></trkpt><trkpt lat="41.808009656214985" lon="14.190123908854266"><ele>863.8571428571429</ele><time>2026-04-12T10:20:48.949Z</time></trkpt><trkpt lat="41.80805414962531" lon="14.190060378313108"><ele>864.4285714285714</ele><time>2026-04-12T10:20:49.949Z</time></trkpt><trkpt lat="41.80810306941179" lon="14.18996293482952"><ele>865.0</ele><time>2026-04-12T10:20:51.949Z</time></trkpt><trkpt lat="41.808190080123104" lon="14.189902927026415"><ele>865.0</ele><time>2026-04-12T10:20:54.949Z</time></trkpt><trkpt lat="41.80831395321325" lon="14.189851607809658"><ele>865.0</ele><time>2026-04-12T10:20:56.949Z</time></trkpt><trkpt lat="41.8083959753052" lon="14.189806518464838"><ele>865.0</ele><time>2026-04-12T10:20:57.949Z</time></trkpt><trkpt lat="41.8084622906101" lon="14.189765892594895"><ele>865.0</ele><time>2026-04-12T10:20:58.949Z</time></trkpt><trkpt lat="41.80854956600601" lon="14.189698705046307"><ele>865.0</ele><time>2026-04-12T10:21:00.949Z</time></trkpt><trkpt lat="41.80864752584108" lon="14.189659343076872"><ele>864.4</ele><time>2026-04-12T10:21:02.949Z</time></trkpt><trkpt lat="41.808709272924524" lon="14.189623490305344"><ele>863.8</ele><time>2026-04-12T10:21:03.949Z</time></trkpt><trkpt lat="41.80878915462648" lon="14.189558980941293"><ele>863.2</ele><time>2026-04-12T10:21:04.949Z</time></trkpt><trkpt lat="41.808879447612874" lon="14.18946106715019"><ele>862.6</ele><time>2026-04-12T10:21:06.949Z</time></trkpt><trkpt lat="41.808969550893686" lon="14.189430970892342"><ele>862.0</ele><time>2026-04-12T10:21:07.949Z</time></trkpt><trkpt lat="41.8090703082097" lon="14.18939562557872"><ele>862.0</ele><time>2026-04-12T10:21:08.949Z</time></trkpt><trkpt lat="41.80918924623009" lon="14.189344489336815"><ele>862.0</ele><time>2026-04-12T10:21:09.949Z</time></trkpt><trkpt lat="41.80930983795034" lon="14.189265314685956"><ele>862.0</ele><time>2026-04-12T10:21:10.949Z</time></trkpt><trkpt lat="41.8094262491199" lon="14.189153413711548"><ele>862.0</ele><time>2026-04-12T10:21:11.949Z</time></trkpt><trkpt lat="41.809499681805875" lon="14.189034243337511"><ele>863.75</ele><time>2026-04-12T10:21:12.949Z</time></trkpt><trkpt lat="41.809531801865916" lon="14.188927105104035"><ele>865.5</ele><time>2026-04-12T10:21:13.949Z</time></trkpt><trkpt lat="41.80963883733391" lon="14.188815257506958"><ele>867.25</ele><time>2026-04-12T10:21:15.949Z</time></trkpt><trkpt lat="41.80972606362632" lon="14.188747721234558"><ele>869.0</ele><time>2026-04-12T10:21:16.949Z</time></trkpt><trkpt lat="41.809844210099946" lon="14.18866959176737"><ele>869.0</ele><time>2026-04-12T10:21:17.949Z</time></trkpt><trkpt lat="41.809985140559775" lon="14.188626788234211"><ele>869.0</ele><time>2026-04-12T10:21:18.949Z</time></trkpt><trkpt lat="41.81012128088182" lon="14.188590936234542"><ele>869.0</ele><time>2026-04-12T10:21:19.949Z</time></trkpt><trkpt lat="41.81024758252672" lon="14.18854539609202"><ele>869.0</ele><time>2026-04-12T10:21:20.949Z</time></trkpt><trkpt lat="41.81031746388164" lon="14.188486545007885"><ele>870.2</ele><time>2026-04-12T10:21:21.949Z</time></trkpt><trkpt lat="41.81040413257354" lon="14.18843878281437"><ele>871.4000000000001</ele><time>2026-04-12T10:21:22.949Z</time></trkpt><trkpt lat="41.810495565347935" lon="14.188421029951689"><ele>872.6</ele><time>2026-04-12T10:21:23.949Z</time></trkpt><trkpt lat="41.810610713931005" lon="14.188442581671728"><ele>873.8</ele><time>2026-04-12T10:21:24.949Z</time></trkpt><trkpt lat="41.81074524260673" lon="14.18844970416495"><ele>875.0</ele><time>2026-04-12T10:21:25.949Z</time></trkpt><trkpt lat="41.81089879578994" lon="14.188435927547973"><ele>875.3333333333334</ele><time>2026-04-12T10:21:26.949Z</time></trkpt><trkpt lat="41.81103406865465" lon="14.188422496407714"><ele>875.6666666666667</ele><time>2026-04-12T10:21:27.949Z</time></trkpt><trkpt lat="41.81127157302077" lon="14.188405212791968"><ele>876.0</ele><time>2026-04-12T10:21:29.949Z</time></trkpt><trkpt lat="41.811389283517215" lon="14.188387109565019"><ele>876.0</ele><time>2026-04-12T10:21:30.949Z</time></trkpt><trkpt lat="41.81145872689188" lon="14.188401722580108"><ele>876.0</ele><time>2026-04-12T10:21:31.949Z</time></trkpt><trkpt lat="41.81166156733838" lon="14.188403178273395"><ele>876.0</ele><time>2026-04-12T10:21:33.949Z</time></trkpt><trkpt lat="41.81177498385368" lon="14.18838127715576"><ele>876.0</ele><time>2026-04-12T10:21:34.949Z</time></trkpt><trkpt lat="41.81189027264844" lon="14.188308421259356"><ele>874.5</ele><time>2026-04-12T10:21:35.949Z</time></trkpt><trkpt lat="41.81200282196224" lon="14.188233377336429"><ele>873.0</ele><time>2026-04-12T10:21:36.95Z</time></trkpt><trkpt lat="41.81213394177657" lon="14.188198310875386"><ele>871.5</ele><time>2026-04-12T10:21:37.949Z</time></trkpt><trkpt lat="41.81225595482637" lon="14.188196940365454"><ele>870.0</ele><time>2026-04-12T10:21:38.949Z</time></trkpt><trkpt lat="41.81242525310832" lon="14.188180264896245"><ele>872.0</ele><time>2026-04-12T10:21:40.95Z</time></trkpt><trkpt lat="41.81257269717886" lon="14.188049742925598"><ele>874.0</ele><time>2026-04-12T10:21:42.949Z</time></trkpt><trkpt lat="41.81265463563896" lon="14.18798976643543"><ele>876.0</ele><time>2026-04-12T10:21:43.949Z</time></trkpt><trkpt lat="41.812714362278385" lon="14.187922923853865"><ele>878.0</ele><time>2026-04-12T10:21:44.949Z</time></trkpt><trkpt lat="41.81282431578714" lon="14.18785409093648"><ele>878.0</ele><time>2026-04-12T10:21:46.95Z</time></trkpt><trkpt lat="41.81290793118388" lon="14.187853111569657"><ele>878.0</ele><time>2026-04-12T10:21:47.95Z</time></trkpt><trkpt lat="41.81303407373613" lon="14.187850629479948"><ele>878.0</ele><time>2026-04-12T10:21:49.949Z</time></trkpt><trkpt lat="41.81317447708824" lon="14.187935743527992"><ele>878.0</ele><time>2026-04-12T10:21:50.949Z</time></trkpt><trkpt lat="41.81331132187017" lon="14.188032842727326"><ele>878.0</ele><time>2026-04-12T10:21:51.949Z</time></trkpt><trkpt lat="41.81343295983884" lon="14.188115306713327"><ele>878.0</ele><time>2026-04-12T10:21:52.949Z</time></trkpt><trkpt lat="41.81353761467286" lon="14.18818350226859"><ele>878.0</ele><time>2026-04-12T10:21:53.949Z</time></trkpt><trkpt lat="41.813611090090255" lon="14.18820630821823"><ele>878.0</ele><time>2026-04-12T10:21:54.949Z</time></trkpt><trkpt lat="41.81369243847062" lon="14.18816814633198"><ele>878.0</ele><time>2026-04-12T10:21:55.949Z</time></trkpt><trkpt lat="41.81376166207127" lon="14.188134908723034"><ele>879.0</ele><time>2026-04-12T10:21:56.949Z</time></trkpt><trkpt lat="41.81405325064296" lon="14.1881407593928"><ele>880.0</ele><time>2026-04-12T10:22:00.949Z</time></trkpt><trkpt lat="41.81415856379648" lon="14.188223004527282"><ele>881.0</ele><time>2026-04-12T10:22:02.949Z</time></trkpt><trkpt lat="41.81423567612433" lon="14.188276374453016"><ele>875.0</ele><time>2026-04-12T10:22:03.949Z</time></trkpt><trkpt lat="41.81438072905688" lon="14.18830816687599"><ele>869.0</ele><time>2026-04-12T10:22:04.949Z</time></trkpt><trkpt lat="41.81451614246589" lon="14.188331192101781"><ele>863.0</ele><time>2026-04-12T10:22:05.949Z</time></trkpt><trkpt lat="41.81468696130055" lon="14.188339624927393"><ele>863.0</ele><time>2026-04-12T10:22:06.949Z</time></trkpt><trkpt lat="41.81484240866486" lon="14.188359156896068"><ele>863.0</ele><time>2026-04-12T10:22:07.949Z</time></trkpt><trkpt lat="41.81496732897758" lon="14.188405701769982"><ele>863.0</ele><time>2026-04-12T10:22:08.949Z</time></trkpt><trkpt lat="41.81508366679476" lon="14.188479868312552"><ele>863.0</ele><time>2026-04-12T10:22:09.949Z</time></trkpt><trkpt lat="41.815216385363065" lon="14.188586254981788"><ele>864.4</ele><time>2026-04-12T10:22:10.949Z</time></trkpt><trkpt lat="41.815309100227296" lon="14.188649637905451"><ele>865.8</ele><time>2026-04-12T10:22:11.949Z</time></trkpt><trkpt lat="41.81543052411573" lon="14.188710057305496"><ele>867.2</ele><time>2026-04-12T10:22:12.949Z</time></trkpt><trkpt lat="41.815542350144376" lon="14.188722835808507"><ele>868.6</ele><time>2026-04-12T10:22:13.949Z</time></trkpt><trkpt lat="41.815637040148665" lon="14.188770658233597"><ele>870.0</ele><time>2026-04-12T10:22:14.949Z</time></trkpt><trkpt lat="41.81570826249804" lon="14.188840858548515"><ele>870.0</ele><time>2026-04-12T10:22:15.949Z</time></trkpt><trkpt lat="41.8157732140076" lon="14.18884613601316"><ele>870.0</ele><time>2026-04-12T10:22:16.949Z</time></trkpt><trkpt lat="41.81585634852941" lon="14.188866465758421"><ele>870.0</ele><time>2026-04-12T10:22:17.949Z</time></trkpt><trkpt lat="41.81593457263929" lon="14.188881730961036"><ele>870.0</ele><time>2026-04-12T10:22:18.949Z</time></trkpt><trkpt lat="41.816006010757725" lon="14.18891583133027"><ele>870.0</ele><time>2026-04-12T10:22:19.949Z</time></trkpt><trkpt lat="41.81610735920729" lon="14.188985069424934"><ele>870.0</ele><time>2026-04-12T10:22:20.949Z</time></trkpt><trkpt lat="41.81622724866689" lon="14.188970806673233"><ele>869.2</ele><time>2026-04-12T10:22:21.949Z</time></trkpt><trkpt lat="41.816312153152566" lon="14.188927593302363"><ele>868.4</ele><time>2026-04-12T10:22:22.949Z</time></trkpt><trkpt lat="41.8164021370273" lon="14.188883772073849"><ele>867.5999999999999</ele><time>2026-04-12T10:22:23.949Z</time></trkpt><trkpt lat="41.816483803715066" lon="14.188812738896793"><ele>866.8</ele><time>2026-04-12T10:22:24.949Z</time></trkpt><trkpt lat="41.81654620951977" lon="14.188715550549437"><ele>866.0</ele><time>2026-04-12T10:22:25.949Z</time></trkpt><trkpt lat="41.81659275296831" lon="14.18862849614364"><ele>866.0</ele><time>2026-04-12T10:22:26.949Z</time></trkpt><trkpt lat="41.81668424869871" lon="14.18856103834438"><ele>866.0</ele><time>2026-04-12T10:22:27.949Z</time></trkpt><trkpt lat="41.81682454207644" lon="14.18851512509232"><ele>866.0</ele><time>2026-04-12T10:22:28.949Z</time></trkpt><trkpt lat="41.81696397406342" lon="14.188483457339478"><ele>866.0</ele><time>2026-04-12T10:22:29.948Z</time></trkpt><trkpt lat="41.81706987908948" lon="14.188462497076628"><ele>865.0</ele><time>2026-04-12T10:22:30.948Z</time></trkpt><trkpt lat="41.817187624223266" lon="14.188453317366248"><ele>864.0</ele><time>2026-04-12T10:22:31.948Z</time></trkpt><trkpt lat="41.81729348702118" lon="14.188461199997453"><ele>863.0</ele><time>2026-04-12T10:22:32.948Z</time></trkpt><trkpt lat="41.817401577393895" lon="14.188539318122157"><ele>862.0</ele><time>2026-04-12T10:22:33.948Z</time></trkpt><trkpt lat="41.81762292861162" lon="14.188699920690347"><ele>860.5</ele><time>2026-04-12T10:22:35.948Z</time></trkpt><trkpt lat="41.81774254473853" lon="14.188739698790735"><ele>859.0</ele><time>2026-04-12T10:22:36.948Z</time></trkpt><trkpt lat="41.81808686039356" lon="14.188744928823246"><ele>859.0</ele><time>2026-04-12T10:22:39.948Z</time></trkpt><trkpt lat="41.818192337270204" lon="14.18874663932575"><ele>859.0000000000001</ele><time>2026-04-12T10:22:40.948Z</time></trkpt><trkpt lat="41.818301804563454" lon="14.18875796628394"><ele>859.0000000000001</ele><time>2026-04-12T10:22:41.948Z</time></trkpt><trkpt lat="41.81840048209315" lon="14.18871341840988"><ele>859.0</ele><time>2026-04-12T10:22:42.948Z</time></trkpt><trkpt lat="41.81851128628149" lon="14.188686747321324"><ele>859.0</ele><time>2026-04-12T10:22:43.948Z</time></trkpt><trkpt lat="41.81859187596244" lon="14.188663909385982"><ele>856.4999999999999</ele><time>2026-04-12T10:22:44.948Z</time></trkpt><trkpt lat="41.81865486907187" lon="14.188648311486068"><ele>854.0</ele><time>2026-04-12T10:22:45.948Z</time></trkpt><trkpt lat="41.81875975247464" lon="14.188608171329513"><ele>851.5</ele><time>2026-04-12T10:22:46.948Z</time></trkpt><trkpt lat="41.81883900020885" lon="14.188526425589341"><ele>849.0</ele><time>2026-04-12T10:22:47.948Z</time></trkpt><trkpt lat="41.81889289422186" lon="14.188433300750141"><ele>846.4999999999999</ele><time>2026-04-12T10:22:48.948Z</time></trkpt><trkpt lat="41.81894079755176" lon="14.188374084765956"><ele>844.0</ele><time>2026-04-12T10:22:49.948Z</time></trkpt><trkpt lat="41.81903740309118" lon="14.188315537732025"><ele>843.9999999999999</ele><time>2026-04-12T10:22:51.948Z</time></trkpt><trkpt lat="41.819115338814676" lon="14.188245260290195"><ele>844.0</ele><time>2026-04-12T10:22:53.948Z</time></trkpt><trkpt lat="41.819182309064004" lon="14.1882165692495"><ele>844.0</ele><time>2026-04-12T10:22:57.948Z</time></trkpt><trkpt lat="41.81924090446985" lon="14.188175094461103"><ele>844.0</ele><time>2026-04-12T10:23:03.948Z</time></trkpt><trkpt lat="41.8192267967649" lon="14.188079603994977"><ele>843.9999999999999</ele><time>2026-04-12T10:23:19.948Z</time></trkpt><trkpt lat="41.819271651830626" lon="14.187945075036103"><ele>844.0</ele><time>2026-04-12T10:23:22.948Z</time></trkpt><trkpt lat="41.819307710788344" lon="14.187875037177468"><ele>844.0</ele><time>2026-04-12T10:23:23.948Z</time></trkpt><trkpt lat="41.819369512250674" lon="14.187785310460766"><ele>844.0</ele><time>2026-04-12T10:23:25.948Z</time></trkpt><trkpt lat="41.819452327185644" lon="14.187668697578015"><ele>844.0</ele><time>2026-04-12T10:23:27.948Z</time></trkpt><trkpt lat="41.819530758416875" lon="14.187575665581573"><ele>844.0</ele><time>2026-04-12T10:23:29.948Z</time></trkpt><trkpt lat="41.8195932562325" lon="14.187461706076382"><ele>844.0</ele><time>2026-04-12T10:23:31.948Z</time></trkpt><trkpt lat="41.81966007651722" lon="14.187356273920887"><ele>842.2</ele><time>2026-04-12T10:23:33.948Z</time></trkpt><trkpt lat="41.81971368729485" lon="14.187302410054658"><ele>840.4000000000001</ele><time>2026-04-12T10:23:34.948Z</time></trkpt><trkpt lat="41.81978862014701" lon="14.187193304440134"><ele>838.6</ele><time>2026-04-12T10:23:36.948Z</time></trkpt><trkpt lat="41.81985182782971" lon="14.187137090574844"><ele>836.8</ele><time>2026-04-12T10:23:38.948Z</time></trkpt><trkpt lat="41.82000569013686" lon="14.187123616421824"><ele>835.0</ele><time>2026-04-12T10:23:51.948Z</time></trkpt><trkpt lat="41.82006881103992" lon="14.187032716235715"><ele>835.0</ele><time>2026-04-12T10:23:54.948Z</time></trkpt><trkpt lat="41.82013213234612" lon="14.186957453288667"><ele>835.0</ele><time>2026-04-12T10:23:55.948Z</time></trkpt><trkpt lat="41.82019817500311" lon="14.186889824809843"><ele>835.0</ele><time>2026-04-12T10:23:56.948Z</time></trkpt><trkpt lat="41.82027428648869" lon="14.18679914099728"><ele>835.0</ele><time>2026-04-12T10:23:57.948Z</time></trkpt><trkpt lat="41.82034046757569" lon="14.186738938869828"><ele>835.0</ele><time>2026-04-12T10:23:58.948Z</time></trkpt><trkpt lat="41.82042579460124" lon="14.18658284658916"><ele>834.8</ele><time>2026-04-12T10:24:00.948Z</time></trkpt><trkpt lat="41.82049796422293" lon="14.186447245939158"><ele>834.6</ele><time>2026-04-12T10:24:01.948Z</time></trkpt><trkpt lat="41.82057005422408" lon="14.186320878576874"><ele>834.4000000000001</ele><time>2026-04-12T10:24:02.948Z</time></trkpt><trkpt lat="41.82063910341871" lon="14.18623559508548"><ele>834.2</ele><time>2026-04-12T10:24:03.948Z</time></trkpt><trkpt lat="41.82071797252482" lon="14.186147613730935"><ele>834.0</ele><time>2026-04-12T10:24:04.948Z</time></trkpt><trkpt lat="41.820748075662884" lon="14.186055779354422"><ele>834.0</ele><time>2026-04-12T10:24:05.948Z</time></trkpt><trkpt lat="41.82078222900183" lon="14.185952083023842"><ele>834.0</ele><time>2026-04-12T10:24:06.948Z</time></trkpt><trkpt lat="41.82081437433097" lon="14.185864480846028"><ele>834.0</ele><time>2026-04-12T10:24:07.948Z</time></trkpt><trkpt lat="41.82084624782192" lon="14.185727856371146"><ele>834.0</ele><time>2026-04-12T10:24:09.948Z</time></trkpt><trkpt lat="41.8208833881643" lon="14.18558204620943"><ele>834.0</ele><time>2026-04-12T10:24:11.948Z</time></trkpt><trkpt lat="41.82091822789227" lon="14.18546508637263"><ele>833.3333333333334</ele><time>2026-04-12T10:24:13.948Z</time></trkpt><trkpt lat="41.820956638284216" lon="14.185368698138781"><ele>832.6666666666667</ele><time>2026-04-12T10:24:15.948Z</time></trkpt><trkpt lat="41.820950393099416" lon="14.185266490778742"><ele>832.0</ele><time>2026-04-12T10:24:17.948Z</time></trkpt><trkpt lat="41.82095697553018" lon="14.185138183157301"><ele>831.3333333333334</ele><time>2026-04-12T10:24:18.948Z</time></trkpt><trkpt lat="41.82096699108068" lon="14.185006703192824"><ele>830.6666666666667</ele><time>2026-04-12T10:24:19.948Z</time></trkpt><trkpt lat="41.821000829286746" lon="14.184893313982318"><ele>830.0</ele><time>2026-04-12T10:24:20.948Z</time></trkpt><trkpt lat="41.8210301904742" lon="14.184794595341142"><ele>830.0000000000001</ele><time>2026-04-12T10:24:21.948Z</time></trkpt><trkpt lat="41.82105670545571" lon="14.184715319685084"><ele>830.0</ele><time>2026-04-12T10:24:22.948Z</time></trkpt><trkpt lat="41.821103354257446" lon="14.184656918790346"><ele>830.0</ele><time>2026-04-12T10:24:23.948Z</time></trkpt><trkpt lat="41.82116215376137" lon="14.18461370513331"><ele>830.0</ele><time>2026-04-12T10:24:24.948Z</time></trkpt><trkpt lat="41.82126488366119" lon="14.184497055463183"><ele>830.0000000000001</ele><time>2026-04-12T10:24:26.948Z</time></trkpt><trkpt lat="41.8212939071745" lon="14.184421019173918"><ele>830.0</ele><time>2026-04-12T10:24:27.948Z</time></trkpt><trkpt lat="41.82137074867143" lon="14.184292187897208"><ele>830.0</ele><time>2026-04-12T10:24:29.948Z</time></trkpt><trkpt lat="41.82141088589808" lon="14.18413548196511"><ele>830.0</ele><time>2026-04-12T10:24:31.948Z</time></trkpt><trkpt lat="41.82144707052166" lon="14.183986303458589"><ele>830.0</ele><time>2026-04-12T10:24:33.948Z</time></trkpt><trkpt lat="41.82149980900772" lon="14.183904879698423"><ele>830.0</ele><time>2026-04-12T10:24:34.948Z</time></trkpt><trkpt lat="41.821565774926135" lon="14.183692386610389"><ele>827.2</ele><time>2026-04-12T10:24:36.948Z</time></trkpt><trkpt lat="41.82161219225338" lon="14.183598146696674"><ele>824.4</ele><time>2026-04-12T10:24:37.948Z</time></trkpt><trkpt lat="41.82172110992011" lon="14.183487002408203"><ele>821.5999999999999</ele><time>2026-04-12T10:24:39.948Z</time></trkpt><trkpt lat="41.82181070570156" lon="14.183457432185001"><ele>818.8</ele><time>2026-04-12T10:24:40.948Z</time></trkpt><trkpt lat="41.8218989564823" lon="14.183409671547462"><ele>816.0</ele><time>2026-04-12T10:24:42.948Z</time></trkpt><trkpt lat="41.82200514367142" lon="14.183315826452843"><ele>813.1999999999999</ele><time>2026-04-12T10:24:43.948Z</time></trkpt><trkpt lat="41.822099009114126" lon="14.183195488946255"><ele>810.4</ele><time>2026-04-12T10:24:44.948Z</time></trkpt><trkpt lat="41.822162559394776" lon="14.183087073947773"><ele>807.6</ele><time>2026-04-12T10:24:45.948Z</time></trkpt><trkpt lat="41.8222261054691" lon="14.182994539939745"><ele>804.8</ele><time>2026-04-12T10:24:46.948Z</time></trkpt><trkpt lat="41.82227229577183" lon="14.182899678838513"><ele>802.0</ele><time>2026-04-12T10:24:47.948Z</time></trkpt><trkpt lat="41.822316939019565" lon="14.182801849673647"><ele>799.9999999999999</ele><time>2026-04-12T10:24:48.948Z</time></trkpt><trkpt lat="41.822361653699254" lon="14.182670320178884"><ele>798.0</ele><time>2026-04-12T10:24:49.947Z</time></trkpt><trkpt lat="41.82239059502916" lon="14.182533577365966"><ele>796.0</ele><time>2026-04-12T10:24:50.947Z</time></trkpt><trkpt lat="41.82240157611176" lon="14.182413763219504"><ele>794.0</ele><time>2026-04-12T10:24:51.947Z</time></trkpt><trkpt lat="41.822399318298466" lon="14.182317128361705"><ele>791.9999999999999</ele><time>2026-04-12T10:24:52.947Z</time></trkpt><trkpt lat="41.82242273258792" lon="14.182228013025883"><ele>790.0</ele><time>2026-04-12T10:24:53.947Z</time></trkpt><trkpt lat="41.82249857442591" lon="14.182155618620003"><ele>789.4</ele><time>2026-04-12T10:24:54.947Z</time></trkpt><trkpt lat="41.82259257277167" lon="14.182107526137592"><ele>788.8</ele><time>2026-04-12T10:24:55.947Z</time></trkpt><trkpt lat="41.82270344858277" lon="14.182105339214067"><ele>788.2</ele><time>2026-04-12T10:24:56.947Z</time></trkpt><trkpt lat="41.82281550438268" lon="14.182121508514951"><ele>787.6</ele><time>2026-04-12T10:24:57.947Z</time></trkpt><trkpt lat="41.822916029391166" lon="14.182138679983849"><ele>787.0</ele><time>2026-04-12T10:24:58.947Z</time></trkpt><trkpt lat="41.82302807645892" lon="14.182151649918989"><ele>784.8</ele><time>2026-04-12T10:24:59.947Z</time></trkpt><trkpt lat="41.82312863645507" lon="14.182163152639362"><ele>782.6</ele><time>2026-04-12T10:25:00.947Z</time></trkpt><trkpt lat="41.82323491662506" lon="14.182157924905228"><ele>780.4</ele><time>2026-04-12T10:25:01.947Z</time></trkpt><trkpt lat="41.82331928601219" lon="14.182151839747256"><ele>778.1999999999999</ele><time>2026-04-12T10:25:02.947Z</time></trkpt><trkpt lat="41.82341225742965" lon="14.182140452539024"><ele>776.0</ele><time>2026-04-12T10:25:03.947Z</time></trkpt><trkpt lat="41.82351232830469" lon="14.182138951866689"><ele>773.5</ele><time>2026-04-12T10:25:04.947Z</time></trkpt><trkpt lat="41.82362414593651" lon="14.182146498043842"><ele>771.0</ele><time>2026-04-12T10:25:05.947Z</time></trkpt><trkpt lat="41.823743200580815" lon="14.182155519473158"><ele>768.5</ele><time>2026-04-12T10:25:06.947Z</time></trkpt><trkpt lat="41.82388496685044" lon="14.182155885926546"><ele>766.0</ele><time>2026-04-12T10:25:07.947Z</time></trkpt><trkpt lat="41.82402825083683" lon="14.182164370192542"><ele>766.0</ele><time>2026-04-12T10:25:08.947Z</time></trkpt><trkpt lat="41.82415200383222" lon="14.182167488922529"><ele>766.0</ele><time>2026-04-12T10:25:09.947Z</time></trkpt><trkpt lat="41.82426752616723" lon="14.182165647975394"><ele>766.0</ele><time>2026-04-12T10:25:10.947Z</time></trkpt><trkpt lat="41.8243762359352" lon="14.182178373449645"><ele>766.0</ele><time>2026-04-12T10:25:11.947Z</time></trkpt><trkpt lat="41.82447039556843" lon="14.182191512753011"><ele>766.0</ele><time>2026-04-12T10:25:12.947Z</time></trkpt><trkpt lat="41.82455556346962" lon="14.18220305456196"><ele>764.8</ele><time>2026-04-12T10:25:13.947Z</time></trkpt><trkpt lat="41.82464368222005" lon="14.182195026203425"><ele>763.5999999999999</ele><time>2026-04-12T10:25:14.947Z</time></trkpt><trkpt lat="41.82473006963661" lon="14.182210582896534"><ele>762.4</ele><time>2026-04-12T10:25:15.947Z</time></trkpt><trkpt lat="41.824805797408004" lon="14.182206919904937"><ele>761.2</ele><time>2026-04-12T10:25:16.947Z</time></trkpt><trkpt lat="41.82488681973127" lon="14.182180294197215"><ele>760.0</ele><time>2026-04-12T10:25:17.947Z</time></trkpt><trkpt lat="41.82495051211013" lon="14.18204575014368"><ele>760.0</ele><time>2026-04-12T10:25:19.947Z</time></trkpt><trkpt lat="41.8249343378315" lon="14.181913140156365"><ele>760.0</ele><time>2026-04-12T10:25:20.947Z</time></trkpt><trkpt lat="41.824896989165424" lon="14.18176712977566"><ele>760.0</ele><time>2026-04-12T10:25:21.947Z</time></trkpt><trkpt lat="41.824832575654014" lon="14.181669613084404"><ele>760.0</ele><time>2026-04-12T10:25:22.947Z</time></trkpt><trkpt lat="41.8247584702167" lon="14.18163257275949"><ele>760.0</ele><time>2026-04-12T10:25:23.947Z</time></trkpt><trkpt lat="41.824784290949076" lon="14.181404682470639"><ele>757.25</ele><time>2026-04-12T10:25:24.947Z</time></trkpt><trkpt lat="41.824602761959994" lon="14.181511302803077"><ele>754.5</ele><time>2026-04-12T10:25:25.947Z</time></trkpt><trkpt lat="41.82454193266698" lon="14.181421034253908"><ele>751.75</ele><time>2026-04-12T10:25:27.947Z</time></trkpt><trkpt lat="41.82460208320814" lon="14.181341665055712"><ele>749.0</ele><time>2026-04-12T10:25:29.947Z</time></trkpt><trkpt lat="41.82461135194993" lon="14.181220098407742"><ele>749.0</ele><time>2026-04-12T10:25:32.947Z</time></trkpt><trkpt lat="41.82454487454287" lon="14.181150481501575"><ele>749.0</ele><time>2026-04-12T10:25:33.947Z</time></trkpt><trkpt lat="41.824446446541046" lon="14.181034697192324"><ele>749.0</ele><time>2026-04-12T10:25:34.947Z</time></trkpt><trkpt lat="41.82432926922388" lon="14.180885538988669"><ele>749.0</ele><time>2026-04-12T10:25:35.947Z</time></trkpt><trkpt lat="41.82421922033139" lon="14.180699709809351"><ele>749.8000000000001</ele><time>2026-04-12T10:25:36.947Z</time></trkpt><trkpt lat="41.8241471473632" lon="14.180530885817237"><ele>750.6</ele><time>2026-04-12T10:25:37.947Z</time></trkpt><trkpt lat="41.8240864149376" lon="14.180391584933021"><ele>751.4</ele><time>2026-04-12T10:25:38.947Z</time></trkpt><trkpt lat="41.824049884641084" lon="14.180277469903377"><ele>752.2</ele><time>2026-04-12T10:25:39.947Z</time></trkpt><trkpt lat="41.82401614450664" lon="14.180167814068048"><ele>753.0</ele><time>2026-04-12T10:25:40.947Z</time></trkpt><trkpt lat="41.823998778660304" lon="14.180071534591194"><ele>753.0</ele><time>2026-04-12T10:25:41.947Z</time></trkpt><trkpt lat="41.824022542168095" lon="14.179986312748275"><ele>753.0</ele><time>2026-04-12T10:25:43.947Z</time></trkpt><trkpt lat="41.82411963359901" lon="14.179972981610439"><ele>753.0</ele><time>2026-04-12T10:25:45.947Z</time></trkpt><trkpt lat="41.824221393095435" lon="14.180001008599794"><ele>753.0</ele><time>2026-04-12T10:25:46.947Z</time></trkpt><trkpt lat="41.82431244234496" lon="14.179983878076468"><ele>753.0</ele><time>2026-04-12T10:25:47.947Z</time></trkpt><trkpt lat="41.8244063286685" lon="14.17988143529044"><ele>752.0</ele><time>2026-04-12T10:25:48.947Z</time></trkpt><trkpt lat="41.82449863934857" lon="14.179745033869015"><ele>751.0</ele><time>2026-04-12T10:25:49.947Z</time></trkpt><trkpt lat="41.824595755820496" lon="14.179592867694177"><ele>750.0</ele><time>2026-04-12T10:25:50.947Z</time></trkpt><trkpt lat="41.82471517076747" lon="14.17941673732269"><ele>750.0</ele><time>2026-04-12T10:25:51.947Z</time></trkpt><trkpt lat="41.82482573440935" lon="14.179226139932313"><ele>750.0</ele><time>2026-04-12T10:25:52.947Z</time></trkpt><trkpt lat="41.824898199474354" lon="14.179068815843143"><ele>750.0</ele><time>2026-04-12T10:25:53.947Z</time></trkpt><trkpt lat="41.8249421181784" lon="14.17893683537654"><ele>750.0</ele><time>2026-04-12T10:25:54.948Z</time></trkpt><trkpt lat="41.824960959011314" lon="14.17879533676458"><ele>750.0</ele><time>2026-04-12T10:25:55.947Z</time></trkpt><trkpt lat="41.824943199202785" lon="14.17866756107918"><ele>750.0</ele><time>2026-04-12T10:25:56.947Z</time></trkpt><trkpt lat="41.82491301442777" lon="14.178528327392659"><ele>750.0</ele><time>2026-04-12T10:25:57.947Z</time></trkpt><trkpt lat="41.82486564037869" lon="14.178391476294852"><ele>750.0</ele><time>2026-04-12T10:25:58.947Z</time></trkpt><trkpt lat="41.82479082168221" lon="14.178252365248534"><ele>750.0</ele><time>2026-04-12T10:25:59.947Z</time></trkpt><trkpt lat="41.82469560789442" lon="14.178136975123476"><ele>749.8</ele><time>2026-04-12T10:26:00.947Z</time></trkpt><trkpt lat="41.82458975139862" lon="14.178036696784224"><ele>749.6</ele><time>2026-04-12T10:26:01.947Z</time></trkpt><trkpt lat="41.824538738735924" lon="14.177984936974944"><ele>749.4000000000001</ele><time>2026-04-12T10:26:02.947Z</time></trkpt><trkpt lat="41.82445089889561" lon="14.177971518161876"><ele>749.2</ele><time>2026-04-12T10:26:04.947Z</time></trkpt><trkpt lat="41.824332918905625" lon="14.177961168934196"><ele>749.0</ele><time>2026-04-12T10:26:06.947Z</time></trkpt><trkpt lat="41.824279054294344" lon="14.177913589100275"><ele>748.4000000000001</ele><time>2026-04-12T10:26:07.947Z</time></trkpt><trkpt lat="41.82425036379279" lon="14.17777920247806"><ele>747.8</ele><time>2026-04-12T10:26:09.947Z</time></trkpt><trkpt lat="41.82427455763475" lon="14.177661251111417"><ele>747.2</ele><time>2026-04-12T10:26:10.946Z</time></trkpt><trkpt lat="41.82429675502278" lon="14.177578278253732"><ele>746.5999999999999</ele><time>2026-04-12T10:26:11.946Z</time></trkpt><trkpt lat="41.82426085766669" lon="14.177470520734357"><ele>746.0</ele><time>2026-04-12T10:26:14.946Z</time></trkpt><trkpt lat="41.824172207690786" lon="14.177368244000306"><ele>746.4</ele><time>2026-04-12T10:26:15.946Z</time></trkpt><trkpt lat="41.82407521614687" lon="14.17727083848545"><ele>746.8</ele><time>2026-04-12T10:26:16.946Z</time></trkpt><trkpt lat="41.82398524086239" lon="14.17717811274931"><ele>747.1999999999999</ele><time>2026-04-12T10:26:17.946Z</time></trkpt><trkpt lat="41.823918715300465" lon="14.17709669758111"><ele>747.5999999999999</ele><time>2026-04-12T10:26:18.946Z</time></trkpt><trkpt lat="41.82384421700264" lon="14.177025033145753"><ele>748.0</ele><time>2026-04-12T10:26:20.946Z</time></trkpt><trkpt lat="41.82380021852138" lon="14.176950547210673"><ele>748.0</ele><time>2026-04-12T10:26:22.946Z</time></trkpt><trkpt lat="41.82384783253296" lon="14.176847262941527"><ele>748.0</ele><time>2026-04-12T10:26:24.946Z</time></trkpt><trkpt lat="41.82385639059906" lon="14.176726497832622"><ele>748.0</ele><time>2026-04-12T10:26:26.946Z</time></trkpt><trkpt lat="41.8238763046901" lon="14.176586174647632"><ele>748.0</ele><time>2026-04-12T10:26:28.946Z</time></trkpt><trkpt lat="41.823804805152825" lon="14.176438934380144"><ele>748.0</ele><time>2026-04-12T10:26:30.946Z</time></trkpt><trkpt lat="41.82372472497008" lon="14.176339204827888"><ele>749.0</ele><time>2026-04-12T10:26:31.946Z</time></trkpt><trkpt lat="41.823623392502945" lon="14.176228345820878"><ele>750.0</ele><time>2026-04-12T10:26:32.946Z</time></trkpt><trkpt lat="41.823491673244824" lon="14.176079248018262"><ele>751.0</ele><time>2026-04-12T10:26:33.946Z</time></trkpt><trkpt lat="41.823348865365354" lon="14.175967389986107"><ele>751.0</ele><time>2026-04-12T10:26:34.946Z</time></trkpt><trkpt lat="41.823220583433375" lon="14.175846025177297"><ele>751.0</ele><time>2026-04-12T10:26:35.946Z</time></trkpt><trkpt lat="41.823102346401456" lon="14.175718195997748"><ele>751.0</ele><time>2026-04-12T10:26:36.946Z</time></trkpt><trkpt lat="41.82298140438357" lon="14.17560160144817"><ele>751.5</ele><time>2026-04-12T10:26:37.946Z</time></trkpt><trkpt lat="41.82285495991981" lon="14.17547795290567"><ele>752.0</ele><time>2026-04-12T10:26:38.946Z</time></trkpt><trkpt lat="41.8227428682202" lon="14.175374957555562"><ele>752.5</ele><time>2026-04-12T10:26:39.946Z</time></trkpt><trkpt lat="41.82263086845374" lon="14.175289196915749"><ele>753.0</ele><time>2026-04-12T10:26:40.946Z</time></trkpt><trkpt lat="41.822531681047714" lon="14.175193233895934"><ele>753.0</ele><time>2026-04-12T10:26:41.946Z</time></trkpt><trkpt lat="41.822458009950516" lon="14.175084997248822"><ele>753.0</ele><time>2026-04-12T10:26:42.946Z</time></trkpt><trkpt lat="41.822379897205764" lon="14.174959264130282"><ele>753.0</ele><time>2026-04-12T10:26:43.946Z</time></trkpt><trkpt lat="41.822279433696174" lon="14.174857053625612"><ele>753.0</ele><time>2026-04-12T10:26:44.946Z</time></trkpt><trkpt lat="41.822182070063846" lon="14.174744678888285"><ele>753.8</ele><time>2026-04-12T10:26:45.946Z</time></trkpt><trkpt lat="41.822087565632096" lon="14.174646865093978"><ele>754.5999999999999</ele><time>2026-04-12T10:26:46.946Z</time></trkpt><trkpt lat="41.8219978541051" lon="14.174548947834321"><ele>755.4000000000001</ele><time>2026-04-12T10:26:47.946Z</time></trkpt><trkpt lat="41.82191348282259" lon="14.174459464100522"><ele>756.2</ele><time>2026-04-12T10:26:48.946Z</time></trkpt><trkpt lat="41.82184066021189" lon="14.174375387228064"><ele>757.0</ele><time>2026-04-12T10:26:49.946Z</time></trkpt><trkpt lat="41.821794722907065" lon="14.17429329433672"><ele>757.0</ele><time>2026-04-12T10:26:50.946Z</time></trkpt><trkpt lat="41.821768721709276" lon="14.174194395862564"><ele>757.0</ele><time>2026-04-12T10:26:51.946Z</time></trkpt><trkpt lat="41.821783020587425" lon="14.174073951791467"><ele>757.0</ele><time>2026-04-12T10:26:52.946Z</time></trkpt><trkpt lat="41.82184310492913" lon="14.173944589885048"><ele>757.0</ele><time>2026-04-12T10:26:53.946Z</time></trkpt><trkpt lat="41.82190902012245" lon="14.173827336863111"><ele>757.0</ele><time>2026-04-12T10:26:54.946Z</time></trkpt><trkpt lat="41.82187760505092" lon="14.173718467793346"><ele>757.4000000000001</ele><time>2026-04-12T10:26:56.946Z</time></trkpt><trkpt lat="41.82179948568672" lon="14.173675308626251"><ele>757.8000000000001</ele><time>2026-04-12T10:26:57.946Z</time></trkpt><trkpt lat="41.821702527317846" lon="14.173636567543875"><ele>758.2</ele><time>2026-04-12T10:26:58.946Z</time></trkpt><trkpt lat="41.82159442978899" lon="14.173574181026659"><ele>758.6</ele><time>2026-04-12T10:26:59.946Z</time></trkpt><trkpt lat="41.82149095762239" lon="14.173500743728402"><ele>759.0</ele><time>2026-04-12T10:27:00.946Z</time></trkpt><trkpt lat="41.82140118606376" lon="14.173424518322976"><ele>759.0</ele><time>2026-04-12T10:27:01.946Z</time></trkpt><trkpt lat="41.82133914102046" lon="14.173377104469955"><ele>759.0</ele><time>2026-04-12T10:27:02.946Z</time></trkpt><trkpt lat="41.82120445403921" lon="14.173402022089904"><ele>759.0</ele><time>2026-04-12T10:27:04.946Z</time></trkpt><trkpt lat="41.82114184245341" lon="14.17348487953259"><ele>759.0</ele><time>2026-04-12T10:27:05.946Z</time></trkpt><trkpt lat="41.82108621050524" lon="14.173558974396522"><ele>759.0</ele><time>2026-04-12T10:27:07.946Z</time></trkpt><trkpt lat="41.82105235313223" lon="14.173486780737136"><ele>759.0</ele><time>2026-04-12T10:27:09.946Z</time></trkpt><trkpt lat="41.821087726975065" lon="14.173279652468423"><ele>759.0</ele><time>2026-04-12T10:27:40.945Z</time></trkpt><trkpt lat="41.821139923480516" lon="14.173195571196892"><ele>759.0</ele><time>2026-04-12T10:27:41.945Z</time></trkpt><trkpt lat="41.82118058969443" lon="14.17308805687476"><ele>759.0</ele><time>2026-04-12T10:27:42.945Z</time></trkpt><trkpt lat="41.82122027423712" lon="14.1729682402972"><ele>759.0</ele><time>2026-04-12T10:27:43.945Z</time></trkpt><trkpt lat="41.82126410160748" lon="14.172844410163966"><ele>759.0</ele><time>2026-04-12T10:27:44.945Z</time></trkpt><trkpt lat="41.82132270618554" lon="14.172700029671466"><ele>760.2</ele><time>2026-04-12T10:27:45.945Z</time></trkpt><trkpt lat="41.821406386636646" lon="14.172562488973309"><ele>761.4000000000001</ele><time>2026-04-12T10:27:46.945Z</time></trkpt><trkpt lat="41.82147303830464" lon="14.172456131660924"><ele>762.6</ele><time>2026-04-12T10:27:47.945Z</time></trkpt><trkpt lat="41.82151660428419" lon="14.17236881316899"><ele>763.8</ele><time>2026-04-12T10:27:48.945Z</time></trkpt><trkpt lat="41.821515966888455" lon="14.172247328284435"><ele>765.0</ele><time>2026-04-12T10:27:49.945Z</time></trkpt><trkpt lat="41.821490766115616" lon="14.172105123715234"><ele>766.4</ele><time>2026-04-12T10:27:50.945Z</time></trkpt><trkpt lat="41.82146139277858" lon="14.171935333927422"><ele>767.8</ele><time>2026-04-12T10:27:51.945Z</time></trkpt><trkpt lat="41.821429788350834" lon="14.171784384740315"><ele>769.2</ele><time>2026-04-12T10:27:52.945Z</time></trkpt><trkpt lat="41.821399308682786" lon="14.171672230524024"><ele>770.6</ele><time>2026-04-12T10:27:53.945Z</time></trkpt><trkpt lat="41.821392375656146" lon="14.171570825792141"><ele>772.0</ele><time>2026-04-12T10:27:54.946Z</time></trkpt><trkpt lat="41.821388586421975" lon="14.171463422534774"><ele>772.4000000000001</ele><time>2026-04-12T10:27:55.946Z</time></trkpt><trkpt lat="41.821405653971745" lon="14.171354790527337"><ele>772.8000000000001</ele><time>2026-04-12T10:27:56.946Z</time></trkpt><trkpt lat="41.82140663856664" lon="14.171237181394469"><ele>773.2</ele><time>2026-04-12T10:27:57.947Z</time></trkpt><trkpt lat="41.821379106619816" lon="14.171132679997761"><ele>773.6</ele><time>2026-04-12T10:27:58.946Z</time></trkpt><trkpt lat="41.82136478847649" lon="14.171000550438247"><ele>774.0</ele><time>2026-04-12T10:27:59.946Z</time></trkpt><trkpt lat="41.821319381728436" lon="14.17083742990541"><ele>774.0</ele><time>2026-04-12T10:28:00.946Z</time></trkpt><trkpt lat="41.82127425257827" lon="14.17070184619049"><ele>774.0</ele><time>2026-04-12T10:28:01.946Z</time></trkpt><trkpt lat="41.82125384581376" lon="14.170562566255128"><ele>774.0</ele><time>2026-04-12T10:28:02.946Z</time></trkpt><trkpt lat="41.82125013418255" lon="14.17044017718401"><ele>774.0</ele><time>2026-04-12T10:28:03.947Z</time></trkpt><trkpt lat="41.82125833359013" lon="14.170315013783112"><ele>774.0</ele><time>2026-04-12T10:28:04.946Z</time></trkpt><trkpt lat="41.82128119816937" lon="14.17016670297348"><ele>774.8000000000001</ele><time>2026-04-12T10:28:05.946Z</time></trkpt><trkpt lat="41.821257221953026" lon="14.170028327898075"><ele>775.6</ele><time>2026-04-12T10:28:06.947Z</time></trkpt><trkpt lat="41.8212453167531" lon="14.169885829688383"><ele>776.4</ele><time>2026-04-12T10:28:07.946Z</time></trkpt><trkpt lat="41.82124616317007" lon="14.169735826038428"><ele>777.2</ele><time>2026-04-12T10:28:08.946Z</time></trkpt><trkpt lat="41.82124643600838" lon="14.169586920252783"><ele>778.0</ele><time>2026-04-12T10:28:09.946Z</time></trkpt><trkpt lat="41.82126871312677" lon="14.169438607111427"><ele>779.4</ele><time>2026-04-12T10:28:10.946Z</time></trkpt><trkpt lat="41.82130045976575" lon="14.169310165899594"><ele>780.8</ele><time>2026-04-12T10:28:11.946Z</time></trkpt><trkpt lat="41.82133020271623" lon="14.169184880921783"><ele>782.2</ele><time>2026-04-12T10:28:12.946Z</time></trkpt><trkpt lat="41.82138012469007" lon="14.169068367493288"><ele>783.6</ele><time>2026-04-12T10:28:13.946Z</time></trkpt><trkpt lat="41.82143639060481" lon="14.16894253250664"><ele>785.0</ele><time>2026-04-12T10:28:14.946Z</time></trkpt><trkpt lat="41.821482555550745" lon="14.168854911905374"><ele>786.2</ele><time>2026-04-12T10:28:15.946Z</time></trkpt><trkpt lat="41.82156321129777" lon="14.16877314982919"><ele>787.4</ele><time>2026-04-12T10:28:17.946Z</time></trkpt><trkpt lat="41.821616697432944" lon="14.168706924082816"><ele>788.5999999999999</ele><time>2026-04-12T10:28:18.946Z</time></trkpt><trkpt lat="41.82165513238119" lon="14.168601386931499"><ele>789.8</ele><time>2026-04-12T10:28:19.946Z</time></trkpt><trkpt lat="41.82168492447216" lon="14.168465440348264"><ele>791.0</ele><time>2026-04-12T10:28:20.946Z</time></trkpt><trkpt lat="41.821719362761854" lon="14.168343063780291"><ele>791.0</ele><time>2026-04-12T10:28:21.946Z</time></trkpt><trkpt lat="41.82176010526155" lon="14.168248119306414"><ele>791.0</ele><time>2026-04-12T10:28:22.946Z</time></trkpt><trkpt lat="41.82185790778631" lon="14.168183922060342"><ele>791.0</ele><time>2026-04-12T10:28:23.946Z</time></trkpt><trkpt lat="41.822047529835146" lon="14.168144337995944"><ele>791.0</ele><time>2026-04-12T10:28:24.946Z</time></trkpt><trkpt lat="41.82218797746803" lon="14.168125455189513"><ele>792.5999999999999</ele><time>2026-04-12T10:28:25.946Z</time></trkpt><trkpt lat="41.82224967089937" lon="14.168102201204304"><ele>794.2</ele><time>2026-04-12T10:28:26.946Z</time></trkpt><trkpt lat="41.82235647096126" lon="14.168061189312676"><ele>795.8</ele><time>2026-04-12T10:28:28.946Z</time></trkpt><trkpt lat="41.82242192813012" lon="14.167983658213606"><ele>797.4000000000001</ele><time>2026-04-12T10:28:29.946Z</time></trkpt><trkpt lat="41.82249893884933" lon="14.167898349774187"><ele>799.0</ele><time>2026-04-12T10:28:30.946Z</time></trkpt><trkpt lat="41.82257036929769" lon="14.167799182995148"><ele>798.9999999999999</ele><time>2026-04-12T10:28:31.946Z</time></trkpt><trkpt lat="41.822637769841954" lon="14.167730751194723"><ele>799.0</ele><time>2026-04-12T10:28:32.946Z</time></trkpt><trkpt lat="41.822685315766556" lon="14.16764867231868"><ele>799.0</ele><time>2026-04-12T10:28:34.946Z</time></trkpt><trkpt lat="41.8227361415579" lon="14.167567678409661"><ele>799.0</ele><time>2026-04-12T10:28:37.946Z</time></trkpt><trkpt lat="41.8228524970345" lon="14.167558888238164"><ele>798.9999999999999</ele><time>2026-04-12T10:28:52.945Z</time></trkpt><trkpt lat="41.82289514431238" lon="14.167455584767536"><ele>799.0</ele><time>2026-04-12T10:29:06.945Z</time></trkpt><trkpt lat="41.82294785785989" lon="14.167394112090884"><ele>800.25</ele><time>2026-04-12T10:29:07.945Z</time></trkpt><trkpt lat="41.823061119510776" lon="14.167299312238692"><ele>801.5</ele><time>2026-04-12T10:29:08.945Z</time></trkpt><trkpt lat="41.82318938131646" lon="14.167200198387935"><ele>802.75</ele><time>2026-04-12T10:29:09.945Z</time></trkpt><trkpt lat="41.82332806413691" lon="14.16709539774425"><ele>804.0</ele><time>2026-04-12T10:29:10.945Z</time></trkpt><trkpt lat="41.823454654848824" lon="14.166988126162003"><ele>803.5</ele><time>2026-04-12T10:29:11.945Z</time></trkpt><trkpt lat="41.823546145427265" lon="14.166889759971497"><ele>803.0</ele><time>2026-04-12T10:29:12.945Z</time></trkpt><trkpt lat="41.82357226326921" lon="14.166810694514039"><ele>802.5</ele><time>2026-04-12T10:29:13.945Z</time></trkpt><trkpt lat="41.82357983764317" lon="14.166683952721135"><ele>802.0</ele><time>2026-04-12T10:29:15.945Z</time></trkpt><trkpt lat="41.82361992170372" lon="14.166321425284478"><ele>802.0</ele><time>2026-04-12T10:29:27.945Z</time></trkpt><trkpt lat="41.82365339091453" lon="14.166175445604873"><ele>802.0</ele><time>2026-04-12T10:29:28.945Z</time></trkpt><trkpt lat="41.8236831712065" lon="14.166029172091903"><ele>802.0</ele><time>2026-04-12T10:29:29.945Z</time></trkpt><trkpt lat="41.823714633194896" lon="14.165912099965505"><ele>802.0</ele><time>2026-04-12T10:29:30.945Z</time></trkpt><trkpt lat="41.823726260042356" lon="14.165812950661003"><ele>802.0</ele><time>2026-04-12T10:29:31.945Z</time></trkpt><trkpt lat="41.8237628617661" lon="14.165716265858672"><ele>803.25</ele><time>2026-04-12T10:29:32.945Z</time></trkpt><trkpt lat="41.82384151482125" lon="14.165586941334565"><ele>804.5</ele><time>2026-04-12T10:29:33.945Z</time></trkpt><trkpt lat="41.8239010994241" lon="14.165484833403626"><ele>805.75</ele><time>2026-04-12T10:29:34.945Z</time></trkpt><trkpt lat="41.82400882637737" lon="14.165359169512842"><ele>807.0</ele><time>2026-04-12T10:29:36.945Z</time></trkpt><trkpt lat="41.824106231170454" lon="14.165300631626767"><ele>807.0</ele><time>2026-04-12T10:29:37.945Z</time></trkpt><trkpt lat="41.82418507129605" lon="14.16524516768975"><ele>807.0</ele><time>2026-04-12T10:29:38.945Z</time></trkpt><trkpt lat="41.82428789041209" lon="14.165173532858384"><ele>807.0</ele><time>2026-04-12T10:29:39.945Z</time></trkpt><trkpt lat="41.82437402740179" lon="14.16512858095421"><ele>807.0</ele><time>2026-04-12T10:29:40.945Z</time></trkpt><trkpt lat="41.824454375089786" lon="14.165128481602054"><ele>807.0</ele><time>2026-04-12T10:29:41.945Z</time></trkpt><trkpt lat="41.82455278056633" lon="14.165188390355425"><ele>811.2</ele><time>2026-04-12T10:29:42.945Z</time></trkpt><trkpt lat="41.82463641440588" lon="14.165268452460753"><ele>815.4000000000001</ele><time>2026-04-12T10:29:43.945Z</time></trkpt><trkpt lat="41.8247167156413" lon="14.165292968720392"><ele>819.5999999999999</ele><time>2026-04-12T10:29:44.945Z</time></trkpt><trkpt lat="41.824832497778175" lon="14.165293033322282"><ele>823.8</ele><time>2026-04-12T10:29:45.945Z</time></trkpt><trkpt lat="41.824939184068064" lon="14.165305639684464"><ele>828.0</ele><time>2026-04-12T10:29:46.945Z</time></trkpt><trkpt lat="41.825060617138526" lon="14.16531919560553"><ele>830.5</ele><time>2026-04-12T10:29:47.945Z</time></trkpt><trkpt lat="41.82515790379027" lon="14.165337796186085"><ele>833.0</ele><time>2026-04-12T10:29:48.945Z</time></trkpt><trkpt lat="41.825267609415405" lon="14.16530872680063"><ele>835.5</ele><time>2026-04-12T10:29:49.945Z</time></trkpt><trkpt lat="41.825389179545965" lon="14.165255293594589"><ele>838.0</ele><time>2026-04-12T10:29:50.945Z</time></trkpt><trkpt lat="41.82550065146576" lon="14.16523553587089"><ele>838.0</ele><time>2026-04-12T10:29:51.945Z</time></trkpt><trkpt lat="41.825576876776694" lon="14.165203790145092"><ele>838.0</ele><time>2026-04-12T10:29:52.945Z</time></trkpt><trkpt lat="41.82563268035213" lon="14.16514641185857"><ele>838.0</ele><time>2026-04-12T10:29:53.945Z</time></trkpt><trkpt lat="41.8257012246458" lon="14.165028217783252"><ele>838.0</ele><time>2026-04-12T10:29:54.945Z</time></trkpt><trkpt lat="41.82580366903623" lon="14.164880130426571"><ele>838.0</ele><time>2026-04-12T10:29:55.945Z</time></trkpt><trkpt lat="41.82585220271352" lon="14.164750105050945"><ele>838.8333333333333</ele><time>2026-04-12T10:29:56.945Z</time></trkpt><trkpt lat="41.825877151946564" lon="14.164625382858137"><ele>839.6666666666666</ele><time>2026-04-12T10:29:57.945Z</time></trkpt><trkpt lat="41.825885048305196" lon="14.164516460757879"><ele>840.5</ele><time>2026-04-12T10:29:58.945Z</time></trkpt><trkpt lat="41.825898489833264" lon="14.164394155973593"><ele>841.3333333333333</ele><time>2026-04-12T10:29:59.945Z</time></trkpt><trkpt lat="41.82596023935567" lon="14.164305247589116"><ele>842.1666666666666</ele><time>2026-04-12T10:30:00.945Z</time></trkpt><trkpt lat="41.826040117230015" lon="14.164273084441593"><ele>843.0</ele><time>2026-04-12T10:30:01.946Z</time></trkpt><trkpt lat="41.8261416508899" lon="14.164252156976024"><ele>843.0</ele><time>2026-04-12T10:30:02.946Z</time></trkpt><trkpt lat="41.82621469095052" lon="14.164222718861707"><ele>843.0</ele><time>2026-04-12T10:30:03.946Z</time></trkpt><trkpt lat="41.826255999575885" lon="14.164141579634055"><ele>843.0</ele><time>2026-04-12T10:30:04.945Z</time></trkpt><trkpt lat="41.82630800105813" lon="14.163994920824672"><ele>843.0</ele><time>2026-04-12T10:30:06.945Z</time></trkpt><trkpt lat="41.82626777816398" lon="14.16391099040299"><ele>843.0</ele><time>2026-04-12T10:30:08.945Z</time></trkpt><trkpt lat="41.82627077770895" lon="14.163819000989855"><ele>843.0</ele><time>2026-04-12T10:30:10.945Z</time></trkpt><trkpt lat="41.826356414394986" lon="14.163774254986288"><ele>845.2</ele><time>2026-04-12T10:30:12.945Z</time></trkpt><trkpt lat="41.826435992619835" lon="14.16376361014651"><ele>847.4</ele><time>2026-04-12T10:30:13.945Z</time></trkpt><trkpt lat="41.82650069828001" lon="14.163705830725549"><ele>849.6000000000001</ele><time>2026-04-12T10:30:14.945Z</time></trkpt><trkpt lat="41.82655412686886" lon="14.163608652433606"><ele>851.8000000000001</ele><time>2026-04-12T10:30:15.945Z</time></trkpt><trkpt lat="41.8266164194412" lon="14.163488574469767"><ele>854.0</ele><time>2026-04-12T10:30:16.945Z</time></trkpt><trkpt lat="41.826682426229645" lon="14.163364073585242"><ele>854.0</ele><time>2026-04-12T10:30:17.945Z</time></trkpt><trkpt lat="41.826711561538254" lon="14.163278228520603"><ele>854.0000000000001</ele><time>2026-04-12T10:30:18.945Z</time></trkpt><trkpt lat="41.82663729930409" lon="14.163154801013711"><ele>854.0000000000001</ele><time>2026-04-12T10:30:20.945Z</time></trkpt><trkpt lat="41.82655396539377" lon="14.163095656836559"><ele>854.0</ele><time>2026-04-12T10:30:21.945Z</time></trkpt><trkpt lat="41.82647607774716" lon="14.163026083717739"><ele>854.0</ele><time>2026-04-12T10:30:22.945Z</time></trkpt><trkpt lat="41.826440817638236" lon="14.162935117543547"><ele>856.4000000000001</ele><time>2026-04-12T10:30:24.944Z</time></trkpt><trkpt lat="41.8264905181194" lon="14.162793387820429"><ele>858.8000000000001</ele><time>2026-04-12T10:30:26.944Z</time></trkpt><trkpt lat="41.82646455487557" lon="14.162698623298619"><ele>861.1999999999999</ele><time>2026-04-12T10:30:27.944Z</time></trkpt><trkpt lat="41.82639409390976" lon="14.162631383712696"><ele>863.5999999999999</ele><time>2026-04-12T10:30:28.944Z</time></trkpt><trkpt lat="41.82631454008828" lon="14.162598194835063"><ele>866.0</ele><time>2026-04-12T10:30:29.944Z</time></trkpt><trkpt lat="41.826228908834516" lon="14.162548099889602"><ele>866.0000000000001</ele><time>2026-04-12T10:30:30.944Z</time></trkpt><trkpt lat="41.826130264758035" lon="14.162478080992958"><ele>866.0</ele><time>2026-04-12T10:30:31.944Z</time></trkpt><trkpt lat="41.82606147116685" lon="14.162407796727766"><ele>866.0</ele><time>2026-04-12T10:30:32.944Z</time></trkpt><trkpt lat="41.8260941489022" lon="14.162316083462587"><ele>866.0</ele><time>2026-04-12T10:30:35.944Z</time></trkpt><trkpt lat="41.82618613469322" lon="14.162253548819429"><ele>866.0000000000001</ele><time>2026-04-12T10:30:37.944Z</time></trkpt><trkpt lat="41.82624808032887" lon="14.162205552787855"><ele>866.0</ele><time>2026-04-12T10:30:38.944Z</time></trkpt><trkpt lat="41.82634059243529" lon="14.16212365240557"><ele>869.1999999999999</ele><time>2026-04-12T10:30:39.944Z</time></trkpt><trkpt lat="41.82645429619074" lon="14.162036185054626"><ele>872.3999999999999</ele><time>2026-04-12T10:30:40.944Z</time></trkpt><trkpt lat="41.82653033525873" lon="14.161963371021043"><ele>875.6</ele><time>2026-04-12T10:30:41.944Z</time></trkpt><trkpt lat="41.82659582405112" lon="14.1619266614438"><ele>878.8</ele><time>2026-04-12T10:30:42.944Z</time></trkpt><trkpt lat="41.826627102644785" lon="14.161844971076034"><ele>882.0</ele><time>2026-04-12T10:30:43.944Z</time></trkpt><trkpt lat="41.826659201614596" lon="14.161736311100412"><ele>882.0</ele><time>2026-04-12T10:30:44.944Z</time></trkpt><trkpt lat="41.82662024978975" lon="14.161572142419454"><ele>882.0</ele><time>2026-04-12T10:30:46.944Z</time></trkpt><trkpt lat="41.82661792255876" lon="14.161471892264691"><ele>882.0</ele><time>2026-04-12T10:30:47.944Z</time></trkpt><trkpt lat="41.82657848155225" lon="14.161385725444413"><ele>882.0</ele><time>2026-04-12T10:30:48.944Z</time></trkpt><trkpt lat="41.82648868626645" lon="14.161366226758506"><ele>882.0</ele><time>2026-04-12T10:30:49.944Z</time></trkpt><trkpt lat="41.8264016487611" lon="14.161344085324897"><ele>886.6</ele><time>2026-04-12T10:30:50.944Z</time></trkpt><trkpt lat="41.82631734464482" lon="14.161359891594312"><ele>891.2</ele><time>2026-04-12T10:30:51.944Z</time></trkpt><trkpt lat="41.82623918244541" lon="14.161419838267275"><ele>895.8</ele><time>2026-04-12T10:30:52.944Z</time></trkpt><trkpt lat="41.82618526106967" lon="14.161363661593622"><ele>900.4</ele><time>2026-04-12T10:30:55.944Z</time></trkpt><trkpt lat="41.826193083866706" lon="14.161265574642522"><ele>905.0</ele><time>2026-04-12T10:30:56.944Z</time></trkpt><trkpt lat="41.82625842983958" lon="14.161100649758964"><ele>905.0</ele><time>2026-04-12T10:30:58.944Z</time></trkpt><trkpt lat="41.826357414476114" lon="14.160970594415772"><ele>905.0</ele><time>2026-04-12T10:30:59.944Z</time></trkpt><trkpt lat="41.82645006831236" lon="14.160863887358742"><ele>905.0</ele><time>2026-04-12T10:31:00.944Z</time></trkpt><trkpt lat="41.8263237305808" lon="14.160844653182854"><ele>905.0</ele><time>2026-04-12T10:31:04.944Z</time></trkpt><trkpt lat="41.82621193220499" lon="14.160878211311479"><ele>905.0</ele><time>2026-04-12T10:31:05.944Z</time></trkpt><trkpt lat="41.82610080188329" lon="14.160915906853264"><ele>905.0</ele><time>2026-04-12T10:31:06.944Z</time></trkpt><trkpt lat="41.82596921852165" lon="14.160926234083789"><ele>905.0</ele><time>2026-04-12T10:31:07.944Z</time></trkpt><trkpt lat="41.8258747582364" lon="14.160889607369368"><ele>905.0</ele><time>2026-04-12T10:31:08.944Z</time></trkpt><trkpt lat="41.825794804535334" lon="14.160790790076955"><ele>906.8</ele><time>2026-04-12T10:31:09.944Z</time></trkpt><trkpt lat="41.82570587103209" lon="14.160666030728404"><ele>908.6</ele><time>2026-04-12T10:31:10.944Z</time></trkpt><trkpt lat="41.825614561968464" lon="14.160562332165394"><ele>910.4000000000001</ele><time>2026-04-12T10:31:11.944Z</time></trkpt><trkpt lat="41.825580182706986" lon="14.160422501706613"><ele>912.2</ele><time>2026-04-12T10:31:13.944Z</time></trkpt><trkpt lat="41.82560235479594" lon="14.160310731343742"><ele>914.0</ele><time>2026-04-12T10:31:14.944Z</time></trkpt><trkpt lat="41.82562827665362" lon="14.160210770477596"><ele>914.0</ele><time>2026-04-12T10:31:15.944Z</time></trkpt><trkpt lat="41.8256624367397" lon="14.16009551681126"><ele>914.0000000000001</ele><time>2026-04-12T10:31:16.944Z</time></trkpt><trkpt lat="41.82565915079137" lon="14.15996398575702"><ele>914.0000000000001</ele><time>2026-04-12T10:31:17.944Z</time></trkpt><trkpt lat="41.825631631465875" lon="14.159791899598806"><ele>914.0</ele><time>2026-04-12T10:31:18.944Z</time></trkpt><trkpt lat="41.82561073565256" lon="14.15963838619202"><ele>914.0</ele><time>2026-04-12T10:31:19.944Z</time></trkpt><trkpt lat="41.825595786748465" lon="14.159500124382845"><ele>914.6</ele><time>2026-04-12T10:31:20.944Z</time></trkpt><trkpt lat="41.82557653630348" lon="14.159406064502784"><ele>915.2</ele><time>2026-04-12T10:31:21.944Z</time></trkpt><trkpt lat="41.8255832039739" lon="14.15921293191598"><ele>915.8000000000001</ele><time>2026-04-12T10:31:23.944Z</time></trkpt><trkpt lat="41.82555506565276" lon="14.15910577195692"><ele>916.4000000000001</ele><time>2026-04-12T10:31:24.944Z</time></trkpt><trkpt lat="41.825590529276525" lon="14.158936899858283"><ele>917.0</ele><time>2026-04-12T10:31:26.944Z</time></trkpt><trkpt lat="41.82562521867769" lon="14.158858991386733"><ele>917.0000000000001</ele><time>2026-04-12T10:31:27.944Z</time></trkpt><trkpt lat="41.82563719647752" lon="14.158758201521476"><ele>917.0</ele><time>2026-04-12T10:31:28.944Z</time></trkpt><trkpt lat="41.8256577808951" lon="14.158651701549667"><ele>917.0</ele><time>2026-04-12T10:31:29.944Z</time></trkpt><trkpt lat="41.82567916562018" lon="14.158535284204307"><ele>917.0</ele><time>2026-04-12T10:31:31.944Z</time></trkpt><trkpt lat="41.8257037150372" lon="14.158454279046548"><ele>917.0000000000001</ele><time>2026-04-12T10:32:08.944Z</time></trkpt><trkpt lat="41.82570239478124" lon="14.158342127386005"><ele>917.0</ele><time>2026-04-12T10:32:13.944Z</time></trkpt><trkpt lat="41.82573503097915" lon="14.15821909942594"><ele>917.8333333333334</ele><time>2026-04-12T10:32:15.944Z</time></trkpt><trkpt lat="41.8257495423142" lon="14.158130615609616"><ele>918.6666666666667</ele><time>2026-04-12T10:32:16.945Z</time></trkpt><trkpt lat="41.82580864636684" lon="14.15804197105136"><ele>919.5</ele><time>2026-04-12T10:32:17.945Z</time></trkpt><trkpt lat="41.82586731129541" lon="14.157956471600839"><ele>920.3333333333333</ele><time>2026-04-12T10:32:18.944Z</time></trkpt><trkpt lat="41.8259187595865" lon="14.15790327084849"><ele>921.1666666666666</ele><time>2026-04-12T10:32:19.944Z</time></trkpt><trkpt lat="41.82601717621075" lon="14.157867790259369"><ele>922.0</ele><time>2026-04-12T10:32:21.944Z</time></trkpt><trkpt lat="41.82611458110595" lon="14.157791656471979"><ele>922.0</ele><time>2026-04-12T10:32:23.944Z</time></trkpt><trkpt lat="41.8261798854132" lon="14.157748174823618"><ele>922.0</ele><time>2026-04-12T10:32:24.944Z</time></trkpt><trkpt lat="41.826280762235854" lon="14.157691985983776"><ele>922.0</ele><time>2026-04-12T10:32:25.944Z</time></trkpt><trkpt lat="41.82647448488373" lon="14.15763707783493"><ele>922.0</ele><time>2026-04-12T10:32:27.944Z</time></trkpt><trkpt lat="41.82653363887421" lon="14.1575819409023"><ele>922.0</ele><time>2026-04-12T10:32:28.944Z</time></trkpt><trkpt lat="41.82662157525049" lon="14.157503063664022"><ele>922.0</ele><time>2026-04-12T10:32:29.944Z</time></trkpt><trkpt lat="41.82673244344766" lon="14.157406901711889"><ele>922.0</ele><time>2026-04-12T10:32:30.944Z</time></trkpt><trkpt lat="41.82680935264053" lon="14.157308296052403"><ele>922.0</ele><time>2026-04-12T10:32:31.944Z</time></trkpt><trkpt lat="41.8268616543898" lon="14.157186751713487"><ele>922.0</ele><time>2026-04-12T10:32:32.944Z</time></trkpt><trkpt lat="41.826904979828306" lon="14.157072291983619"><ele>923.2</ele><time>2026-04-12T10:32:33.944Z</time></trkpt><trkpt lat="41.826953603069114" lon="14.156968128742946"><ele>924.4000000000001</ele><time>2026-04-12T10:32:34.944Z</time></trkpt><trkpt lat="41.82701484491651" lon="14.156890918330545"><ele>925.5999999999999</ele><time>2026-04-12T10:32:35.944Z</time></trkpt><trkpt lat="41.82708378618163" lon="14.156826566856145"><ele>926.8</ele><time>2026-04-12T10:32:36.944Z</time></trkpt><trkpt lat="41.82711159784394" lon="14.156680226633329"><ele>928.0</ele><time>2026-04-12T10:32:38.944Z</time></trkpt><trkpt lat="41.82712693116135" lon="14.156562104387712"><ele>924.8</ele><time>2026-04-12T10:32:40.943Z</time></trkpt><trkpt lat="41.827202317503726" lon="14.156438470753683"><ele>921.5999999999999</ele><time>2026-04-12T10:32:42.943Z</time></trkpt><trkpt lat="41.827256746056015" lon="14.156361204085739"><ele>918.4000000000001</ele><time>2026-04-12T10:32:43.943Z</time></trkpt><trkpt lat="41.82733816156854" lon="14.156302206511821"><ele>915.2</ele><time>2026-04-12T10:32:44.943Z</time></trkpt><trkpt lat="41.82743170590946" lon="14.156287373071196"><ele>912.0</ele><time>2026-04-12T10:32:45.943Z</time></trkpt><trkpt lat="41.82751643998063" lon="14.156302055233393"><ele>912.0</ele><time>2026-04-12T10:32:46.943Z</time></trkpt><trkpt lat="41.827590246345125" lon="14.156332474980287"><ele>912.0</ele><time>2026-04-12T10:32:47.943Z</time></trkpt><trkpt lat="41.82767421573485" lon="14.15636145625265"><ele>912.0</ele><time>2026-04-12T10:32:48.943Z</time></trkpt><trkpt lat="41.827731650974115" lon="14.156311635148377"><ele>912.0</ele><time>2026-04-12T10:32:49.943Z</time></trkpt><trkpt lat="41.82781136584001" lon="14.156256894180322"><ele>912.0</ele><time>2026-04-12T10:32:50.943Z</time></trkpt><trkpt lat="41.82793284182769" lon="14.156221994036743"><ele>912.0</ele><time>2026-04-12T10:32:52.943Z</time></trkpt><trkpt lat="41.82801185109042" lon="14.156230629504233"><ele>913.0</ele><time>2026-04-12T10:32:53.943Z</time></trkpt><trkpt lat="41.82807676161999" lon="14.156245057206775"><ele>914.0</ele><time>2026-04-12T10:32:54.943Z</time></trkpt><trkpt lat="41.82815767790656" lon="14.156264861861876"><ele>915.0</ele><time>2026-04-12T10:32:56.943Z</time></trkpt><trkpt lat="41.82821394138824" lon="14.156142527943413"><ele>916.0</ele><time>2026-04-12T10:32:59.943Z</time></trkpt><trkpt lat="41.82829755041268" lon="14.155968197074781"><ele>917.0</ele><time>2026-04-12T10:33:01.943Z</time></trkpt><trkpt lat="41.82834801883081" lon="14.155846500061092"><ele>917.0</ele><time>2026-04-12T10:33:03.943Z</time></trkpt><trkpt lat="41.82833180475499" lon="14.155751452811897"><ele>917.0</ele><time>2026-04-12T10:33:04.943Z</time></trkpt><trkpt lat="41.82830331311755" lon="14.155671669280258"><ele>917.0</ele><time>2026-04-12T10:33:05.943Z</time></trkpt><trkpt lat="41.82829242814742" lon="14.155502371219875"><ele>917.0</ele><time>2026-04-12T10:33:07.943Z</time></trkpt><trkpt lat="41.82835827386769" lon="14.155307475753329"><ele>917.0</ele><time>2026-04-12T10:33:09.943Z</time></trkpt><trkpt lat="41.82841685370719" lon="14.155245379522146"><ele>918.4000000000001</ele><time>2026-04-12T10:33:10.943Z</time></trkpt><trkpt lat="41.82847950894973" lon="14.15511455763958"><ele>919.8000000000001</ele><time>2026-04-12T10:33:12.943Z</time></trkpt><trkpt lat="41.828478362944075" lon="14.154996000745085"><ele>921.2</ele><time>2026-04-12T10:33:13.943Z</time></trkpt><trkpt lat="41.82849801129972" lon="14.15486691971649"><ele>922.6</ele><time>2026-04-12T10:33:14.943Z</time></trkpt><trkpt lat="41.82851767965908" lon="14.154698231645158"><ele>924.0</ele><time>2026-04-12T10:33:15.943Z</time></trkpt><trkpt lat="41.82855312521377" lon="14.154537536400841"><ele>924.0</ele><time>2026-04-12T10:33:16.943Z</time></trkpt><trkpt lat="41.82854950805984" lon="14.154398039642128"><ele>924.0000000000001</ele><time>2026-04-12T10:33:17.943Z</time></trkpt><trkpt lat="41.828505563130236" lon="14.154272509022132"><ele>924.0000000000001</ele><time>2026-04-12T10:33:18.943Z</time></trkpt><trkpt lat="41.828464132533014" lon="14.154165267873084"><ele>924.0</ele><time>2026-04-12T10:33:19.943Z</time></trkpt><trkpt lat="41.82844166540894" lon="14.154083293931746"><ele>924.0</ele><time>2026-04-12T10:33:20.943Z</time></trkpt><trkpt lat="41.82842667705179" lon="14.153953345493417"><ele>918.4000000000001</ele><time>2026-04-12T10:33:21.943Z</time></trkpt><trkpt lat="41.82843186245782" lon="14.153806674862935"><ele>912.8000000000001</ele><time>2026-04-12T10:33:22.943Z</time></trkpt><trkpt lat="41.828447197433654" lon="14.153628150873294"><ele>907.1999999999999</ele><time>2026-04-12T10:33:23.943Z</time></trkpt><trkpt lat="41.82843528170631" lon="14.153525722380342"><ele>901.5999999999999</ele><time>2026-04-12T10:33:24.943Z</time></trkpt><trkpt lat="41.82839328059212" lon="14.15338412634775"><ele>896.0</ele><time>2026-04-12T10:33:25.943Z</time></trkpt><trkpt lat="41.82835531451271" lon="14.153221559638398"><ele>895.1999999999999</ele><time>2026-04-12T10:33:26.943Z</time></trkpt><trkpt lat="41.82833035355243" lon="14.153046001978858"><ele>894.3999999999999</ele><time>2026-04-12T10:33:27.943Z</time></trkpt><trkpt lat="41.828305116362685" lon="14.15292759703425"><ele>893.6</ele><time>2026-04-12T10:33:28.943Z</time></trkpt><trkpt lat="41.82829209950965" lon="14.152812598495398"><ele>892.8</ele><time>2026-04-12T10:33:30.943Z</time></trkpt><trkpt lat="41.828294150035326" lon="14.152703160248143"><ele>892.0</ele><time>2026-04-12T10:33:32.943Z</time></trkpt><trkpt lat="41.8282840396389" lon="14.152611269778008"><ele>891.9999999999999</ele><time>2026-04-12T10:33:36.943Z</time></trkpt><trkpt lat="41.82832440252847" lon="14.152499685538304"><ele>892.0</ele><time>2026-04-12T10:33:38.943Z</time></trkpt><trkpt lat="41.82836397369163" lon="14.152411054490152"><ele>892.0</ele><time>2026-04-12T10:33:39.943Z</time></trkpt><trkpt lat="41.82839855373286" lon="14.152321857396904"><ele>892.0</ele><time>2026-04-12T10:33:40.943Z</time></trkpt><trkpt lat="41.82845024706208" lon="14.152215725630022"><ele>891.9999999999999</ele><time>2026-04-12T10:33:41.943Z</time></trkpt><trkpt lat="41.828488547282475" lon="14.152130412474037"><ele>892.0</ele><time>2026-04-12T10:33:42.943Z</time></trkpt><trkpt lat="41.828549296920215" lon="14.152070141975972"><ele>892.8333333333333</ele><time>2026-04-12T10:33:43.943Z</time></trkpt><trkpt lat="41.82861312729645" lon="14.152026801404885"><ele>893.6666666666666</ele><time>2026-04-12T10:33:44.943Z</time></trkpt><trkpt lat="41.828677223147594" lon="14.152012764283555"><ele>894.5</ele><time>2026-04-12T10:33:45.943Z</time></trkpt><trkpt lat="41.82877674629671" lon="14.1519824532953"><ele>895.3333333333333</ele><time>2026-04-12T10:33:47.943Z</time></trkpt><trkpt lat="41.82881899035687" lon="14.152061005667889"><ele>896.1666666666666</ele><time>2026-04-12T10:33:50.942Z</time></trkpt><trkpt lat="41.82884152887184" lon="14.152183860394068"><ele>897.0</ele><time>2026-04-12T10:33:52.942Z</time></trkpt><trkpt lat="41.8289475219" lon="14.152209200026386"><ele>897.0</ele><time>2026-04-12T10:33:54.942Z</time></trkpt><trkpt lat="41.8290150057084" lon="14.152235216348195"><ele>897.0</ele><time>2026-04-12T10:33:55.942Z</time></trkpt><trkpt lat="41.82909842039298" lon="14.152312260881786"><ele>897.0</ele><time>2026-04-12T10:33:56.942Z</time></trkpt><trkpt lat="41.82916292604919" lon="14.152384731375204"><ele>897.0</ele><time>2026-04-12T10:33:57.942Z</time></trkpt><trkpt lat="41.82921702092053" lon="14.15245440701209"><ele>897.0</ele><time>2026-04-12T10:33:58.942Z</time></trkpt><trkpt lat="41.82927952305728" lon="14.1525228586524"><ele>897.0</ele><time>2026-04-12T10:33:59.942Z</time></trkpt><trkpt lat="41.82933756461597" lon="14.152581336074054"><ele>900.4000000000001</ele><time>2026-04-12T10:34:00.942Z</time></trkpt><trkpt lat="41.82939251718347" lon="14.152636416004404"><ele>903.8000000000001</ele><time>2026-04-12T10:34:01.942Z</time></trkpt><trkpt lat="41.82950535600928" lon="14.15271570065256"><ele>907.2</ele><time>2026-04-12T10:34:03.942Z</time></trkpt><trkpt lat="41.829585505023715" lon="14.152748189268303"><ele>910.6</ele><time>2026-04-12T10:34:04.942Z</time></trkpt><trkpt lat="41.82966873383683" lon="14.152785337108375"><ele>914.0</ele><time>2026-04-12T10:34:05.942Z</time></trkpt><trkpt lat="41.82976548198181" lon="14.152820706506636"><ele>914.0000000000001</ele><time>2026-04-12T10:34:06.942Z</time></trkpt><trkpt lat="41.829869144066315" lon="14.152854003131518"><ele>914.0</ele><time>2026-04-12T10:34:07.942Z</time></trkpt><trkpt lat="41.82995830613355" lon="14.152874932065664"><ele>914.0</ele><time>2026-04-12T10:34:08.942Z</time></trkpt><trkpt lat="41.83003595000089" lon="14.152876877622113"><ele>914.0</ele><time>2026-04-12T10:34:09.942Z</time></trkpt><trkpt lat="41.83009842556963" lon="14.152858267948725"><ele>914.0000000000001</ele><time>2026-04-12T10:34:10.942Z</time></trkpt><trkpt lat="41.83016070738517" lon="14.152838255413503"><ele>914.0</ele><time>2026-04-12T10:34:11.942Z</time></trkpt><trkpt lat="41.83023133959368" lon="14.152826944418777"><ele>919.2</ele><time>2026-04-12T10:34:12.944Z</time></trkpt><trkpt lat="41.83031295195904" lon="14.152821041794134"><ele>924.4000000000001</ele><time>2026-04-12T10:34:13.944Z</time></trkpt><trkpt lat="41.83038803149486" lon="14.15282493093482"><ele>929.6</ele><time>2026-04-12T10:34:14.944Z</time></trkpt><trkpt lat="41.83047372580732" lon="14.152831934240327"><ele>934.8</ele><time>2026-04-12T10:34:15.943Z</time></trkpt><trkpt lat="41.83056657253533" lon="14.152838968749625"><ele>940.0</ele><time>2026-04-12T10:34:16.944Z</time></trkpt><trkpt lat="41.83069474293433" lon="14.15277027268367"><ele>940.0</ele><time>2026-04-12T10:34:18.944Z</time></trkpt><trkpt lat="41.830748679199" lon="14.152700434751301"><ele>939.9999999999999</ele><time>2026-04-12T10:34:19.944Z</time></trkpt><trkpt lat="41.8307770096562" lon="14.152623241526106"><ele>940.0</ele><time>2026-04-12T10:34:20.943Z</time></trkpt><trkpt lat="41.83077550250619" lon="14.152523872537323"><ele>940.0</ele><time>2026-04-12T10:34:21.944Z</time></trkpt><trkpt lat="41.830762824116164" lon="14.15240859488448"><ele>939.9999999999999</ele><time>2026-04-12T10:34:22.944Z</time></trkpt><trkpt lat="41.830753072678874" lon="14.152303434467983"><ele>940.0</ele><time>2026-04-12T10:34:23.944Z</time></trkpt><trkpt lat="41.83075815288673" lon="14.152215669146658"><ele>940.0</ele><time>2026-04-12T10:34:24.944Z</time></trkpt><trkpt lat="41.830826654613325" lon="14.152095689083739"><ele>939.1666666666666</ele><time>2026-04-12T10:34:26.944Z</time></trkpt><trkpt lat="41.8308776106391" lon="14.152011865999702"><ele>938.3333333333333</ele><time>2026-04-12T10:34:27.944Z</time></trkpt><trkpt lat="41.83094118518327" lon="14.151930572422632"><ele>937.5</ele><time>2026-04-12T10:34:28.944Z</time></trkpt><trkpt lat="41.83100850601487" lon="14.151894937094134"><ele>936.6666666666667</ele><time>2026-04-12T10:34:29.944Z</time></trkpt><trkpt lat="41.83108837569237" lon="14.151946296358606"><ele>935.8333333333334</ele><time>2026-04-12T10:34:30.944Z</time></trkpt><trkpt lat="41.83116427047184" lon="14.15202156850911"><ele>935.0</ele><time>2026-04-12T10:34:31.944Z</time></trkpt><trkpt lat="41.831252323050194" lon="14.152083131015335"><ele>937.3333333333334</ele><time>2026-04-12T10:34:32.945Z</time></trkpt><trkpt lat="41.83134183964419" lon="14.152115462619669"><ele>939.6666666666667</ele><time>2026-04-12T10:34:33.945Z</time></trkpt><trkpt lat="41.83142688087504" lon="14.152102845071838"><ele>942.0</ele><time>2026-04-12T10:34:34.946Z</time></trkpt><trkpt lat="41.83148887617807" lon="14.152065130557869"><ele>944.3333333333333</ele><time>2026-04-12T10:34:35.946Z</time></trkpt><trkpt lat="41.831560524785125" lon="14.152051723155546"><ele>946.6666666666666</ele><time>2026-04-12T10:34:36.947Z</time></trkpt><trkpt lat="41.831642291462536" lon="14.152074059873591"><ele>949.0</ele><time>2026-04-12T10:34:37.947Z</time></trkpt><trkpt lat="41.83173021307779" lon="14.152109702546857"><ele>948.9999999999999</ele><time>2026-04-12T10:34:38.948Z</time></trkpt><trkpt lat="41.83176838120843" lon="14.152243629450508"><ele>949.0</ele><time>2026-04-12T10:34:40.948Z</time></trkpt><trkpt lat="41.83169840427321" lon="14.152311633872143"><ele>949.0</ele><time>2026-04-12T10:34:41.949Z</time></trkpt><trkpt lat="41.831627357859006" lon="14.1523308214081"><ele>949.0</ele><time>2026-04-12T10:34:42.949Z</time></trkpt><trkpt lat="41.83160586852842" lon="14.152440892681456"><ele>948.9999999999999</ele><time>2026-04-12T10:34:44.949Z</time></trkpt><trkpt lat="41.831657363462654" lon="14.152510979874382"><ele>949.0</ele><time>2026-04-12T10:34:45.95Z</time></trkpt><trkpt lat="41.83173502105234" lon="14.152563322911075"><ele>952.4000000000001</ele><time>2026-04-12T10:34:46.95Z</time></trkpt><trkpt lat="41.831783164718836" lon="14.152628563672556"><ele>955.8000000000001</ele><time>2026-04-12T10:34:47.95Z</time></trkpt><trkpt lat="41.83184121958674" lon="14.152729054416811"><ele>959.1999999999999</ele><time>2026-04-12T10:34:48.95Z</time></trkpt><trkpt lat="41.83190352010176" lon="14.152839292161824"><ele>962.5999999999999</ele><time>2026-04-12T10:34:49.951Z</time></trkpt><trkpt lat="41.831965363915266" lon="14.152950376359492"><ele>966.0</ele><time>2026-04-12T10:34:50.951Z</time></trkpt><trkpt lat="41.8320561094865" lon="14.153016984844644"><ele>967.6666666666666</ele><time>2026-04-12T10:34:51.951Z</time></trkpt><trkpt lat="41.8321308549024" lon="14.153049465281493"><ele>969.3333333333333</ele><time>2026-04-12T10:34:52.951Z</time></trkpt><trkpt lat="41.83220522115103" lon="14.153100662545912"><ele>971.0</ele><time>2026-04-12T10:34:53.951Z</time></trkpt><trkpt lat="41.83226160260584" lon="14.153166070502682"><ele>972.6666666666666</ele><time>2026-04-12T10:34:54.951Z</time></trkpt><trkpt lat="41.832333205001206" lon="14.153243312296382"><ele>974.3333333333333</ele><time>2026-04-12T10:34:55.951Z</time></trkpt><trkpt lat="41.83241679280319" lon="14.153305367283325"><ele>976.0</ele><time>2026-04-12T10:34:56.952Z</time></trkpt><trkpt lat="41.8324987712926" lon="14.153345233751455"><ele>978.1666666666666</ele><time>2026-04-12T10:34:57.952Z</time></trkpt><trkpt lat="41.83256643422968" lon="14.15338740313513"><ele>980.3333333333333</ele><time>2026-04-12T10:34:58.952Z</time></trkpt><trkpt lat="41.83263406746005" lon="14.153408629638989"><ele>982.5</ele><time>2026-04-12T10:34:59.952Z</time></trkpt><trkpt lat="41.83269979934339" lon="14.153443826921317"><ele>984.6666666666667</ele><time>2026-04-12T10:35:00.952Z</time></trkpt><trkpt lat="41.832761989115134" lon="14.153477538216775"><ele>986.8333333333334</ele><time>2026-04-12T10:35:01.952Z</time></trkpt><trkpt lat="41.832833312187326" lon="14.153582665999568"><ele>989.0</ele><time>2026-04-12T10:35:03.952Z</time></trkpt><trkpt lat="41.83284479047518" lon="14.153762716233208"><ele>990.8000000000001</ele><time>2026-04-12T10:35:05.952Z</time></trkpt><trkpt lat="41.83278650523198" lon="14.153896001066009"><ele>992.6000000000001</ele><time>2026-04-12T10:35:07.952Z</time></trkpt><trkpt lat="41.832768727613846" lon="14.154012242686212"><ele>994.4</ele><time>2026-04-12T10:35:09.952Z</time></trkpt><trkpt lat="41.83280466492872" lon="14.154146378636439"><ele>996.2</ele><time>2026-04-12T10:35:10.952Z</time></trkpt><trkpt lat="41.83282213402405" lon="14.154274713188576"><ele>998.0</ele><time>2026-04-12T10:35:11.953Z</time></trkpt><trkpt lat="41.832843501899504" lon="14.15441193150271"><ele>1001.25</ele><time>2026-04-12T10:35:12.953Z</time></trkpt><trkpt lat="41.832919271689846" lon="14.154524681723974"><ele>1004.5</ele><time>2026-04-12T10:35:13.953Z</time></trkpt><trkpt lat="41.83303963652103" lon="14.154633393571666"><ele>1007.75</ele><time>2026-04-12T10:35:14.953Z</time></trkpt><trkpt lat="41.83314234115459" lon="14.154711188153863"><ele>1011.0</ele><time>2026-04-12T10:35:15.953Z</time></trkpt><trkpt lat="41.83323662186158" lon="14.15475431669366"><ele>1011.0</ele><time>2026-04-12T10:35:16.953Z</time></trkpt><trkpt lat="41.833300809917446" lon="14.154805167458122"><ele>1011.0</ele><time>2026-04-12T10:35:17.953Z</time></trkpt><trkpt lat="41.83336282546223" lon="14.154875410006285"><ele>1011.0</ele><time>2026-04-12T10:35:18.953Z</time></trkpt><trkpt lat="41.833415861619564" lon="14.154961061157115"><ele>1011.0</ele><time>2026-04-12T10:35:19.953Z</time></trkpt><trkpt lat="41.83348175782404" lon="14.155029954851324"><ele>1011.0</ele><time>2026-04-12T10:35:20.953Z</time></trkpt><trkpt lat="41.83356885290035" lon="14.155017204063626"><ele>1011.0</ele><time>2026-04-12T10:35:21.953Z</time></trkpt><trkpt lat="41.833658283631934" lon="14.155007180874788"><ele>1012.1999999999999</ele><time>2026-04-12T10:35:22.953Z</time></trkpt><trkpt lat="41.83375612494002" lon="14.154993777848938"><ele>1013.3999999999999</ele><time>2026-04-12T10:35:23.953Z</time></trkpt><trkpt lat="41.833870446848046" lon="14.154972608969626"><ele>1014.6</ele><time>2026-04-12T10:35:24.953Z</time></trkpt><trkpt lat="41.8339334948756" lon="14.15494222791063"><ele>1015.8</ele><time>2026-04-12T10:35:25.953Z</time></trkpt><trkpt lat="41.83404070082468" lon="14.154847209873978"><ele>1017.0</ele><time>2026-04-12T10:35:27.953Z</time></trkpt><trkpt lat="41.83412114426803" lon="14.154716487440483"><ele>1017.0</ele><time>2026-04-12T10:35:29.953Z</time></trkpt><trkpt lat="41.83418301666459" lon="14.154682424167982"><ele>1016.9999999999999</ele><time>2026-04-12T10:35:30.953Z</time></trkpt><trkpt lat="41.83425379782499" lon="14.154687902248485"><ele>1017.0</ele><time>2026-04-12T10:35:31.953Z</time></trkpt><trkpt lat="41.83432338849923" lon="14.154722714937414"><ele>1017.0</ele><time>2026-04-12T10:35:32.953Z</time></trkpt><trkpt lat="41.834399008486436" lon="14.15474312697845"><ele>1016.9999999999999</ele><time>2026-04-12T10:35:33.953Z</time></trkpt><trkpt lat="41.83446949251791" lon="14.154747566775507"><ele>1017.0</ele><time>2026-04-12T10:35:34.953Z</time></trkpt><trkpt lat="41.834540460026545" lon="14.154805812451151"><ele>1017.0</ele><time>2026-04-12T10:35:35.953Z</time></trkpt><trkpt lat="41.83458908174412" lon="14.154887225212178"><ele>1019.6</ele><time>2026-04-12T10:35:36.953Z</time></trkpt><trkpt lat="41.83465310992179" lon="14.154924200923245"><ele>1022.2</ele><time>2026-04-12T10:35:37.953Z</time></trkpt><trkpt lat="41.83476385499309" lon="14.154932334898893"><ele>1024.8</ele><time>2026-04-12T10:35:39.953Z</time></trkpt><trkpt lat="41.8348598948132" lon="14.154990955522644"><ele>1027.4</ele><time>2026-04-12T10:35:40.953Z</time></trkpt><trkpt lat="41.83493468660293" lon="14.155067352859888"><ele>1030.0</ele><time>2026-04-12T10:35:41.953Z</time></trkpt><trkpt lat="41.83502108074844" lon="14.155160825159765"><ele>1030.0</ele><time>2026-04-12T10:35:42.953Z</time></trkpt><trkpt lat="41.835093608278065" lon="14.155221464999295"><ele>1030.0</ele><time>2026-04-12T10:35:43.953Z</time></trkpt><trkpt lat="41.83515638311245" lon="14.15524862834331"><ele>1030.0</ele><time>2026-04-12T10:35:44.953Z</time></trkpt><trkpt lat="41.83522233198634" lon="14.155279516575069"><ele>1030.0</ele><time>2026-04-12T10:35:45.953Z</time></trkpt><trkpt lat="41.83531937284288" lon="14.155308203449701"><ele>1030.0</ele><time>2026-04-12T10:35:47.953Z</time></trkpt><trkpt lat="41.835380740383016" lon="14.155341187972924"><ele>1030.0</ele><time>2026-04-12T10:35:49.953Z</time></trkpt><trkpt lat="41.835544494647095" lon="14.155403305456556"><ele>1031.0</ele><time>2026-04-12T10:35:58.953Z</time></trkpt><trkpt lat="41.83565164621228" lon="14.155456053363583"><ele>1032.0</ele><time>2026-04-12T10:36:10.952Z</time></trkpt><trkpt lat="41.8357327250395" lon="14.155484342207526"><ele>1033.0</ele><time>2026-04-12T10:36:11.952Z</time></trkpt><trkpt lat="41.83583100356541" lon="14.155489651043558"><ele>1034.0</ele><time>2026-04-12T10:36:12.952Z</time></trkpt><trkpt lat="41.835924052805865" lon="14.155461916962528"><ele>1035.0</ele><time>2026-04-12T10:36:13.952Z</time></trkpt><trkpt lat="41.83598301458686" lon="14.155398239227964"><ele>1037.2</ele><time>2026-04-12T10:36:14.952Z</time></trkpt><trkpt lat="41.83605273163715" lon="14.155359006458532"><ele>1039.4</ele><time>2026-04-12T10:36:17.952Z</time></trkpt><trkpt lat="41.83612385523929" lon="14.155366195147367"><ele>1041.6</ele><time>2026-04-12T10:36:21.953Z</time></trkpt><trkpt lat="41.83624387344706" lon="14.155360292814525"><ele>1043.8</ele><time>2026-04-12T10:36:24.953Z</time></trkpt><trkpt lat="41.83635080623463" lon="14.155363229721708"><ele>1046.0</ele><time>2026-04-12T10:36:26.954Z</time></trkpt><trkpt lat="41.83644239819735" lon="14.15537568001836"><ele>1046.0</ele><time>2026-04-12T10:36:32.953Z</time></trkpt><trkpt lat="41.836597978000626" lon="14.155349967159337"><ele>1046.0</ele><time>2026-04-12T10:36:35.953Z</time></trkpt><trkpt lat="41.83679180155719" lon="14.155273982535178"><ele>1046.0</ele><time>2026-04-12T10:36:39.953Z</time></trkpt><trkpt lat="41.83686325231721" lon="14.155271257937374"><ele>1046.0</ele><time>2026-04-12T10:36:40.953Z</time></trkpt><trkpt lat="41.836950317407634" lon="14.155228682958967"><ele>1049.0</ele><time>2026-04-12T10:36:41.953Z</time></trkpt><trkpt lat="41.837069298024566" lon="14.155100377901082"><ele>1052.0</ele><time>2026-04-12T10:36:42.953Z</time></trkpt><trkpt lat="41.83720613617116" lon="14.1550486260549"><ele>1055.0</ele><time>2026-04-12T10:36:43.953Z</time></trkpt><trkpt lat="41.83733532971262" lon="14.155032510336904"><ele>1058.0</ele><time>2026-04-12T10:36:44.953Z</time></trkpt><trkpt lat="41.83777432889874" lon="14.15503071493513"><ele>1062.75</ele><time>2026-04-12T10:36:47.953Z</time></trkpt><trkpt lat="41.837913976271594" lon="14.154991479907949"><ele>1067.5</ele><time>2026-04-12T10:36:48.953Z</time></trkpt><trkpt lat="41.838060075038506" lon="14.154937213385642"><ele>1072.25</ele><time>2026-04-12T10:36:49.953Z</time></trkpt><trkpt lat="41.838170505834015" lon="14.154917671560503"><ele>1077.0</ele><time>2026-04-12T10:36:50.953Z</time></trkpt><trkpt lat="41.83828575191567" lon="14.154901091602188"><ele>1077.0</ele><time>2026-04-12T10:36:51.953Z</time></trkpt><trkpt lat="41.83842910164888" lon="14.154872917528264"><ele>1077.0</ele><time>2026-04-12T10:36:52.953Z</time></trkpt><trkpt lat="41.83852866629126" lon="14.154838207559527"><ele>1077.0</ele><time>2026-04-12T10:36:53.953Z</time></trkpt><trkpt lat="41.8386313067428" lon="14.154817043430397"><ele>1077.0</ele><time>2026-04-12T10:36:54.953Z</time></trkpt><trkpt lat="41.838705875404635" lon="14.15478504504853"><ele>1077.0</ele><time>2026-04-12T10:36:55.953Z</time></trkpt><trkpt lat="41.83875604356456" lon="14.154711129817994"><ele>1077.6</ele><time>2026-04-12T10:36:56.953Z</time></trkpt><trkpt lat="41.838824094449606" lon="14.154684142567328"><ele>1078.2</ele><time>2026-04-12T10:36:57.953Z</time></trkpt><trkpt lat="41.838914560362184" lon="14.154629138921708"><ele>1078.8</ele><time>2026-04-12T10:36:59.953Z</time></trkpt><trkpt lat="41.83897754462957" lon="14.15451272490082"><ele>1079.4</ele><time>2026-04-12T10:37:01.953Z</time></trkpt><trkpt lat="41.839021161333505" lon="14.154380516421453"><ele>1080.0</ele><time>2026-04-12T10:37:04.953Z</time></trkpt><trkpt lat="41.839053752447974" lon="14.15427146749317"><ele>1080.0</ele><time>2026-04-12T10:37:06.953Z</time></trkpt><trkpt lat="41.83913827123032" lon="14.154179818345252"><ele>1080.0</ele><time>2026-04-12T10:37:08.953Z</time></trkpt><trkpt lat="41.8392018253915" lon="14.154003307645919"><ele>1080.0</ele><time>2026-04-12T10:37:10.953Z</time></trkpt><trkpt lat="41.839229964668775" lon="14.153904323055333"><ele>1080.0</ele><time>2026-04-12T10:37:11.953Z</time></trkpt><trkpt lat="41.83933345386908" lon="14.15379440563864"><ele>1082.6</ele><time>2026-04-12T10:37:13.953Z</time></trkpt><trkpt lat="41.83941067203794" lon="14.153725994516087"><ele>1085.2</ele><time>2026-04-12T10:37:15.953Z</time></trkpt><trkpt lat="41.83949914321009" lon="14.153718921434038"><ele>1087.8</ele><time>2026-04-12T10:37:25.953Z</time></trkpt><trkpt lat="41.8395733882472" lon="14.153610785631777"><ele>1090.4</ele><time>2026-04-12T10:37:31.952Z</time></trkpt><trkpt lat="41.839661348439286" lon="14.153506549257628"><ele>1093.0</ele><time>2026-04-12T10:37:33.952Z</time></trkpt><trkpt lat="41.839759315844546" lon="14.153441639562564"><ele>1093.0</ele><time>2026-04-12T10:37:35.952Z</time></trkpt><trkpt lat="41.83985779498031" lon="14.153427476286005"><ele>1093.0</ele><time>2026-04-12T10:37:37.952Z</time></trkpt><trkpt lat="41.83995766935844" lon="14.153393059859084"><ele>1093.0</ele><time>2026-04-12T10:37:39.952Z</time></trkpt><trkpt lat="41.840030543689764" lon="14.153380647135759"><ele>1093.0</ele><time>2026-04-12T10:37:40.952Z</time></trkpt><trkpt lat="41.84011922709201" lon="14.153351905260783"><ele>1093.0</ele><time>2026-04-12T10:37:42.952Z</time></trkpt><trkpt lat="41.84016572719623" lon="14.153230889087329"><ele>1093.4</ele><time>2026-04-12T10:37:44.952Z</time></trkpt><trkpt lat="41.84020873780045" lon="14.15315601454573"><ele>1093.8</ele><time>2026-04-12T10:37:45.952Z</time></trkpt><trkpt lat="41.84022509580014" lon="14.15304129920057"><ele>1094.2</ele><time>2026-04-12T10:37:46.952Z</time></trkpt><trkpt lat="41.84022884462933" lon="14.15292436836729"><ele>1094.6</ele><time>2026-04-12T10:37:47.952Z</time></trkpt><trkpt lat="41.840205424402065" lon="14.152835454836701"><ele>1095.0</ele><time>2026-04-12T10:37:48.952Z</time></trkpt><trkpt lat="41.84023057237229" lon="14.152656475390046"><ele>1095.0</ele><time>2026-04-12T10:37:50.952Z</time></trkpt><trkpt lat="41.84029831691878" lon="14.15259603588271"><ele>1095.0</ele><time>2026-04-12T10:37:51.952Z</time></trkpt><trkpt lat="41.840382459816304" lon="14.152550917948435"><ele>1095.0</ele><time>2026-04-12T10:37:52.952Z</time></trkpt><trkpt lat="41.84045712317086" lon="14.152536792069522"><ele>1095.0</ele><time>2026-04-12T10:37:53.952Z</time></trkpt><trkpt lat="41.8405352813695" lon="14.152509052100921"><ele>1095.0</ele><time>2026-04-12T10:37:54.952Z</time></trkpt><trkpt lat="41.84060639510261" lon="14.152478105153614"><ele>1095.0</ele><time>2026-04-12T10:37:55.952Z</time></trkpt><trkpt lat="41.84073774467356" lon="14.152448024036051"><ele>1095.0</ele><time>2026-04-12T10:37:57.952Z</time></trkpt><trkpt lat="41.84083919522768" lon="14.152375264247649"><ele>1095.0</ele><time>2026-04-12T10:37:59.952Z</time></trkpt><trkpt lat="41.84090038924456" lon="14.152329537016094"><ele>1095.0</ele><time>2026-04-12T10:38:01.952Z</time></trkpt><trkpt lat="41.840939978946494" lon="14.152243568367737"><ele>1095.0</ele><time>2026-04-12T10:38:02.952Z</time></trkpt><trkpt lat="41.840957064537385" lon="14.152151398592547"><ele>1095.0</ele><time>2026-04-12T10:38:03.952Z</time></trkpt><trkpt lat="41.84098765381446" lon="14.152051026386662"><ele>1095.0</ele><time>2026-04-12T10:38:04.952Z</time></trkpt><trkpt lat="41.84101703346319" lon="14.151971455922526"><ele>1094.2</ele><time>2026-04-12T10:38:05.952Z</time></trkpt><trkpt lat="41.841075648835485" lon="14.151871938830665"><ele>1093.4</ele><time>2026-04-12T10:38:06.952Z</time></trkpt><trkpt lat="41.841135235601186" lon="14.15182142423512"><ele>1092.6</ele><time>2026-04-12T10:38:07.952Z</time></trkpt><trkpt lat="41.84123211640088" lon="14.151770741679893"><ele>1091.8</ele><time>2026-04-12T10:38:08.952Z</time></trkpt><trkpt lat="41.8413333507742" lon="14.151739350763973"><ele>1091.0</ele><time>2026-04-12T10:38:09.952Z</time></trkpt><trkpt lat="41.841384686779996" lon="14.151648554805256"><ele>1088.0</ele><time>2026-04-12T10:38:10.952Z</time></trkpt><trkpt lat="41.84145341730126" lon="14.151479301157675"><ele>1085.0</ele><time>2026-04-12T10:38:12.952Z</time></trkpt><trkpt lat="41.841504858849355" lon="14.151405480026668"><ele>1082.0</ele><time>2026-04-12T10:38:13.952Z</time></trkpt><trkpt lat="41.841555188877734" lon="14.151323516041202"><ele>1079.0</ele><time>2026-04-12T10:38:14.952Z</time></trkpt><trkpt lat="41.84161728684536" lon="14.151271981669783"><ele>1076.0</ele><time>2026-04-12T10:38:15.952Z</time></trkpt><trkpt lat="41.84169556721902" lon="14.151236948892727"><ele>1076.0</ele><time>2026-04-12T10:38:16.952Z</time></trkpt><trkpt lat="41.84177495851833" lon="14.151207038823818"><ele>1076.0</ele><time>2026-04-12T10:38:17.952Z</time></trkpt><trkpt lat="41.841868126468896" lon="14.151157387271702"><ele>1076.0</ele><time>2026-04-12T10:38:18.952Z</time></trkpt><trkpt lat="41.84196117669208" lon="14.151087758175615"><ele>1076.0</ele><time>2026-04-12T10:38:19.952Z</time></trkpt><trkpt lat="41.842054457399286" lon="14.15098433871569"><ele>1076.0</ele><time>2026-04-12T10:38:20.952Z</time></trkpt><trkpt lat="41.842136362171516" lon="14.15086672385968"><ele>1078.5</ele><time>2026-04-12T10:38:21.952Z</time></trkpt><trkpt lat="41.84222506983535" lon="14.150756355137462"><ele>1081.0</ele><time>2026-04-12T10:38:22.952Z</time></trkpt><trkpt lat="41.842321689503" lon="14.150673123396555"><ele>1083.5</ele><time>2026-04-12T10:38:23.952Z</time></trkpt><trkpt lat="41.84240794531472" lon="14.150589976535153"><ele>1086.0</ele><time>2026-04-12T10:38:24.953Z</time></trkpt><trkpt lat="41.8425071658423" lon="14.150461653287266"><ele>1086.3999999999999</ele><time>2026-04-12T10:38:25.952Z</time></trkpt><trkpt lat="41.84260422568491" lon="14.150339515549181"><ele>1086.8</ele><time>2026-04-12T10:38:26.952Z</time></trkpt><trkpt lat="41.84268882383462" lon="14.15022353045943"><ele>1087.1999999999998</ele><time>2026-04-12T10:38:27.952Z</time></trkpt><trkpt lat="41.842744383120746" lon="14.150119558134472"><ele>1087.6</ele><time>2026-04-12T10:38:28.953Z</time></trkpt><trkpt lat="41.84278793532507" lon="14.150027651014842"><ele>1088.0</ele><time>2026-04-12T10:38:29.953Z</time></trkpt><trkpt lat="41.84279918969241" lon="14.149940815421305"><ele>1092.0</ele><time>2026-04-12T10:38:30.953Z</time></trkpt><trkpt lat="41.842848774721084" lon="14.149804331233211"><ele>1096.0</ele><time>2026-04-12T10:38:32.952Z</time></trkpt><trkpt lat="41.84289769941164" lon="14.149697918538209"><ele>1100.0</ele><time>2026-04-12T10:38:33.952Z</time></trkpt><trkpt lat="41.84294352629376" lon="14.14957719327176"><ele>1104.0</ele><time>2026-04-12T10:38:34.953Z</time></trkpt><trkpt lat="41.84297174000741" lon="14.149444918476773"><ele>1108.0</ele><time>2026-04-12T10:38:35.953Z</time></trkpt><trkpt lat="41.84296669545687" lon="14.149326945165804"><ele>1108.0</ele><time>2026-04-12T10:38:36.953Z</time></trkpt><trkpt lat="41.84296041116665" lon="14.149219577733797"><ele>1108.0</ele><time>2026-04-12T10:38:37.953Z</time></trkpt><trkpt lat="41.842995088719036" lon="14.149095589962366"><ele>1108.0</ele><time>2026-04-12T10:38:39.953Z</time></trkpt><trkpt lat="41.843044112452574" lon="14.148925319861746"><ele>1108.0</ele><time>2026-04-12T10:38:41.953Z</time></trkpt><trkpt lat="41.84307490444646" lon="14.148849141286455"><ele>1108.0</ele><time>2026-04-12T10:38:42.953Z</time></trkpt><trkpt lat="41.843110996575234" lon="14.148756608625705"><ele>1108.0</ele><time>2026-04-12T10:38:43.953Z</time></trkpt><trkpt lat="41.84313494032227" lon="14.148678118533505"><ele>1108.0</ele><time>2026-04-12T10:38:44.953Z</time></trkpt><trkpt lat="41.84317724201682" lon="14.14851933932162"><ele>1108.0</ele><time>2026-04-12T10:38:46.953Z</time></trkpt><trkpt lat="41.84320147496565" lon="14.148424136651844"><ele>1108.0</ele><time>2026-04-12T10:38:47.953Z</time></trkpt><trkpt lat="41.84325576086101" lon="14.148285554178292"><ele>1108.0</ele><time>2026-04-12T10:38:49.953Z</time></trkpt><trkpt lat="41.84330174659542" lon="14.148147375962013"><ele>1107.4</ele><time>2026-04-12T10:38:50.953Z</time></trkpt><trkpt lat="41.843344773885995" lon="14.14804432927779"><ele>1106.8</ele><time>2026-04-12T10:38:51.953Z</time></trkpt><trkpt lat="41.843390408704686" lon="14.147943930156934"><ele>1106.2</ele><time>2026-04-12T10:38:52.953Z</time></trkpt><trkpt lat="41.84344720966555" lon="14.147837516008556"><ele>1105.6</ele><time>2026-04-12T10:38:53.953Z</time></trkpt><trkpt lat="41.84352068333577" lon="14.147701759813476"><ele>1105.0</ele><time>2026-04-12T10:38:54.953Z</time></trkpt><trkpt lat="41.84359079399029" lon="14.147573082929116"><ele>1108.0</ele><time>2026-04-12T10:38:55.953Z</time></trkpt><trkpt lat="41.84365720885561" lon="14.14746064228286"><ele>1111.0</ele><time>2026-04-12T10:38:56.953Z</time></trkpt><trkpt lat="41.84370317739296" lon="14.147376651401729"><ele>1114.0</ele><time>2026-04-12T10:38:57.953Z</time></trkpt><trkpt lat="41.843752166074005" lon="14.147310094913378"><ele>1117.0</ele><time>2026-04-12T10:38:58.953Z</time></trkpt><trkpt lat="41.84378738429313" lon="14.14719455477435"><ele>1120.0</ele><time>2026-04-12T10:38:59.953Z</time></trkpt><trkpt lat="41.84381582312249" lon="14.147078699765965"><ele>1123.0</ele><time>2026-04-12T10:39:00.953Z</time></trkpt><trkpt lat="41.84383041380367" lon="14.146969285443356"><ele>1123.1666666666665</ele><time>2026-04-12T10:39:01.953Z</time></trkpt><trkpt lat="41.843846132340616" lon="14.146849970017254"><ele>1123.3333333333333</ele><time>2026-04-12T10:39:02.953Z</time></trkpt><trkpt lat="41.84388048369227" lon="14.146746094978962"><ele>1123.5</ele><time>2026-04-12T10:39:03.952Z</time></trkpt><trkpt lat="41.84394474543486" lon="14.146645748842907"><ele>1123.6666666666667</ele><time>2026-04-12T10:39:04.952Z</time></trkpt><trkpt lat="41.844017909222465" lon="14.146595948245904"><ele>1123.8333333333335</ele><time>2026-04-12T10:39:05.952Z</time></trkpt><trkpt lat="41.844092442378184" lon="14.146548022797832"><ele>1124.0</ele><time>2026-04-12T10:39:06.952Z</time></trkpt><trkpt lat="41.84418276440977" lon="14.146519780832465"><ele>1125.4</ele><time>2026-04-12T10:39:07.952Z</time></trkpt><trkpt lat="41.84427382623892" lon="14.146512671979258"><ele>1126.8000000000002</ele><time>2026-04-12T10:39:08.952Z</time></trkpt><trkpt lat="41.844368792222056" lon="14.146504643617144"><ele>1128.1999999999998</ele><time>2026-04-12T10:39:09.952Z</time></trkpt><trkpt lat="41.844467777007516" lon="14.146505645592773"><ele>1129.6</ele><time>2026-04-12T10:39:10.952Z</time></trkpt><trkpt lat="41.844575063204985" lon="14.146457419176189"><ele>1131.0</ele><time>2026-04-12T10:39:11.952Z</time></trkpt><trkpt lat="41.84469025581531" lon="14.146372597252096"><ele>1131.0</ele><time>2026-04-12T10:39:12.952Z</time></trkpt><trkpt lat="41.84479178019952" lon="14.146312779205864"><ele>1131.0</ele><time>2026-04-12T10:39:13.952Z</time></trkpt><trkpt lat="41.84490264658497" lon="14.14624200300427"><ele>1131.0</ele><time>2026-04-12T10:39:14.952Z</time></trkpt><trkpt lat="41.84497582633783" lon="14.146163979354602"><ele>1131.0</ele><time>2026-04-12T10:39:15.952Z</time></trkpt><trkpt lat="41.845035362597706" lon="14.146068502099908"><ele>1131.0</ele><time>2026-04-12T10:39:16.952Z</time></trkpt><trkpt lat="41.84507803109336" lon="14.145962072740893"><ele>1131.0</ele><time>2026-04-12T10:39:17.952Z</time></trkpt><trkpt lat="41.84512543125353" lon="14.145833571902362"><ele>1131.0</ele><time>2026-04-12T10:39:18.952Z</time></trkpt><trkpt lat="41.84516098637357" lon="14.14570697851561"><ele>1131.0</ele><time>2026-04-12T10:39:19.952Z</time></trkpt><trkpt lat="41.84518040767485" lon="14.145584392102121"><ele>1131.0</ele><time>2026-04-12T10:39:20.952Z</time></trkpt><trkpt lat="41.845198520314156" lon="14.145460620531514"><ele>1131.0</ele><time>2026-04-12T10:39:21.952Z</time></trkpt><trkpt lat="41.84523096210295" lon="14.145333859032297"><ele>1130.6</ele><time>2026-04-12T10:39:22.952Z</time></trkpt><trkpt lat="41.84528469422641" lon="14.14524369807156"><ele>1130.1999999999998</ele><time>2026-04-12T10:39:23.952Z</time></trkpt><trkpt lat="41.84535115938025" lon="14.145136207683201"><ele>1129.8000000000002</ele><time>2026-04-12T10:39:24.952Z</time></trkpt><trkpt lat="41.845427852149335" lon="14.14502384648064"><ele>1129.4</ele><time>2026-04-12T10:39:25.952Z</time></trkpt><trkpt lat="41.845501867906435" lon="14.144888829558314"><ele>1129.0</ele><time>2026-04-12T10:39:26.952Z</time></trkpt><trkpt lat="41.8455741483486" lon="14.144753688800265"><ele>1129.0</ele><time>2026-04-12T10:39:27.952Z</time></trkpt><trkpt lat="41.845635195017806" lon="14.144623104393133"><ele>1129.0</ele><time>2026-04-12T10:39:28.952Z</time></trkpt><trkpt lat="41.845680821165324" lon="14.144492852268192"><ele>1129.0</ele><time>2026-04-12T10:39:29.952Z</time></trkpt><trkpt lat="41.84571200334309" lon="14.144337155941706"><ele>1129.0</ele><time>2026-04-12T10:39:30.952Z</time></trkpt><trkpt lat="41.84573682995864" lon="14.144177042489378"><ele>1130.0</ele><time>2026-04-12T10:39:31.952Z</time></trkpt><trkpt lat="41.845759614131175" lon="14.144013621152068"><ele>1131.0</ele><time>2026-04-12T10:39:32.952Z</time></trkpt><trkpt lat="41.84577865898477" lon="14.14383876581887"><ele>1132.0</ele><time>2026-04-12T10:39:33.952Z</time></trkpt><trkpt lat="41.84579755043794" lon="14.143681720250687"><ele>1133.0</ele><time>2026-04-12T10:39:34.952Z</time></trkpt><trkpt lat="41.84581566504751" lon="14.143509700668794"><ele>1133.0</ele><time>2026-04-12T10:39:35.952Z</time></trkpt><trkpt lat="41.84584108608434" lon="14.143340816581098"><ele>1133.0</ele><time>2026-04-12T10:39:36.952Z</time></trkpt><trkpt lat="41.845858643938705" lon="14.143182710956111"><ele>1133.0</ele><time>2026-04-12T10:39:37.952Z</time></trkpt><trkpt lat="41.84586704381661" lon="14.143055014873857"><ele>1133.0</ele><time>2026-04-12T10:39:38.952Z</time></trkpt><trkpt lat="41.84588603908097" lon="14.142906151057954"><ele>1134.6</ele><time>2026-04-12T10:39:39.952Z</time></trkpt><trkpt lat="41.845908937029186" lon="14.142762931195074"><ele>1136.1999999999998</ele><time>2026-04-12T10:39:40.952Z</time></trkpt><trkpt lat="41.84594068526275" lon="14.142659932174581"><ele>1137.8</ele><time>2026-04-12T10:39:41.952Z</time></trkpt><trkpt lat="41.84597586700947" lon="14.142584386332992"><ele>1139.3999999999999</ele><time>2026-04-12T10:39:42.952Z</time></trkpt><trkpt lat="41.846037939711564" lon="14.14248292081944"><ele>1141.0</ele><time>2026-04-12T10:39:44.952Z</time></trkpt><trkpt lat="41.84602431020584" lon="14.1422278804265"><ele>1143.3999999999999</ele><time>2026-04-12T10:40:19.952Z</time></trkpt><trkpt lat="41.84599363904237" lon="14.142118812519207"><ele>1145.8</ele><time>2026-04-12T10:40:20.952Z</time></trkpt><trkpt lat="41.845975973293164" lon="14.141968246577523"><ele>1148.1999999999998</ele><time>2026-04-12T10:40:21.952Z</time></trkpt><trkpt lat="41.84595531508237" lon="14.141809311905629"><ele>1150.6</ele><time>2026-04-12T10:40:22.952Z</time></trkpt><trkpt lat="41.84592933487157" lon="14.141655003974336"><ele>1153.0</ele><time>2026-04-12T10:40:23.951Z</time></trkpt><trkpt lat="41.845883428069506" lon="14.141528729487188"><ele>1155.6</ele><time>2026-04-12T10:40:24.951Z</time></trkpt><trkpt lat="41.845834765353814" lon="14.141416580761485"><ele>1158.1999999999998</ele><time>2026-04-12T10:40:25.951Z</time></trkpt><trkpt lat="41.845788569921886" lon="14.14131139682216"><ele>1160.8</ele><time>2026-04-12T10:40:26.951Z</time></trkpt><trkpt lat="41.84574508336198" lon="14.141196346911679"><ele>1163.3999999999999</ele><time>2026-04-12T10:40:27.951Z</time></trkpt><trkpt lat="41.84567947799209" lon="14.141092399302247"><ele>1166.0</ele><time>2026-04-12T10:40:28.951Z</time></trkpt><trkpt lat="41.84558461913995" lon="14.140998021968691"><ele>1166.0</ele><time>2026-04-12T10:40:29.951Z</time></trkpt><trkpt lat="41.84551887198182" lon="14.140913019143484"><ele>1166.0</ele><time>2026-04-12T10:40:30.953Z</time></trkpt><trkpt lat="41.84544134549114" lon="14.140848262763448"><ele>1166.0</ele><time>2026-04-12T10:40:31.953Z</time></trkpt><trkpt lat="41.84537081628762" lon="14.140767756394375"><ele>1166.0</ele><time>2026-04-12T10:40:32.953Z</time></trkpt><trkpt lat="41.845313484545706" lon="14.140688728930835"><ele>1166.0</ele><time>2026-04-12T10:40:33.952Z</time></trkpt><trkpt lat="41.84528317280135" lon="14.140613652371641"><ele>1166.0</ele><time>2026-04-12T10:40:34.951Z</time></trkpt><trkpt lat="41.84528591139641" lon="14.140509820225093"><ele>1168.6666666666667</ele><time>2026-04-12T10:40:35.951Z</time></trkpt><trkpt lat="41.84529662797862" lon="14.140375401089567"><ele>1171.3333333333335</ele><time>2026-04-12T10:40:36.952Z</time></trkpt><trkpt lat="41.84529745466445" lon="14.140270286910443"><ele>1174.0</ele><time>2026-04-12T10:40:37.952Z</time></trkpt><trkpt lat="41.84528648236436" lon="14.140149399267791"><ele>1176.6666666666667</ele><time>2026-04-12T10:40:38.952Z</time></trkpt><trkpt lat="41.845265593186916" lon="14.14005901019861"><ele>1179.3333333333333</ele><time>2026-04-12T10:40:39.952Z</time></trkpt><trkpt lat="41.845229559269974" lon="14.139973603458952"><ele>1182.0</ele><time>2026-04-12T10:40:40.953Z</time></trkpt><trkpt lat="41.8452017652832" lon="14.139888866296054"><ele>1184.6</ele><time>2026-04-12T10:40:41.953Z</time></trkpt><trkpt lat="41.84518851970481" lon="14.139760613797772"><ele>1187.2</ele><time>2026-04-12T10:40:42.952Z</time></trkpt><trkpt lat="41.845195103171086" lon="14.139618771825177"><ele>1189.8</ele><time>2026-04-12T10:40:43.952Z</time></trkpt><trkpt lat="41.84519887629356" lon="14.139445206692985"><ele>1192.4</ele><time>2026-04-12T10:40:44.952Z</time></trkpt><trkpt lat="41.84519230586259" lon="14.139317259266537"><ele>1195.0</ele><time>2026-04-12T10:40:45.952Z</time></trkpt><trkpt lat="41.84517643716171" lon="14.139163964563467"><ele>1196.8</ele><time>2026-04-12T10:40:46.952Z</time></trkpt><trkpt lat="41.84515898174848" lon="14.139047414258059"><ele>1198.6</ele><time>2026-04-12T10:40:47.952Z</time></trkpt><trkpt lat="41.84513468468818" lon="14.138916140592961"><ele>1200.4</ele><time>2026-04-12T10:40:48.952Z</time></trkpt><trkpt lat="41.84511776342958" lon="14.138790367230325"><ele>1202.2</ele><time>2026-04-12T10:40:49.952Z</time></trkpt><trkpt lat="41.84511077098829" lon="14.138656468062761"><ele>1204.0</ele><time>2026-04-12T10:40:50.952Z</time></trkpt><trkpt lat="41.84509208736845" lon="14.13851829945313"><ele>1200.8</ele><time>2026-04-12T10:40:51.952Z</time></trkpt><trkpt lat="41.84507968992579" lon="14.138392582978568"><ele>1197.6000000000001</ele><time>2026-04-12T10:40:52.952Z</time></trkpt><trkpt lat="41.8450610961643" lon="14.13827096937224"><ele>1194.4</ele><time>2026-04-12T10:40:53.952Z</time></trkpt><trkpt lat="41.84503829960603" lon="14.138141183363208"><ele>1191.2</ele><time>2026-04-12T10:40:54.952Z</time></trkpt><trkpt lat="41.84499076650743" lon="14.138017705054883"><ele>1188.0</ele><time>2026-04-12T10:40:55.952Z</time></trkpt><trkpt lat="41.844930039772436" lon="14.137876135135535"><ele>1188.0</ele><time>2026-04-12T10:40:56.952Z</time></trkpt><trkpt lat="41.84486905432789" lon="14.137784913874725"><ele>1188.0</ele><time>2026-04-12T10:40:57.952Z</time></trkpt><trkpt lat="41.84482315058663" lon="14.137681931883767"><ele>1188.0</ele><time>2026-04-12T10:40:58.952Z</time></trkpt><trkpt lat="41.84481696999609" lon="14.137588540609345"><ele>1188.0</ele><time>2026-04-12T10:40:59.952Z</time></trkpt><trkpt lat="41.84482617507953" lon="14.13749230466908"><ele>1188.0</ele><time>2026-04-12T10:41:00.952Z</time></trkpt><trkpt lat="41.844851035435305" lon="14.137394475407163"><ele>1188.0</ele><time>2026-04-12T10:41:01.952Z</time></trkpt><trkpt lat="41.8448895991658" lon="14.137267141237327"><ele>1188.2</ele><time>2026-04-12T10:41:02.952Z</time></trkpt><trkpt lat="41.84491338272076" lon="14.13714587593928"><ele>1188.4</ele><time>2026-04-12T10:41:03.952Z</time></trkpt><trkpt lat="41.8449461071507" lon="14.137019716350068"><ele>1188.6000000000001</ele><time>2026-04-12T10:41:04.952Z</time></trkpt><trkpt lat="41.844975864781944" lon="14.136893108680109"><ele>1188.8</ele><time>2026-04-12T10:41:05.952Z</time></trkpt><trkpt lat="41.845012398102966" lon="14.13676537186563"><ele>1189.0</ele><time>2026-04-12T10:41:06.952Z</time></trkpt><trkpt lat="41.84503542839683" lon="14.136641473954928"><ele>1190.6000000000001</ele><time>2026-04-12T10:41:07.952Z</time></trkpt><trkpt lat="41.84506497132623" lon="14.136527246230495"><ele>1192.2</ele><time>2026-04-12T10:41:08.952Z</time></trkpt><trkpt lat="41.845111341089385" lon="14.136350366528118"><ele>1193.8000000000002</ele><time>2026-04-12T10:41:10.952Z</time></trkpt><trkpt lat="41.84512962281512" lon="14.13624991816382"><ele>1195.4</ele><time>2026-04-12T10:41:11.952Z</time></trkpt><trkpt lat="41.84516665848924" lon="14.136122921514813"><ele>1197.0</ele><time>2026-04-12T10:41:12.952Z</time></trkpt><trkpt lat="41.845202067382445" lon="14.136012063365628"><ele>1197.8333333333333</ele><time>2026-04-12T10:41:13.952Z</time></trkpt><trkpt lat="41.845247492934476" lon="14.135892335255981"><ele>1198.6666666666667</ele><time>2026-04-12T10:41:14.952Z</time></trkpt><trkpt lat="41.84529132500391" lon="14.135769873284247"><ele>1199.5</ele><time>2026-04-12T10:41:15.952Z</time></trkpt><trkpt lat="41.84533721416548" lon="14.13567551000441"><ele>1200.3333333333335</ele><time>2026-04-12T10:41:16.952Z</time></trkpt><trkpt lat="41.84536980479955" lon="14.135582883762776"><ele>1201.1666666666667</ele><time>2026-04-12T10:41:17.952Z</time></trkpt><trkpt lat="41.84541460801037" lon="14.135491953573421"><ele>1202.0</ele><time>2026-04-12T10:41:18.951Z</time></trkpt><trkpt lat="41.845452685762105" lon="14.135363455988461"><ele>1203.2</ele><time>2026-04-12T10:41:19.951Z</time></trkpt><trkpt lat="41.84548089571601" lon="14.135270239949904"><ele>1204.4</ele><time>2026-04-12T10:41:20.951Z</time></trkpt><trkpt lat="41.84552242418111" lon="14.13515216706096"><ele>1205.6</ele><time>2026-04-12T10:41:21.951Z</time></trkpt><trkpt lat="41.84556964085202" lon="14.135042372541406"><ele>1206.8</ele><time>2026-04-12T10:41:22.951Z</time></trkpt><trkpt lat="41.845623640745295" lon="14.134912187322751"><ele>1208.0</ele><time>2026-04-12T10:41:23.951Z</time></trkpt><trkpt lat="41.84568606615644" lon="14.13477984864873"><ele>1208.8</ele><time>2026-04-12T10:41:24.951Z</time></trkpt><trkpt lat="41.845743618466166" lon="14.134654916406285"><ele>1209.6</ele><time>2026-04-12T10:41:25.951Z</time></trkpt><trkpt lat="41.84578715279839" lon="14.13454949053703"><ele>1210.4</ele><time>2026-04-12T10:41:26.951Z</time></trkpt><trkpt lat="41.845837183509516" lon="14.134450053918405"><ele>1211.2</ele><time>2026-04-12T10:41:27.951Z</time></trkpt><trkpt lat="41.845903446727256" lon="14.134372524720687"><ele>1212.0</ele><time>2026-04-12T10:41:28.951Z</time></trkpt><trkpt lat="41.84596120875706" lon="14.134272588568484"><ele>1214.0</ele><time>2026-04-12T10:41:29.951Z</time></trkpt><trkpt lat="41.846007048236906" lon="14.134160483426854"><ele>1216.0</ele><time>2026-04-12T10:41:30.951Z</time></trkpt><trkpt lat="41.846066481027755" lon="14.134063632269005"><ele>1218.0</ele><time>2026-04-12T10:41:31.951Z</time></trkpt><trkpt lat="41.84614051575625" lon="14.133958663952631"><ele>1220.0</ele><time>2026-04-12T10:41:32.951Z</time></trkpt><trkpt lat="41.84621888006249" lon="14.133857414556426"><ele>1222.0</ele><time>2026-04-12T10:41:33.951Z</time></trkpt><trkpt lat="41.84627205782557" lon="14.133764024391022"><ele>1223.0</ele><time>2026-04-12T10:41:34.951Z</time></trkpt><trkpt lat="41.84629677002363" lon="14.133647999358645"><ele>1224.0</ele><time>2026-04-12T10:41:35.951Z</time></trkpt><trkpt lat="41.84630451892813" lon="14.133523519117094"><ele>1225.0</ele><time>2026-04-12T10:41:36.951Z</time></trkpt><trkpt lat="41.84631094035991" lon="14.13337161127351"><ele>1226.0</ele><time>2026-04-12T10:41:37.951Z</time></trkpt><trkpt lat="41.84630504690873" lon="14.1332489677145"><ele>1227.0</ele><time>2026-04-12T10:41:38.951Z</time></trkpt><trkpt lat="41.84628187012407" lon="14.133148109439713"><ele>1228.1666666666667</ele><time>2026-04-12T10:41:39.951Z</time></trkpt><trkpt lat="41.84625376516969" lon="14.133043011835621"><ele>1229.3333333333333</ele><time>2026-04-12T10:41:40.951Z</time></trkpt><trkpt lat="41.84621365736539" lon="14.132936850017686"><ele>1230.5</ele><time>2026-04-12T10:41:41.951Z</time></trkpt><trkpt lat="41.846207205169804" lon="14.132852251671123"><ele>1231.6666666666665</ele><time>2026-04-12T10:41:42.951Z</time></trkpt><trkpt lat="41.84617772858204" lon="14.132675771142646"><ele>1232.8333333333333</ele><time>2026-04-12T10:41:44.951Z</time></trkpt><trkpt lat="41.84615847704699" lon="14.132586629452469"><ele>1234.0</ele><time>2026-04-12T10:41:45.951Z</time></trkpt><trkpt lat="41.846132867444624" lon="14.132492419496723"><ele>1234.0</ele><time>2026-04-12T10:41:46.951Z</time></trkpt><trkpt lat="41.8461164395169" lon="14.13239035421387"><ele>1234.0</ele><time>2026-04-12T10:41:47.951Z</time></trkpt><trkpt lat="41.84611901924953" lon="14.132299299994713"><ele>1234.0</ele><time>2026-04-12T10:41:48.951Z</time></trkpt><trkpt lat="41.84612642929518" lon="14.132195985282905"><ele>1234.0</ele><time>2026-04-12T10:41:49.951Z</time></trkpt><trkpt lat="41.84613007863387" lon="14.132087298444372"><ele>1234.0</ele><time>2026-04-12T10:41:50.951Z</time></trkpt><trkpt lat="41.84613799813504" lon="14.131964769274173"><ele>1234.0</ele><time>2026-04-12T10:41:51.951Z</time></trkpt><trkpt lat="41.846162369980995" lon="14.131858448990217"><ele>1235.3333333333333</ele><time>2026-04-12T10:41:52.951Z</time></trkpt><trkpt lat="41.84618019091277" lon="14.131774213557105"><ele>1236.6666666666665</ele><time>2026-04-12T10:41:53.951Z</time></trkpt><trkpt lat="41.846191130091995" lon="14.131678628239838"><ele>1238.0</ele><time>2026-04-12T10:41:54.951Z</time></trkpt><trkpt lat="41.846198299257566" lon="14.131593913837026"><ele>1239.3333333333333</ele><time>2026-04-12T10:41:55.951Z</time></trkpt><trkpt lat="41.84623339125731" lon="14.131436482175708"><ele>1240.6666666666667</ele><time>2026-04-12T10:41:57.951Z</time></trkpt><trkpt lat="41.84627545770679" lon="14.131358959739968"><ele>1242.0</ele><time>2026-04-12T10:41:58.951Z</time></trkpt><trkpt lat="41.84631247940014" lon="14.131288748521294"><ele>1242.0</ele><time>2026-04-12T10:41:59.951Z</time></trkpt><trkpt lat="41.846370171056165" lon="14.131207334321092"><ele>1242.0</ele><time>2026-04-12T10:42:00.951Z</time></trkpt><trkpt lat="41.846413738705934" lon="14.131107482585238"><ele>1242.0</ele><time>2026-04-12T10:42:01.951Z</time></trkpt><trkpt lat="41.84645251871651" lon="14.131000905121187"><ele>1242.0</ele><time>2026-04-12T10:42:02.951Z</time></trkpt><trkpt lat="41.84646889355789" lon="14.13090298813835"><ele>1242.0</ele><time>2026-04-12T10:42:03.951Z</time></trkpt><trkpt lat="41.84649173999638" lon="14.13081563924216"><ele>1242.0</ele><time>2026-04-12T10:42:04.951Z</time></trkpt><trkpt lat="41.846525637091915" lon="14.130682357619568"><ele>1242.0</ele><time>2026-04-12T10:42:05.951Z</time></trkpt><trkpt lat="41.84655718474114" lon="14.130550571319633"><ele>1242.0</ele><time>2026-04-12T10:42:06.951Z</time></trkpt><trkpt lat="41.84659503593918" lon="14.13040269981001"><ele>1242.0</ele><time>2026-04-12T10:42:07.951Z</time></trkpt><trkpt lat="41.84663049228901" lon="14.130256578427852"><ele>1242.0</ele><time>2026-04-12T10:42:08.951Z</time></trkpt><trkpt lat="41.846676299740935" lon="14.130144839533845"><ele>1242.0</ele><time>2026-04-12T10:42:09.951Z</time></trkpt><trkpt lat="41.846718019151126" lon="14.130017944363773"><ele>1242.0</ele><time>2026-04-12T10:42:10.951Z</time></trkpt><trkpt lat="41.84675516475361" lon="14.129898691051288"><ele>1242.0</ele><time>2026-04-12T10:42:11.951Z</time></trkpt><trkpt lat="41.846782147183234" lon="14.129766825297011"><ele>1242.0</ele><time>2026-04-12T10:42:12.951Z</time></trkpt><trkpt lat="41.84679971362741" lon="14.129632453898171"><ele>1242.0</ele><time>2026-04-12T10:42:13.951Z</time></trkpt><trkpt lat="41.846829637642394" lon="14.12947922693186"><ele>1242.0</ele><time>2026-04-12T10:42:14.951Z</time></trkpt><trkpt lat="41.84687156538719" lon="14.12934527957623"><ele>1245.0</ele><time>2026-04-12T10:42:15.951Z</time></trkpt><trkpt lat="41.846920327306805" lon="14.129213046485054"><ele>1248.0</ele><time>2026-04-12T10:42:16.951Z</time></trkpt><trkpt lat="41.84696119560589" lon="14.129067194252038"><ele>1251.0</ele><time>2026-04-12T10:42:17.951Z</time></trkpt><trkpt lat="41.84699150616332" lon="14.128937009893455"><ele>1254.0</ele><time>2026-04-12T10:42:18.951Z</time></trkpt><trkpt lat="41.84702126695669" lon="14.12880421649243"><ele>1257.0</ele><time>2026-04-12T10:42:19.951Z</time></trkpt><trkpt lat="41.84705169127266" lon="14.128685147391264"><ele>1257.6</ele><time>2026-04-12T10:42:20.951Z</time></trkpt><trkpt lat="41.84708353181697" lon="14.128564031416378"><ele>1258.2</ele><time>2026-04-12T10:42:21.951Z</time></trkpt><trkpt lat="41.84712219497924" lon="14.12843470045312"><ele>1258.8</ele><time>2026-04-12T10:42:22.951Z</time></trkpt><trkpt lat="41.847153513002304" lon="14.128326863872022"><ele>1259.4</ele><time>2026-04-12T10:42:23.951Z</time></trkpt><trkpt lat="41.84715140821608" lon="14.128205934348873"><ele>1260.0</ele><time>2026-04-12T10:42:24.951Z</time></trkpt><trkpt lat="41.847131810025076" lon="14.128098751846958"><ele>1260.8333333333333</ele><time>2026-04-12T10:42:25.951Z</time></trkpt><trkpt lat="41.84710422180956" lon="14.127993929188456"><ele>1261.6666666666667</ele><time>2026-04-12T10:42:26.951Z</time></trkpt><trkpt lat="41.847090008358094" lon="14.127890087267378"><ele>1262.5</ele><time>2026-04-12T10:42:27.951Z</time></trkpt><trkpt lat="41.847077625555656" lon="14.127785439004638"><ele>1263.3333333333335</ele><time>2026-04-12T10:42:28.951Z</time></trkpt><trkpt lat="41.84706810019094" lon="14.127684824797909"><ele>1264.1666666666667</ele><time>2026-04-12T10:42:29.951Z</time></trkpt><trkpt lat="41.847046595769676" lon="14.127592419743426"><ele>1265.0</ele><time>2026-04-12T10:42:30.951Z</time></trkpt><trkpt lat="41.846978059014226" lon="14.127467902721968"><ele>1267.6</ele><time>2026-04-12T10:42:32.951Z</time></trkpt><trkpt lat="41.84691182521411" lon="14.127377734348991"><ele>1270.2</ele><time>2026-04-12T10:42:34.951Z</time></trkpt><trkpt lat="41.84686588382716" lon="14.127277729820035"><ele>1272.8</ele><time>2026-04-12T10:42:36.952Z</time></trkpt><trkpt lat="41.84683554834828" lon="14.127141564774165"><ele>1275.4</ele><time>2026-04-12T10:42:38.952Z</time></trkpt><trkpt lat="41.84686408019182" lon="14.12702015326671"><ele>1278.0</ele><time>2026-04-12T10:42:40.952Z</time></trkpt><trkpt lat="41.84690806557644" lon="14.126898759182424"><ele>1278.0</ele><time>2026-04-12T10:42:42.952Z</time></trkpt><trkpt lat="41.846951824210485" lon="14.12678930593883"><ele>1278.0</ele><time>2026-04-12T10:42:44.952Z</time></trkpt><trkpt lat="41.84698768422524" lon="14.126675490004343"><ele>1278.0</ele><time>2026-04-12T10:42:46.952Z</time></trkpt><trkpt lat="41.84702823380109" lon="14.126569337142937"><ele>1278.0</ele><time>2026-04-12T10:42:48.952Z</time></trkpt><trkpt lat="41.84707848334782" lon="14.126420346342663"><ele>1278.0</ele><time>2026-04-12T10:42:50.952Z</time></trkpt><trkpt lat="41.84710674991614" lon="14.126342136744816"><ele>1279.4</ele><time>2026-04-12T10:42:51.952Z</time></trkpt><trkpt lat="41.84713739582968" lon="14.126208297472347"><ele>1280.8</ele><time>2026-04-12T10:42:53.952Z</time></trkpt><trkpt lat="41.8471440047661" lon="14.126098509882587"><ele>1282.2</ele><time>2026-04-12T10:42:55.952Z</time></trkpt><trkpt lat="41.847156819420945" lon="14.12598081050076"><ele>1283.6</ele><time>2026-04-12T10:42:57.952Z</time></trkpt><trkpt lat="41.84717049353352" lon="14.125846986758452"><ele>1285.0</ele><time>2026-04-12T10:42:59.952Z</time></trkpt><trkpt lat="41.84721092766196" lon="14.125708758105207"><ele>1285.5</ele><time>2026-04-12T10:43:01.952Z</time></trkpt><trkpt lat="41.84723806691618" lon="14.125631057820675"><ele>1286.0</ele><time>2026-04-12T10:43:02.952Z</time></trkpt><trkpt lat="41.847269215340994" lon="14.125556731050251"><ele>1286.5</ele><time>2026-04-12T10:43:03.952Z</time></trkpt><trkpt lat="41.847304103980896" lon="14.125462143894193"><ele>1287.0</ele><time>2026-04-12T10:43:04.952Z</time></trkpt><trkpt lat="41.847347922938724" lon="14.125369231684898"><ele>1287.5</ele><time>2026-04-12T10:43:05.951Z</time></trkpt><trkpt lat="41.847380157186194" lon="14.125269074563995"><ele>1288.0</ele><time>2026-04-12T10:43:06.951Z</time></trkpt><trkpt lat="41.84739820693741" lon="14.125156726492547"><ele>1288.0</ele><time>2026-04-12T10:43:07.951Z</time></trkpt><trkpt lat="41.84741676959781" lon="14.125040749429907"><ele>1288.0</ele><time>2026-04-12T10:43:08.951Z</time></trkpt><trkpt lat="41.84742897786416" lon="14.124941611151106"><ele>1288.0</ele><time>2026-04-12T10:43:09.951Z</time></trkpt><trkpt lat="41.84744718937714" lon="14.124859873624375"><ele>1288.0</ele><time>2026-04-12T10:43:10.951Z</time></trkpt><trkpt lat="41.84747428557705" lon="14.124757126085601"><ele>1288.0</ele><time>2026-04-12T10:43:12.951Z</time></trkpt><trkpt lat="41.84752565954028" lon="14.124703651584516"><ele>1288.0</ele><time>2026-04-12T10:43:14.951Z</time></trkpt><trkpt lat="41.84754842720981" lon="14.124624825070766"><ele>1288.0</ele><time>2026-04-12T10:43:16.951Z</time></trkpt><trkpt lat="41.84757954881946" lon="14.124549617422058"><ele>1292.0</ele><time>2026-04-12T10:43:35.951Z</time></trkpt><trkpt lat="41.84764030240868" lon="14.124400207316828"><ele>1296.0</ele><time>2026-04-12T10:43:37.951Z</time></trkpt><trkpt lat="41.8476707901225" lon="14.124316737795315"><ele>1300.0</ele><time>2026-04-12T10:43:38.951Z</time></trkpt><trkpt lat="41.84769471984464" lon="14.124162550607311"><ele>1304.0</ele><time>2026-04-12T10:43:40.951Z</time></trkpt><trkpt lat="41.84768210187516" lon="14.123998728242642"><ele>1308.0</ele><time>2026-04-12T10:43:42.951Z</time></trkpt><trkpt lat="41.847667148000305" lon="14.123898852302105"><ele>1308.0</ele><time>2026-04-12T10:43:43.951Z</time></trkpt><trkpt lat="41.84770811944644" lon="14.123737783440951"><ele>1308.0</ele><time>2026-04-12T10:43:45.951Z</time></trkpt><trkpt lat="41.847727399941334" lon="14.123644610604927"><ele>1308.0</ele><time>2026-04-12T10:43:46.951Z</time></trkpt><trkpt lat="41.847739796194965" lon="14.123490735116057"><ele>1308.0</ele><time>2026-04-12T10:43:48.951Z</time></trkpt><trkpt lat="41.84774556854744" lon="14.123325787439445"><ele>1308.0</ele><time>2026-04-12T10:43:50.951Z</time></trkpt><trkpt lat="41.84771891975721" lon="14.123206508624904"><ele>1308.0</ele><time>2026-04-12T10:43:52.951Z</time></trkpt><trkpt lat="41.84765430873768" lon="14.123090536803563"><ele>1308.0</ele><time>2026-04-12T10:43:54.951Z</time></trkpt><trkpt lat="41.8476463107253" lon="14.122969047059147"><ele>1308.0</ele><time>2026-04-12T10:43:57.951Z</time></trkpt><trkpt lat="41.847626265332195" lon="14.122885594706034"><ele>1308.0</ele><time>2026-04-12T10:44:00.951Z</time></trkpt><trkpt lat="41.847653518979286" lon="14.122805272552249"><ele>1308.0</ele><time>2026-04-12T10:44:01.951Z</time></trkpt><trkpt lat="41.84761399042358" lon="14.12224258315546"><ele>1308.1666666666667</ele><time>2026-04-12T10:44:02.951Z</time></trkpt><trkpt lat="41.84759150212182" lon="14.122136117906859"><ele>1308.3333333333333</ele><time>2026-04-12T10:44:03.951Z</time></trkpt><trkpt lat="41.84755479964012" lon="14.122046989418923"><ele>1308.5</ele><time>2026-04-12T10:44:04.951Z</time></trkpt><trkpt lat="41.84750652073629" lon="14.121971412776734"><ele>1308.6666666666665</ele><time>2026-04-12T10:44:05.951Z</time></trkpt><trkpt lat="41.847457395910666" lon="14.121914226251173"><ele>1308.8333333333333</ele><time>2026-04-12T10:44:06.951Z</time></trkpt><trkpt lat="41.84736633547151" lon="14.121830738124972"><ele>1309.0</ele><time>2026-04-12T10:44:08.951Z</time></trkpt><trkpt lat="41.84729321372033" lon="14.121800501598203"><ele>1309.0</ele><time>2026-04-12T10:44:10.951Z</time></trkpt><trkpt lat="41.847230736763706" lon="14.121855397500582"><ele>1309.0</ele><time>2026-04-12T10:44:13.951Z</time></trkpt><trkpt lat="41.84720044519972" lon="14.121930602693155"><ele>1309.0</ele><time>2026-04-12T10:44:16.951Z</time></trkpt><trkpt lat="41.847169016212156" lon="14.122024122721209"><ele>1309.0</ele><time>2026-04-12T10:44:19.951Z</time></trkpt><trkpt lat="41.84710246879205" lon="14.122091991781856"><ele>1309.0</ele><time>2026-04-12T10:44:21.951Z</time></trkpt><trkpt lat="41.84700212098956" lon="14.122157262256229"><ele>1309.0</ele><time>2026-04-12T10:44:23.951Z</time></trkpt><trkpt lat="41.84688452859679" lon="14.12213067579096"><ele>1309.0</ele><time>2026-04-12T10:44:25.95Z</time></trkpt><trkpt lat="41.84682116740956" lon="14.122116276536389"><ele>1309.0</ele><time>2026-04-12T10:44:27.95Z</time></trkpt><trkpt lat="41.84674428060814" lon="14.122085299300258"><ele>1309.0</ele><time>2026-04-12T10:44:30.95Z</time></trkpt><trkpt lat="41.84664744274402" lon="14.122063471221194"><ele>1309.0</ele><time>2026-04-12T10:44:32.95Z</time></trkpt><trkpt lat="41.84658189622827" lon="14.122027820821252"><ele>1309.0</ele><time>2026-04-12T10:44:33.95Z</time></trkpt><trkpt lat="41.846511239467965" lon="14.121970608643217"><ele>1309.0</ele><time>2026-04-12T10:44:34.95Z</time></trkpt><trkpt lat="41.84639428716531" lon="14.121925031679513"><ele>1309.75</ele><time>2026-04-12T10:44:35.95Z</time></trkpt><trkpt lat="41.84626462496863" lon="14.121919830448578"><ele>1310.5</ele><time>2026-04-12T10:44:36.95Z</time></trkpt><trkpt lat="41.846139169088715" lon="14.121932620403223"><ele>1311.25</ele><time>2026-04-12T10:44:37.95Z</time></trkpt><trkpt lat="41.846027896072215" lon="14.121933113344758"><ele>1312.0</ele><time>2026-04-12T10:44:38.95Z</time></trkpt><trkpt lat="41.84592209904539" lon="14.121922896949137"><ele>1308.6666666666665</ele><time>2026-04-12T10:44:39.95Z</time></trkpt><trkpt lat="41.84583313702281" lon="14.121913865537763"><ele>1305.3333333333333</ele><time>2026-04-12T10:44:40.95Z</time></trkpt><trkpt lat="41.845755389011586" lon="14.121888873619708"><ele>1302.0</ele><time>2026-04-12T10:44:41.95Z</time></trkpt><trkpt lat="41.845681867800295" lon="14.121845106023619"><ele>1298.6666666666667</ele><time>2026-04-12T10:44:42.951Z</time></trkpt><trkpt lat="41.845614249816045" lon="14.12178328930167"><ele>1295.3333333333335</ele><time>2026-04-12T10:44:43.951Z</time></trkpt><trkpt lat="41.84554333367704" lon="14.121724296921437"><ele>1292.0</ele><time>2026-04-12T10:44:44.951Z</time></trkpt><trkpt lat="41.84546631307009" lon="14.121660576225857"><ele>1292.0</ele><time>2026-04-12T10:44:45.951Z</time></trkpt><trkpt lat="41.845396770071595" lon="14.12161352863544"><ele>1292.0</ele><time>2026-04-12T10:44:46.951Z</time></trkpt><trkpt lat="41.84533865608424" lon="14.12154360063943"><ele>1292.0</ele><time>2026-04-12T10:44:47.951Z</time></trkpt><trkpt lat="41.84529816504939" lon="14.121449933590203"><ele>1292.0</ele><time>2026-04-12T10:44:48.951Z</time></trkpt><trkpt lat="41.84525519086202" lon="14.121365106582008"><ele>1292.0</ele><time>2026-04-12T10:44:49.951Z</time></trkpt><trkpt lat="41.84519948281533" lon="14.121286779275692"><ele>1292.0</ele><time>2026-04-12T10:44:50.951Z</time></trkpt><trkpt lat="41.84511711490213" lon="14.1212512953046"><ele>1289.3999999999999</ele><time>2026-04-12T10:44:51.951Z</time></trkpt><trkpt lat="41.84506115410071" lon="14.121200411025498"><ele>1286.8</ele><time>2026-04-12T10:44:52.952Z</time></trkpt><trkpt lat="41.84501721634968" lon="14.121110488742882"><ele>1284.2</ele><time>2026-04-12T10:44:53.952Z</time></trkpt><trkpt lat="41.84495373168044" lon="14.120987194800858"><ele>1281.6</ele><time>2026-04-12T10:44:54.951Z</time></trkpt><trkpt lat="41.84486615748909" lon="14.120895481144474"><ele>1279.0</ele><time>2026-04-12T10:44:55.951Z</time></trkpt><trkpt lat="41.844758743559176" lon="14.120813881594692"><ele>1284.0</ele><time>2026-04-12T10:44:56.951Z</time></trkpt><trkpt lat="41.84464112036818" lon="14.120726154678753"><ele>1289.0</ele><time>2026-04-12T10:44:57.951Z</time></trkpt><trkpt lat="41.84451892112473" lon="14.120641142360164"><ele>1294.0</ele><time>2026-04-12T10:44:58.951Z</time></trkpt><trkpt lat="41.84441917610974" lon="14.120599740063675"><ele>1299.0</ele><time>2026-04-12T10:44:59.951Z</time></trkpt><trkpt lat="41.84433223160341" lon="14.120602431979732"><ele>1295.6666666666667</ele><time>2026-04-12T10:45:00.951Z</time></trkpt><trkpt lat="41.84425100526056" lon="14.120594481614841"><ele>1292.3333333333333</ele><time>2026-04-12T10:45:01.951Z</time></trkpt><trkpt lat="41.84416771993718" lon="14.120567658854787"><ele>1289.0</ele><time>2026-04-12T10:45:02.951Z</time></trkpt><trkpt lat="41.84408647494439" lon="14.120541188221406"><ele>1285.6666666666665</ele><time>2026-04-12T10:45:03.951Z</time></trkpt><trkpt lat="41.84399366801968" lon="14.120510903650594"><ele>1282.3333333333333</ele><time>2026-04-12T10:45:04.951Z</time></trkpt><trkpt lat="41.84391611809706" lon="14.120481842471854"><ele>1279.0</ele><time>2026-04-12T10:45:05.951Z</time></trkpt><trkpt lat="41.8438178939433" lon="14.120383861277483"><ele>1279.0</ele><time>2026-04-12T10:45:07.951Z</time></trkpt><trkpt lat="41.843757126153704" lon="14.120318903184783"><ele>1279.0</ele><time>2026-04-12T10:45:08.951Z</time></trkpt><trkpt lat="41.84367784821569" lon="14.120243306788257"><ele>1279.0</ele><time>2026-04-12T10:45:09.951Z</time></trkpt><trkpt lat="41.84358239713473" lon="14.120170196082917"><ele>1279.0</ele><time>2026-04-12T10:45:10.951Z</time></trkpt><trkpt lat="41.84349486253217" lon="14.120052122360354"><ele>1279.0</ele><time>2026-04-12T10:45:11.951Z</time></trkpt><trkpt lat="41.84340864334916" lon="14.119937081156651"><ele>1279.3333333333333</ele><time>2026-04-12T10:45:12.951Z</time></trkpt><trkpt lat="41.84333477979212" lon="14.119826143824358"><ele>1279.6666666666665</ele><time>2026-04-12T10:45:13.951Z</time></trkpt><trkpt lat="41.84327864572532" lon="14.119758302232647"><ele>1280.0</ele><time>2026-04-12T10:45:14.951Z</time></trkpt><trkpt lat="41.84323361915744" lon="14.119698576785623"><ele>1280.3333333333333</ele><time>2026-04-12T10:45:15.951Z</time></trkpt><trkpt lat="41.84313733478097" lon="14.119593971321063"><ele>1280.6666666666667</ele><time>2026-04-12T10:45:17.951Z</time></trkpt><trkpt lat="41.84308500559458" lon="14.119540614325242"><ele>1281.0</ele><time>2026-04-12T10:45:18.951Z</time></trkpt><trkpt lat="41.84302628718836" lon="14.119501172472475"><ele>1281.0</ele><time>2026-04-12T10:45:19.951Z</time></trkpt><trkpt lat="41.842947918216204" lon="14.119491582662063"><ele>1281.0</ele><time>2026-04-12T10:45:20.951Z</time></trkpt><trkpt lat="41.842879215271715" lon="14.119496273322437"><ele>1281.0</ele><time>2026-04-12T10:45:21.951Z</time></trkpt><trkpt lat="41.84278450750107" lon="14.119485846352937"><ele>1281.0</ele><time>2026-04-12T10:45:23.951Z</time></trkpt><trkpt lat="41.842731855763645" lon="14.119433472167902"><ele>1281.0</ele><time>2026-04-12T10:45:24.951Z</time></trkpt><trkpt lat="41.84266212515963" lon="14.119392135937149"><ele>1281.0</ele><time>2026-04-12T10:45:25.951Z</time></trkpt><trkpt lat="41.84259133897612" lon="14.119369731524566"><ele>1279.5</ele><time>2026-04-12T10:45:26.951Z</time></trkpt><trkpt lat="41.84250755812851" lon="14.119359462134556"><ele>1278.0</ele><time>2026-04-12T10:45:27.951Z</time></trkpt><trkpt lat="41.84243703513698" lon="14.119344321255126"><ele>1276.5</ele><time>2026-04-12T10:45:28.951Z</time></trkpt><trkpt lat="41.84236732463713" lon="14.119302531271492"><ele>1275.0</ele><time>2026-04-12T10:45:29.951Z</time></trkpt><trkpt lat="41.842292938927244" lon="14.11925578670617"><ele>1273.5</ele><time>2026-04-12T10:45:30.951Z</time></trkpt><trkpt lat="41.8422179377601" lon="14.119208293767208"><ele>1272.0</ele><time>2026-04-12T10:45:31.951Z</time></trkpt><trkpt lat="41.84215064948274" lon="14.119140081452612"><ele>1272.0</ele><time>2026-04-12T10:45:32.951Z</time></trkpt><trkpt lat="41.84207460756295" lon="14.119072375782595"><ele>1272.0</ele><time>2026-04-12T10:45:33.951Z</time></trkpt><trkpt lat="41.84199418206777" lon="14.118984623813319"><ele>1272.0</ele><time>2026-04-12T10:45:34.951Z</time></trkpt><trkpt lat="41.84191982472965" lon="14.118870698521128"><ele>1272.0</ele><time>2026-04-12T10:45:35.951Z</time></trkpt><trkpt lat="41.841850203008356" lon="14.118764846151752"><ele>1272.0</ele><time>2026-04-12T10:45:36.951Z</time></trkpt><trkpt lat="41.84179206629604" lon="14.118665913397795"><ele>1272.142857142857</ele><time>2026-04-12T10:45:37.951Z</time></trkpt><trkpt lat="41.841750997882855" lon="14.118600557327408"><ele>1272.2857142857144</ele><time>2026-04-12T10:45:38.951Z</time></trkpt><trkpt lat="41.841722884612324" lon="14.118502007870879"><ele>1272.4285714285716</ele><time>2026-04-12T10:45:43.951Z</time></trkpt><trkpt lat="41.84177589477893" lon="14.118409449861332"><ele>1272.5714285714284</ele><time>2026-04-12T10:45:45.951Z</time></trkpt><trkpt lat="41.841820429117654" lon="14.118338125196454"><ele>1272.7142857142858</ele><time>2026-04-12T10:45:46.951Z</time></trkpt><trkpt lat="41.84187726179829" lon="14.118252531249222"><ele>1272.857142857143</ele><time>2026-04-12T10:45:47.951Z</time></trkpt><trkpt lat="41.841917857173115" lon="14.118184787140443"><ele>1273.0</ele><time>2026-04-12T10:45:48.951Z</time></trkpt><trkpt lat="41.84197438567076" lon="14.118111578595881"><ele>1277.6</ele><time>2026-04-12T10:45:49.951Z</time></trkpt><trkpt lat="41.84203607663769" lon="14.118023430565657"><ele>1282.1999999999998</ele><time>2026-04-12T10:45:50.951Z</time></trkpt><trkpt lat="41.84210079044625" lon="14.117927753153849"><ele>1286.8</ele><time>2026-04-12T10:45:51.951Z</time></trkpt><trkpt lat="41.842167741195496" lon="14.117824368987067"><ele>1291.3999999999999</ele><time>2026-04-12T10:45:52.951Z</time></trkpt><trkpt lat="41.842244202856506" lon="14.117708754269552"><ele>1296.0</ele><time>2026-04-12T10:45:53.951Z</time></trkpt><trkpt lat="41.84230948528932" lon="14.11758661843782"><ele>1296.0</ele><time>2026-04-12T10:45:54.951Z</time></trkpt><trkpt lat="41.84235239222543" lon="14.117465296209646"><ele>1296.0</ele><time>2026-04-12T10:45:55.951Z</time></trkpt><trkpt lat="41.84240238444611" lon="14.117403162825251"><ele>1296.0</ele><time>2026-04-12T10:45:56.951Z</time></trkpt><trkpt lat="41.84250182134166" lon="14.117470026631299"><ele>1296.0</ele><time>2026-04-12T10:45:58.951Z</time></trkpt><trkpt lat="41.84259379828927" lon="14.117513598270163"><ele>1296.0</ele><time>2026-04-12T10:46:00.951Z</time></trkpt><trkpt lat="41.84265846882519" lon="14.117390998036395"><ele>1297.8333333333333</ele><time>2026-04-12T10:46:02.95Z</time></trkpt><trkpt lat="41.84271460715664" lon="14.117336572214352"><ele>1299.6666666666667</ele><time>2026-04-12T10:46:04.95Z</time></trkpt><trkpt lat="41.84265691194137" lon="14.117264566740591"><ele>1301.5</ele><time>2026-04-12T10:46:21.95Z</time></trkpt><trkpt lat="41.84258635839087" lon="14.117181698567034"><ele>1303.3333333333335</ele><time>2026-04-12T10:46:23.95Z</time></trkpt><trkpt lat="41.842533049046196" lon="14.117112060640263"><ele>1305.1666666666667</ele><time>2026-04-12T10:46:24.95Z</time></trkpt><trkpt lat="41.84247056804759" lon="14.117032901330948"><ele>1307.0</ele><time>2026-04-12T10:46:25.95Z</time></trkpt><trkpt lat="41.84240075656258" lon="14.116947515413859"><ele>1307.0</ele><time>2026-04-12T10:46:26.95Z</time></trkpt><trkpt lat="41.84233706158784" lon="14.116875348659786"><ele>1307.0</ele><time>2026-04-12T10:46:27.95Z</time></trkpt><trkpt lat="41.842292558233964" lon="14.116784436085311"><ele>1307.0</ele><time>2026-04-12T10:46:28.95Z</time></trkpt><trkpt lat="41.842251521826114" lon="14.116713420332077"><ele>1307.0</ele><time>2026-04-12T10:46:29.95Z</time></trkpt><trkpt lat="41.84220843753774" lon="14.116636941606851"><ele>1307.0</ele><time>2026-04-12T10:46:30.95Z</time></trkpt><trkpt lat="41.84208967511174" lon="14.116570537979003"><ele>1307.0</ele><time>2026-04-12T10:46:32.95Z</time></trkpt><trkpt lat="41.84201236207183" lon="14.116554054985562"><ele>1308.8</ele><time>2026-04-12T10:46:33.95Z</time></trkpt><trkpt lat="41.841925106763824" lon="14.116496897943554"><ele>1310.6</ele><time>2026-04-12T10:46:34.95Z</time></trkpt><trkpt lat="41.841832718981394" lon="14.116440565101495"><ele>1312.3999999999999</ele><time>2026-04-12T10:46:35.95Z</time></trkpt><trkpt lat="41.84172983753497" lon="14.116435087729476"><ele>1314.1999999999998</ele><time>2026-04-12T10:46:36.95Z</time></trkpt><trkpt lat="41.84164873773725" lon="14.116445354569729"><ele>1316.0</ele><time>2026-04-12T10:46:37.95Z</time></trkpt><trkpt lat="41.841564755233726" lon="14.116475571359052"><ele>1316.0</ele><time>2026-04-12T10:46:38.95Z</time></trkpt><trkpt lat="41.841484161916874" lon="14.11651931127129"><ele>1316.0</ele><time>2026-04-12T10:46:39.95Z</time></trkpt><trkpt lat="41.84138664185273" lon="14.116542147599615"><ele>1316.0</ele><time>2026-04-12T10:46:40.95Z</time></trkpt><trkpt lat="41.84129181103009" lon="14.11656219516441"><ele>1316.0</ele><time>2026-04-12T10:46:41.95Z</time></trkpt><trkpt lat="41.84120927018138" lon="14.116575196291986"><ele>1316.0</ele><time>2026-04-12T10:46:42.95Z</time></trkpt><trkpt lat="41.84113386171223" lon="14.116558152903263"><ele>1316.0</ele><time>2026-04-12T10:46:43.95Z</time></trkpt><trkpt lat="41.84105555926985" lon="14.116525354013644"><ele>1316.0</ele><time>2026-04-12T10:46:44.95Z</time></trkpt><trkpt lat="41.8409800517487" lon="14.116498571258404"><ele>1316.0</ele><time>2026-04-12T10:46:45.95Z</time></trkpt><trkpt lat="41.84091107385813" lon="14.116474951842887"><ele>1316.0</ele><time>2026-04-12T10:46:46.95Z</time></trkpt><trkpt lat="41.84083404889559" lon="14.116456112922851"><ele>1316.0</ele><time>2026-04-12T10:46:47.95Z</time></trkpt><trkpt lat="41.840760193833965" lon="14.116439227735555"><ele>1316.0</ele><time>2026-04-12T10:46:48.951Z</time></trkpt><trkpt lat="41.84067673775348" lon="14.116421382811875"><ele>1316.0</ele><time>2026-04-12T10:46:49.951Z</time></trkpt><trkpt lat="41.84058856146403" lon="14.116393445708498"><ele>1315.0</ele><time>2026-04-12T10:46:50.951Z</time></trkpt><trkpt lat="41.84051849871156" lon="14.116359835265904"><ele>1314.0</ele><time>2026-04-12T10:46:51.951Z</time></trkpt><trkpt lat="41.840457956582846" lon="14.116335500766901"><ele>1313.0</ele><time>2026-04-12T10:46:52.951Z</time></trkpt><trkpt lat="41.840394245232325" lon="14.116358012332384"><ele>1312.0</ele><time>2026-04-12T10:46:53.951Z</time></trkpt><trkpt lat="41.84032392305564" lon="14.116434872276233"><ele>1311.0</ele><time>2026-04-12T10:46:54.951Z</time></trkpt><trkpt lat="41.84024862796894" lon="14.11650854639869"><ele>1310.0</ele><time>2026-04-12T10:46:55.951Z</time></trkpt><trkpt lat="41.84016980639425" lon="14.116559695874527"><ele>1306.4</ele><time>2026-04-12T10:46:56.951Z</time></trkpt><trkpt lat="41.84007857291878" lon="14.116570830694942"><ele>1302.8</ele><time>2026-04-12T10:46:57.951Z</time></trkpt><trkpt lat="41.83999336548048" lon="14.116592842386943"><ele>1299.1999999999998</ele><time>2026-04-12T10:46:58.95Z</time></trkpt><trkpt lat="41.83989164573703" lon="14.116636687206379"><ele>1295.6</ele><time>2026-04-12T10:46:59.95Z</time></trkpt><trkpt lat="41.83979595828449" lon="14.116718589627872"><ele>1292.0</ele><time>2026-04-12T10:47:00.951Z</time></trkpt><trkpt lat="41.83971919037639" lon="14.116766838612003"><ele>1292.0</ele><time>2026-04-12T10:47:01.95Z</time></trkpt><trkpt lat="41.839639049380025" lon="14.116809883370399"><ele>1292.0</ele><time>2026-04-12T10:47:02.95Z</time></trkpt><trkpt lat="41.83956232453259" lon="14.11683463154185"><ele>1292.0</ele><time>2026-04-12T10:47:03.95Z</time></trkpt><trkpt lat="41.839488840566226" lon="14.116861066233914"><ele>1292.0</ele><time>2026-04-12T10:47:04.95Z</time></trkpt><trkpt lat="41.83940081238248" lon="14.116904871901097"><ele>1292.0</ele><time>2026-04-12T10:47:05.95Z</time></trkpt><trkpt lat="41.83930484350543" lon="14.116949572187595"><ele>1292.0</ele><time>2026-04-12T10:47:06.95Z</time></trkpt><trkpt lat="41.839198498199465" lon="14.117008111862182"><ele>1292.8333333333335</ele><time>2026-04-12T10:47:07.95Z</time></trkpt><trkpt lat="41.83910665531143" lon="14.117072353568451"><ele>1293.6666666666667</ele><time>2026-04-12T10:47:08.95Z</time></trkpt><trkpt lat="41.839020614812696" lon="14.117133742653527"><ele>1294.5</ele><time>2026-04-12T10:47:09.95Z</time></trkpt><trkpt lat="41.838958549603205" lon="14.117193276782194"><ele>1295.3333333333333</ele><time>2026-04-12T10:47:10.95Z</time></trkpt><trkpt lat="41.83891561293429" lon="14.117266243590024"><ele>1296.1666666666665</ele><time>2026-04-12T10:47:11.95Z</time></trkpt><trkpt lat="41.83885661125914" lon="14.117360972785633"><ele>1297.0</ele><time>2026-04-12T10:47:12.95Z</time></trkpt><trkpt lat="41.838807549590584" lon="14.117471959727908"><ele>1294.3999999999999</ele><time>2026-04-12T10:47:13.95Z</time></trkpt><trkpt lat="41.83877650724283" lon="14.117571553947426"><ele>1291.8</ele><time>2026-04-12T10:47:14.95Z</time></trkpt><trkpt lat="41.83872836396222" lon="14.11767189082013"><ele>1289.2</ele><time>2026-04-12T10:47:15.95Z</time></trkpt><trkpt lat="41.83865040645922" lon="14.11774730823479"><ele>1286.6</ele><time>2026-04-12T10:47:16.95Z</time></trkpt><trkpt lat="41.838538604771294" lon="14.117799140338237"><ele>1284.0</ele><time>2026-04-12T10:47:17.95Z</time></trkpt><trkpt lat="41.83841263206038" lon="14.117854482981306"><ele>1284.0</ele><time>2026-04-12T10:47:18.95Z</time></trkpt><trkpt lat="41.8382962123882" lon="14.117925154490695"><ele>1284.0</ele><time>2026-04-12T10:47:19.95Z</time></trkpt><trkpt lat="41.838216127313785" lon="14.117952967475087"><ele>1284.0</ele><time>2026-04-12T10:47:20.95Z</time></trkpt><trkpt lat="41.83812049275346" lon="14.117950578089326"><ele>1284.0</ele><time>2026-04-12T10:47:21.95Z</time></trkpt><trkpt lat="41.838013144644115" lon="14.117960422038545"><ele>1284.0</ele><time>2026-04-12T10:47:22.95Z</time></trkpt><trkpt lat="41.83788786463626" lon="14.117970184394235"><ele>1284.0</ele><time>2026-04-12T10:47:23.95Z</time></trkpt><trkpt lat="41.83775339081707" lon="14.117972729223414"><ele>1284.0</ele><time>2026-04-12T10:47:24.95Z</time></trkpt><trkpt lat="41.837620651771005" lon="14.11798128292562"><ele>1284.0</ele><time>2026-04-12T10:47:25.95Z</time></trkpt><trkpt lat="41.83747927284447" lon="14.117972623871381"><ele>1284.0</ele><time>2026-04-12T10:47:26.95Z</time></trkpt><trkpt lat="41.83735612345951" lon="14.117945043559068"><ele>1280.8</ele><time>2026-04-12T10:47:27.95Z</time></trkpt><trkpt lat="41.83725476148871" lon="14.117903091830303"><ele>1277.6000000000001</ele><time>2026-04-12T10:47:28.95Z</time></trkpt><trkpt lat="41.83714525007111" lon="14.117855099798653"><ele>1274.4</ele><time>2026-04-12T10:47:29.95Z</time></trkpt><trkpt lat="41.8370496895901" lon="14.117803298338213"><ele>1271.2</ele><time>2026-04-12T10:47:30.95Z</time></trkpt><trkpt lat="41.836966143929274" lon="14.117740782574408"><ele>1268.0</ele><time>2026-04-12T10:47:31.95Z</time></trkpt><trkpt lat="41.83688237512189" lon="14.117681606049203"><ele>1265.8</ele><time>2026-04-12T10:47:32.95Z</time></trkpt><trkpt lat="41.83679247428223" lon="14.117632030935692"><ele>1263.6</ele><time>2026-04-12T10:47:33.95Z</time></trkpt><trkpt lat="41.836701227384474" lon="14.117567029834712"><ele>1261.4</ele><time>2026-04-12T10:47:34.95Z</time></trkpt><trkpt lat="41.83661822112745" lon="14.117510265335492"><ele>1259.2</ele><time>2026-04-12T10:47:35.95Z</time></trkpt><trkpt lat="41.83653414485541" lon="14.117481742952206"><ele>1257.0</ele><time>2026-04-12T10:47:36.95Z</time></trkpt><trkpt lat="41.8364440396207" lon="14.117491454002161"><ele>1257.0</ele><time>2026-04-12T10:47:37.95Z</time></trkpt><trkpt lat="41.836341222449946" lon="14.117557469490041"><ele>1257.0</ele><time>2026-04-12T10:47:38.95Z</time></trkpt><trkpt lat="41.83621001596543" lon="14.117605647591363"><ele>1257.0</ele><time>2026-04-12T10:47:39.95Z</time></trkpt><trkpt lat="41.836067702282236" lon="14.117657066563872"><ele>1257.0</ele><time>2026-04-12T10:47:40.95Z</time></trkpt><trkpt lat="41.835951435405974" lon="14.11769845338391"><ele>1254.6</ele><time>2026-04-12T10:47:41.95Z</time></trkpt><trkpt lat="41.83584374844973" lon="14.1177571440404"><ele>1252.2</ele><time>2026-04-12T10:47:42.95Z</time></trkpt><trkpt lat="41.83574343582275" lon="14.117822046197096"><ele>1249.8</ele><time>2026-04-12T10:47:43.95Z</time></trkpt><trkpt lat="41.83565210583657" lon="14.117907348767671"><ele>1247.4</ele><time>2026-04-12T10:47:44.95Z</time></trkpt><trkpt lat="41.83557406392059" lon="14.118006155465924"><ele>1245.0</ele><time>2026-04-12T10:47:45.95Z</time></trkpt><trkpt lat="41.83547803660306" lon="14.118075207285266"><ele>1245.0</ele><time>2026-04-12T10:47:46.95Z</time></trkpt><trkpt lat="41.835361431710616" lon="14.118123395901895"><ele>1245.0</ele><time>2026-04-12T10:47:47.95Z</time></trkpt><trkpt lat="41.83523118686603" lon="14.118183642650793"><ele>1245.0</ele><time>2026-04-12T10:47:48.95Z</time></trkpt><trkpt lat="41.835089057369274" lon="14.118268860624095"><ele>1245.0</ele><time>2026-04-12T10:47:49.95Z</time></trkpt><trkpt lat="41.834979432896255" lon="14.11834851470662"><ele>1244.25</ele><time>2026-04-12T10:47:50.95Z</time></trkpt><trkpt lat="41.834883068317374" lon="14.11839509916868"><ele>1243.5</ele><time>2026-04-12T10:47:51.95Z</time></trkpt><trkpt lat="41.83477007817395" lon="14.11842837848365"><ele>1242.75</ele><time>2026-04-12T10:47:52.95Z</time></trkpt><trkpt lat="41.83464845577923" lon="14.118447105126284"><ele>1242.0</ele><time>2026-04-12T10:47:53.95Z</time></trkpt><trkpt lat="41.83453340672996" lon="14.1184366876967"><ele>1242.0</ele><time>2026-04-12T10:47:54.95Z</time></trkpt><trkpt lat="41.83441329322692" lon="14.118401788671074"><ele>1242.0</ele><time>2026-04-12T10:47:55.95Z</time></trkpt><trkpt lat="41.83429905457056" lon="14.118367395175468"><ele>1242.0</ele><time>2026-04-12T10:47:56.95Z</time></trkpt><trkpt lat="41.83418519336439" lon="14.118328628550783"><ele>1242.0</ele><time>2026-04-12T10:47:57.95Z</time></trkpt><trkpt lat="41.83405607827066" lon="14.118291821110878"><ele>1240.5</ele><time>2026-04-12T10:47:58.95Z</time></trkpt><trkpt lat="41.833930547110825" lon="14.118271134013225"><ele>1239.0</ele><time>2026-04-12T10:47:59.95Z</time></trkpt><trkpt lat="41.833794026273566" lon="14.118247135405776"><ele>1237.5</ele><time>2026-04-12T10:48:00.95Z</time></trkpt><trkpt lat="41.83367182149949" lon="14.118225324839665"><ele>1236.0</ele><time>2026-04-12T10:48:01.95Z</time></trkpt><trkpt lat="41.83355194679399" lon="14.118208562776909"><ele>1234.6</ele><time>2026-04-12T10:48:02.95Z</time></trkpt><trkpt lat="41.83343269181038" lon="14.118209316872516"><ele>1233.1999999999998</ele><time>2026-04-12T10:48:03.95Z</time></trkpt><trkpt lat="41.833326902536385" lon="14.118230695476415"><ele>1231.8000000000002</ele><time>2026-04-12T10:48:04.95Z</time></trkpt><trkpt lat="41.83324030000664" lon="14.118276568417892"><ele>1230.4</ele><time>2026-04-12T10:48:05.95Z</time></trkpt><trkpt lat="41.833121256597444" lon="14.118317297208852"><ele>1229.0</ele><time>2026-04-12T10:48:06.95Z</time></trkpt><trkpt lat="41.832978455341284" lon="14.118335772756195"><ele>1229.0</ele><time>2026-04-12T10:48:07.95Z</time></trkpt><trkpt lat="41.832841161661605" lon="14.118328986741824"><ele>1229.0</ele><time>2026-04-12T10:48:08.95Z</time></trkpt><trkpt lat="41.832736381220045" lon="14.118339318364793"><ele>1229.0</ele><time>2026-04-12T10:48:09.95Z</time></trkpt><trkpt lat="41.83264382672187" lon="14.118365087263816"><ele>1229.0</ele><time>2026-04-12T10:48:10.95Z</time></trkpt><trkpt lat="41.83254980786826" lon="14.11842157574625"><ele>1229.0</ele><time>2026-04-12T10:48:11.95Z</time></trkpt><trkpt lat="41.83245871735844" lon="14.118483926040593"><ele>1225.75</ele><time>2026-04-12T10:48:12.95Z</time></trkpt><trkpt lat="41.83235178089932" lon="14.118511469570906"><ele>1222.5</ele><time>2026-04-12T10:48:13.95Z</time></trkpt><trkpt lat="41.83223562844869" lon="14.118495927999824"><ele>1219.25</ele><time>2026-04-12T10:48:14.95Z</time></trkpt><trkpt lat="41.832113984258484" lon="14.11843538946845"><ele>1216.0</ele><time>2026-04-12T10:48:15.95Z</time></trkpt><trkpt lat="41.83200429579493" lon="14.118385804375992"><ele>1216.0</ele><time>2026-04-12T10:48:16.95Z</time></trkpt><trkpt lat="41.83188525692739" lon="14.1183247473304"><ele>1216.0</ele><time>2026-04-12T10:48:17.95Z</time></trkpt><trkpt lat="41.831764894030606" lon="14.118292211212614"><ele>1216.0</ele><time>2026-04-12T10:48:18.95Z</time></trkpt><trkpt lat="41.831633547537685" lon="14.118268114381443"><ele>1216.0</ele><time>2026-04-12T10:48:19.95Z</time></trkpt><trkpt lat="41.83149045636762" lon="14.118265898053737"><ele>1213.5</ele><time>2026-04-12T10:48:20.95Z</time></trkpt><trkpt lat="41.831360727833484" lon="14.118286198425972"><ele>1211.0</ele><time>2026-04-12T10:48:21.949Z</time></trkpt><trkpt lat="41.83123185698861" lon="14.118308543637516"><ele>1208.5</ele><time>2026-04-12T10:48:22.949Z</time></trkpt><trkpt lat="41.83110812509395" lon="14.11833513359385"><ele>1206.0</ele><time>2026-04-12T10:48:23.949Z</time></trkpt><trkpt lat="41.83099353090215" lon="14.11834689871252"><ele>1203.0</ele><time>2026-04-12T10:48:24.949Z</time></trkpt><trkpt lat="41.83086614976293" lon="14.118338978004163"><ele>1200.0</ele><time>2026-04-12T10:48:25.949Z</time></trkpt><trkpt lat="41.83075198299116" lon="14.118344189628683"><ele>1197.0</ele><time>2026-04-12T10:48:26.949Z</time></trkpt><trkpt lat="41.83062600592562" lon="14.118305481830006"><ele>1194.0</ele><time>2026-04-12T10:48:27.949Z</time></trkpt><trkpt lat="41.8304996363373" lon="14.118268791221277"><ele>1190.25</ele><time>2026-04-12T10:48:28.949Z</time></trkpt><trkpt lat="41.83037595092877" lon="14.118225841033183"><ele>1186.5</ele><time>2026-04-12T10:48:29.949Z</time></trkpt><trkpt lat="41.83024160166019" lon="14.118170990822442"><ele>1182.75</ele><time>2026-04-12T10:48:30.949Z</time></trkpt><trkpt lat="41.83010639113627" lon="14.11811252920035"><ele>1179.0</ele><time>2026-04-12T10:48:31.949Z</time></trkpt><trkpt lat="41.82998138608901" lon="14.118051783659725"><ele>1178.5</ele><time>2026-04-12T10:48:32.949Z</time></trkpt><trkpt lat="41.829847063831735" lon="14.117974068532366"><ele>1178.0</ele><time>2026-04-12T10:48:33.949Z</time></trkpt><trkpt lat="41.829717778885545" lon="14.117913256196646"><ele>1177.5</ele><time>2026-04-12T10:48:34.949Z</time></trkpt><trkpt lat="41.829607208022416" lon="14.117878246742734"><ele>1177.0</ele><time>2026-04-12T10:48:35.949Z</time></trkpt><trkpt lat="41.82949246691925" lon="14.11784644056542"><ele>1177.0</ele><time>2026-04-12T10:48:36.949Z</time></trkpt><trkpt lat="41.82937073463924" lon="14.117823844013317"><ele>1177.0</ele><time>2026-04-12T10:48:37.949Z</time></trkpt><trkpt lat="41.82923968371172" lon="14.117784237557775"><ele>1177.0</ele><time>2026-04-12T10:48:38.949Z</time></trkpt><trkpt lat="41.829118986143556" lon="14.117743366149693"><ele>1177.0</ele><time>2026-04-12T10:48:39.949Z</time></trkpt><trkpt lat="41.82900020893013" lon="14.117683637682282"><ele>1176.0</ele><time>2026-04-12T10:48:40.949Z</time></trkpt><trkpt lat="41.82888359152725" lon="14.11761912304447"><ele>1175.0</ele><time>2026-04-12T10:48:41.949Z</time></trkpt><trkpt lat="41.82875069849618" lon="14.117592885028362"><ele>1174.0</ele><time>2026-04-12T10:48:42.949Z</time></trkpt><trkpt lat="41.82862434356032" lon="14.117578789979989"><ele>1173.0</ele><time>2026-04-12T10:48:43.949Z</time></trkpt><trkpt lat="41.828520621895564" lon="14.117571652623726"><ele>1171.2</ele><time>2026-04-12T10:48:44.949Z</time></trkpt><trkpt lat="41.82842793122108" lon="14.11756283006118"><ele>1169.4</ele><time>2026-04-12T10:48:45.949Z</time></trkpt><trkpt lat="41.82834473789858" lon="14.117527519138825"><ele>1167.6000000000001</ele><time>2026-04-12T10:48:46.949Z</time></trkpt><trkpt lat="41.82825173158106" lon="14.11747150333949"><ele>1165.8</ele><time>2026-04-12T10:48:47.949Z</time></trkpt><trkpt lat="41.828163715307916" lon="14.11738916222674"><ele>1164.0</ele><time>2026-04-12T10:48:48.949Z</time></trkpt><trkpt lat="41.828077858925816" lon="14.117302670017585"><ele>1161.6000000000001</ele><time>2026-04-12T10:48:49.949Z</time></trkpt><trkpt lat="41.82798788482879" lon="14.117252730156482"><ele>1159.2</ele><time>2026-04-12T10:48:50.949Z</time></trkpt><trkpt lat="41.82789369556615" lon="14.117227769980392"><ele>1156.8000000000002</ele><time>2026-04-12T10:48:51.949Z</time></trkpt><trkpt lat="41.82778865438343" lon="14.117221849399694"><ele>1154.4</ele><time>2026-04-12T10:48:52.949Z</time></trkpt><trkpt lat="41.82767687639015" lon="14.117225988833333"><ele>1152.0</ele><time>2026-04-12T10:48:53.949Z</time></trkpt><trkpt lat="41.82758068934308" lon="14.117216794974347"><ele>1151.0</ele><time>2026-04-12T10:48:54.95Z</time></trkpt><trkpt lat="41.8274851121396" lon="14.117198580158187"><ele>1150.0</ele><time>2026-04-12T10:48:55.95Z</time></trkpt><trkpt lat="41.82740280294337" lon="14.11720290305868"><ele>1149.0</ele><time>2026-04-12T10:48:56.95Z</time></trkpt><trkpt lat="41.82730545839863" lon="14.117201747751839"><ele>1148.0</ele><time>2026-04-12T10:48:57.951Z</time></trkpt><trkpt lat="41.8272186285717" lon="14.117218905556623"><ele>1147.0</ele><time>2026-04-12T10:48:58.95Z</time></trkpt><trkpt lat="41.827117881464346" lon="14.117208094880393"><ele>1147.0</ele><time>2026-04-12T10:48:59.95Z</time></trkpt><trkpt lat="41.827013086590036" lon="14.117186967996288"><ele>1147.0</ele><time>2026-04-12T10:49:00.95Z</time></trkpt><trkpt lat="41.826899266178465" lon="14.117155802209464"><ele>1147.0</ele><time>2026-04-12T10:49:01.95Z</time></trkpt><trkpt lat="41.826783903356656" lon="14.117136770593573"><ele>1147.0</ele><time>2026-04-12T10:49:02.95Z</time></trkpt><trkpt lat="41.82666141484789" lon="14.117121987061878"><ele>1145.6</ele><time>2026-04-12T10:49:03.95Z</time></trkpt><trkpt lat="41.826548443294215" lon="14.117095513370488"><ele>1144.2</ele><time>2026-04-12T10:49:04.95Z</time></trkpt><trkpt lat="41.82644488832513" lon="14.117071828600798"><ele>1142.8</ele><time>2026-04-12T10:49:05.95Z</time></trkpt><trkpt lat="41.82635187102239" lon="14.117089349385923"><ele>1141.4</ele><time>2026-04-12T10:49:06.95Z</time></trkpt><trkpt lat="41.82624367787233" lon="14.11713295369947"><ele>1140.0</ele><time>2026-04-12T10:49:07.951Z</time></trkpt><trkpt lat="41.826143340821936" lon="14.117169524033907"><ele>1140.0</ele><time>2026-04-12T10:49:08.951Z</time></trkpt><trkpt lat="41.82604632294537" lon="14.117197266633301"><ele>1140.0</ele><time>2026-04-12T10:49:09.951Z</time></trkpt><trkpt lat="41.825959043395265" lon="14.117187498354225"><ele>1140.0</ele><time>2026-04-12T10:49:10.951Z</time></trkpt><trkpt lat="41.825867422435905" lon="14.11714703382637"><ele>1140.0</ele><time>2026-04-12T10:49:11.951Z</time></trkpt><trkpt lat="41.82578841495247" lon="14.117088513064111"><ele>1140.0</ele><time>2026-04-12T10:49:12.951Z</time></trkpt><trkpt lat="41.82573832421442" lon="14.117019587883156"><ele>1140.0</ele><time>2026-04-12T10:49:13.95Z</time></trkpt><trkpt lat="41.82567110743807" lon="14.116943973853008"><ele>1138.25</ele><time>2026-04-12T10:49:14.95Z</time></trkpt><trkpt lat="41.825586369641506" lon="14.116867649084686"><ele>1136.5</ele><time>2026-04-12T10:49:15.95Z</time></trkpt><trkpt lat="41.82549014438914" lon="14.11682311851118"><ele>1134.75</ele><time>2026-04-12T10:49:16.95Z</time></trkpt><trkpt lat="41.82537569078536" lon="14.116817056792051"><ele>1133.0</ele><time>2026-04-12T10:49:17.95Z</time></trkpt><trkpt lat="41.825243716444305" lon="14.116852119270177"><ele>1132.5</ele><time>2026-04-12T10:49:18.95Z</time></trkpt><trkpt lat="41.825103020702045" lon="14.116904638738772"><ele>1132.0</ele><time>2026-04-12T10:49:19.95Z</time></trkpt><trkpt lat="41.82497763303526" lon="14.116950916859642"><ele>1131.5</ele><time>2026-04-12T10:49:20.95Z</time></trkpt><trkpt lat="41.82484892924165" lon="14.11697845063058"><ele>1131.0</ele><time>2026-04-12T10:49:21.95Z</time></trkpt><trkpt lat="41.82471626167041" lon="14.11700803158364"><ele>1131.0</ele><time>2026-04-12T10:49:22.95Z</time></trkpt><trkpt lat="41.824588721543435" lon="14.117045225764722"><ele>1131.0</ele><time>2026-04-12T10:49:23.95Z</time></trkpt><trkpt lat="41.82444413483265" lon="14.117095917431659"><ele>1131.0</ele><time>2026-04-12T10:49:24.95Z</time></trkpt><trkpt lat="41.824338821884616" lon="14.117168459546125"><ele>1131.0</ele><time>2026-04-12T10:49:25.95Z</time></trkpt><trkpt lat="41.82423434238268" lon="14.11722238631384"><ele>1129.8333333333333</ele><time>2026-04-12T10:49:26.95Z</time></trkpt><trkpt lat="41.8241668532589" lon="14.117266842020321"><ele>1128.6666666666667</ele><time>2026-04-12T10:49:27.95Z</time></trkpt><trkpt lat="41.82411942011915" lon="14.11733252177676"><ele>1127.5</ele><time>2026-04-12T10:49:28.95Z</time></trkpt><trkpt lat="41.82408556229963" lon="14.117420863252095"><ele>1126.3333333333335</ele><time>2026-04-12T10:49:29.95Z</time></trkpt><trkpt lat="41.8240830466261" lon="14.117536041905375"><ele>1125.1666666666667</ele><time>2026-04-12T10:49:30.95Z</time></trkpt><trkpt lat="41.82409231789199" lon="14.117652249314617"><ele>1124.0</ele><time>2026-04-12T10:49:31.95Z</time></trkpt><trkpt lat="41.82412820217709" lon="14.117800063503987"><ele>1124.0</ele><time>2026-04-12T10:49:32.95Z</time></trkpt><trkpt lat="41.82415066038263" lon="14.117968369754703"><ele>1124.0</ele><time>2026-04-12T10:49:33.95Z</time></trkpt><trkpt lat="41.82417524016923" lon="14.11815299879537"><ele>1124.0</ele><time>2026-04-12T10:49:34.95Z</time></trkpt><trkpt lat="41.824200364944005" lon="14.118349476893442"><ele>1124.0</ele><time>2026-04-12T10:49:35.95Z</time></trkpt><trkpt lat="41.82421059926648" lon="14.118534433436002"><ele>1123.2</ele><time>2026-04-12T10:49:36.95Z</time></trkpt><trkpt lat="41.82423222011314" lon="14.118664788524745"><ele>1122.4</ele><time>2026-04-12T10:49:37.95Z</time></trkpt><trkpt lat="41.82427265686072" lon="14.118788184115004"><ele>1121.6</ele><time>2026-04-12T10:49:38.95Z</time></trkpt><trkpt lat="41.824326942949575" lon="14.118919154839515"><ele>1120.8</ele><time>2026-04-12T10:49:39.95Z</time></trkpt><trkpt lat="41.82434395088919" lon="14.119066739739647"><ele>1120.0</ele><time>2026-04-12T10:49:40.95Z</time></trkpt><trkpt lat="41.82432602817122" lon="14.119218298464363"><ele>1118.5</ele><time>2026-04-12T10:49:41.95Z</time></trkpt><trkpt lat="41.82428029453417" lon="14.119375978126861"><ele>1117.0</ele><time>2026-04-12T10:49:42.95Z</time></trkpt><trkpt lat="41.82419868538746" lon="14.11954034318302"><ele>1115.5</ele><time>2026-04-12T10:49:43.95Z</time></trkpt><trkpt lat="41.824089989468376" lon="14.119722608398268"><ele>1114.0</ele><time>2026-04-12T10:49:44.95Z</time></trkpt><trkpt lat="41.823977581281724" lon="14.119928976469168"><ele>1114.0</ele><time>2026-04-12T10:49:45.95Z</time></trkpt><trkpt lat="41.823887161331726" lon="14.120085594373368"><ele>1114.0</ele><time>2026-04-12T10:49:46.95Z</time></trkpt><trkpt lat="41.82381595020597" lon="14.120150615834143"><ele>1114.0</ele><time>2026-04-12T10:49:47.95Z</time></trkpt><trkpt lat="41.82374011978479" lon="14.120169447109204"><ele>1114.0</ele><time>2026-04-12T10:49:48.95Z</time></trkpt><trkpt lat="41.82363640801216" lon="14.120188573827729"><ele>1114.0</ele><time>2026-04-12T10:49:49.95Z</time></trkpt><trkpt lat="41.823511406781115" lon="14.120187972883178"><ele>1114.5</ele><time>2026-04-12T10:49:50.95Z</time></trkpt><trkpt lat="41.8233844777288" lon="14.12016963923457"><ele>1115.0</ele><time>2026-04-12T10:49:51.95Z</time></trkpt><trkpt lat="41.823265523923425" lon="14.120158142133224"><ele>1115.5</ele><time>2026-04-12T10:49:52.95Z</time></trkpt><trkpt lat="41.82315420631895" lon="14.120177102844739"><ele>1116.0</ele><time>2026-04-12T10:49:53.95Z</time></trkpt><trkpt lat="41.82304625796833" lon="14.120222068660217"><ele>1116.0</ele><time>2026-04-12T10:49:54.95Z</time></trkpt><trkpt lat="41.82296466636805" lon="14.120258146693802"><ele>1116.0</ele><time>2026-04-12T10:49:55.95Z</time></trkpt><trkpt lat="41.82288705054597" lon="14.120264574259627"><ele>1116.0</ele><time>2026-04-12T10:49:56.95Z</time></trkpt><trkpt lat="41.82282762676509" lon="14.120226609213535"><ele>1116.0</ele><time>2026-04-12T10:49:57.95Z</time></trkpt><trkpt lat="41.82274729656725" lon="14.120125277805396"><ele>1116.0</ele><time>2026-04-12T10:49:58.95Z</time></trkpt><trkpt lat="41.82266410384755" lon="14.120003694980085"><ele>1115.75</ele><time>2026-04-12T10:49:59.95Z</time></trkpt><trkpt lat="41.8225600412498" lon="14.11994817439481"><ele>1115.5</ele><time>2026-04-12T10:50:00.95Z</time></trkpt><trkpt lat="41.82243059511949" lon="14.119913044301573"><ele>1115.25</ele><time>2026-04-12T10:50:01.95Z</time></trkpt><trkpt lat="41.82228148258609" lon="14.119929589984437"><ele>1115.0</ele><time>2026-04-12T10:50:02.95Z</time></trkpt><trkpt lat="41.822161665360625" lon="14.119950749317404"><ele>1115.0</ele><time>2026-04-12T10:50:03.95Z</time></trkpt><trkpt lat="41.822067022644724" lon="14.119991721110262"><ele>1115.0</ele><time>2026-04-12T10:50:04.95Z</time></trkpt><trkpt lat="41.82198750284303" lon="14.120037320398266"><ele>1115.0</ele><time>2026-04-12T10:50:05.95Z</time></trkpt><trkpt lat="41.82190847803454" lon="14.120133521434258"><ele>1115.0</ele><time>2026-04-12T10:50:06.95Z</time></trkpt><trkpt lat="41.82180499968805" lon="14.120269843330828"><ele>1115.0</ele><time>2026-04-12T10:50:07.95Z</time></trkpt><trkpt lat="41.82167943612523" lon="14.120425421738112"><ele>1114.0</ele><time>2026-04-12T10:50:08.95Z</time></trkpt><trkpt lat="41.82152902108076" lon="14.12057882100441"><ele>1113.0</ele><time>2026-04-12T10:50:09.95Z</time></trkpt><trkpt lat="41.82141078080171" lon="14.120712863176808"><ele>1112.0</ele><time>2026-04-12T10:50:10.95Z</time></trkpt><trkpt lat="41.82130644416143" lon="14.12083919204304"><ele>1112.0</ele><time>2026-04-12T10:50:11.95Z</time></trkpt><trkpt lat="41.82121791788386" lon="14.120957065453903"><ele>1112.0</ele><time>2026-04-12T10:50:12.95Z</time></trkpt><trkpt lat="41.82112612818473" lon="14.121093102715344"><ele>1112.0</ele><time>2026-04-12T10:50:13.95Z</time></trkpt><trkpt lat="41.82104813629252" lon="14.121263308102733"><ele>1112.0</ele><time>2026-04-12T10:50:14.95Z</time></trkpt><trkpt lat="41.82097969191569" lon="14.12142651500398"><ele>1107.75</ele><time>2026-04-12T10:50:15.95Z</time></trkpt><trkpt lat="41.820909982937174" lon="14.121577512593003"><ele>1103.5</ele><time>2026-04-12T10:50:16.95Z</time></trkpt><trkpt lat="41.82083945327805" lon="14.121703833317824"><ele>1099.25</ele><time>2026-04-12T10:50:17.95Z</time></trkpt><trkpt lat="41.82075128886133" lon="14.121826155185396"><ele>1095.0</ele><time>2026-04-12T10:50:18.95Z</time></trkpt><trkpt lat="41.820685233998795" lon="14.121916124076495"><ele>1095.0</ele><time>2026-04-12T10:50:19.95Z</time></trkpt><trkpt lat="41.82060069617519" lon="14.121975745343777"><ele>1095.0</ele><time>2026-04-12T10:50:20.95Z</time></trkpt><trkpt lat="41.820487586364614" lon="14.122017311219484"><ele>1095.0</ele><time>2026-04-12T10:50:21.95Z</time></trkpt><trkpt lat="41.820358330044385" lon="14.122034817332143"><ele>1095.0</ele><time>2026-04-12T10:50:22.95Z</time></trkpt><trkpt lat="41.82025616904429" lon="14.122046148216159"><ele>1095.0</ele><time>2026-04-12T10:50:23.95Z</time></trkpt><trkpt lat="41.82019080418203" lon="14.12204057194239"><ele>1094.1666666666667</ele><time>2026-04-12T10:50:25.95Z</time></trkpt><trkpt lat="41.82013344921382" lon="14.121923695962623"><ele>1093.3333333333333</ele><time>2026-04-12T10:51:13.956Z</time></trkpt><trkpt lat="41.82006799062054" lon="14.121850305949772"><ele>1092.5</ele><time>2026-04-12T10:51:16.956Z</time></trkpt><trkpt lat="41.82002210263437" lon="14.121784214949136"><ele>1091.6666666666665</ele><time>2026-04-12T10:51:17.956Z</time></trkpt><trkpt lat="41.81997307219067" lon="14.121699302972257"><ele>1090.8333333333333</ele><time>2026-04-12T10:51:18.956Z</time></trkpt><trkpt lat="41.81991758452466" lon="14.121598412857677"><ele>1090.0</ele><time>2026-04-12T10:51:19.956Z</time></trkpt><trkpt lat="41.81984985598441" lon="14.121496626172528"><ele>1088.5</ele><time>2026-04-12T10:51:20.956Z</time></trkpt><trkpt lat="41.819776891475286" lon="14.121368615591287"><ele>1087.0</ele><time>2026-04-12T10:51:21.956Z</time></trkpt><trkpt lat="41.81967985446247" lon="14.121242153928636"><ele>1085.5</ele><time>2026-04-12T10:51:22.956Z</time></trkpt><trkpt lat="41.819582294706514" lon="14.12111786285431"><ele>1084.0</ele><time>2026-04-12T10:51:23.956Z</time></trkpt><trkpt lat="41.81948658537973" lon="14.120995923766264"><ele>1084.0</ele><time>2026-04-12T10:51:24.956Z</time></trkpt><trkpt lat="41.81939734181819" lon="14.120872902854902"><ele>1084.0</ele><time>2026-04-12T10:51:25.956Z</time></trkpt><trkpt lat="41.819303371910706" lon="14.120781125432808"><ele>1084.0</ele><time>2026-04-12T10:51:26.956Z</time></trkpt><trkpt lat="41.81922996203904" lon="14.120656179494823"><ele>1084.0</ele><time>2026-04-12T10:51:27.956Z</time></trkpt><trkpt lat="41.81914937881225" lon="14.120520707609714"><ele>1082.5</ele><time>2026-04-12T10:51:28.956Z</time></trkpt><trkpt lat="41.81908696259934" lon="14.120350259124823"><ele>1081.0</ele><time>2026-04-12T10:51:29.956Z</time></trkpt><trkpt lat="41.81902733701014" lon="14.120201644804121"><ele>1079.5</ele><time>2026-04-12T10:51:30.956Z</time></trkpt><trkpt lat="41.818969306678476" lon="14.120103341686754"><ele>1078.0</ele><time>2026-04-12T10:51:31.956Z</time></trkpt><trkpt lat="41.81887868765407" lon="14.120035342962623"><ele>1078.0</ele><time>2026-04-12T10:51:32.956Z</time></trkpt><trkpt lat="41.818774489243324" lon="14.120008303374021"><ele>1078.0</ele><time>2026-04-12T10:51:33.956Z</time></trkpt><trkpt lat="41.8186764352037" lon="14.119968242398171"><ele>1078.0</ele><time>2026-04-12T10:51:34.956Z</time></trkpt><trkpt lat="41.81860149165758" lon="14.119897378718179"><ele>1078.0</ele><time>2026-04-12T10:51:35.956Z</time></trkpt><trkpt lat="41.81853136409635" lon="14.119797973737397"><ele>1078.0</ele><time>2026-04-12T10:51:36.956Z</time></trkpt><trkpt lat="41.81845862653239" lon="14.119726725943977"><ele>1076.6</ele><time>2026-04-12T10:51:37.956Z</time></trkpt><trkpt lat="41.81837458101607" lon="14.119688469839051"><ele>1075.1999999999998</ele><time>2026-04-12T10:51:38.956Z</time></trkpt><trkpt lat="41.818298391265806" lon="14.11971215645585"><ele>1073.8</ele><time>2026-04-12T10:51:39.956Z</time></trkpt><trkpt lat="41.81817772374842" lon="14.119760246817897"><ele>1072.3999999999999</ele><time>2026-04-12T10:51:40.956Z</time></trkpt><trkpt lat="41.818077810653755" lon="14.119830521794952"><ele>1071.0</ele><time>2026-04-12T10:51:41.956Z</time></trkpt><trkpt lat="41.817982045388554" lon="14.119843745894718"><ele>1071.0</ele><time>2026-04-12T10:51:42.956Z</time></trkpt><trkpt lat="41.817881288725964" lon="14.119815944389138"><ele>1071.0</ele><time>2026-04-12T10:51:43.956Z</time></trkpt><trkpt lat="41.81776538213325" lon="14.119756507641402"><ele>1071.0</ele><time>2026-04-12T10:51:44.956Z</time></trkpt><trkpt lat="41.81763915114533" lon="14.119702816927399"><ele>1071.0</ele><time>2026-04-12T10:51:45.956Z</time></trkpt><trkpt lat="41.817514502047416" lon="14.11963843681844"><ele>1070.0</ele><time>2026-04-12T10:51:46.956Z</time></trkpt><trkpt lat="41.81737660212621" lon="14.11954875521152"><ele>1069.0</ele><time>2026-04-12T10:51:47.956Z</time></trkpt><trkpt lat="41.81726035700084" lon="14.11946422915372"><ele>1068.0</ele><time>2026-04-12T10:51:48.956Z</time></trkpt><trkpt lat="41.817143804079336" lon="14.119381299209442"><ele>1067.0</ele><time>2026-04-12T10:51:49.956Z</time></trkpt><trkpt lat="41.81703488682142" lon="14.11930648042973"><ele>1067.0</ele><time>2026-04-12T10:51:50.956Z</time></trkpt><trkpt lat="41.81692924860096" lon="14.119237558027782"><ele>1067.0</ele><time>2026-04-12T10:51:51.956Z</time></trkpt><trkpt lat="41.816832521953174" lon="14.119157474375779"><ele>1067.0</ele><time>2026-04-12T10:51:52.956Z</time></trkpt><trkpt lat="41.816740833445785" lon="14.119069879967743"><ele>1067.0</ele><time>2026-04-12T10:51:53.956Z</time></trkpt><trkpt lat="41.816655727193506" lon="14.118968579815505"><ele>1065.25</ele><time>2026-04-12T10:51:54.956Z</time></trkpt><trkpt lat="41.81656339902668" lon="14.118859411939068"><ele>1063.5</ele><time>2026-04-12T10:51:55.955Z</time></trkpt><trkpt lat="41.8164758829507" lon="14.118747288389983"><ele>1061.75</ele><time>2026-04-12T10:51:56.955Z</time></trkpt><trkpt lat="41.816396119401816" lon="14.118650315991514"><ele>1060.0</ele><time>2026-04-12T10:51:57.955Z</time></trkpt><trkpt lat="41.81629657431955" lon="14.118571781109743"><ele>1060.0</ele><time>2026-04-12T10:51:58.955Z</time></trkpt><trkpt lat="41.816184170422574" lon="14.118504900482131"><ele>1060.0</ele><time>2026-04-12T10:51:59.955Z</time></trkpt><trkpt lat="41.81609160886249" lon="14.118447994328248"><ele>1060.0</ele><time>2026-04-12T10:52:00.955Z</time></trkpt><trkpt lat="41.81599515127431" lon="14.118401029115558"><ele>1060.0</ele><time>2026-04-12T10:52:01.955Z</time></trkpt><trkpt lat="41.81589434917416" lon="14.11836786618177"><ele>1060.0</ele><time>2026-04-12T10:52:02.955Z</time></trkpt><trkpt lat="41.81578077936317" lon="14.118337511385263"><ele>1060.6</ele><time>2026-04-12T10:52:03.955Z</time></trkpt><trkpt lat="41.81566331446426" lon="14.118313540313922"><ele>1061.2</ele><time>2026-04-12T10:52:04.955Z</time></trkpt><trkpt lat="41.81554022583337" lon="14.118296079760052"><ele>1061.8</ele><time>2026-04-12T10:52:05.955Z</time></trkpt><trkpt lat="41.815432677598444" lon="14.118288622743467"><ele>1062.4</ele><time>2026-04-12T10:52:06.955Z</time></trkpt><trkpt lat="41.81533755106454" lon="14.118316916085153"><ele>1063.0</ele><time>2026-04-12T10:52:07.955Z</time></trkpt><trkpt lat="41.81525719200052" lon="14.118386157916731"><ele>1063.0</ele><time>2026-04-12T10:52:08.955Z</time></trkpt><trkpt lat="41.815200671032365" lon="14.118502889134488"><ele>1063.0</ele><time>2026-04-12T10:52:09.955Z</time></trkpt><trkpt lat="41.81517468546358" lon="14.11863420470595"><ele>1063.0</ele><time>2026-04-12T10:52:10.955Z</time></trkpt><trkpt lat="41.81516664538384" lon="14.118785070920351"><ele>1063.0</ele><time>2026-04-12T10:52:11.955Z</time></trkpt><trkpt lat="41.81515191027551" lon="14.118944168528513"><ele>1063.0</ele><time>2026-04-12T10:52:12.955Z</time></trkpt><trkpt lat="41.815132385039185" lon="14.119107121996349"><ele>1063.0</ele><time>2026-04-12T10:52:13.955Z</time></trkpt><trkpt lat="41.81509434707759" lon="14.119243552624983"><ele>1063.0</ele><time>2026-04-12T10:52:14.955Z</time></trkpt><trkpt lat="41.81502539704822" lon="14.11937350583485"><ele>1063.0</ele><time>2026-04-12T10:52:15.955Z</time></trkpt><trkpt lat="41.81492601103799" lon="14.119491952546372"><ele>1063.0</ele><time>2026-04-12T10:52:16.955Z</time></trkpt><trkpt lat="41.81480996797333" lon="14.119608812389655"><ele>1063.0</ele><time>2026-04-12T10:52:17.955Z</time></trkpt><trkpt lat="41.814697366786675" lon="14.119698257462954"><ele>1063.0</ele><time>2026-04-12T10:52:18.955Z</time></trkpt><trkpt lat="41.81458434847721" lon="14.119779017341244"><ele>1063.0</ele><time>2026-04-12T10:52:19.955Z</time></trkpt><trkpt lat="41.8144700680868" lon="14.119860840316798"><ele>1063.0</ele><time>2026-04-12T10:52:20.955Z</time></trkpt><trkpt lat="41.81436294497148" lon="14.119955661250867"><ele>1061.75</ele><time>2026-04-12T10:52:21.955Z</time></trkpt><trkpt lat="41.81427079518252" lon="14.120097248345967"><ele>1060.5</ele><time>2026-04-12T10:52:22.955Z</time></trkpt><trkpt lat="41.814208704597405" lon="14.120243228388324"><ele>1059.25</ele><time>2026-04-12T10:52:23.955Z</time></trkpt><trkpt lat="41.814123760156946" lon="14.120353359393418"><ele>1058.0</ele><time>2026-04-12T10:52:24.955Z</time></trkpt><trkpt lat="41.81405131072293" lon="14.120455443228199"><ele>1058.0</ele><time>2026-04-12T10:52:25.955Z</time></trkpt><trkpt lat="41.813953102725115" lon="14.120563346946806"><ele>1058.0</ele><time>2026-04-12T10:52:26.955Z</time></trkpt><trkpt lat="41.81383248720397" lon="14.12063024214994"><ele>1058.0</ele><time>2026-04-12T10:52:27.955Z</time></trkpt><trkpt lat="41.81372439341987" lon="14.120662282072061"><ele>1058.0</ele><time>2026-04-12T10:52:28.955Z</time></trkpt><trkpt lat="41.81361692912364" lon="14.120708012370345"><ele>1056.8</ele><time>2026-04-12T10:52:29.955Z</time></trkpt><trkpt lat="41.81353518682305" lon="14.120743464841228"><ele>1055.6</ele><time>2026-04-12T10:52:30.955Z</time></trkpt><trkpt lat="41.8134540764924" lon="14.12077331447249"><ele>1054.4</ele><time>2026-04-12T10:52:31.955Z</time></trkpt><trkpt lat="41.813375871869006" lon="14.12080562352792"><ele>1053.2</ele><time>2026-04-12T10:52:32.955Z</time></trkpt><trkpt lat="41.813293968633026" lon="14.120820347180999"><ele>1052.0</ele><time>2026-04-12T10:52:33.955Z</time></trkpt><trkpt lat="41.81316947487901" lon="14.120823827226769"><ele>1052.0</ele><time>2026-04-12T10:52:34.955Z</time></trkpt><trkpt lat="41.813054773919326" lon="14.120825316056214"><ele>1052.0</ele><time>2026-04-12T10:52:35.955Z</time></trkpt><trkpt lat="41.81294213448593" lon="14.120822287135768"><ele>1052.0</ele><time>2026-04-12T10:52:36.955Z</time></trkpt><trkpt lat="41.81284535360235" lon="14.120803562365598"><ele>1052.0</ele><time>2026-04-12T10:52:37.955Z</time></trkpt><trkpt lat="41.81275416526491" lon="14.120796426849509"><ele>1052.0</ele><time>2026-04-12T10:52:38.955Z</time></trkpt><trkpt lat="41.81265899658709" lon="14.120785422668748"><ele>1050.1666666666667</ele><time>2026-04-12T10:52:39.955Z</time></trkpt><trkpt lat="41.81256355079362" lon="14.120780702036628"><ele>1048.3333333333335</ele><time>2026-04-12T10:52:40.955Z</time></trkpt><trkpt lat="41.81246378889651" lon="14.120786776702726"><ele>1046.5</ele><time>2026-04-12T10:52:41.955Z</time></trkpt><trkpt lat="41.81237527090984" lon="14.120794045106177"><ele>1044.6666666666667</ele><time>2026-04-12T10:52:42.955Z</time></trkpt><trkpt lat="41.81230095588675" lon="14.120804827632139"><ele>1042.8333333333333</ele><time>2026-04-12T10:52:43.955Z</time></trkpt><trkpt lat="41.812221941466106" lon="14.120811094984221"><ele>1041.0</ele><time>2026-04-12T10:52:44.955Z</time></trkpt><trkpt lat="41.81212171401873" lon="14.120805053882394"><ele>1041.0</ele><time>2026-04-12T10:52:46.955Z</time></trkpt><trkpt lat="41.81205498478879" lon="14.120824337617508"><ele>1041.0</ele><time>2026-04-12T10:52:48.955Z</time></trkpt><trkpt lat="41.8120202207282" lon="14.12094357854918"><ele>1041.0</ele><time>2026-04-12T10:52:51.955Z</time></trkpt><trkpt lat="41.811951091603845" lon="14.121036581057664"><ele>1041.0</ele><time>2026-04-12T10:52:54.955Z</time></trkpt><trkpt lat="41.811861005415246" lon="14.121087216600918"><ele>1041.0</ele><time>2026-04-12T10:52:56.955Z</time></trkpt><trkpt lat="41.811765942743186" lon="14.121086119286087"><ele>1039.8</ele><time>2026-04-12T10:52:58.955Z</time></trkpt><trkpt lat="41.811644181211356" lon="14.121047475780808"><ele>1038.6</ele><time>2026-04-12T10:53:00.955Z</time></trkpt><trkpt lat="41.811533488105184" lon="14.121067280609946"><ele>1037.4</ele><time>2026-04-12T10:53:02.955Z</time></trkpt><trkpt lat="41.811426371797275" lon="14.121149839723692"><ele>1036.2</ele><time>2026-04-12T10:53:04.955Z</time></trkpt><trkpt lat="41.81135283254029" lon="14.121178861315125"><ele>1035.0</ele><time>2026-04-12T10:53:05.955Z</time></trkpt><trkpt lat="41.81128987882512" lon="14.121194398403514"><ele>1035.0</ele><time>2026-04-12T10:53:06.956Z</time></trkpt><trkpt lat="41.81122478642153" lon="14.121261418757614"><ele>1035.0</ele><time>2026-04-12T10:53:08.956Z</time></trkpt><trkpt lat="41.81119452741239" lon="14.121394356763092"><ele>1035.0</ele><time>2026-04-12T10:53:10.956Z</time></trkpt><trkpt lat="41.81113408698083" lon="14.121451802087158"><ele>1035.0</ele><time>2026-04-12T10:53:11.956Z</time></trkpt><trkpt lat="41.81108818847331" lon="14.121582941543736"><ele>1035.0</ele><time>2026-04-12T10:53:12.955Z</time></trkpt><trkpt lat="41.81103349785903" lon="14.121662867366833"><ele>1035.0</ele><time>2026-04-12T10:53:13.955Z</time></trkpt><trkpt lat="41.81088924323541" lon="14.12167250567968"><ele>1032.75</ele><time>2026-04-12T10:53:15.955Z</time></trkpt><trkpt lat="41.81079475231038" lon="14.12162735454638"><ele>1030.5</ele><time>2026-04-12T10:53:16.955Z</time></trkpt><trkpt lat="41.81068232063258" lon="14.121561309235446"><ele>1028.25</ele><time>2026-04-12T10:53:17.955Z</time></trkpt><trkpt lat="41.81056613418014" lon="14.121507367911455"><ele>1026.0</ele><time>2026-04-12T10:53:18.956Z</time></trkpt><trkpt lat="41.810459042561426" lon="14.121479481671605"><ele>1026.0</ele><time>2026-04-12T10:53:19.955Z</time></trkpt><trkpt lat="41.81035956466128" lon="14.12148502746867"><ele>1026.0</ele><time>2026-04-12T10:53:20.955Z</time></trkpt><trkpt lat="41.810266921544915" lon="14.12147409291647"><ele>1026.0</ele><time>2026-04-12T10:53:21.955Z</time></trkpt><trkpt lat="41.81016368750702" lon="14.121448302087849"><ele>1026.0</ele><time>2026-04-12T10:53:22.955Z</time></trkpt><trkpt lat="41.81005293393364" lon="14.121401606234052"><ele>1026.0</ele><time>2026-04-12T10:53:23.955Z</time></trkpt><trkpt lat="41.8099216399195" lon="14.121354003848618"><ele>1020.25</ele><time>2026-04-12T10:53:24.955Z</time></trkpt><trkpt lat="41.80978357403771" lon="14.121337595385146"><ele>1014.5</ele><time>2026-04-12T10:53:25.955Z</time></trkpt><trkpt lat="41.80965455929368" lon="14.121317239782913"><ele>1008.75</ele><time>2026-04-12T10:53:26.955Z</time></trkpt><trkpt lat="41.80952021309757" lon="14.121283296010693"><ele>1003.0</ele><time>2026-04-12T10:53:27.955Z</time></trkpt><trkpt lat="41.80940804372589" lon="14.121250356911508"><ele>998.9999999999999</ele><time>2026-04-12T10:53:28.955Z</time></trkpt><trkpt lat="41.809319024633965" lon="14.12121557407609"><ele>995.0</ele><time>2026-04-12T10:53:29.955Z</time></trkpt><trkpt lat="41.80923012732118" lon="14.121207814588466"><ele>991.0</ele><time>2026-04-12T10:53:30.955Z</time></trkpt><trkpt lat="41.8091463264933" lon="14.12122005101208"><ele>987.0</ele><time>2026-04-12T10:53:31.955Z</time></trkpt><trkpt lat="41.80907081199541" lon="14.121237130375993"><ele>982.9999999999999</ele><time>2026-04-12T10:53:32.955Z</time></trkpt><trkpt lat="41.80898363867786" lon="14.12124285450825"><ele>979.0</ele><time>2026-04-12T10:53:33.955Z</time></trkpt><trkpt lat="41.80889392384327" lon="14.121229570347497"><ele>978.9999999999999</ele><time>2026-04-12T10:53:34.955Z</time></trkpt><trkpt lat="41.80879866161408" lon="14.121214461131524"><ele>979.0</ele><time>2026-04-12T10:53:35.955Z</time></trkpt><trkpt lat="41.80871629346987" lon="14.121208616275071"><ele>979.0</ele><time>2026-04-12T10:53:36.955Z</time></trkpt><trkpt lat="41.808645742175486" lon="14.121197969544843"><ele>979.0</ele><time>2026-04-12T10:53:37.955Z</time></trkpt><trkpt lat="41.80857074305864" lon="14.121182271741356"><ele>978.9999999999999</ele><time>2026-04-12T10:53:39.955Z</time></trkpt><trkpt lat="41.80852122481868" lon="14.12110308951453"><ele>979.0</ele><time>2026-04-12T10:53:42.955Z</time></trkpt><trkpt lat="41.80852629448496" lon="14.121013699684797"><ele>979.0</ele><time>2026-04-12T10:53:44.955Z</time></trkpt><trkpt lat="41.80854644389571" lon="14.120860695444597"><ele>979.0000000000001</ele><time>2026-04-12T10:53:46.955Z</time></trkpt><trkpt lat="41.80856278915036" lon="14.1206981023645"><ele>979.0000000000001</ele><time>2026-04-12T10:53:48.954Z</time></trkpt><trkpt lat="41.80857245291743" lon="14.120582938818435"><ele>979.0</ele><time>2026-04-12T10:53:49.954Z</time></trkpt><trkpt lat="41.808579186680156" lon="14.120432992210633"><ele>979.0</ele><time>2026-04-12T10:53:50.954Z</time></trkpt><trkpt lat="41.808562393968074" lon="14.120271840983554"><ele>977.8000000000001</ele><time>2026-04-12T10:53:51.954Z</time></trkpt><trkpt lat="41.808536902811234" lon="14.120117422042277"><ele>976.6000000000001</ele><time>2026-04-12T10:53:52.954Z</time></trkpt><trkpt lat="41.80852989588639" lon="14.11998826032904"><ele>975.4</ele><time>2026-04-12T10:53:53.954Z</time></trkpt><trkpt lat="41.80850870065916" lon="14.119872546923368"><ele>974.2</ele><time>2026-04-12T10:53:54.954Z</time></trkpt><trkpt lat="41.80849028771984" lon="14.11978913721395"><ele>973.0</ele><time>2026-04-12T10:53:55.954Z</time></trkpt><trkpt lat="41.808454483808156" lon="14.119648472464918"><ele>968.2</ele><time>2026-04-12T10:53:57.954Z</time></trkpt><trkpt lat="41.80845371118266" lon="14.119509313037996"><ele>963.4</ele><time>2026-04-12T10:53:58.954Z</time></trkpt><trkpt lat="41.808399458883656" lon="14.119314410490881"><ele>958.6000000000001</ele><time>2026-04-12T10:53:59.954Z</time></trkpt><trkpt lat="41.80835849584967" lon="14.119171170833184"><ele>953.8000000000001</ele><time>2026-04-12T10:54:00.954Z</time></trkpt><trkpt lat="41.80835431325931" lon="14.119079159146596"><ele>949.0</ele><time>2026-04-12T10:54:01.954Z</time></trkpt><trkpt lat="41.80836404005645" lon="14.118967317506025"><ele>946.6</ele><time>2026-04-12T10:54:02.954Z</time></trkpt><trkpt lat="41.808355469993245" lon="14.118854381393005"><ele>944.2</ele><time>2026-04-12T10:54:03.954Z</time></trkpt><trkpt lat="41.808357220149766" lon="14.118711018866273"><ele>941.8000000000001</ele><time>2026-04-12T10:54:04.954Z</time></trkpt><trkpt lat="41.80836593363698" lon="14.118570174468578"><ele>939.4000000000001</ele><time>2026-04-12T10:54:05.954Z</time></trkpt><trkpt lat="41.80839072824006" lon="14.118431709121776"><ele>937.0</ele><time>2026-04-12T10:54:06.954Z</time></trkpt><trkpt lat="41.808418991950944" lon="14.118273662083213"><ele>934.25</ele><time>2026-04-12T10:54:07.954Z</time></trkpt><trkpt lat="41.808446074562596" lon="14.118130295003313"><ele>931.5</ele><time>2026-04-12T10:54:08.954Z</time></trkpt><trkpt lat="41.80848070655956" lon="14.118007297037444"><ele>928.75</ele><time>2026-04-12T10:54:09.954Z</time></trkpt><trkpt lat="41.80852583085295" lon="14.117852792718166"><ele>926.0</ele><time>2026-04-12T10:54:10.954Z</time></trkpt><trkpt lat="41.80853554621005" lon="14.11767305338267"><ele>926.0</ele><time>2026-04-12T10:54:11.954Z</time></trkpt><trkpt lat="41.80851563592725" lon="14.117489100264793"><ele>925.9999999999999</ele><time>2026-04-12T10:54:12.954Z</time></trkpt><trkpt lat="41.808496947133094" lon="14.117337334923688"><ele>925.9999999999999</ele><time>2026-04-12T10:54:13.954Z</time></trkpt><trkpt lat="41.8084617833266" lon="14.117231038337112"><ele>926.0</ele><time>2026-04-12T10:54:14.954Z</time></trkpt><trkpt lat="41.80842485673961" lon="14.117129165162384"><ele>926.0</ele><time>2026-04-12T10:54:15.954Z</time></trkpt><trkpt lat="41.80833788529945" lon="14.117032548597162"><ele>926.0</ele><time>2026-04-12T10:54:16.954Z</time></trkpt><trkpt lat="41.8082187458289" lon="14.116909620446291"><ele>926.0</ele><time>2026-04-12T10:54:17.954Z</time></trkpt><trkpt lat="41.80806447864189" lon="14.116783130303165"><ele>926.0</ele><time>2026-04-12T10:54:18.954Z</time></trkpt><trkpt lat="41.80792532499375" lon="14.116666887204886"><ele>926.0</ele><time>2026-04-12T10:54:19.954Z</time></trkpt><trkpt lat="41.80780877927305" lon="14.116574578647656"><ele>926.0</ele><time>2026-04-12T10:54:20.954Z</time></trkpt><trkpt lat="41.807704559436566" lon="14.116504995000593"><ele>926.0</ele><time>2026-04-12T10:54:21.954Z</time></trkpt><trkpt lat="41.807598147510994" lon="14.116417051087664"><ele>926.0</ele><time>2026-04-12T10:54:22.954Z</time></trkpt><trkpt lat="41.80748774417744" lon="14.116317939068958"><ele>923.0</ele><time>2026-04-12T10:54:23.954Z</time></trkpt><trkpt lat="41.807385917437024" lon="14.116224464420304"><ele>919.9999999999999</ele><time>2026-04-12T10:54:24.954Z</time></trkpt><trkpt lat="41.80729897311662" lon="14.11614722117805"><ele>916.9999999999999</ele><time>2026-04-12T10:54:25.954Z</time></trkpt><trkpt lat="41.80723750598889" lon="14.116072743561407"><ele>914.0</ele><time>2026-04-12T10:54:26.954Z</time></trkpt><trkpt lat="41.80720373052447" lon="14.115998330825374"><ele>911.0</ele><time>2026-04-12T10:54:27.954Z</time></trkpt><trkpt lat="41.807202177689234" lon="14.115858150808549"><ele>910.8</ele><time>2026-04-12T10:54:29.954Z</time></trkpt><trkpt lat="41.807233589871025" lon="14.115669260763234"><ele>910.5999999999999</ele><time>2026-04-12T10:54:31.954Z</time></trkpt><trkpt lat="41.80723077780667" lon="14.11554877811184"><ele>910.4</ele><time>2026-04-12T10:54:32.954Z</time></trkpt><trkpt lat="41.80722661154062" lon="14.11541818420173"><ele>910.2</ele><time>2026-04-12T10:54:33.954Z</time></trkpt><trkpt lat="41.807230221350096" lon="14.11528984937802"><ele>910.0</ele><time>2026-04-12T10:54:34.954Z</time></trkpt><trkpt lat="41.80726178870346" lon="14.11516702964776"><ele>909.9999999999999</ele><time>2026-04-12T10:54:35.954Z</time></trkpt><trkpt lat="41.80728961221758" lon="14.115075627020575"><ele>910.0</ele><time>2026-04-12T10:54:36.954Z</time></trkpt><trkpt lat="41.80730375187825" lon="14.114975388793097"><ele>910.0</ele><time>2026-04-12T10:54:37.954Z</time></trkpt><trkpt lat="41.80730098304663" lon="14.114884676439337"><ele>910.0</ele><time>2026-04-12T10:54:38.954Z</time></trkpt><trkpt lat="41.807303434350786" lon="14.114782539110376"><ele>909.9999999999999</ele><time>2026-04-12T10:54:39.954Z</time></trkpt><trkpt lat="41.807316482326634" lon="14.11466957202873"><ele>910.0</ele><time>2026-04-12T10:54:40.954Z</time></trkpt><trkpt lat="41.807338686956804" lon="14.114564586639734"><ele>909.3333333333333</ele><time>2026-04-12T10:54:41.954Z</time></trkpt><trkpt lat="41.80737429863872" lon="14.11446916912497"><ele>908.6666666666666</ele><time>2026-04-12T10:54:42.954Z</time></trkpt><trkpt lat="41.80737886129879" lon="14.114370408225053"><ele>908.0</ele><time>2026-04-12T10:54:43.954Z</time></trkpt><trkpt lat="41.80738868925589" lon="14.11428557485711"><ele>907.3333333333333</ele><time>2026-04-12T10:54:44.954Z</time></trkpt><trkpt lat="41.80739086681623" lon="14.114152019249259"><ele>906.6666666666666</ele><time>2026-04-12T10:54:46.954Z</time></trkpt><trkpt lat="41.80743059270255" lon="14.114060397861994"><ele>906.0</ele><time>2026-04-12T10:54:48.954Z</time></trkpt><trkpt lat="41.80749905101527" lon="14.11397471179196"><ele>906.0</ele><time>2026-04-12T10:54:51.954Z</time></trkpt><trkpt lat="41.80748721547911" lon="14.114096560158169"><ele>905.9999999999999</ele><time>2026-04-12T10:54:58.954Z</time></trkpt><trkpt lat="41.807424632917794" lon="14.114156994905022"><ele>905.9999999999999</ele><time>2026-04-12T10:55:00.954Z</time></trkpt><trkpt lat="41.80728236485415" lon="14.114093273415655"><ele>906.0</ele><time>2026-04-12T10:55:15.955Z</time></trkpt><trkpt lat="41.80720220029004" lon="14.114023573513663"><ele>906.0</ele><time>2026-04-12T10:55:16.955Z</time></trkpt><trkpt lat="41.8071221487185" lon="14.113944189635143"><ele>904.7142857142856</ele><time>2026-04-12T10:55:17.955Z</time></trkpt><trkpt lat="41.80710184520973" lon="14.11386205200934"><ele>903.4285714285713</ele><time>2026-04-12T10:55:18.955Z</time></trkpt><trkpt lat="41.807128936308295" lon="14.113770174478068"><ele>902.1428571428571</ele><time>2026-04-12T10:55:19.955Z</time></trkpt><trkpt lat="41.80718363100334" lon="14.113681523209495"><ele>900.8571428571428</ele><time>2026-04-12T10:55:20.955Z</time></trkpt><trkpt lat="41.807228669873346" lon="14.113608076151579"><ele>899.5714285714284</ele><time>2026-04-12T10:55:22.955Z</time></trkpt><trkpt lat="41.807162109531156" lon="14.113579101364426"><ele>898.2857142857143</ele><time>2026-04-12T10:55:26.955Z</time></trkpt><trkpt lat="41.80711021870881" lon="14.113517477803422"><ele>897.0</ele><time>2026-04-12T10:55:27.955Z</time></trkpt><trkpt lat="41.80705608204405" lon="14.113416636185821"><ele>896.0</ele><time>2026-04-12T10:55:29.955Z</time></trkpt><trkpt lat="41.80713156708035" lon="14.113220070780685"><ele>895.0</ele><time>2026-04-12T10:55:31.955Z</time></trkpt><trkpt lat="41.80717504008038" lon="14.113071928461261"><ele>894.0</ele><time>2026-04-12T10:55:32.955Z</time></trkpt><trkpt lat="41.80722306361667" lon="14.11293213078974"><ele>893.0</ele><time>2026-04-12T10:55:33.955Z</time></trkpt><trkpt lat="41.80723977751205" lon="14.1128210790933"><ele>893.0</ele><time>2026-04-12T10:55:34.955Z</time></trkpt><trkpt lat="41.80722707535687" lon="14.112699087902588"><ele>893.0</ele><time>2026-04-12T10:55:35.955Z</time></trkpt><trkpt lat="41.807202014369224" lon="14.112544717385383"><ele>893.0</ele><time>2026-04-12T10:55:36.955Z</time></trkpt><trkpt lat="41.807186678624134" lon="14.11238769656694"><ele>893.0</ele><time>2026-04-12T10:55:37.955Z</time></trkpt><trkpt lat="41.807183017065974" lon="14.112260334460316"><ele>893.0</ele><time>2026-04-12T10:55:38.955Z</time></trkpt><trkpt lat="41.807252854018714" lon="14.112138901453127"><ele>892.2</ele><time>2026-04-12T10:55:40.955Z</time></trkpt><trkpt lat="41.80729859349676" lon="14.11207806239669"><ele>891.4</ele><time>2026-04-12T10:55:41.955Z</time></trkpt><trkpt lat="41.80722540073466" lon="14.11194645640135"><ele>890.6000000000001</ele><time>2026-04-12T10:55:43.955Z</time></trkpt><trkpt lat="41.80713286221414" lon="14.111894678402477"><ele>889.8000000000001</ele><time>2026-04-12T10:55:44.955Z</time></trkpt><trkpt lat="41.807028544340106" lon="14.111806209229243"><ele>889.0</ele><time>2026-04-12T10:55:45.955Z</time></trkpt><trkpt lat="41.806952057965134" lon="14.111685270087131"><ele>889.25</ele><time>2026-04-12T10:55:46.955Z</time></trkpt><trkpt lat="41.806882870964024" lon="14.111512089613269"><ele>889.5</ele><time>2026-04-12T10:55:47.955Z</time></trkpt><trkpt lat="41.806811114741315" lon="14.111347573034644"><ele>889.75</ele><time>2026-04-12T10:55:48.955Z</time></trkpt><trkpt lat="41.806738231311854" lon="14.111210363317346"><ele>890.0</ele><time>2026-04-12T10:55:49.955Z</time></trkpt><trkpt lat="41.80668991012687" lon="14.111114633352516"><ele>890.0</ele><time>2026-04-12T10:55:50.955Z</time></trkpt><trkpt lat="41.806621867973426" lon="14.1110310744127"><ele>890.0</ele><time>2026-04-12T10:55:51.955Z</time></trkpt><trkpt lat="41.8065474020796" lon="14.110972243526481"><ele>890.0</ele><time>2026-04-12T10:55:52.955Z</time></trkpt><trkpt lat="41.806459018778625" lon="14.110926145935439"><ele>890.0</ele><time>2026-04-12T10:55:53.955Z</time></trkpt><trkpt lat="41.80636878980041" lon="14.110885330891554"><ele>890.0</ele><time>2026-04-12T10:55:54.955Z</time></trkpt><trkpt lat="41.80627596393413" lon="14.110813151374364"><ele>890.0000000000001</ele><time>2026-04-12T10:55:55.955Z</time></trkpt><trkpt lat="41.80620389801093" lon="14.11075109806339"><ele>890.0</ele><time>2026-04-12T10:55:56.955Z</time></trkpt><trkpt lat="41.806192853930185" lon="14.110616315253411"><ele>890.0</ele><time>2026-04-12T10:55:58.955Z</time></trkpt><trkpt lat="41.80623762585197" lon="14.110554250908406"><ele>890.0</ele><time>2026-04-12T10:55:59.955Z</time></trkpt><trkpt lat="41.806296568169905" lon="14.110517171711127"><ele>890.0000000000001</ele><time>2026-04-12T10:56:00.955Z</time></trkpt><trkpt lat="41.80638149053863" lon="14.110485651297399"><ele>890.0</ele><time>2026-04-12T10:56:01.955Z</time></trkpt><trkpt lat="41.80646319891416" lon="14.110458815912187"><ele>888.2857142857143</ele><time>2026-04-12T10:56:02.955Z</time></trkpt><trkpt lat="41.80654344107831" lon="14.110439006651328"><ele>886.5714285714286</ele><time>2026-04-12T10:56:03.955Z</time></trkpt><trkpt lat="41.806599280629555" lon="14.110387959745688"><ele>884.8571428571429</ele><time>2026-04-12T10:56:04.955Z</time></trkpt><trkpt lat="41.80663067169737" lon="14.110311760528763"><ele>883.1428571428571</ele><time>2026-04-12T10:56:05.955Z</time></trkpt><trkpt lat="41.80661426701754" lon="14.110229512049969"><ele>881.4285714285713</ele><time>2026-04-12T10:56:06.955Z</time></trkpt><trkpt lat="41.80660674598751" lon="14.110131962744807"><ele>879.7142857142857</ele><time>2026-04-12T10:56:07.955Z</time></trkpt><trkpt lat="41.80659840087805" lon="14.11003130979197"><ele>878.0</ele><time>2026-04-12T10:56:08.955Z</time></trkpt><trkpt lat="41.80658597499284" lon="14.109942433109707"><ele>875.6666666666667</ele><time>2026-04-12T10:56:09.955Z</time></trkpt><trkpt lat="41.806569352592874" lon="14.109849836088344"><ele>873.3333333333334</ele><time>2026-04-12T10:56:10.955Z</time></trkpt><trkpt lat="41.80651887288564" lon="14.109757153249095"><ele>871.0</ele><time>2026-04-12T10:56:11.955Z</time></trkpt><trkpt lat="41.80646443718828" lon="14.10968503684247"><ele>868.6666666666667</ele><time>2026-04-12T10:56:12.955Z</time></trkpt><trkpt lat="41.80641148296102" lon="14.109617856536145"><ele>866.3333333333334</ele><time>2026-04-12T10:56:13.955Z</time></trkpt><trkpt lat="41.80634162881517" lon="14.109563970320606"><ele>864.0</ele><time>2026-04-12T10:56:14.955Z</time></trkpt><trkpt lat="41.80626043356717" lon="14.109508766234304"><ele>864.0</ele><time>2026-04-12T10:56:15.955Z</time></trkpt><trkpt lat="41.80621994097423" lon="14.109440232035556"><ele>864.0</ele><time>2026-04-12T10:56:16.955Z</time></trkpt><trkpt lat="41.80620877460431" lon="14.109332672470074"><ele>864.0</ele><time>2026-04-12T10:56:17.955Z</time></trkpt><trkpt lat="41.80622820250637" lon="14.109215180950448"><ele>864.0</ele><time>2026-04-12T10:56:18.955Z</time></trkpt><trkpt lat="41.80623049552115" lon="14.109110134071942"><ele>864.0</ele><time>2026-04-12T10:56:19.955Z</time></trkpt><trkpt lat="41.80619569822192" lon="14.109031134595067"><ele>864.0</ele><time>2026-04-12T10:56:20.955Z</time></trkpt><trkpt lat="41.80613267831316" lon="14.108977896824683"><ele>862.6666666666666</ele><time>2026-04-12T10:56:21.955Z</time></trkpt><trkpt lat="41.806062114788965" lon="14.108961366724845"><ele>861.3333333333333</ele><time>2026-04-12T10:56:22.955Z</time></trkpt><trkpt lat="41.805988399918085" lon="14.108928443529535"><ele>860.0</ele><time>2026-04-12T10:56:23.955Z</time></trkpt><trkpt lat="41.80594308032619" lon="14.108764771732236"><ele>858.6666666666666</ele><time>2026-04-12T10:56:25.955Z</time></trkpt><trkpt lat="41.80594111325906" lon="14.108660367712567"><ele>857.3333333333333</ele><time>2026-04-12T10:56:26.955Z</time></trkpt><trkpt lat="41.805902931045026" lon="14.108573519828647"><ele>856.0</ele><time>2026-04-12T10:56:27.955Z</time></trkpt><trkpt lat="41.80588556249937" lon="14.108418438646817"><ele>855.8</ele><time>2026-04-12T10:56:29.955Z</time></trkpt><trkpt lat="41.80584794373722" lon="14.108271406744286"><ele>855.5999999999999</ele><time>2026-04-12T10:56:31.955Z</time></trkpt><trkpt lat="41.805780789308315" lon="14.108218333799261"><ele>855.4</ele><time>2026-04-12T10:56:32.955Z</time></trkpt><trkpt lat="41.80571492247341" lon="14.108149765925152"><ele>855.2</ele><time>2026-04-12T10:56:33.954Z</time></trkpt><trkpt lat="41.80565135185144" lon="14.108085953412369"><ele>855.0</ele><time>2026-04-12T10:56:34.954Z</time></trkpt><trkpt lat="41.805569431057954" lon="14.108002834703615"><ele>852.6</ele><time>2026-04-12T10:56:35.954Z</time></trkpt><trkpt lat="41.80548895134176" lon="14.107913718527064"><ele>850.2</ele><time>2026-04-12T10:56:36.954Z</time></trkpt><trkpt lat="41.80540520066727" lon="14.107805017107818"><ele>847.8</ele><time>2026-04-12T10:56:37.954Z</time></trkpt><trkpt lat="41.80533856501281" lon="14.107692398421245"><ele>845.4</ele><time>2026-04-12T10:56:38.954Z</time></trkpt><trkpt lat="41.805300268099295" lon="14.10761613989464"><ele>843.0</ele><time>2026-04-12T10:56:39.954Z</time></trkpt><trkpt lat="41.805269438148" lon="14.107526478443475"><ele>842.2</ele><time>2026-04-12T10:56:40.954Z</time></trkpt><trkpt lat="41.80523689010556" lon="14.10740349587325"><ele>841.4</ele><time>2026-04-12T10:56:41.954Z</time></trkpt><trkpt lat="41.80520825819476" lon="14.107270508269316"><ele>840.6</ele><time>2026-04-12T10:56:42.954Z</time></trkpt><trkpt lat="41.805187334283595" lon="14.107139729345054"><ele>839.8000000000001</ele><time>2026-04-12T10:56:43.954Z</time></trkpt><trkpt lat="41.805163879733755" lon="14.107046927364628"><ele>839.0</ele><time>2026-04-12T10:56:44.954Z</time></trkpt><trkpt lat="41.80509930878019" lon="14.106979030785714"><ele>838.1666666666667</ele><time>2026-04-12T10:56:45.954Z</time></trkpt><trkpt lat="41.80503035991312" lon="14.106926945983176"><ele>837.3333333333334</ele><time>2026-04-12T10:56:46.954Z</time></trkpt><trkpt lat="41.80499230870793" lon="14.10684785921119"><ele>836.5</ele><time>2026-04-12T10:56:47.954Z</time></trkpt><trkpt lat="41.804976522249355" lon="14.106743423280493"><ele>835.6666666666667</ele><time>2026-04-12T10:56:49.954Z</time></trkpt><trkpt lat="41.804943743139475" lon="14.106650170315502"><ele>834.8333333333334</ele><time>2026-04-12T10:58:17.955Z</time></trkpt><trkpt lat="41.804888269333944" lon="14.10659523871305"><ele>834.0</ele><time>2026-04-12T10:58:21.955Z</time></trkpt><trkpt lat="41.80475946042079" lon="14.106668868263794"><ele>834.0</ele><time>2026-04-12T10:58:23.955Z</time></trkpt><trkpt lat="41.804675644983696" lon="14.106712753779329"><ele>834.0</ele><time>2026-04-12T10:58:24.955Z</time></trkpt><trkpt lat="41.804576263755266" lon="14.106771690448854"><ele>834.0</ele><time>2026-04-12T10:58:25.955Z</time></trkpt><trkpt lat="41.804456982243735" lon="14.106831249341784"><ele>834.0</ele><time>2026-04-12T10:58:26.955Z</time></trkpt><trkpt lat="41.804313225833674" lon="14.106890275489148"><ele>832.0</ele><time>2026-04-12T10:58:27.955Z</time></trkpt><trkpt lat="41.80416221553828" lon="14.10691774064581"><ele>830.0</ele><time>2026-04-12T10:58:28.955Z</time></trkpt><trkpt lat="41.80400584638957" lon="14.106905933988287"><ele>828.0</ele><time>2026-04-12T10:58:29.955Z</time></trkpt><trkpt lat="41.80384247849931" lon="14.10684562807035"><ele>828.0</ele><time>2026-04-12T10:58:30.955Z</time></trkpt><trkpt lat="41.80367426915789" lon="14.106759406637948"><ele>828.0</ele><time>2026-04-12T10:58:31.955Z</time></trkpt><trkpt lat="41.80350370354919" lon="14.106632174165494"><ele>828.0</ele><time>2026-04-12T10:58:32.955Z</time></trkpt><trkpt lat="41.80334328959448" lon="14.106498360613163"><ele>824.6666666666667</ele><time>2026-04-12T10:58:33.955Z</time></trkpt><trkpt lat="41.803193463750894" lon="14.106349431732102"><ele>821.3333333333334</ele><time>2026-04-12T10:58:34.955Z</time></trkpt><trkpt lat="41.803050092049446" lon="14.106210294654511"><ele>818.0</ele><time>2026-04-12T10:58:35.955Z</time></trkpt><trkpt lat="41.80291214879762" lon="14.106076033151545"><ele>818.0</ele><time>2026-04-12T10:58:36.955Z</time></trkpt><trkpt lat="41.80277552964639" lon="14.10595867933493"><ele>818.0</ele><time>2026-04-12T10:58:37.955Z</time></trkpt><trkpt lat="41.802637928801836" lon="14.105849877765372"><ele>818.0</ele><time>2026-04-12T10:58:38.955Z</time></trkpt><trkpt lat="41.802499612008624" lon="14.105771566054074"><ele>817.75</ele><time>2026-04-12T10:58:39.955Z</time></trkpt><trkpt lat="41.802354781334216" lon="14.105721640128444"><ele>817.5</ele><time>2026-04-12T10:58:40.955Z</time></trkpt><trkpt lat="41.802211517291596" lon="14.10568281661816"><ele>817.25</ele><time>2026-04-12T10:58:41.955Z</time></trkpt><trkpt lat="41.80207048887733" lon="14.10568763122807"><ele>817.0</ele><time>2026-04-12T10:58:42.955Z</time></trkpt><trkpt lat="41.80191860552232" lon="14.105726097984638"><ele>815.0</ele><time>2026-04-12T10:58:43.955Z</time></trkpt><trkpt lat="41.801767545700635" lon="14.105764677983403"><ele>813.0</ele><time>2026-04-12T10:58:44.955Z</time></trkpt><trkpt lat="41.80160132723927" lon="14.10576909542072"><ele>811.0</ele><time>2026-04-12T10:58:45.955Z</time></trkpt><trkpt lat="41.80144520263357" lon="14.10574256892249"><ele>810.6666666666666</ele><time>2026-04-12T10:58:46.955Z</time></trkpt><trkpt lat="41.801292239275" lon="14.105668901481863"><ele>810.3333333333333</ele><time>2026-04-12T10:58:47.955Z</time></trkpt><trkpt lat="41.80114059710294" lon="14.105549613863625"><ele>810.0</ele><time>2026-04-12T10:58:48.954Z</time></trkpt><trkpt lat="41.80098726670934" lon="14.105419304787585"><ele>808.0</ele><time>2026-04-12T10:58:49.954Z</time></trkpt><trkpt lat="41.80083301999516" lon="14.105293057906485"><ele>806.0</ele><time>2026-04-12T10:58:50.954Z</time></trkpt><trkpt lat="41.80068278134888" lon="14.105182762472259"><ele>804.0</ele><time>2026-04-12T10:58:51.954Z</time></trkpt><trkpt lat="41.800532742724684" lon="14.105092603373532"><ele>804.0</ele><time>2026-04-12T10:58:52.954Z</time></trkpt><trkpt lat="41.800370604567824" lon="14.105032018486861"><ele>804.0</ele><time>2026-04-12T10:58:53.954Z</time></trkpt><trkpt lat="41.800199627892766" lon="14.104999615970343"><ele>804.0</ele><time>2026-04-12T10:58:54.954Z</time></trkpt><trkpt lat="41.80002157654704" lon="14.105005883124377"><ele>803.3333333333333</ele><time>2026-04-12T10:58:55.954Z</time></trkpt><trkpt lat="41.79984371378641" lon="14.105034034557645"><ele>802.6666666666666</ele><time>2026-04-12T10:58:56.954Z</time></trkpt><trkpt lat="41.79966104127698" lon="14.10505106782479"><ele>802.0</ele><time>2026-04-12T10:58:57.954Z</time></trkpt><trkpt lat="41.79947530392373" lon="14.10507301463858"><ele>801.0</ele><time>2026-04-12T10:58:58.954Z</time></trkpt><trkpt lat="41.79928333673518" lon="14.105094020937361"><ele>800.0</ele><time>2026-04-12T10:58:59.954Z</time></trkpt><trkpt lat="41.799089672477315" lon="14.105111549902176"><ele>799.0</ele><time>2026-04-12T10:59:00.954Z</time></trkpt><trkpt lat="41.79889474039905" lon="14.105125356018338"><ele>799.0</ele><time>2026-04-12T10:59:01.954Z</time></trkpt><trkpt lat="41.79870440962409" lon="14.105143796708116"><ele>799.0</ele><time>2026-04-12T10:59:02.954Z</time></trkpt><trkpt lat="41.798509649718184" lon="14.105164901029061"><ele>799.0</ele><time>2026-04-12T10:59:03.954Z</time></trkpt><trkpt lat="41.798322189777764" lon="14.105157928381201"><ele>798.6666666666666</ele><time>2026-04-12T10:59:04.954Z</time></trkpt><trkpt lat="41.79813469780598" lon="14.105173127782443"><ele>798.3333333333333</ele><time>2026-04-12T10:59:05.954Z</time></trkpt><trkpt lat="41.79794634676129" lon="14.10518839682377"><ele>798.0</ele><time>2026-04-12T10:59:06.954Z</time></trkpt><trkpt lat="41.79776089858582" lon="14.105204807826983"><ele>797.6666666666667</ele><time>2026-04-12T10:59:07.954Z</time></trkpt><trkpt lat="41.797570580421805" lon="14.105221567486433"><ele>797.3333333333334</ele><time>2026-04-12T10:59:08.954Z</time></trkpt><trkpt lat="41.79737515734926" lon="14.105238743560014"><ele>797.0</ele><time>2026-04-12T10:59:09.954Z</time></trkpt><trkpt lat="41.79718332285893" lon="14.10525560422362"><ele>797.0</ele><time>2026-04-12T10:59:10.954Z</time></trkpt><trkpt lat="41.79698836531437" lon="14.105271941443032"><ele>797.0</ele><time>2026-04-12T10:59:11.954Z</time></trkpt><trkpt lat="41.796802662211455" lon="14.105286038826954"><ele>797.0</ele><time>2026-04-12T10:59:12.954Z</time></trkpt><trkpt lat="41.79661396084052" lon="14.105300363819538"><ele>796.3333333333334</ele><time>2026-04-12T10:59:13.954Z</time></trkpt><trkpt lat="41.796427324038085" lon="14.105314532084737"><ele>795.6666666666667</ele><time>2026-04-12T10:59:14.954Z</time></trkpt><trkpt lat="41.79623801352522" lon="14.105328903320947"><ele>795.0</ele><time>2026-04-12T10:59:15.954Z</time></trkpt><trkpt lat="41.79604670618928" lon="14.105343969635165"><ele>795.0</ele><time>2026-04-12T10:59:16.954Z</time></trkpt><trkpt lat="41.79585718298808" lon="14.105376710758948"><ele>795.0</ele><time>2026-04-12T10:59:17.954Z</time></trkpt><trkpt lat="41.79566600558361" lon="14.105390070404194"><ele>795.0</ele><time>2026-04-12T10:59:18.954Z</time></trkpt><trkpt lat="41.79547820082233" lon="14.105403336632422"><ele>795.0</ele><time>2026-04-12T10:59:19.954Z</time></trkpt><trkpt lat="41.79528158820039" lon="14.105420034389589"><ele>795.0</ele><time>2026-04-12T10:59:20.954Z</time></trkpt><trkpt lat="41.79507347508781" lon="14.105431264685983"><ele>795.0</ele><time>2026-04-12T10:59:21.954Z</time></trkpt><trkpt lat="41.79488792872265" lon="14.105443437462577"><ele>794.6666666666667</ele><time>2026-04-12T10:59:22.954Z</time></trkpt><trkpt lat="41.79471025027187" lon="14.105456801324483"><ele>794.3333333333334</ele><time>2026-04-12T10:59:23.954Z</time></trkpt><trkpt lat="41.79453503742526" lon="14.105476628502833"><ele>794.0</ele><time>2026-04-12T10:59:24.954Z</time></trkpt><trkpt lat="41.794362344750134" lon="14.10548784960423"><ele>794.0</ele><time>2026-04-12T10:59:25.955Z</time></trkpt><trkpt lat="41.79419130463153" lon="14.105497515006997"><ele>794.0</ele><time>2026-04-12T10:59:26.955Z</time></trkpt><trkpt lat="41.79402428111578" lon="14.105510315315216"><ele>794.0</ele><time>2026-04-12T10:59:27.955Z</time></trkpt><trkpt lat="41.793861196504984" lon="14.105524703788033"><ele>794.0</ele><time>2026-04-12T10:59:28.954Z</time></trkpt><trkpt lat="41.79370421305311" lon="14.105539226655358"><ele>794.0</ele><time>2026-04-12T10:59:29.954Z</time></trkpt><trkpt lat="41.79354944328074" lon="14.105552185010602"><ele>794.0</ele><time>2026-04-12T10:59:30.955Z</time></trkpt><trkpt lat="41.79340822238114" lon="14.10556359671968"><ele>795.3333333333334</ele><time>2026-04-12T10:59:31.954Z</time></trkpt><trkpt lat="41.793258618341504" lon="14.105581944872958"><ele>796.6666666666667</ele><time>2026-04-12T10:59:32.954Z</time></trkpt><trkpt lat="41.79310689945632" lon="14.10555978950311"><ele>798.0</ele><time>2026-04-12T10:59:33.954Z</time></trkpt><trkpt lat="41.792959341139166" lon="14.10557357838656"><ele>798.0</ele><time>2026-04-12T10:59:34.955Z</time></trkpt><trkpt lat="41.79281635860232" lon="14.105588601077091"><ele>798.0</ele><time>2026-04-12T10:59:35.954Z</time></trkpt><trkpt lat="41.79267215974105" lon="14.105596599489232"><ele>798.0</ele><time>2026-04-12T10:59:36.954Z</time></trkpt><trkpt lat="41.792533594060316" lon="14.105612576229982"><ele>798.0</ele><time>2026-04-12T10:59:37.955Z</time></trkpt><trkpt lat="41.79239457769971" lon="14.105623339459619"><ele>797.75</ele><time>2026-04-12T10:59:38.955Z</time></trkpt><trkpt lat="41.79226377489031" lon="14.105637220621395"><ele>797.5</ele><time>2026-04-12T10:59:39.955Z</time></trkpt><trkpt lat="41.79213670585727" lon="14.10564871236741"><ele>797.25</ele><time>2026-04-12T10:59:40.954Z</time></trkpt><trkpt lat="41.79201036713752" lon="14.105658452421299"><ele>797.0</ele><time>2026-04-12T10:59:41.954Z</time></trkpt><trkpt lat="41.79186254678739" lon="14.105672443931567"><ele>796.5</ele><time>2026-04-12T10:59:42.954Z</time></trkpt><trkpt lat="41.79170894409668" lon="14.105679104074417"><ele>796.0</ele><time>2026-04-12T10:59:43.954Z</time></trkpt><trkpt lat="41.79156388057976" lon="14.105683245953946"><ele>795.5</ele><time>2026-04-12T10:59:44.954Z</time></trkpt><trkpt lat="41.79141952280505" lon="14.105699228041845"><ele>795.0</ele><time>2026-04-12T10:59:45.954Z</time></trkpt><trkpt lat="41.79129091829651" lon="14.105703695860065"><ele>795.0</ele><time>2026-04-12T10:59:46.954Z</time></trkpt><trkpt lat="41.79116327079509" lon="14.105707028750905"><ele>795.0</ele><time>2026-04-12T10:59:47.954Z</time></trkpt><trkpt lat="41.79104345459795" lon="14.105715010394327"><ele>795.0</ele><time>2026-04-12T10:59:48.954Z</time></trkpt><trkpt lat="41.79091211715101" lon="14.105728815480001"><ele>795.0</ele><time>2026-04-12T10:59:49.954Z</time></trkpt><trkpt lat="41.79076920340277" lon="14.105745159855964"><ele>794.6666666666667</ele><time>2026-04-12T10:59:50.954Z</time></trkpt><trkpt lat="41.790612814252206" lon="14.105758200709829"><ele>794.3333333333334</ele><time>2026-04-12T10:59:51.954Z</time></trkpt><trkpt lat="41.7904533474878" lon="14.105769611481488"><ele>794.0</ele><time>2026-04-12T10:59:52.954Z</time></trkpt><trkpt lat="41.790288547966945" lon="14.105785849843937"><ele>795.0</ele><time>2026-04-12T10:59:53.954Z</time></trkpt><trkpt lat="41.79011497957815" lon="14.105798904395485"><ele>796.0</ele><time>2026-04-12T10:59:54.954Z</time></trkpt><trkpt lat="41.789951523276635" lon="14.105813864866963"><ele>797.0</ele><time>2026-04-12T10:59:55.954Z</time></trkpt><trkpt lat="41.78980102145879" lon="14.105823501358897"><ele>797.0</ele><time>2026-04-12T10:59:56.954Z</time></trkpt><trkpt lat="41.78965435419679" lon="14.105809598925157"><ele>797.0</ele><time>2026-04-12T10:59:57.954Z</time></trkpt><trkpt lat="41.78952163326229" lon="14.105780336382127"><ele>797.0</ele><time>2026-04-12T10:59:58.954Z</time></trkpt><trkpt lat="41.78938948824025" lon="14.105737014847598"><ele>797.0</ele><time>2026-04-12T10:59:59.954Z</time></trkpt><trkpt lat="41.78926591977758" lon="14.1056925908332"><ele>797.0</ele><time>2026-04-12T11:00:00.954Z</time></trkpt><trkpt lat="41.78915265414875" lon="14.105638603353281"><ele>797.0</ele><time>2026-04-12T11:00:01.954Z</time></trkpt><trkpt lat="41.789051616463865" lon="14.10558430383812"><ele>797.0</ele><time>2026-04-12T11:00:02.954Z</time></trkpt><trkpt lat="41.78894047007385" lon="14.105551345136538"><ele>797.0</ele><time>2026-04-12T11:00:03.954Z</time></trkpt><trkpt lat="41.78881600811774" lon="14.10550471618001"><ele>797.0</ele><time>2026-04-12T11:00:04.954Z</time></trkpt><trkpt lat="41.78868212630967" lon="14.105464418590616"><ele>797.0</ele><time>2026-04-12T11:00:05.954Z</time></trkpt><trkpt lat="41.78855291480695" lon="14.105422462217689"><ele>797.0</ele><time>2026-04-12T11:00:06.954Z</time></trkpt><trkpt lat="41.78844783779817" lon="14.105383683000575"><ele>797.0</ele><time>2026-04-12T11:00:07.954Z</time></trkpt><trkpt lat="41.78834118787477" lon="14.105335094913848"><ele>796.8</ele><time>2026-04-12T11:00:08.954Z</time></trkpt><trkpt lat="41.78824841193304" lon="14.10528646496936"><ele>796.6</ele><time>2026-04-12T11:00:09.954Z</time></trkpt><trkpt lat="41.788187007941865" lon="14.105247762462609"><ele>796.4</ele><time>2026-04-12T11:00:10.954Z</time></trkpt><trkpt lat="41.78814866875125" lon="14.105104778661914"><ele>796.1999999999999</ele><time>2026-04-12T11:00:12.954Z</time></trkpt><trkpt lat="41.78814120836134" lon="14.104938102334987"><ele>796.0</ele><time>2026-04-12T11:00:13.954Z</time></trkpt><trkpt lat="41.78813630834435" lon="14.104717026120976"><ele>794.6666666666666</ele><time>2026-04-12T11:00:14.954Z</time></trkpt><trkpt lat="41.78814433914066" lon="14.10451827527669"><ele>793.3333333333333</ele><time>2026-04-12T11:00:15.954Z</time></trkpt><trkpt lat="41.78814216463914" lon="14.104330477900396"><ele>792.0</ele><time>2026-04-12T11:00:16.954Z</time></trkpt><trkpt lat="41.78803403439323" lon="14.104113543383518"><ele>792.3333333333333</ele><time>2026-04-12T11:00:17.954Z</time></trkpt><trkpt lat="41.78794035441558" lon="14.103884034059824"><ele>792.6666666666666</ele><time>2026-04-12T11:00:18.954Z</time></trkpt><trkpt lat="41.787839185173986" lon="14.10363461736303"><ele>793.0</ele><time>2026-04-12T11:00:19.954Z</time></trkpt><trkpt lat="41.78774494675096" lon="14.103403430376183"><ele>794.0</ele><time>2026-04-12T11:00:20.954Z</time></trkpt><trkpt lat="41.787682539296014" lon="14.10318612288055"><ele>795.0</ele><time>2026-04-12T11:00:21.954Z</time></trkpt><trkpt lat="41.78762188680407" lon="14.103028236409084"><ele>796.0</ele><time>2026-04-12T11:00:22.954Z</time></trkpt><trkpt lat="41.787571024310076" lon="14.10288577213263"><ele>797.0</ele><time>2026-04-12T11:00:23.954Z</time></trkpt><trkpt lat="41.7875385367875" lon="14.10273815800991"><ele>797.0</ele><time>2026-04-12T11:00:24.954Z</time></trkpt><trkpt lat="41.78754565420537" lon="14.102598733614736"><ele>797.0</ele><time>2026-04-12T11:00:25.954Z</time></trkpt><trkpt lat="41.78757077281356" lon="14.102486198196207"><ele>797.0</ele><time>2026-04-12T11:00:26.954Z</time></trkpt><trkpt lat="41.7876250730453" lon="14.102366294230888"><ele>797.0</ele><time>2026-04-12T11:00:27.954Z</time></trkpt><trkpt lat="41.787669944696454" lon="14.102262455142878"><ele>797.0</ele><time>2026-04-12T11:00:28.954Z</time></trkpt><trkpt lat="41.78768889239418" lon="14.102169216928413"><ele>798.4000000000001</ele><time>2026-04-12T11:00:29.954Z</time></trkpt><trkpt lat="41.7876575193373" lon="14.10204130075536"><ele>799.8000000000001</ele><time>2026-04-12T11:00:30.954Z</time></trkpt><trkpt lat="41.78758678162208" lon="14.101956047875754"><ele>801.2</ele><time>2026-04-12T11:00:31.954Z</time></trkpt><trkpt lat="41.78750123969833" lon="14.101878936615957"><ele>802.6</ele><time>2026-04-12T11:00:32.954Z</time></trkpt><trkpt lat="41.787404461512395" lon="14.10177723741235"><ele>804.0</ele><time>2026-04-12T11:00:33.954Z</time></trkpt><trkpt lat="41.787256087451944" lon="14.101677592010107"><ele>806.0</ele><time>2026-04-12T11:00:34.954Z</time></trkpt><trkpt lat="41.78711394756406" lon="14.101537094095871"><ele>808.0</ele><time>2026-04-12T11:00:35.954Z</time></trkpt><trkpt lat="41.78697649975885" lon="14.10143081078558"><ele>810.0</ele><time>2026-04-12T11:00:36.954Z</time></trkpt><trkpt lat="41.78685752857187" lon="14.101357114415471"><ele>808.2</ele><time>2026-04-12T11:00:37.954Z</time></trkpt><trkpt lat="41.78675792330073" lon="14.101290892005103"><ele>806.4</ele><time>2026-04-12T11:00:38.954Z</time></trkpt><trkpt lat="41.78666606711003" lon="14.101239551516441"><ele>804.5999999999999</ele><time>2026-04-12T11:00:39.954Z</time></trkpt><trkpt lat="41.786569462987316" lon="14.101197868245976"><ele>802.8</ele><time>2026-04-12T11:00:40.954Z</time></trkpt><trkpt lat="41.78647356689875" lon="14.10110542671874"><ele>801.0</ele><time>2026-04-12T11:00:41.954Z</time></trkpt><trkpt lat="41.78639338808773" lon="14.100995610449251"><ele>801.0</ele><time>2026-04-12T11:00:42.954Z</time></trkpt><trkpt lat="41.786301039298145" lon="14.10087559568376"><ele>801.0</ele><time>2026-04-12T11:00:43.954Z</time></trkpt><trkpt lat="41.78621036065855" lon="14.100772940978336"><ele>801.0</ele><time>2026-04-12T11:00:44.954Z</time></trkpt><trkpt lat="41.786110041779025" lon="14.10065709251213"><ele>801.0</ele><time>2026-04-12T11:00:45.954Z</time></trkpt><trkpt lat="41.78602072852767" lon="14.100562495466258"><ele>802.0</ele><time>2026-04-12T11:00:46.954Z</time></trkpt><trkpt lat="41.785923569512974" lon="14.100486102561737"><ele>803.0</ele><time>2026-04-12T11:00:47.954Z</time></trkpt><trkpt lat="41.785811539970084" lon="14.100458822136082"><ele>804.0</ele><time>2026-04-12T11:00:48.954Z</time></trkpt><trkpt lat="41.78570609558962" lon="14.100462625717471"><ele>805.0</ele><time>2026-04-12T11:00:49.954Z</time></trkpt><trkpt lat="41.78561941769518" lon="14.100451141714855"><ele>806.0</ele><time>2026-04-12T11:00:50.954Z</time></trkpt><trkpt lat="41.785524226354305" lon="14.100448447531646"><ele>806.0</ele><time>2026-04-12T11:00:51.954Z</time></trkpt><trkpt lat="41.78543994279193" lon="14.100447738635719"><ele>806.0</ele><time>2026-04-12T11:00:52.954Z</time></trkpt><trkpt lat="41.785318418043005" lon="14.100450344426392"><ele>806.0</ele><time>2026-04-12T11:00:53.954Z</time></trkpt><trkpt lat="41.785217951470244" lon="14.100431688427783"><ele>806.0</ele><time>2026-04-12T11:00:54.954Z</time></trkpt><trkpt lat="41.785113796099374" lon="14.100415328974114"><ele>806.0</ele><time>2026-04-12T11:00:55.954Z</time></trkpt><trkpt lat="41.78499277429091" lon="14.100384321792763"><ele>806.5</ele><time>2026-04-12T11:00:56.954Z</time></trkpt><trkpt lat="41.78485289122094" lon="14.100385447290085"><ele>807.0</ele><time>2026-04-12T11:00:57.954Z</time></trkpt><trkpt lat="41.78471528590067" lon="14.100374905486717"><ele>807.5</ele><time>2026-04-12T11:00:58.954Z</time></trkpt><trkpt lat="41.784560983503894" lon="14.100353251111255"><ele>808.0</ele><time>2026-04-12T11:00:59.954Z</time></trkpt><trkpt lat="41.784409259455394" lon="14.100340868655165"><ele>807.25</ele><time>2026-04-12T11:01:00.954Z</time></trkpt><trkpt lat="41.784259241197965" lon="14.100322569719966"><ele>806.5</ele><time>2026-04-12T11:01:01.954Z</time></trkpt><trkpt lat="41.78411778177029" lon="14.100297748012101"><ele>805.75</ele><time>2026-04-12T11:01:02.954Z</time></trkpt><trkpt lat="41.78398133756535" lon="14.10025353053234"><ele>805.0</ele><time>2026-04-12T11:01:03.954Z</time></trkpt><trkpt lat="41.78383553209477" lon="14.100173215587489"><ele>805.0</ele><time>2026-04-12T11:01:04.954Z</time></trkpt><trkpt lat="41.783673649395475" lon="14.100073357793432"><ele>805.0</ele><time>2026-04-12T11:01:05.954Z</time></trkpt><trkpt lat="41.78350649882915" lon="14.099977056971237"><ele>805.0</ele><time>2026-04-12T11:01:06.953Z</time></trkpt><trkpt lat="41.78351247015941" lon="14.099386759142401"><ele>809.0</ele><time>2026-04-12T11:01:07.953Z</time></trkpt><trkpt lat="41.7833427442977" lon="14.099276127063597"><ele>813.0</ele><time>2026-04-12T11:01:08.953Z</time></trkpt><trkpt lat="41.78317301765768" lon="14.099165494325694"><ele>817.0</ele><time>2026-04-12T11:01:09.953Z</time></trkpt><trkpt lat="41.78299544046513" lon="14.099092382602313"><ele>815.5</ele><time>2026-04-12T11:01:10.953Z</time></trkpt><trkpt lat="41.78281095191024" lon="14.099024504168316"><ele>814.0</ele><time>2026-04-12T11:01:11.953Z</time></trkpt><trkpt lat="41.78238402959422" lon="14.09970411304082"><ele>814.0</ele><time>2026-04-12T11:01:12.953Z</time></trkpt><trkpt lat="41.782231883118115" lon="14.099688760296026"><ele>814.0</ele><time>2026-04-12T11:01:13.953Z</time></trkpt><trkpt lat="41.782106332946164" lon="14.099654739398579"><ele>814.0</ele><time>2026-04-12T11:01:14.953Z</time></trkpt><trkpt lat="41.78199805931482" lon="14.099586269358985"><ele>814.0</ele><time>2026-04-12T11:01:15.953Z</time></trkpt><trkpt lat="41.78190614937581" lon="14.099492863319307"><ele>815.5</ele><time>2026-04-12T11:01:16.953Z</time></trkpt><trkpt lat="41.78182181148597" lon="14.099365810460066"><ele>817.0</ele><time>2026-04-12T11:01:17.953Z</time></trkpt><trkpt lat="41.78172158416668" lon="14.099228336661943"><ele>818.5</ele><time>2026-04-12T11:01:18.953Z</time></trkpt><trkpt lat="41.78160351585371" lon="14.099084156435884"><ele>820.0</ele><time>2026-04-12T11:01:19.953Z</time></trkpt><trkpt lat="41.781461532864625" lon="14.098912179967364"><ele>820.0</ele><time>2026-04-12T11:01:20.953Z</time></trkpt><trkpt lat="41.78129617484065" lon="14.098742761542997"><ele>820.0</ele><time>2026-04-12T11:01:21.953Z</time></trkpt><trkpt lat="41.78116317229741" lon="14.098628944137735"><ele>820.0</ele><time>2026-04-12T11:01:22.953Z</time></trkpt><trkpt lat="41.78104589834233" lon="14.09854228386834"><ele>817.6666666666666</ele><time>2026-04-12T11:01:23.953Z</time></trkpt><trkpt lat="41.780907271339856" lon="14.098466038520348"><ele>815.3333333333333</ele><time>2026-04-12T11:01:24.953Z</time></trkpt><trkpt lat="41.78074018997094" lon="14.09842138105502"><ele>813.0</ele><time>2026-04-12T11:01:25.953Z</time></trkpt><trkpt lat="41.780559205381856" lon="14.09839640236246"><ele>813.0</ele><time>2026-04-12T11:01:26.953Z</time></trkpt><trkpt lat="41.78037194078848" lon="14.09836211967317"><ele>813.0</ele><time>2026-04-12T11:01:27.953Z</time></trkpt><trkpt lat="41.780211915900104" lon="14.098327212535775"><ele>813.0</ele><time>2026-04-12T11:01:28.953Z</time></trkpt><trkpt lat="41.78005686713077" lon="14.098280634063212"><ele>815.6666666666667</ele><time>2026-04-12T11:01:29.953Z</time></trkpt><trkpt lat="41.7799003671382" lon="14.098220993758002"><ele>818.3333333333334</ele><time>2026-04-12T11:01:30.955Z</time></trkpt><trkpt lat="41.77974022186695" lon="14.098138587059644"><ele>821.0</ele><time>2026-04-12T11:01:31.955Z</time></trkpt><trkpt lat="41.77954115367423" lon="14.09803445601453"><ele>821.0</ele><time>2026-04-12T11:01:32.955Z</time></trkpt><trkpt lat="41.77936932440373" lon="14.097933655746237"><ele>821.0</ele><time>2026-04-12T11:01:33.954Z</time></trkpt><trkpt lat="41.77921036377433" lon="14.097826127712397"><ele>821.0</ele><time>2026-04-12T11:01:34.954Z</time></trkpt><trkpt lat="41.779058818147575" lon="14.097730274231667"><ele>817.3333333333334</ele><time>2026-04-12T11:01:35.954Z</time></trkpt><trkpt lat="41.7789117083083" lon="14.09762976010773"><ele>813.6666666666667</ele><time>2026-04-12T11:01:36.954Z</time></trkpt><trkpt lat="41.77877217439737" lon="14.09754449460081"><ele>810.0</ele><time>2026-04-12T11:01:37.954Z</time></trkpt><trkpt lat="41.77863445572004" lon="14.097460276754788"><ele>811.75</ele><time>2026-04-12T11:01:38.954Z</time></trkpt><trkpt lat="41.77850489147223" lon="14.09737768542838"><ele>813.5</ele><time>2026-04-12T11:01:39.954Z</time></trkpt><trkpt lat="41.77838246597945" lon="14.097287132943189"><ele>815.25</ele><time>2026-04-12T11:01:40.954Z</time></trkpt><trkpt lat="41.77826357230796" lon="14.097187878024727"><ele>817.0</ele><time>2026-04-12T11:01:41.954Z</time></trkpt><trkpt lat="41.77815189229675" lon="14.097097943161298"><ele>817.0</ele><time>2026-04-12T11:01:42.954Z</time></trkpt><trkpt lat="41.7780378969163" lon="14.096972702914488"><ele>817.0</ele><time>2026-04-12T11:01:43.954Z</time></trkpt><trkpt lat="41.777933987026316" lon="14.0968413069233"><ele>817.0</ele><time>2026-04-12T11:01:44.954Z</time></trkpt><trkpt lat="41.77781876231292" lon="14.09669466667903"><ele>817.0</ele><time>2026-04-12T11:01:45.954Z</time></trkpt><trkpt lat="41.77770751224294" lon="14.096565760100834"><ele>816.0</ele><time>2026-04-12T11:01:46.954Z</time></trkpt><trkpt lat="41.77759262598024" lon="14.096414736065256"><ele>815.0</ele><time>2026-04-12T11:01:47.954Z</time></trkpt><trkpt lat="41.77747273676772" lon="14.09629976475196"><ele>814.0</ele><time>2026-04-12T11:01:48.954Z</time></trkpt><trkpt lat="41.77736645028306" lon="14.096178391566703"><ele>813.0</ele><time>2026-04-12T11:01:49.954Z</time></trkpt><trkpt lat="41.77725319898709" lon="14.09605037351156"><ele>813.0</ele><time>2026-04-12T11:01:50.954Z</time></trkpt><trkpt lat="41.77714590166727" lon="14.095930085761863"><ele>813.0</ele><time>2026-04-12T11:01:51.954Z</time></trkpt><trkpt lat="41.777042850443365" lon="14.095826140726167"><ele>813.0</ele><time>2026-04-12T11:01:52.954Z</time></trkpt><trkpt lat="41.77693985232595" lon="14.095759017212016"><ele>813.0</ele><time>2026-04-12T11:01:53.954Z</time></trkpt><trkpt lat="41.77682790857766" lon="14.095691445925985"><ele>812.25</ele><time>2026-04-12T11:01:54.954Z</time></trkpt><trkpt lat="41.77671023578455" lon="14.095673618420195"><ele>811.5</ele><time>2026-04-12T11:01:55.954Z</time></trkpt><trkpt lat="41.77655807131773" lon="14.095665945808486"><ele>810.75</ele><time>2026-04-12T11:01:56.954Z</time></trkpt><trkpt lat="41.77640028305285" lon="14.095669549108935"><ele>810.0</ele><time>2026-04-12T11:01:57.954Z</time></trkpt><trkpt lat="41.77625165504593" lon="14.095664731183097"><ele>810.0</ele><time>2026-04-12T11:01:58.954Z</time></trkpt><trkpt lat="41.77611158499026" lon="14.095668567971362"><ele>810.0</ele><time>2026-04-12T11:01:59.954Z</time></trkpt><trkpt lat="41.775957056859745" lon="14.095681011478984"><ele>810.0</ele><time>2026-04-12T11:02:00.954Z</time></trkpt><trkpt lat="41.77580398878764" lon="14.095697175585823"><ele>810.0</ele><time>2026-04-12T11:02:01.954Z</time></trkpt><trkpt lat="41.77566270778783" lon="14.095723668367304"><ele>809.25</ele><time>2026-04-12T11:02:02.954Z</time></trkpt><trkpt lat="41.77552728983711" lon="14.095752441055527"><ele>808.5</ele><time>2026-04-12T11:02:03.953Z</time></trkpt><trkpt lat="41.77539703681071" lon="14.095781548572457"><ele>807.75</ele><time>2026-04-12T11:02:04.953Z</time></trkpt><trkpt lat="41.775269057270876" lon="14.09580307065732"><ele>807.0</ele><time>2026-04-12T11:02:05.953Z</time></trkpt><trkpt lat="41.775163171508225" lon="14.095812125025367"><ele>806.8333333333334</ele><time>2026-04-12T11:02:06.953Z</time></trkpt><trkpt lat="41.77506880773759" lon="14.09580698687167"><ele>806.6666666666667</ele><time>2026-04-12T11:02:07.953Z</time></trkpt><trkpt lat="41.77499661345423" lon="14.095827983796262"><ele>806.5</ele><time>2026-04-12T11:02:08.953Z</time></trkpt><trkpt lat="41.774935167815684" lon="14.095876717526577"><ele>806.3333333333334</ele><time>2026-04-12T11:02:09.953Z</time></trkpt><trkpt lat="41.77490255782489" lon="14.095951290804638"><ele>806.1666666666667</ele><time>2026-04-12T11:02:10.953Z</time></trkpt><trkpt lat="41.77487654138138" lon="14.096042946243227"><ele>806.0</ele><time>2026-04-12T11:02:11.953Z</time></trkpt><trkpt lat="41.774875986979175" lon="14.09614470152668"><ele>806.0</ele><time>2026-04-12T11:02:12.953Z</time></trkpt><trkpt lat="41.77486587046837" lon="14.096266084184615"><ele>806.0</ele><time>2026-04-12T11:02:13.953Z</time></trkpt><trkpt lat="41.77486089416648" lon="14.096415369942171"><ele>806.0</ele><time>2026-04-12T11:02:14.953Z</time></trkpt><trkpt lat="41.774849868090804" lon="14.096586026752787"><ele>806.0</ele><time>2026-04-12T11:02:15.953Z</time></trkpt><trkpt lat="41.77483779151972" lon="14.096783068140217"><ele>806.5</ele><time>2026-04-12T11:02:16.953Z</time></trkpt><trkpt lat="41.77480488470543" lon="14.097008519479145"><ele>807.0</ele><time>2026-04-12T11:02:17.953Z</time></trkpt><trkpt lat="41.77474083426465" lon="14.09718812232133"><ele>807.5</ele><time>2026-04-12T11:02:18.953Z</time></trkpt><trkpt lat="41.77471456995677" lon="14.097351989784062"><ele>808.0</ele><time>2026-04-12T11:02:19.953Z</time></trkpt><trkpt lat="41.77469820581853" lon="14.097468778435836"><ele>807.9999999999999</ele><time>2026-04-12T11:02:20.953Z</time></trkpt><trkpt lat="41.774672908075594" lon="14.097565024852571"><ele>808.0</ele><time>2026-04-12T11:02:21.953Z</time></trkpt><trkpt lat="41.77466345330497" lon="14.097652763494027"><ele>808.0</ele><time>2026-04-12T11:02:23.953Z</time></trkpt><trkpt lat="41.7746807883425" lon="14.097734980328319"><ele>808.0</ele><time>2026-04-12T11:02:25.953Z</time></trkpt><trkpt lat="41.77477247824599" lon="14.097771393738402"><ele>807.9999999999999</ele><time>2026-04-12T11:02:26.953Z</time></trkpt><trkpt lat="41.77485407688848" lon="14.097783297232235"><ele>808.0</ele><time>2026-04-12T11:02:27.953Z</time></trkpt><trkpt lat="41.77494500362432" lon="14.097790452001409"><ele>808.0</ele><time>2026-04-12T11:02:28.953Z</time></trkpt><trkpt lat="41.77502962434452" lon="14.097804976980044"><ele>808.0</ele><time>2026-04-12T11:02:29.953Z</time></trkpt><trkpt lat="41.77513359620685" lon="14.097824295605008"><ele>808.0</ele><time>2026-04-12T11:02:30.953Z</time></trkpt><trkpt lat="41.77524409476243" lon="14.097878029631591"><ele>808.0</ele><time>2026-04-12T11:02:31.953Z</time></trkpt><trkpt lat="41.77537636535212" lon="14.0979338501977"><ele>808.0</ele><time>2026-04-12T11:02:32.953Z</time></trkpt><trkpt lat="41.77550895903425" lon="14.09796967623294"><ele>807.5</ele><time>2026-04-12T11:02:33.953Z</time></trkpt><trkpt lat="41.7756374737382" lon="14.098042519563963"><ele>807.0</ele><time>2026-04-12T11:02:34.953Z</time></trkpt><trkpt lat="41.77575921695855" lon="14.098134407714623"><ele>806.5</ele><time>2026-04-12T11:02:35.953Z</time></trkpt><trkpt lat="41.77588576866354" lon="14.09823668579427"><ele>806.0</ele><time>2026-04-12T11:02:36.953Z</time></trkpt><trkpt lat="41.77601297415804" lon="14.098342026454734"><ele>805.5</ele><time>2026-04-12T11:02:37.953Z</time></trkpt><trkpt lat="41.77612974105662" lon="14.098446945795141"><ele>805.0</ele><time>2026-04-12T11:02:38.953Z</time></trkpt><trkpt lat="41.77624416155708" lon="14.098533937499102"><ele>804.5</ele><time>2026-04-12T11:02:39.953Z</time></trkpt><trkpt lat="41.77633929702495" lon="14.098648081652888"><ele>804.0</ele><time>2026-04-12T11:02:40.953Z</time></trkpt><trkpt lat="41.77643714052619" lon="14.09873295772387"><ele>804.0</ele><time>2026-04-12T11:02:41.953Z</time></trkpt><trkpt lat="41.77651285164498" lon="14.098810316840506"><ele>804.0</ele><time>2026-04-12T11:02:42.953Z</time></trkpt><trkpt lat="41.776556072247494" lon="14.098881483180143"><ele>804.0</ele><time>2026-04-12T11:02:43.953Z</time></trkpt><trkpt lat="41.776499644688855" lon="14.099106567090152"><ele>804.0</ele><time>2026-04-12T11:02:46.953Z</time></trkpt><trkpt lat="41.7764118892955" lon="14.09915227868451"><ele>804.0</ele><time>2026-04-12T11:02:47.953Z</time></trkpt><trkpt lat="41.776321919687895" lon="14.099211395256145"><ele>804.0</ele><time>2026-04-12T11:02:48.953Z</time></trkpt><trkpt lat="41.776222152658086" lon="14.099233729287475"><ele>804.0</ele><time>2026-04-12T11:02:49.953Z</time></trkpt><trkpt lat="41.77612362676266" lon="14.099258049086938"><ele>804.0</ele><time>2026-04-12T11:02:50.953Z</time></trkpt><trkpt lat="41.77602906798143" lon="14.09930300733846"><ele>804.0</ele><time>2026-04-12T11:02:51.953Z</time></trkpt><trkpt lat="41.77595724602996" lon="14.099418487797815"><ele>804.0</ele><time>2026-04-12T11:02:52.953Z</time></trkpt><trkpt lat="41.77586697318989" lon="14.099511144364106"><ele>804.0</ele><time>2026-04-12T11:02:53.953Z</time></trkpt><trkpt lat="41.77579220629067" lon="14.099620603502432"><ele>804.0</ele><time>2026-04-12T11:02:54.953Z</time></trkpt><trkpt lat="41.77572530295269" lon="14.099742288756094"><ele>804.0</ele><time>2026-04-12T11:02:55.953Z</time></trkpt><trkpt lat="41.77567026668447" lon="14.099881561502185"><ele>804.0</ele><time>2026-04-12T11:02:56.953Z</time></trkpt><trkpt lat="41.77562570104348" lon="14.100026663744185"><ele>804.25</ele><time>2026-04-12T11:02:57.953Z</time></trkpt><trkpt lat="41.77559935290001" lon="14.100174524884897"><ele>804.5</ele><time>2026-04-12T11:02:58.953Z</time></trkpt><trkpt lat="41.77558822503506" lon="14.100320751209217"><ele>804.75</ele><time>2026-04-12T11:02:59.953Z</time></trkpt><trkpt lat="41.775600128282306" lon="14.100472555241671"><ele>805.0</ele><time>2026-04-12T11:03:00.953Z</time></trkpt><trkpt lat="41.77561959565714" lon="14.100624456013085"><ele>805.2</ele><time>2026-04-12T11:03:01.953Z</time></trkpt><trkpt lat="41.77565305791118" lon="14.100765445147747"><ele>805.4</ele><time>2026-04-12T11:03:02.953Z</time></trkpt><trkpt lat="41.77568129540423" lon="14.100901549940316"><ele>805.5999999999999</ele><time>2026-04-12T11:03:03.953Z</time></trkpt><trkpt lat="41.77573707626721" lon="14.101020535076877"><ele>805.8</ele><time>2026-04-12T11:03:04.953Z</time></trkpt><trkpt lat="41.77581538017335" lon="14.101111076644612"><ele>806.0</ele><time>2026-04-12T11:03:05.953Z</time></trkpt><trkpt lat="41.77589803758273" lon="14.101181041838913"><ele>806.0</ele><time>2026-04-12T11:03:06.953Z</time></trkpt><trkpt lat="41.77598138618058" lon="14.101234948882535"><ele>806.0</ele><time>2026-04-12T11:03:07.953Z</time></trkpt><trkpt lat="41.77606830678227" lon="14.101281580187447"><ele>806.0</ele><time>2026-04-12T11:03:08.953Z</time></trkpt><trkpt lat="41.77615704551499" lon="14.101297966858898"><ele>806.0</ele><time>2026-04-12T11:03:09.953Z</time></trkpt><trkpt lat="41.77624645823237" lon="14.101326160549684"><ele>806.0</ele><time>2026-04-12T11:03:10.953Z</time></trkpt><trkpt lat="41.776338601142086" lon="14.101322434606805"><ele>806.0</ele><time>2026-04-12T11:03:11.953Z</time></trkpt><trkpt lat="41.77643791607671" lon="14.101327988275216"><ele>806.0</ele><time>2026-04-12T11:03:12.953Z</time></trkpt><trkpt lat="41.77652784587403" lon="14.101272205873581"><ele>806.0</ele><time>2026-04-12T11:03:13.953Z</time></trkpt><trkpt lat="41.776594704569746" lon="14.101155526923732"><ele>806.0</ele><time>2026-04-12T11:03:14.953Z</time></trkpt><trkpt lat="41.77661185271235" lon="14.101018373685452"><ele>806.0</ele><time>2026-04-12T11:03:15.953Z</time></trkpt><trkpt lat="41.77661201701898" lon="14.100905861586563"><ele>806.0</ele><time>2026-04-12T11:03:16.953Z</time></trkpt><trkpt lat="41.77661231451305" lon="14.10080819860017"><ele>806.0</ele><time>2026-04-12T11:03:17.953Z</time></trkpt><trkpt lat="41.77660856273036" lon="14.100689204924022"><ele>806.0</ele><time>2026-04-12T11:03:19.953Z</time></trkpt><trkpt lat="41.7768035122029" lon="14.10058698103908"><ele>806.0</ele><time>2026-04-12T11:03:59.954Z</time></trkpt><trkpt lat="41.77674292908397" lon="14.100448239454384"><ele>805.8333333333334</ele><time>2026-04-12T11:05:30.953Z</time></trkpt><trkpt lat="41.77680617942375" lon="14.10046759108426"><ele>805.6666666666667</ele><time>2026-04-12T11:06:22.952Z</time></trkpt><trkpt lat="41.77672568886108" lon="14.10060662399279"><ele>805.5</ele><time>2026-04-12T11:08:18.951Z</time></trkpt><trkpt lat="41.7767732304498" lon="14.100546424140319"><ele>805.3333333333333</ele><time>2026-04-12T11:08:37.952Z</time></trkpt><trkpt lat="41.776788831385495" lon="14.100459820359248"><ele>805.1666666666666</ele><time>2026-04-12T11:11:27.968Z</time></trkpt><trkpt lat="41.7768185266591" lon="14.100537835811288"><ele>805.0</ele><time>2026-04-12T11:11:42.968Z</time></trkpt><trkpt lat="41.77674172410508" lon="14.100581590216628"><ele>805.0</ele><time>2026-04-12T11:12:39.967Z</time></trkpt><trkpt lat="41.7766496399214" lon="14.1006043262069"><ele>805.0</ele><time>2026-04-12T11:12:40.967Z</time></trkpt><trkpt lat="41.77658610308919" lon="14.100615161789793"><ele>805.0</ele><time>2026-04-12T11:12:58.968Z</time></trkpt><trkpt lat="41.77655575844458" lon="14.10046038176057"><ele>805.0</ele><time>2026-04-12T11:13:00.968Z</time></trkpt><trkpt lat="41.77652034266631" lon="14.100314073814616"><ele>805.0</ele><time>2026-04-12T11:13:01.968Z</time></trkpt><trkpt lat="41.77648520498983" lon="14.100164193362945"><ele>805.0</ele><time>2026-04-12T11:13:02.968Z</time></trkpt><trkpt lat="41.77643596315129" lon="14.100016925728742"><ele>805.0</ele><time>2026-04-12T11:13:03.968Z</time></trkpt><trkpt lat="41.776379530379344" lon="14.099846409057138"><ele>805.0</ele><time>2026-04-12T11:13:04.968Z</time></trkpt><trkpt lat="41.7763371785278" lon="14.099683796436992"><ele>805.0</ele><time>2026-04-12T11:13:05.968Z</time></trkpt><trkpt lat="41.776315865358505" lon="14.099544667404645"><ele>804.8333333333333</ele><time>2026-04-12T11:13:06.968Z</time></trkpt><trkpt lat="41.77631498509882" lon="14.099414265353788"><ele>804.6666666666666</ele><time>2026-04-12T11:13:07.968Z</time></trkpt><trkpt lat="41.776348692183795" lon="14.099312511239425"><ele>804.5</ele><time>2026-04-12T11:13:08.968Z</time></trkpt><trkpt lat="41.77639848800388" lon="14.099211454866373"><ele>804.3333333333333</ele><time>2026-04-12T11:13:09.968Z</time></trkpt><trkpt lat="41.77647394697348" lon="14.099142027593102"><ele>804.1666666666666</ele><time>2026-04-12T11:13:10.968Z</time></trkpt><trkpt lat="41.776556478946155" lon="14.099113014468868"><ele>804.0</ele><time>2026-04-12T11:13:11.968Z</time></trkpt><trkpt lat="41.77661984788976" lon="14.099091604274573"><ele>804.0</ele><time>2026-04-12T11:13:12.968Z</time></trkpt><trkpt lat="41.77669268287548" lon="14.099066668991904"><ele>804.0</ele><time>2026-04-12T11:13:13.968Z</time></trkpt><trkpt lat="41.77675873179348" lon="14.099077138543075"><ele>804.0</ele><time>2026-04-12T11:13:14.968Z</time></trkpt><trkpt lat="41.77684197575634" lon="14.099127531271636"><ele>804.0</ele><time>2026-04-12T11:13:15.968Z</time></trkpt><trkpt lat="41.77693203642943" lon="14.099212559821517"><ele>804.0</ele><time>2026-04-12T11:13:16.968Z</time></trkpt><trkpt lat="41.77703741736834" lon="14.09931464296722"><ele>804.5</ele><time>2026-04-12T11:13:17.968Z</time></trkpt><trkpt lat="41.77715020419794" lon="14.099430321072585"><ele>805.0</ele><time>2026-04-12T11:13:18.968Z</time></trkpt><trkpt lat="41.77728225425437" lon="14.099525192029722"><ele>805.5</ele><time>2026-04-12T11:13:19.968Z</time></trkpt><trkpt lat="41.777428751541926" lon="14.09959839938493"><ele>806.0</ele><time>2026-04-12T11:13:20.968Z</time></trkpt><trkpt lat="41.77757466367502" lon="14.099644017520875"><ele>806.0</ele><time>2026-04-12T11:13:21.968Z</time></trkpt><trkpt lat="41.77773069488581" lon="14.099694050521006"><ele>806.0</ele><time>2026-04-12T11:13:22.968Z</time></trkpt><trkpt lat="41.77787909534596" lon="14.09975153396425"><ele>806.0</ele><time>2026-04-12T11:13:23.968Z</time></trkpt><trkpt lat="41.77802299195251" lon="14.099803079689751"><ele>806.0</ele><time>2026-04-12T11:13:24.968Z</time></trkpt><trkpt lat="41.77815840358255" lon="14.09985072301265"><ele>806.0</ele><time>2026-04-12T11:13:25.968Z</time></trkpt><trkpt lat="41.77829614137749" lon="14.099901083737628"><ele>806.0</ele><time>2026-04-12T11:13:26.968Z</time></trkpt><trkpt lat="41.77842677691429" lon="14.09996044154625"><ele>806.0</ele><time>2026-04-12T11:13:27.968Z</time></trkpt><trkpt lat="41.778564305547356" lon="14.100006412136242"><ele>805.5</ele><time>2026-04-12T11:13:28.968Z</time></trkpt><trkpt lat="41.7787078809077" lon="14.100034903276477"><ele>805.0</ele><time>2026-04-12T11:13:29.968Z</time></trkpt><trkpt lat="41.77884741507604" lon="14.100022016370726"><ele>804.5</ele><time>2026-04-12T11:13:30.968Z</time></trkpt><trkpt lat="41.77898487137168" lon="14.099971362435726"><ele>804.0</ele><time>2026-04-12T11:13:31.968Z</time></trkpt><trkpt lat="41.779120238989606" lon="14.099859949259384"><ele>804.0</ele><time>2026-04-12T11:13:32.968Z</time></trkpt><trkpt lat="41.77925306530004" lon="14.099758391818124"><ele>804.0</ele><time>2026-04-12T11:13:33.968Z</time></trkpt><trkpt lat="41.77939129982924" lon="14.099664177812741"><ele>804.0</ele><time>2026-04-12T11:13:34.968Z</time></trkpt><trkpt lat="41.779507731008906" lon="14.099578605955283"><ele>804.0</ele><time>2026-04-12T11:13:35.968Z</time></trkpt><trkpt lat="41.77962051805802" lon="14.099501327602155"><ele>803.25</ele><time>2026-04-12T11:13:36.968Z</time></trkpt><trkpt lat="41.77973936886759" lon="14.099416923321186"><ele>802.5</ele><time>2026-04-12T11:13:37.968Z</time></trkpt><trkpt lat="41.77983815012352" lon="14.099360530504063"><ele>801.75</ele><time>2026-04-12T11:13:38.968Z</time></trkpt><trkpt lat="41.779951738778855" lon="14.099301070208922"><ele>801.0</ele><time>2026-04-12T11:13:39.968Z</time></trkpt><trkpt lat="41.780036713806" lon="14.099284045456042"><ele>801.0</ele><time>2026-04-12T11:13:40.968Z</time></trkpt><trkpt lat="41.7801135413587" lon="14.099312820372713"><ele>801.0</ele><time>2026-04-12T11:13:41.968Z</time></trkpt><trkpt lat="41.78019060269621" lon="14.099397626988402"><ele>801.0</ele><time>2026-04-12T11:13:42.968Z</time></trkpt><trkpt lat="41.7802835432714" lon="14.09952090907893"><ele>801.0</ele><time>2026-04-12T11:13:43.968Z</time></trkpt><trkpt lat="41.78034784560428" lon="14.099652060101656"><ele>801.0</ele><time>2026-04-12T11:13:44.968Z</time></trkpt><trkpt lat="41.78041677701448" lon="14.09979643091816"><ele>801.25</ele><time>2026-04-12T11:13:45.968Z</time></trkpt><trkpt lat="41.780489577910565" lon="14.099943327639515"><ele>801.5</ele><time>2026-04-12T11:13:46.968Z</time></trkpt><trkpt lat="41.7805596992709" lon="14.100086152593608"><ele>801.75</ele><time>2026-04-12T11:13:47.968Z</time></trkpt><trkpt lat="41.78063104652457" lon="14.100250467809069"><ele>802.0</ele><time>2026-04-12T11:13:48.968Z</time></trkpt><trkpt lat="41.780694525936894" lon="14.10042668126943"><ele>802.0</ele><time>2026-04-12T11:13:49.968Z</time></trkpt><trkpt lat="41.78072289219687" lon="14.100609151715947"><ele>802.0</ele><time>2026-04-12T11:13:50.968Z</time></trkpt><trkpt lat="41.78070385728148" lon="14.100791527640508"><ele>802.0</ele><time>2026-04-12T11:13:51.968Z</time></trkpt><trkpt lat="41.78065520373022" lon="14.100969401164042"><ele>802.0</ele><time>2026-04-12T11:13:52.968Z</time></trkpt><trkpt lat="41.78059782839955" lon="14.101156948947946"><ele>801.6666666666666</ele><time>2026-04-12T11:13:53.968Z</time></trkpt><trkpt lat="41.78054263154729" lon="14.101352080116378"><ele>801.3333333333333</ele><time>2026-04-12T11:13:54.968Z</time></trkpt><trkpt lat="41.780496181471776" lon="14.101545741531114"><ele>801.0</ele><time>2026-04-12T11:13:55.968Z</time></trkpt><trkpt lat="41.780438619688105" lon="14.101737703107817"><ele>801.0</ele><time>2026-04-12T11:13:56.968Z</time></trkpt><trkpt lat="41.78038886577804" lon="14.10191952703167"><ele>801.0</ele><time>2026-04-12T11:13:57.968Z</time></trkpt><trkpt lat="41.780343980768116" lon="14.10208854400762"><ele>801.0</ele><time>2026-04-12T11:13:58.968Z</time></trkpt><trkpt lat="41.780298684371836" lon="14.102243832582776"><ele>801.0</ele><time>2026-04-12T11:13:59.968Z</time></trkpt><trkpt lat="41.78025786962028" lon="14.102398805420274"><ele>801.0</ele><time>2026-04-12T11:14:00.968Z</time></trkpt><trkpt lat="41.780232584737746" lon="14.102544016456633"><ele>801.0</ele><time>2026-04-12T11:14:01.968Z</time></trkpt><trkpt lat="41.7802283971199" lon="14.10267854373245"><ele>801.0</ele><time>2026-04-12T11:14:02.968Z</time></trkpt><trkpt lat="41.780258463233956" lon="14.1027962420539"><ele>801.0</ele><time>2026-04-12T11:14:03.968Z</time></trkpt><trkpt lat="41.78033356888728" lon="14.102893872897067"><ele>801.0</ele><time>2026-04-12T11:14:04.968Z</time></trkpt><trkpt lat="41.78040307106089" lon="14.102954806173242"><ele>801.0</ele><time>2026-04-12T11:14:05.968Z</time></trkpt><trkpt lat="41.78045827466758" lon="14.10299837880576"><ele>801.0</ele><time>2026-04-12T11:14:06.968Z</time></trkpt><trkpt lat="41.780477324026165" lon="14.103136632875408"><ele>801.0</ele><time>2026-04-12T11:14:08.968Z</time></trkpt><trkpt lat="41.78044098046894" lon="14.103251795336735"><ele>801.0</ele><time>2026-04-12T11:14:09.968Z</time></trkpt><trkpt lat="41.780400195075" lon="14.103399124607096"><ele>801.0</ele><time>2026-04-12T11:14:10.968Z</time></trkpt><trkpt lat="41.78035938724082" lon="14.103548080892445"><ele>801.0</ele><time>2026-04-12T11:14:11.968Z</time></trkpt><trkpt lat="41.780321075658364" lon="14.103700583436675"><ele>801.0</ele><time>2026-04-12T11:14:12.968Z</time></trkpt><trkpt lat="41.78028499232098" lon="14.103840638585297"><ele>801.0</ele><time>2026-04-12T11:14:13.968Z</time></trkpt><trkpt lat="41.78024429115972" lon="14.103974492736477"><ele>801.0</ele><time>2026-04-12T11:14:14.968Z</time></trkpt><trkpt lat="41.780205412244634" lon="14.104103790457065"><ele>801.0</ele><time>2026-04-12T11:14:15.968Z</time></trkpt><trkpt lat="41.78017644146562" lon="14.10423547295233"><ele>801.1999999999999</ele><time>2026-04-12T11:14:16.967Z</time></trkpt><trkpt lat="41.780142991360684" lon="14.104365921278028"><ele>801.4</ele><time>2026-04-12T11:14:17.967Z</time></trkpt><trkpt lat="41.78010595792672" lon="14.104470224174296"><ele>801.6</ele><time>2026-04-12T11:14:18.967Z</time></trkpt><trkpt lat="41.78007825946791" lon="14.10456853097614"><ele>801.8</ele><time>2026-04-12T11:14:19.967Z</time></trkpt><trkpt lat="41.78004264402395" lon="14.10471521950722"><ele>802.0</ele><time>2026-04-12T11:14:21.967Z</time></trkpt><trkpt lat="41.78007511478493" lon="14.104859021753217"><ele>801.9999999999999</ele><time>2026-04-12T11:14:23.967Z</time></trkpt><trkpt lat="41.78012974373415" lon="14.104916784237453"><ele>802.0</ele><time>2026-04-12T11:14:24.967Z</time></trkpt><trkpt lat="41.780188920139665" lon="14.104978891281291"><ele>802.0</ele><time>2026-04-12T11:14:25.967Z</time></trkpt><trkpt lat="41.78024468012294" lon="14.105054637518718"><ele>802.0</ele><time>2026-04-12T11:14:26.967Z</time></trkpt><trkpt lat="41.7803073298396" lon="14.105142981868061"><ele>801.9999999999999</ele><time>2026-04-12T11:14:27.967Z</time></trkpt><trkpt lat="41.78037715845496" lon="14.105217400972158"><ele>802.0</ele><time>2026-04-12T11:14:28.967Z</time></trkpt><trkpt lat="41.78044031463477" lon="14.105295497635389"><ele>801.6</ele><time>2026-04-12T11:14:29.967Z</time></trkpt><trkpt lat="41.78051045449617" lon="14.105378041773681"><ele>801.2</ele><time>2026-04-12T11:14:30.967Z</time></trkpt><trkpt lat="41.7805734511991" lon="14.105478306724352"><ele>800.8</ele><time>2026-04-12T11:14:31.967Z</time></trkpt><trkpt lat="41.7806408209998" lon="14.105567791438155"><ele>800.4</ele><time>2026-04-12T11:14:32.967Z</time></trkpt><trkpt lat="41.78070638294506" lon="14.105659886169043"><ele>800.0</ele><time>2026-04-12T11:14:33.967Z</time></trkpt><trkpt lat="41.78076919801891" lon="14.105744762451026"><ele>800.2</ele><time>2026-04-12T11:14:34.967Z</time></trkpt><trkpt lat="41.780841407712465" lon="14.1058349222349"><ele>800.4</ele><time>2026-04-12T11:14:35.967Z</time></trkpt><trkpt lat="41.78091410609051" lon="14.105923731575364"><ele>800.5999999999999</ele><time>2026-04-12T11:14:36.967Z</time></trkpt><trkpt lat="41.78098482189527" lon="14.106005441989392"><ele>800.8</ele><time>2026-04-12T11:14:37.967Z</time></trkpt><trkpt lat="41.781055523360514" lon="14.106105185414606"><ele>801.0</ele><time>2026-04-12T11:14:38.967Z</time></trkpt><trkpt lat="41.7811182105688" lon="14.106205582036916"><ele>801.0</ele><time>2026-04-12T11:14:39.967Z</time></trkpt><trkpt lat="41.78117103211051" lon="14.106285371903903"><ele>801.0</ele><time>2026-04-12T11:14:40.967Z</time></trkpt><trkpt lat="41.78122297045438" lon="14.106342505082186"><ele>801.0</ele><time>2026-04-12T11:14:41.967Z</time></trkpt><trkpt lat="41.781264486062184" lon="14.106411116159808"><ele>801.0</ele><time>2026-04-12T11:14:42.967Z</time></trkpt><trkpt lat="41.78131295756546" lon="14.10646643633532"><ele>801.0</ele><time>2026-04-12T11:14:43.967Z</time></trkpt><trkpt lat="41.78136822471099" lon="14.106542710073905"><ele>801.0</ele><time>2026-04-12T11:14:45.967Z</time></trkpt><trkpt lat="41.78137194098667" lon="14.106637799951008"><ele>801.0</ele><time>2026-04-12T11:14:47.967Z</time></trkpt><trkpt lat="41.78136651835316" lon="14.106757436947683"><ele>800.8</ele><time>2026-04-12T11:14:48.967Z</time></trkpt><trkpt lat="41.78137044668553" lon="14.10688758314919"><ele>800.5999999999999</ele><time>2026-04-12T11:14:49.968Z</time></trkpt><trkpt lat="41.7813847602931" lon="14.10703809850099"><ele>800.4</ele><time>2026-04-12T11:14:50.968Z</time></trkpt><trkpt lat="41.78139853727835" lon="14.10717609600817"><ele>800.2</ele><time>2026-04-12T11:14:51.968Z</time></trkpt><trkpt lat="41.78139503072588" lon="14.107316072218106"><ele>800.0</ele><time>2026-04-12T11:14:52.968Z</time></trkpt><trkpt lat="41.781391891528585" lon="14.107451215890896"><ele>799.6</ele><time>2026-04-12T11:14:53.968Z</time></trkpt><trkpt lat="41.78138823847734" lon="14.107581023274097"><ele>799.2</ele><time>2026-04-12T11:14:54.968Z</time></trkpt><trkpt lat="41.78138740590919" lon="14.107708531032994"><ele>798.8</ele><time>2026-04-12T11:14:55.968Z</time></trkpt><trkpt lat="41.78138321658186" lon="14.10783792407262"><ele>798.4</ele><time>2026-04-12T11:14:56.968Z</time></trkpt><trkpt lat="41.78138197782694" lon="14.107966368762542"><ele>798.0</ele><time>2026-04-12T11:14:57.968Z</time></trkpt><trkpt lat="41.7813794484571" lon="14.1080991865832"><ele>798.5999999999999</ele><time>2026-04-12T11:14:58.969Z</time></trkpt><trkpt lat="41.78137966951091" lon="14.10824657092416"><ele>799.1999999999999</ele><time>2026-04-12T11:14:59.968Z</time></trkpt><trkpt lat="41.78138927658326" lon="14.108376649646754"><ele>799.8</ele><time>2026-04-12T11:15:00.968Z</time></trkpt><trkpt lat="41.78140083247087" lon="14.1084974231542"><ele>800.4</ele><time>2026-04-12T11:15:01.968Z</time></trkpt><trkpt lat="41.781410245238696" lon="14.108609977752574"><ele>801.0</ele><time>2026-04-12T11:15:02.968Z</time></trkpt><trkpt lat="41.7814076372793" lon="14.108724451599697"><ele>801.0</ele><time>2026-04-12T11:15:03.968Z</time></trkpt><trkpt lat="41.78137974598463" lon="14.108837488699535"><ele>801.0</ele><time>2026-04-12T11:15:04.968Z</time></trkpt><trkpt lat="41.781352766369686" lon="14.108922732920176"><ele>801.0</ele><time>2026-04-12T11:15:05.968Z</time></trkpt><trkpt lat="41.78140222832598" lon="14.10906012276835"><ele>801.0</ele><time>2026-04-12T11:15:07.968Z</time></trkpt><trkpt lat="41.78146410023128" lon="14.109108487481397"><ele>801.0</ele><time>2026-04-12T11:15:08.968Z</time></trkpt><trkpt lat="41.78153724960485" lon="14.109130013206405"><ele>801.0</ele><time>2026-04-12T11:15:09.968Z</time></trkpt><trkpt lat="41.781582284435636" lon="14.109208492262175"><ele>801.8</ele><time>2026-04-12T11:15:10.968Z</time></trkpt><trkpt lat="41.78161742152799" lon="14.109324378236284"><ele>802.5999999999999</ele><time>2026-04-12T11:15:11.968Z</time></trkpt><trkpt lat="41.781646228272606" lon="14.109449400518207"><ele>803.4</ele><time>2026-04-12T11:15:12.968Z</time></trkpt><trkpt lat="41.78167665422713" lon="14.109572014170823"><ele>804.2</ele><time>2026-04-12T11:15:13.968Z</time></trkpt><trkpt lat="41.781704259331555" lon="14.109668352295241"><ele>805.0</ele><time>2026-04-12T11:15:14.968Z</time></trkpt><trkpt lat="41.78172759682852" lon="14.109780988655812"><ele>804.9999999999999</ele><time>2026-04-12T11:15:15.968Z</time></trkpt><trkpt lat="41.7817548900165" lon="14.109870919411442"><ele>805.0</ele><time>2026-04-12T11:15:16.968Z</time></trkpt><trkpt lat="41.78184011815047" lon="14.109985733067562"><ele>805.0</ele><time>2026-04-12T11:15:18.968Z</time></trkpt><trkpt lat="41.781913915343075" lon="14.109995246227523"><ele>805.0</ele><time>2026-04-12T11:15:19.968Z</time></trkpt><trkpt lat="41.78197989364112" lon="14.109920086350058"><ele>804.9999999999999</ele><time>2026-04-12T11:15:20.968Z</time></trkpt><trkpt lat="41.78206461539108" lon="14.109875280961093"><ele>805.0</ele><time>2026-04-12T11:15:21.968Z</time></trkpt><trkpt lat="41.78219922288552" lon="14.10980619966056"><ele>804.75</ele><time>2026-04-12T11:15:22.968Z</time></trkpt><trkpt lat="41.78235103911645" lon="14.109732058818334"><ele>804.5</ele><time>2026-04-12T11:15:23.968Z</time></trkpt><trkpt lat="41.78249046619195" lon="14.109650609297681"><ele>804.25</ele><time>2026-04-12T11:15:24.968Z</time></trkpt><trkpt lat="41.78260732566771" lon="14.109587987415619"><ele>804.0</ele><time>2026-04-12T11:15:25.968Z</time></trkpt><trkpt lat="41.782663462619745" lon="14.109443025644923"><ele>804.5</ele><time>2026-04-12T11:15:26.968Z</time></trkpt><trkpt lat="41.78271608714651" lon="14.109382426425418"><ele>805.0</ele><time>2026-04-12T11:15:27.968Z</time></trkpt><trkpt lat="41.78275682405064" lon="14.109317673586098"><ele>805.5</ele><time>2026-04-12T11:15:28.968Z</time></trkpt><trkpt lat="41.78281363793973" lon="14.109274311899984"><ele>806.0</ele><time>2026-04-12T11:15:32.968Z</time></trkpt><trkpt lat="41.78289674690157" lon="14.109352358605863"><ele>806.5</ele><time>2026-04-12T11:15:34.968Z</time></trkpt><trkpt lat="41.78295151340896" lon="14.109429968085564"><ele>807.0</ele><time>2026-04-12T11:15:36.968Z</time></trkpt><trkpt lat="41.78303493764713" lon="14.109541370363655"><ele>807.0</ele><time>2026-04-12T11:15:38.968Z</time></trkpt><trkpt lat="41.7831187788222" lon="14.109668037128674"><ele>807.0</ele><time>2026-04-12T11:15:39.968Z</time></trkpt><trkpt lat="41.783201794700126" lon="14.109769882667033"><ele>807.0</ele><time>2026-04-12T11:15:40.968Z</time></trkpt><trkpt lat="41.78329278855646" lon="14.10981635100398"><ele>807.0</ele><time>2026-04-12T11:15:41.968Z</time></trkpt><trkpt lat="41.78340439764525" lon="14.10980761078046"><ele>807.0</ele><time>2026-04-12T11:15:43.968Z</time></trkpt><trkpt lat="41.78343912503202" lon="14.109945771344993"><ele>808.0</ele><time>2026-04-12T11:15:46.968Z</time></trkpt><trkpt lat="41.78341871589426" lon="14.110077519860269"><ele>809.0</ele><time>2026-04-12T11:15:47.968Z</time></trkpt><trkpt lat="41.783399845697275" lon="14.110206224542472"><ele>810.0</ele><time>2026-04-12T11:15:48.968Z</time></trkpt><trkpt lat="41.78339983576975" lon="14.110309651270667"><ele>811.0</ele><time>2026-04-12T11:15:49.968Z</time></trkpt><trkpt lat="41.78343804615749" lon="14.110420760154883"><ele>812.0</ele><time>2026-04-12T11:15:50.968Z</time></trkpt><trkpt lat="41.78350790362883" lon="14.11049978151452"><ele>812.0</ele><time>2026-04-12T11:15:51.968Z</time></trkpt><trkpt lat="41.78360245585305" lon="14.11052561887122"><ele>812.0</ele><time>2026-04-12T11:15:52.968Z</time></trkpt><trkpt lat="41.783702543258805" lon="14.110536350169442"><ele>812.0</ele><time>2026-04-12T11:15:53.968Z</time></trkpt><trkpt lat="41.78381553653503" lon="14.110575310743725"><ele>812.0</ele><time>2026-04-12T11:15:54.968Z</time></trkpt><trkpt lat="41.78393361851503" lon="14.110621398962316"><ele>812.0</ele><time>2026-04-12T11:15:55.968Z</time></trkpt><trkpt lat="41.7840498467987" lon="14.110704848106263"><ele>813.3333333333334</ele><time>2026-04-12T11:15:56.968Z</time></trkpt><trkpt lat="41.78413218500869" lon="14.110785521890463"><ele>814.6666666666667</ele><time>2026-04-12T11:15:57.968Z</time></trkpt><trkpt lat="41.78420013892503" lon="14.11086870113931"><ele>816.0</ele><time>2026-04-12T11:15:58.968Z</time></trkpt><trkpt lat="41.784268099757895" lon="14.110941780815077"><ele>817.3333333333333</ele><time>2026-04-12T11:15:59.968Z</time></trkpt><trkpt lat="41.784319025736245" lon="14.111004432288544"><ele>818.6666666666666</ele><time>2026-04-12T11:16:00.968Z</time></trkpt><trkpt lat="41.78436242116905" lon="14.111076802618847"><ele>820.0</ele><time>2026-04-12T11:16:02.968Z</time></trkpt><trkpt lat="41.78434369487098" lon="14.111188776642315"><ele>820.0</ele><time>2026-04-12T11:16:05.968Z</time></trkpt><trkpt lat="41.78427216178749" lon="14.111292504765816"><ele>820.0</ele><time>2026-04-12T11:16:07.968Z</time></trkpt><trkpt lat="41.7841978809851" lon="14.11126131990269"><ele>820.0</ele><time>2026-04-12T11:16:08.968Z</time></trkpt><trkpt lat="41.78411389054052" lon="14.111192951306085"><ele>820.0</ele><time>2026-04-12T11:16:09.968Z</time></trkpt><trkpt lat="41.78402907162157" lon="14.11113936517703"><ele>820.0</ele><time>2026-04-12T11:16:10.968Z</time></trkpt><trkpt lat="41.78392351995939" lon="14.111097231930572"><ele>820.0</ele><time>2026-04-12T11:16:11.968Z</time></trkpt><trkpt lat="41.783833808044555" lon="14.111103633029915"><ele>820.0</ele><time>2026-04-12T11:16:12.967Z</time></trkpt><trkpt lat="41.78373146949301" lon="14.111159090996246"><ele>820.0</ele><time>2026-04-12T11:16:13.967Z</time></trkpt><trkpt lat="41.78365382091914" lon="14.111256585971676"><ele>820.0</ele><time>2026-04-12T11:16:14.967Z</time></trkpt><trkpt lat="41.78355466221821" lon="14.111364212824501"><ele>820.0</ele><time>2026-04-12T11:16:15.967Z</time></trkpt><trkpt lat="41.783451279570436" lon="14.111480736494721"><ele>820.25</ele><time>2026-04-12T11:16:16.967Z</time></trkpt><trkpt lat="41.783346288701736" lon="14.111569742189596"><ele>820.5</ele><time>2026-04-12T11:16:17.967Z</time></trkpt><trkpt lat="41.783215055285396" lon="14.111640111496447"><ele>820.75</ele><time>2026-04-12T11:16:18.967Z</time></trkpt><trkpt lat="41.78308171816336" lon="14.11169326098833"><ele>821.0</ele><time>2026-04-12T11:16:19.967Z</time></trkpt><trkpt lat="41.7829549394317" lon="14.111739213414493"><ele>824.25</ele><time>2026-04-12T11:16:20.967Z</time></trkpt><trkpt lat="41.782831999309046" lon="14.11175740749587"><ele>827.5</ele><time>2026-04-12T11:16:21.967Z</time></trkpt><trkpt lat="41.78271832620878" lon="14.111788708928673"><ele>830.75</ele><time>2026-04-12T11:16:22.967Z</time></trkpt><trkpt lat="41.78260604311377" lon="14.111845653614138"><ele>834.0</ele><time>2026-04-12T11:16:23.967Z</time></trkpt><trkpt lat="41.78251313224466" lon="14.1119065545781"><ele>834.2</ele><time>2026-04-12T11:16:24.967Z</time></trkpt><trkpt lat="41.782432749861215" lon="14.11197380806306"><ele>834.4000000000001</ele><time>2026-04-12T11:16:25.967Z</time></trkpt><trkpt lat="41.78234402921012" lon="14.112050857000018"><ele>834.6</ele><time>2026-04-12T11:16:26.967Z</time></trkpt><trkpt lat="41.78226281471032" lon="14.112138731461046"><ele>834.8</ele><time>2026-04-12T11:16:27.967Z</time></trkpt><trkpt lat="41.782191790505046" lon="14.112234466570044"><ele>835.0</ele><time>2026-04-12T11:16:28.967Z</time></trkpt><trkpt lat="41.782110306076895" lon="14.1123374823762"><ele>836.9999999999999</ele><time>2026-04-12T11:16:29.967Z</time></trkpt><trkpt lat="41.78206118856744" lon="14.112428552375823"><ele>839.0</ele><time>2026-04-12T11:16:30.967Z</time></trkpt><trkpt lat="41.78201126931927" lon="14.112498017230383"><ele>841.0</ele><time>2026-04-12T11:16:31.967Z</time></trkpt><trkpt lat="41.782009205517625" lon="14.11262770382831"><ele>843.0</ele><time>2026-04-12T11:16:33.967Z</time></trkpt><trkpt lat="41.7820573404841" lon="14.112707181324438"><ele>844.9999999999999</ele><time>2026-04-12T11:16:34.967Z</time></trkpt><trkpt lat="41.78211695837505" lon="14.112778186392644"><ele>847.0</ele><time>2026-04-12T11:16:35.967Z</time></trkpt><trkpt lat="41.78216670277208" lon="14.11285007764919"><ele>847.0</ele><time>2026-04-12T11:16:36.967Z</time></trkpt><trkpt lat="41.78224211662975" lon="14.11295982632065"><ele>847.0</ele><time>2026-04-12T11:16:37.967Z</time></trkpt><trkpt lat="41.782292700589245" lon="14.113034298196782"><ele>847.0</ele><time>2026-04-12T11:16:38.967Z</time></trkpt><trkpt lat="41.78236791214521" lon="14.11303747425892"><ele>847.0</ele><time>2026-04-12T11:16:39.967Z</time></trkpt><trkpt lat="41.78245023922636" lon="14.112962070490514"><ele>847.0</ele><time>2026-04-12T11:16:40.967Z</time></trkpt><trkpt lat="41.78251934381537" lon="14.11287814992293"><ele>846.9999999999999</ele><time>2026-04-12T11:16:41.967Z</time></trkpt><trkpt lat="41.78257872923355" lon="14.112833677035288"><ele>847.0</ele><time>2026-04-12T11:16:42.967Z</time></trkpt><trkpt lat="41.78265709737615" lon="14.11288010624966"><ele>847.0</ele><time>2026-04-12T11:16:44.967Z</time></trkpt><trkpt lat="41.78270107582038" lon="14.112965082774398"><ele>847.0</ele><time>2026-04-12T11:16:45.967Z</time></trkpt><trkpt lat="41.78273319730567" lon="14.113058639270195"><ele>846.9999999999999</ele><time>2026-04-12T11:16:46.967Z</time></trkpt><trkpt lat="41.78270985579479" lon="14.113157614698887"><ele>847.0</ele><time>2026-04-12T11:16:56.968Z</time></trkpt><trkpt lat="41.78267735590486" lon="14.113026141686557"><ele>847.0</ele><time>2026-04-12T11:18:29.967Z</time></trkpt><trkpt lat="41.78266861506592" lon="14.113119716521592"><ele>847.0</ele><time>2026-04-12T11:23:10.966Z</time></trkpt><trkpt lat="41.782666981312865" lon="14.113000946153925"><ele>847.0</ele><time>2026-04-12T11:23:12.112Z</time></trkpt><trkpt lat="41.78261665419206" lon="14.11305770472341"><ele>847.0</ele><time>2026-04-12T11:42:13.999Z</time></trkpt></trkseg></trk></gpx>